<?xml version="1.0" encoding="UTF-8" standalone="no" ?>
<gpx xmlns="http://www.topografix.com/GPX/1/1" xmlns:xsi="http://www.w3.org/2001/XMLSchema-instance" xsi:schemaLocation="http://www.topografix.com/GPX/1/1 http://www.topografix.com/GPX/1/1/gpx.xsd" version="1.1" creator="VisuGPX - https://www.visugpx.com">
  <metadata>
    <name>BLIGNY SUR OUCHE</name>
    <desc><![CDATA[Randonnée au départ de Bligny sur ouche, en boucle.]]></desc>
  </metadata>
  <trk>
    <name><![CDATA[ONmove 510/710 - 17/03/2014]]></name>
    <trkseg>
      <trkpt lat="47.10579" lon="4.67017">
        <ele>1328</ele>
        <time>2014-03-17T14:23:24Z</time>
      </trkpt>
      <trkpt lat="47.10578" lon="4.67019">
        <ele>1328</ele>
        <time>2014-03-17T14:23:26Z</time>
      </trkpt>
      <trkpt lat="47.10576" lon="4.67018">
        <ele>1328</ele>
        <time>2014-03-17T14:23:28Z</time>
      </trkpt>
      <trkpt lat="47.10571" lon="4.6702">
        <ele>1328</ele>
        <time>2014-03-17T14:23:32Z</time>
      </trkpt>
      <trkpt lat="47.1057" lon="4.67022">
        <ele>1328</ele>
        <time>2014-03-17T14:23:35Z</time>
      </trkpt>
      <trkpt lat="47.10568" lon="4.67023">
        <ele>1328</ele>
        <time>2014-03-17T14:23:37Z</time>
      </trkpt>
      <trkpt lat="47.10564" lon="4.67026">
        <ele>1328</ele>
        <time>2014-03-17T14:23:41Z</time>
      </trkpt>
      <trkpt lat="47.10562" lon="4.67027">
        <ele>1328</ele>
        <time>2014-03-17T14:23:43Z</time>
      </trkpt>
      <trkpt lat="47.10561" lon="4.6703">
        <ele>1328</ele>
        <time>2014-03-17T14:23:45Z</time>
      </trkpt>
      <trkpt lat="47.10561" lon="4.67036">
        <ele>1328</ele>
        <time>2014-03-17T14:23:50Z</time>
      </trkpt>
      <trkpt lat="47.1056" lon="4.67038">
        <ele>1328</ele>
        <time>2014-03-17T14:23:52Z</time>
      </trkpt>
      <trkpt lat="47.10558" lon="4.6704">
        <ele>1328</ele>
        <time>2014-03-17T14:23:54Z</time>
      </trkpt>
      <trkpt lat="47.10553" lon="4.67044">
        <ele>1328</ele>
        <time>2014-03-17T14:23:58Z</time>
      </trkpt>
      <trkpt lat="47.10551" lon="4.67046">
        <ele>1328</ele>
        <time>2014-03-17T14:24:01Z</time>
      </trkpt>
      <trkpt lat="47.10549" lon="4.67048">
        <ele>1328</ele>
        <time>2014-03-17T14:24:03Z</time>
      </trkpt>
      <trkpt lat="47.10545" lon="4.6705">
        <ele>1328</ele>
        <time>2014-03-17T14:24:07Z</time>
      </trkpt>
      <trkpt lat="47.10543" lon="4.67052">
        <ele>1328</ele>
        <time>2014-03-17T14:24:09Z</time>
      </trkpt>
      <trkpt lat="47.10539" lon="4.67054">
        <ele>1328</ele>
        <time>2014-03-17T14:24:11Z</time>
      </trkpt>
      <trkpt lat="47.10535" lon="4.67056">
        <ele>1328</ele>
        <time>2014-03-17T14:24:16Z</time>
      </trkpt>
      <trkpt lat="47.10533" lon="4.67057">
        <ele>1328</ele>
        <time>2014-03-17T14:24:18Z</time>
      </trkpt>
      <trkpt lat="47.10531" lon="4.67058">
        <ele>1328</ele>
        <time>2014-03-17T14:24:20Z</time>
      </trkpt>
      <trkpt lat="47.10527" lon="4.67061">
        <ele>1328</ele>
        <time>2014-03-17T14:24:24Z</time>
      </trkpt>
      <trkpt lat="47.10525" lon="4.67062">
        <ele>1328</ele>
        <time>2014-03-17T14:24:27Z</time>
      </trkpt>
      <trkpt lat="47.10524" lon="4.67063">
        <ele>1328</ele>
        <time>2014-03-17T14:24:29Z</time>
      </trkpt>
      <trkpt lat="47.10519" lon="4.67064">
        <ele>1328</ele>
        <time>2014-03-17T14:24:33Z</time>
      </trkpt>
      <trkpt lat="47.10517" lon="4.67063">
        <ele>1328</ele>
        <time>2014-03-17T14:24:35Z</time>
      </trkpt>
      <trkpt lat="47.10513" lon="4.67064">
        <ele>1328</ele>
        <time>2014-03-17T14:24:37Z</time>
      </trkpt>
      <trkpt lat="47.10509" lon="4.67066">
        <ele>1328</ele>
        <time>2014-03-17T14:24:42Z</time>
      </trkpt>
      <trkpt lat="47.10507" lon="4.67067">
        <ele>1328</ele>
        <time>2014-03-17T14:24:44Z</time>
      </trkpt>
      <trkpt lat="47.10504" lon="4.67068">
        <ele>1328</ele>
        <time>2014-03-17T14:24:46Z</time>
      </trkpt>
      <trkpt lat="47.10499" lon="4.67071">
        <ele>1328</ele>
        <time>2014-03-17T14:24:50Z</time>
      </trkpt>
      <trkpt lat="47.10497" lon="4.67071">
        <ele>1328</ele>
        <time>2014-03-17T14:24:53Z</time>
      </trkpt>
      <trkpt lat="47.10495" lon="4.67072">
        <ele>1328</ele>
        <time>2014-03-17T14:24:55Z</time>
      </trkpt>
      <trkpt lat="47.1049" lon="4.67074">
        <ele>1328</ele>
        <time>2014-03-17T14:24:59Z</time>
      </trkpt>
      <trkpt lat="47.10488" lon="4.67075">
        <ele>1328</ele>
        <time>2014-03-17T14:25:01Z</time>
      </trkpt>
      <trkpt lat="47.10485" lon="4.67077">
        <ele>1328</ele>
        <time>2014-03-17T14:25:03Z</time>
      </trkpt>
      <trkpt lat="47.10481" lon="4.67078">
        <ele>1328</ele>
        <time>2014-03-17T14:25:08Z</time>
      </trkpt>
      <trkpt lat="47.10479" lon="4.67079">
        <ele>1328</ele>
        <time>2014-03-17T14:25:10Z</time>
      </trkpt>
      <trkpt lat="47.10477" lon="4.6708">
        <ele>1328</ele>
        <time>2014-03-17T14:25:12Z</time>
      </trkpt>
      <trkpt lat="47.10471" lon="4.67082">
        <ele>1328</ele>
        <time>2014-03-17T14:25:16Z</time>
      </trkpt>
      <trkpt lat="47.1047" lon="4.67083">
        <ele>1328</ele>
        <time>2014-03-17T14:25:19Z</time>
      </trkpt>
      <trkpt lat="47.10468" lon="4.67084">
        <ele>1328</ele>
        <time>2014-03-17T14:25:21Z</time>
      </trkpt>
      <trkpt lat="47.10464" lon="4.67086">
        <ele>1328</ele>
        <time>2014-03-17T14:25:25Z</time>
      </trkpt>
      <trkpt lat="47.10461" lon="4.67087">
        <ele>1328</ele>
        <time>2014-03-17T14:25:27Z</time>
      </trkpt>
      <trkpt lat="47.1046" lon="4.67088">
        <ele>1328</ele>
        <time>2014-03-17T14:25:30Z</time>
      </trkpt>
      <trkpt lat="47.10458" lon="4.67089">
        <ele>1328</ele>
        <time>2014-03-17T14:25:32Z</time>
      </trkpt>
      <trkpt lat="47.10454" lon="4.67092">
        <ele>1328</ele>
        <time>2014-03-17T14:25:36Z</time>
      </trkpt>
      <trkpt lat="47.10452" lon="4.67093">
        <ele>1328</ele>
        <time>2014-03-17T14:25:38Z</time>
      </trkpt>
      <trkpt lat="47.10449" lon="4.67095">
        <ele>1328</ele>
        <time>2014-03-17T14:25:40Z</time>
      </trkpt>
      <trkpt lat="47.10445" lon="4.67097">
        <ele>1328</ele>
        <time>2014-03-17T14:25:45Z</time>
      </trkpt>
      <trkpt lat="47.10443" lon="4.67098">
        <ele>1328</ele>
        <time>2014-03-17T14:25:47Z</time>
      </trkpt>
      <trkpt lat="47.10441" lon="4.67098">
        <ele>1328</ele>
        <time>2014-03-17T14:25:49Z</time>
      </trkpt>
      <trkpt lat="47.10437" lon="4.671">
        <ele>1328</ele>
        <time>2014-03-17T14:25:53Z</time>
      </trkpt>
      <trkpt lat="47.10435" lon="4.67102">
        <ele>1328</ele>
        <time>2014-03-17T14:25:55Z</time>
      </trkpt>
      <trkpt lat="47.10433" lon="4.67103">
        <ele>1328</ele>
        <time>2014-03-17T14:25:58Z</time>
      </trkpt>
      <trkpt lat="47.10428" lon="4.67105">
        <ele>1328</ele>
        <time>2014-03-17T14:26:02Z</time>
      </trkpt>
      <trkpt lat="47.10426" lon="4.67106">
        <ele>1328</ele>
        <time>2014-03-17T14:26:04Z</time>
      </trkpt>
      <trkpt lat="47.10425" lon="4.67107">
        <ele>1328</ele>
        <time>2014-03-17T14:26:06Z</time>
      </trkpt>
      <trkpt lat="47.10419" lon="4.6711">
        <ele>1328</ele>
        <time>2014-03-17T14:26:11Z</time>
      </trkpt>
      <trkpt lat="47.10417" lon="4.67111">
        <ele>1328</ele>
        <time>2014-03-17T14:26:13Z</time>
      </trkpt>
      <trkpt lat="47.10416" lon="4.67111">
        <ele>1328</ele>
        <time>2014-03-17T14:26:15Z</time>
      </trkpt>
      <trkpt lat="47.10413" lon="4.67114">
        <ele>1328</ele>
        <time>2014-03-17T14:26:19Z</time>
      </trkpt>
      <trkpt lat="47.1041" lon="4.67117">
        <ele>1328</ele>
        <time>2014-03-17T14:26:21Z</time>
      </trkpt>
      <trkpt lat="47.10409" lon="4.67119">
        <ele>1328</ele>
        <time>2014-03-17T14:26:24Z</time>
      </trkpt>
      <trkpt lat="47.10405" lon="4.67123">
        <ele>1328</ele>
        <time>2014-03-17T14:26:28Z</time>
      </trkpt>
      <trkpt lat="47.10404" lon="4.67125">
        <ele>1328</ele>
        <time>2014-03-17T14:26:30Z</time>
      </trkpt>
      <trkpt lat="47.10402" lon="4.67127">
        <ele>1328</ele>
        <time>2014-03-17T14:26:32Z</time>
      </trkpt>
      <trkpt lat="47.10398" lon="4.67132">
        <ele>1328</ele>
        <time>2014-03-17T14:26:37Z</time>
      </trkpt>
      <trkpt lat="47.10396" lon="4.67134">
        <ele>1328</ele>
        <time>2014-03-17T14:26:39Z</time>
      </trkpt>
      <trkpt lat="47.10395" lon="4.67136">
        <ele>1328</ele>
        <time>2014-03-17T14:26:41Z</time>
      </trkpt>
      <trkpt lat="47.10391" lon="4.67139">
        <ele>1328</ele>
        <time>2014-03-17T14:26:45Z</time>
      </trkpt>
      <trkpt lat="47.10389" lon="4.67142">
        <ele>1328</ele>
        <time>2014-03-17T14:26:47Z</time>
      </trkpt>
      <trkpt lat="47.10387" lon="4.67144">
        <ele>1328</ele>
        <time>2014-03-17T14:26:50Z</time>
      </trkpt>
      <trkpt lat="47.10384" lon="4.67147">
        <ele>1328</ele>
        <time>2014-03-17T14:26:54Z</time>
      </trkpt>
      <trkpt lat="47.10382" lon="4.67148">
        <ele>1328</ele>
        <time>2014-03-17T14:26:56Z</time>
      </trkpt>
      <trkpt lat="47.10381" lon="4.67149">
        <ele>1328</ele>
        <time>2014-03-17T14:26:58Z</time>
      </trkpt>
      <trkpt lat="47.10379" lon="4.67152">
        <ele>1328</ele>
        <time>2014-03-17T14:27:03Z</time>
      </trkpt>
      <trkpt lat="47.10377" lon="4.67154">
        <ele>1328</ele>
        <time>2014-03-17T14:27:05Z</time>
      </trkpt>
      <trkpt lat="47.10374" lon="4.67158">
        <ele>1328</ele>
        <time>2014-03-17T14:27:07Z</time>
      </trkpt>
      <trkpt lat="47.10371" lon="4.67163">
        <ele>1328</ele>
        <time>2014-03-17T14:27:11Z</time>
      </trkpt>
      <trkpt lat="47.10369" lon="4.67166">
        <ele>1328</ele>
        <time>2014-03-17T14:27:13Z</time>
      </trkpt>
      <trkpt lat="47.10367" lon="4.67167">
        <ele>1328</ele>
        <time>2014-03-17T14:27:16Z</time>
      </trkpt>
      <trkpt lat="47.10365" lon="4.67171">
        <ele>1328</ele>
        <time>2014-03-17T14:27:20Z</time>
      </trkpt>
      <trkpt lat="47.10364" lon="4.67173">
        <ele>1328</ele>
        <time>2014-03-17T14:27:22Z</time>
      </trkpt>
      <trkpt lat="47.10363" lon="4.67174">
        <ele>1328</ele>
        <time>2014-03-17T14:27:24Z</time>
      </trkpt>
      <trkpt lat="47.10359" lon="4.67179">
        <ele>1328</ele>
        <time>2014-03-17T14:27:29Z</time>
      </trkpt>
      <trkpt lat="47.10358" lon="4.6718">
        <ele>1328</ele>
        <time>2014-03-17T14:27:31Z</time>
      </trkpt>
      <trkpt lat="47.10356" lon="4.67182">
        <ele>1328</ele>
        <time>2014-03-17T14:27:33Z</time>
      </trkpt>
      <trkpt lat="47.10354" lon="4.67183">
        <ele>1328</ele>
        <time>2014-03-17T14:27:35Z</time>
      </trkpt>
      <trkpt lat="47.10348" lon="4.67187">
        <ele>1328</ele>
        <time>2014-03-17T14:27:39Z</time>
      </trkpt>
      <trkpt lat="47.10347" lon="4.67189">
        <ele>1328</ele>
        <time>2014-03-17T14:27:42Z</time>
      </trkpt>
      <trkpt lat="47.10345" lon="4.67191">
        <ele>1328</ele>
        <time>2014-03-17T14:27:44Z</time>
      </trkpt>
      <trkpt lat="47.10342" lon="4.67194">
        <ele>1328</ele>
        <time>2014-03-17T14:27:48Z</time>
      </trkpt>
      <trkpt lat="47.1034" lon="4.67196">
        <ele>1328</ele>
        <time>2014-03-17T14:27:50Z</time>
      </trkpt>
      <trkpt lat="47.10338" lon="4.67199">
        <ele>1328</ele>
        <time>2014-03-17T14:27:52Z</time>
      </trkpt>
      <trkpt lat="47.10335" lon="4.67202">
        <ele>1328</ele>
        <time>2014-03-17T14:27:57Z</time>
      </trkpt>
      <trkpt lat="47.10333" lon="4.67204">
        <ele>1328</ele>
        <time>2014-03-17T14:27:59Z</time>
      </trkpt>
      <trkpt lat="47.10332" lon="4.67206">
        <ele>1328</ele>
        <time>2014-03-17T14:28:01Z</time>
      </trkpt>
      <trkpt lat="47.10327" lon="4.67209">
        <ele>1328</ele>
        <time>2014-03-17T14:28:05Z</time>
      </trkpt>
      <trkpt lat="47.10325" lon="4.6721">
        <ele>1328</ele>
        <time>2014-03-17T14:28:07Z</time>
      </trkpt>
      <trkpt lat="47.10324" lon="4.67212">
        <ele>1328</ele>
        <time>2014-03-17T14:28:10Z</time>
      </trkpt>
      <trkpt lat="47.10321" lon="4.67215">
        <ele>1328</ele>
        <time>2014-03-17T14:28:14Z</time>
      </trkpt>
      <trkpt lat="47.10319" lon="4.67216">
        <ele>1328</ele>
        <time>2014-03-17T14:28:16Z</time>
      </trkpt>
      <trkpt lat="47.10317" lon="4.67217">
        <ele>1328</ele>
        <time>2014-03-17T14:28:18Z</time>
      </trkpt>
      <trkpt lat="47.10313" lon="4.6722">
        <ele>1328</ele>
        <time>2014-03-17T14:28:23Z</time>
      </trkpt>
      <trkpt lat="47.10312" lon="4.67221">
        <ele>1328</ele>
        <time>2014-03-17T14:28:25Z</time>
      </trkpt>
      <trkpt lat="47.1031" lon="4.67223">
        <ele>1328</ele>
        <time>2014-03-17T14:28:27Z</time>
      </trkpt>
      <trkpt lat="47.10307" lon="4.67225">
        <ele>1328</ele>
        <time>2014-03-17T14:28:31Z</time>
      </trkpt>
      <trkpt lat="47.10304" lon="4.67226">
        <ele>1328</ele>
        <time>2014-03-17T14:28:33Z</time>
      </trkpt>
      <trkpt lat="47.10303" lon="4.67228">
        <ele>1328</ele>
        <time>2014-03-17T14:28:36Z</time>
      </trkpt>
      <trkpt lat="47.103" lon="4.67231">
        <ele>1328</ele>
        <time>2014-03-17T14:28:40Z</time>
      </trkpt>
      <trkpt lat="47.10298" lon="4.67232">
        <ele>1328</ele>
        <time>2014-03-17T14:28:42Z</time>
      </trkpt>
      <trkpt lat="47.10297" lon="4.67234">
        <ele>1328</ele>
        <time>2014-03-17T14:28:44Z</time>
      </trkpt>
      <trkpt lat="47.10294" lon="4.67238">
        <ele>1328</ele>
        <time>2014-03-17T14:28:49Z</time>
      </trkpt>
      <trkpt lat="47.10293" lon="4.6724">
        <ele>1328</ele>
        <time>2014-03-17T14:28:51Z</time>
      </trkpt>
      <trkpt lat="47.10292" lon="4.67243">
        <ele>1328</ele>
        <time>2014-03-17T14:28:53Z</time>
      </trkpt>
      <trkpt lat="47.1029" lon="4.67247">
        <ele>1328</ele>
        <time>2014-03-17T14:28:57Z</time>
      </trkpt>
      <trkpt lat="47.10289" lon="4.67251">
        <ele>1328</ele>
        <time>2014-03-17T14:28:59Z</time>
      </trkpt>
      <trkpt lat="47.10288" lon="4.67253">
        <ele>1328</ele>
        <time>2014-03-17T14:29:02Z</time>
      </trkpt>
      <trkpt lat="47.10287" lon="4.67259">
        <ele>1328</ele>
        <time>2014-03-17T14:29:06Z</time>
      </trkpt>
      <trkpt lat="47.10287" lon="4.67261">
        <ele>1328</ele>
        <time>2014-03-17T14:29:08Z</time>
      </trkpt>
      <trkpt lat="47.10286" lon="4.67264">
        <ele>1328</ele>
        <time>2014-03-17T14:29:10Z</time>
      </trkpt>
      <trkpt lat="47.10285" lon="4.6727">
        <ele>1328</ele>
        <time>2014-03-17T14:29:15Z</time>
      </trkpt>
      <trkpt lat="47.10285" lon="4.67272">
        <ele>1328</ele>
        <time>2014-03-17T14:29:17Z</time>
      </trkpt>
      <trkpt lat="47.10284" lon="4.67275">
        <ele>1328</ele>
        <time>2014-03-17T14:29:19Z</time>
      </trkpt>
      <trkpt lat="47.10283" lon="4.6728">
        <ele>1328</ele>
        <time>2014-03-17T14:29:23Z</time>
      </trkpt>
      <trkpt lat="47.10282" lon="4.67283">
        <ele>1328</ele>
        <time>2014-03-17T14:29:25Z</time>
      </trkpt>
      <trkpt lat="47.10281" lon="4.67286">
        <ele>1328</ele>
        <time>2014-03-17T14:29:28Z</time>
      </trkpt>
      <trkpt lat="47.10281" lon="4.67292">
        <ele>1328</ele>
        <time>2014-03-17T14:29:32Z</time>
      </trkpt>
      <trkpt lat="47.1028" lon="4.67295">
        <ele>1328</ele>
        <time>2014-03-17T14:29:34Z</time>
      </trkpt>
      <trkpt lat="47.1028" lon="4.67298">
        <ele>1328</ele>
        <time>2014-03-17T14:29:36Z</time>
      </trkpt>
      <trkpt lat="47.10279" lon="4.67302">
        <ele>1328</ele>
        <time>2014-03-17T14:29:38Z</time>
      </trkpt>
      <trkpt lat="47.10278" lon="4.67307">
        <ele>1328</ele>
        <time>2014-03-17T14:29:43Z</time>
      </trkpt>
      <trkpt lat="47.10277" lon="4.6731">
        <ele>1328</ele>
        <time>2014-03-17T14:29:45Z</time>
      </trkpt>
      <trkpt lat="47.10277" lon="4.67313">
        <ele>1328</ele>
        <time>2014-03-17T14:29:47Z</time>
      </trkpt>
      <trkpt lat="47.10276" lon="4.6732">
        <ele>1328</ele>
        <time>2014-03-17T14:29:52Z</time>
      </trkpt>
      <trkpt lat="47.10276" lon="4.67323">
        <ele>1328</ele>
        <time>2014-03-17T14:29:54Z</time>
      </trkpt>
      <trkpt lat="47.10275" lon="4.67326">
        <ele>1328</ele>
        <time>2014-03-17T14:29:56Z</time>
      </trkpt>
      <trkpt lat="47.10274" lon="4.67331">
        <ele>1328</ele>
        <time>2014-03-17T14:30:00Z</time>
      </trkpt>
      <trkpt lat="47.10274" lon="4.67334">
        <ele>1328</ele>
        <time>2014-03-17T14:30:02Z</time>
      </trkpt>
      <trkpt lat="47.10273" lon="4.67337">
        <ele>1328</ele>
        <time>2014-03-17T14:30:05Z</time>
      </trkpt>
      <trkpt lat="47.10274" lon="4.67341">
        <ele>1328</ele>
        <time>2014-03-17T14:30:09Z</time>
      </trkpt>
      <trkpt lat="47.10275" lon="4.67343">
        <ele>1328</ele>
        <time>2014-03-17T14:30:11Z</time>
      </trkpt>
      <trkpt lat="47.10276" lon="4.67344">
        <ele>1328</ele>
        <time>2014-03-17T14:30:13Z</time>
      </trkpt>
      <trkpt lat="47.10277" lon="4.67346">
        <ele>1328</ele>
        <time>2014-03-17T14:30:18Z</time>
      </trkpt>
      <trkpt lat="47.10277" lon="4.67345">
        <ele>1328</ele>
        <time>2014-03-17T14:30:20Z</time>
      </trkpt>
      <trkpt lat="47.10278" lon="4.67346">
        <ele>1328</ele>
        <time>2014-03-17T14:30:22Z</time>
      </trkpt>
      <trkpt lat="47.10279" lon="4.67348">
        <ele>1328</ele>
        <time>2014-03-17T14:30:26Z</time>
      </trkpt>
      <trkpt lat="47.1028" lon="4.67348">
        <ele>1328</ele>
        <time>2014-03-17T14:30:28Z</time>
      </trkpt>
      <trkpt lat="47.1028" lon="4.67348">
        <ele>1328</ele>
        <time>2014-03-17T14:30:30Z</time>
      </trkpt>
      <trkpt lat="47.1028" lon="4.67348">
        <ele>1328</ele>
        <time>2014-03-17T14:30:35Z</time>
      </trkpt>
      <trkpt lat="47.1028" lon="4.67348">
        <ele>1328</ele>
        <time>2014-03-17T14:30:37Z</time>
      </trkpt>
      <trkpt lat="47.10279" lon="4.67348">
        <ele>1328</ele>
        <time>2014-03-17T14:30:39Z</time>
      </trkpt>
      <trkpt lat="47.10279" lon="4.67348">
        <ele>1328</ele>
        <time>2014-03-17T14:30:43Z</time>
      </trkpt>
      <trkpt lat="47.10279" lon="4.67348">
        <ele>1328</ele>
        <time>2014-03-17T14:30:46Z</time>
      </trkpt>
      <trkpt lat="47.10279" lon="4.67348">
        <ele>1328</ele>
        <time>2014-03-17T14:30:48Z</time>
      </trkpt>
      <trkpt lat="47.10279" lon="4.67348">
        <ele>1328</ele>
        <time>2014-03-17T14:30:52Z</time>
      </trkpt>
      <trkpt lat="47.10279" lon="4.67348">
        <ele>1328</ele>
        <time>2014-03-17T14:30:55Z</time>
      </trkpt>
      <trkpt lat="47.10279" lon="4.67348">
        <ele>1328</ele>
        <time>2014-03-17T14:30:57Z</time>
      </trkpt>
      <trkpt lat="47.10279" lon="4.67348">
        <ele>1328</ele>
        <time>2014-03-17T14:31:01Z</time>
      </trkpt>
      <trkpt lat="47.10278" lon="4.67348">
        <ele>1328</ele>
        <time>2014-03-17T14:31:03Z</time>
      </trkpt>
      <trkpt lat="47.10279" lon="4.67348">
        <ele>1328</ele>
        <time>2014-03-17T14:31:06Z</time>
      </trkpt>
      <trkpt lat="47.10279" lon="4.67348">
        <ele>1328</ele>
        <time>2014-03-17T14:31:10Z</time>
      </trkpt>
      <trkpt lat="47.10279" lon="4.67349">
        <ele>1328</ele>
        <time>2014-03-17T14:31:12Z</time>
      </trkpt>
      <trkpt lat="47.10279" lon="4.67349">
        <ele>1328</ele>
        <time>2014-03-17T14:31:14Z</time>
      </trkpt>
      <trkpt lat="47.10279" lon="4.67348">
        <ele>1328</ele>
        <time>2014-03-17T14:31:19Z</time>
      </trkpt>
      <trkpt lat="47.10279" lon="4.67348">
        <ele>1328</ele>
        <time>2014-03-17T14:31:21Z</time>
      </trkpt>
      <trkpt lat="47.10279" lon="4.67348">
        <ele>1328</ele>
        <time>2014-03-17T14:31:23Z</time>
      </trkpt>
      <trkpt lat="47.10279" lon="4.67348">
        <ele>1328</ele>
        <time>2014-03-17T14:31:28Z</time>
      </trkpt>
      <trkpt lat="47.10279" lon="4.67347">
        <ele>1328</ele>
        <time>2014-03-17T14:31:30Z</time>
      </trkpt>
      <trkpt lat="47.10279" lon="4.67347">
        <ele>1328</ele>
        <time>2014-03-17T14:31:32Z</time>
      </trkpt>
      <trkpt lat="47.10279" lon="4.67347">
        <ele>1328</ele>
        <time>2014-03-17T14:31:36Z</time>
      </trkpt>
      <trkpt lat="47.1028" lon="4.67347">
        <ele>1328</ele>
        <time>2014-03-17T14:31:39Z</time>
      </trkpt>
      <trkpt lat="47.1028" lon="4.67347">
        <ele>1328</ele>
        <time>2014-03-17T14:31:41Z</time>
      </trkpt>
      <trkpt lat="47.10283" lon="4.67346">
        <ele>1328</ele>
        <time>2014-03-17T14:31:45Z</time>
      </trkpt>
      <trkpt lat="47.10286" lon="4.67344">
        <ele>1328</ele>
        <time>2014-03-17T14:31:47Z</time>
      </trkpt>
      <trkpt lat="47.10287" lon="4.67342">
        <ele>1328</ele>
        <time>2014-03-17T14:31:50Z</time>
      </trkpt>
      <trkpt lat="47.10288" lon="4.67341">
        <ele>1328</ele>
        <time>2014-03-17T14:31:52Z</time>
      </trkpt>
      <trkpt lat="47.10291" lon="4.67336">
        <ele>1328</ele>
        <time>2014-03-17T14:31:56Z</time>
      </trkpt>
      <trkpt lat="47.10293" lon="4.67333">
        <ele>1328</ele>
        <time>2014-03-17T14:31:58Z</time>
      </trkpt>
      <trkpt lat="47.10294" lon="4.67331">
        <ele>1328</ele>
        <time>2014-03-17T14:32:01Z</time>
      </trkpt>
      <trkpt lat="47.10297" lon="4.67326">
        <ele>1328</ele>
        <time>2014-03-17T14:32:05Z</time>
      </trkpt>
      <trkpt lat="47.10298" lon="4.67323">
        <ele>1328</ele>
        <time>2014-03-17T14:32:07Z</time>
      </trkpt>
      <trkpt lat="47.103" lon="4.6732">
        <ele>1328</ele>
        <time>2014-03-17T14:32:09Z</time>
      </trkpt>
      <trkpt lat="47.10303" lon="4.67316">
        <ele>1328</ele>
        <time>2014-03-17T14:32:14Z</time>
      </trkpt>
      <trkpt lat="47.10304" lon="4.67313">
        <ele>1328</ele>
        <time>2014-03-17T14:32:16Z</time>
      </trkpt>
      <trkpt lat="47.10306" lon="4.67311">
        <ele>1328</ele>
        <time>2014-03-17T14:32:18Z</time>
      </trkpt>
      <trkpt lat="47.1031" lon="4.67305">
        <ele>1328</ele>
        <time>2014-03-17T14:32:23Z</time>
      </trkpt>
      <trkpt lat="47.10311" lon="4.67303">
        <ele>1328</ele>
        <time>2014-03-17T14:32:25Z</time>
      </trkpt>
      <trkpt lat="47.10313" lon="4.67301">
        <ele>1328</ele>
        <time>2014-03-17T14:32:27Z</time>
      </trkpt>
      <trkpt lat="47.10317" lon="4.67296">
        <ele>1328</ele>
        <time>2014-03-17T14:32:31Z</time>
      </trkpt>
      <trkpt lat="47.10318" lon="4.67293">
        <ele>1328</ele>
        <time>2014-03-17T14:32:34Z</time>
      </trkpt>
      <trkpt lat="47.1032" lon="4.67291">
        <ele>1328</ele>
        <time>2014-03-17T14:32:36Z</time>
      </trkpt>
      <trkpt lat="47.10324" lon="4.67287">
        <ele>1328</ele>
        <time>2014-03-17T14:32:40Z</time>
      </trkpt>
      <trkpt lat="47.10327" lon="4.67284">
        <ele>1328</ele>
        <time>2014-03-17T14:32:42Z</time>
      </trkpt>
      <trkpt lat="47.10329" lon="4.67283">
        <ele>1328</ele>
        <time>2014-03-17T14:32:45Z</time>
      </trkpt>
      <trkpt lat="47.10332" lon="4.6728">
        <ele>1328</ele>
        <time>2014-03-17T14:32:49Z</time>
      </trkpt>
      <trkpt lat="47.10334" lon="4.67278">
        <ele>1328</ele>
        <time>2014-03-17T14:32:51Z</time>
      </trkpt>
      <trkpt lat="47.10336" lon="4.67276">
        <ele>1328</ele>
        <time>2014-03-17T14:32:53Z</time>
      </trkpt>
      <trkpt lat="47.1034" lon="4.67272">
        <ele>1328</ele>
        <time>2014-03-17T14:32:58Z</time>
      </trkpt>
      <trkpt lat="47.10342" lon="4.67271">
        <ele>1328</ele>
        <time>2014-03-17T14:33:00Z</time>
      </trkpt>
      <trkpt lat="47.10343" lon="4.67269">
        <ele>1328</ele>
        <time>2014-03-17T14:33:02Z</time>
      </trkpt>
      <trkpt lat="47.10348" lon="4.67265">
        <ele>1328</ele>
        <time>2014-03-17T14:33:07Z</time>
      </trkpt>
      <trkpt lat="47.10349" lon="4.67263">
        <ele>1328</ele>
        <time>2014-03-17T14:33:09Z</time>
      </trkpt>
      <trkpt lat="47.10351" lon="4.67261">
        <ele>1328</ele>
        <time>2014-03-17T14:33:11Z</time>
      </trkpt>
      <trkpt lat="47.10356" lon="4.67256">
        <ele>1328</ele>
        <time>2014-03-17T14:33:15Z</time>
      </trkpt>
      <trkpt lat="47.10358" lon="4.67254">
        <ele>1328</ele>
        <time>2014-03-17T14:33:18Z</time>
      </trkpt>
      <trkpt lat="47.10359" lon="4.67253">
        <ele>1328</ele>
        <time>2014-03-17T14:33:20Z</time>
      </trkpt>
      <trkpt lat="47.10363" lon="4.67249">
        <ele>1328</ele>
        <time>2014-03-17T14:33:24Z</time>
      </trkpt>
      <trkpt lat="47.10366" lon="4.67247">
        <ele>1328</ele>
        <time>2014-03-17T14:33:26Z</time>
      </trkpt>
      <trkpt lat="47.10367" lon="4.67245">
        <ele>1328</ele>
        <time>2014-03-17T14:33:29Z</time>
      </trkpt>
      <trkpt lat="47.10371" lon="4.67242">
        <ele>1328</ele>
        <time>2014-03-17T14:33:33Z</time>
      </trkpt>
      <trkpt lat="47.10373" lon="4.67241">
        <ele>1328</ele>
        <time>2014-03-17T14:33:35Z</time>
      </trkpt>
      <trkpt lat="47.10377" lon="4.67239">
        <ele>1328</ele>
        <time>2014-03-17T14:33:37Z</time>
      </trkpt>
      <trkpt lat="47.10381" lon="4.67236">
        <ele>1328</ele>
        <time>2014-03-17T14:33:42Z</time>
      </trkpt>
      <trkpt lat="47.10384" lon="4.67235">
        <ele>1328</ele>
        <time>2014-03-17T14:33:44Z</time>
      </trkpt>
      <trkpt lat="47.10386" lon="4.67234">
        <ele>1328</ele>
        <time>2014-03-17T14:33:46Z</time>
      </trkpt>
      <trkpt lat="47.10392" lon="4.67232">
        <ele>1328</ele>
        <time>2014-03-17T14:33:51Z</time>
      </trkpt>
      <trkpt lat="47.10394" lon="4.67231">
        <ele>1328</ele>
        <time>2014-03-17T14:33:53Z</time>
      </trkpt>
      <trkpt lat="47.10396" lon="4.67229">
        <ele>1328</ele>
        <time>2014-03-17T14:33:55Z</time>
      </trkpt>
      <trkpt lat="47.10398" lon="4.67228">
        <ele>1328</ele>
        <time>2014-03-17T14:33:57Z</time>
      </trkpt>
      <trkpt lat="47.10404" lon="4.67226">
        <ele>1328</ele>
        <time>2014-03-17T14:34:02Z</time>
      </trkpt>
      <trkpt lat="47.10406" lon="4.67225">
        <ele>1328</ele>
        <time>2014-03-17T14:34:04Z</time>
      </trkpt>
      <trkpt lat="47.10408" lon="4.67225">
        <ele>1328</ele>
        <time>2014-03-17T14:34:06Z</time>
      </trkpt>
      <trkpt lat="47.10413" lon="4.67224">
        <ele>1328</ele>
        <time>2014-03-17T14:34:10Z</time>
      </trkpt>
      <trkpt lat="47.10416" lon="4.67224">
        <ele>1328</ele>
        <time>2014-03-17T14:34:13Z</time>
      </trkpt>
      <trkpt lat="47.10418" lon="4.67223">
        <ele>1328</ele>
        <time>2014-03-17T14:34:15Z</time>
      </trkpt>
      <trkpt lat="47.10422" lon="4.67223">
        <ele>1328</ele>
        <time>2014-03-17T14:34:19Z</time>
      </trkpt>
      <trkpt lat="47.10426" lon="4.67223">
        <ele>1328</ele>
        <time>2014-03-17T14:34:21Z</time>
      </trkpt>
      <trkpt lat="47.10428" lon="4.67223">
        <ele>1328</ele>
        <time>2014-03-17T14:34:24Z</time>
      </trkpt>
      <trkpt lat="47.10432" lon="4.67223">
        <ele>1328</ele>
        <time>2014-03-17T14:34:28Z</time>
      </trkpt>
      <trkpt lat="47.10434" lon="4.67224">
        <ele>1328</ele>
        <time>2014-03-17T14:34:30Z</time>
      </trkpt>
      <trkpt lat="47.10437" lon="4.67225">
        <ele>1328</ele>
        <time>2014-03-17T14:34:32Z</time>
      </trkpt>
      <trkpt lat="47.1044" lon="4.67227">
        <ele>1328</ele>
        <time>2014-03-17T14:34:37Z</time>
      </trkpt>
      <trkpt lat="47.10442" lon="4.67229">
        <ele>1328</ele>
        <time>2014-03-17T14:34:39Z</time>
      </trkpt>
      <trkpt lat="47.10443" lon="4.67231">
        <ele>1328</ele>
        <time>2014-03-17T14:34:41Z</time>
      </trkpt>
      <trkpt lat="47.10445" lon="4.67237">
        <ele>1328</ele>
        <time>2014-03-17T14:34:46Z</time>
      </trkpt>
      <trkpt lat="47.10446" lon="4.67239">
        <ele>1328</ele>
        <time>2014-03-17T14:34:48Z</time>
      </trkpt>
      <trkpt lat="47.10447" lon="4.67242">
        <ele>1328</ele>
        <time>2014-03-17T14:34:50Z</time>
      </trkpt>
      <trkpt lat="47.10448" lon="4.67248">
        <ele>1328</ele>
        <time>2014-03-17T14:34:54Z</time>
      </trkpt>
      <trkpt lat="47.10448" lon="4.67249">
        <ele>1328</ele>
        <time>2014-03-17T14:34:57Z</time>
      </trkpt>
      <trkpt lat="47.10448" lon="4.67251">
        <ele>1328</ele>
        <time>2014-03-17T14:34:59Z</time>
      </trkpt>
      <trkpt lat="47.10449" lon="4.67256">
        <ele>1328</ele>
        <time>2014-03-17T14:35:03Z</time>
      </trkpt>
      <trkpt lat="47.1045" lon="4.67259">
        <ele>1328</ele>
        <time>2014-03-17T14:35:05Z</time>
      </trkpt>
      <trkpt lat="47.1045" lon="4.67261">
        <ele>1328</ele>
        <time>2014-03-17T14:35:08Z</time>
      </trkpt>
      <trkpt lat="47.10451" lon="4.67265">
        <ele>1328</ele>
        <time>2014-03-17T14:35:12Z</time>
      </trkpt>
      <trkpt lat="47.10451" lon="4.67267">
        <ele>1328</ele>
        <time>2014-03-17T14:35:14Z</time>
      </trkpt>
      <trkpt lat="47.10452" lon="4.6727">
        <ele>1328</ele>
        <time>2014-03-17T14:35:16Z</time>
      </trkpt>
      <trkpt lat="47.10452" lon="4.67275">
        <ele>1328</ele>
        <time>2014-03-17T14:35:21Z</time>
      </trkpt>
      <trkpt lat="47.10453" lon="4.67277">
        <ele>1328</ele>
        <time>2014-03-17T14:35:23Z</time>
      </trkpt>
      <trkpt lat="47.10453" lon="4.67279">
        <ele>1328</ele>
        <time>2014-03-17T14:35:25Z</time>
      </trkpt>
      <trkpt lat="47.10454" lon="4.67284">
        <ele>1328</ele>
        <time>2014-03-17T14:35:30Z</time>
      </trkpt>
      <trkpt lat="47.10454" lon="4.67286">
        <ele>1328</ele>
        <time>2014-03-17T14:35:32Z</time>
      </trkpt>
      <trkpt lat="47.10454" lon="4.67288">
        <ele>1328</ele>
        <time>2014-03-17T14:35:34Z</time>
      </trkpt>
      <trkpt lat="47.10455" lon="4.67293">
        <ele>1328</ele>
        <time>2014-03-17T14:35:38Z</time>
      </trkpt>
      <trkpt lat="47.10456" lon="4.67296">
        <ele>1328</ele>
        <time>2014-03-17T14:35:41Z</time>
      </trkpt>
      <trkpt lat="47.10456" lon="4.67298">
        <ele>1328</ele>
        <time>2014-03-17T14:35:43Z</time>
      </trkpt>
      <trkpt lat="47.10457" lon="4.67302">
        <ele>1328</ele>
        <time>2014-03-17T14:35:47Z</time>
      </trkpt>
      <trkpt lat="47.10458" lon="4.67306">
        <ele>1328</ele>
        <time>2014-03-17T14:35:49Z</time>
      </trkpt>
      <trkpt lat="47.10459" lon="4.67308">
        <ele>1328</ele>
        <time>2014-03-17T14:35:52Z</time>
      </trkpt>
      <trkpt lat="47.1046" lon="4.67313">
        <ele>1328</ele>
        <time>2014-03-17T14:35:56Z</time>
      </trkpt>
      <trkpt lat="47.1046" lon="4.67316">
        <ele>1328</ele>
        <time>2014-03-17T14:35:58Z</time>
      </trkpt>
      <trkpt lat="47.10461" lon="4.6732">
        <ele>1328</ele>
        <time>2014-03-17T14:36:00Z</time>
      </trkpt>
      <trkpt lat="47.10462" lon="4.67322">
        <ele>1328</ele>
        <time>2014-03-17T14:36:03Z</time>
      </trkpt>
      <trkpt lat="47.10464" lon="4.67327">
        <ele>1328</ele>
        <time>2014-03-17T14:36:07Z</time>
      </trkpt>
      <trkpt lat="47.10465" lon="4.67329">
        <ele>1328</ele>
        <time>2014-03-17T14:36:09Z</time>
      </trkpt>
      <trkpt lat="47.10466" lon="4.67332">
        <ele>1328</ele>
        <time>2014-03-17T14:36:11Z</time>
      </trkpt>
      <trkpt lat="47.10468" lon="4.67336">
        <ele>1328</ele>
        <time>2014-03-17T14:36:16Z</time>
      </trkpt>
      <trkpt lat="47.10469" lon="4.67338">
        <ele>1328</ele>
        <time>2014-03-17T14:36:18Z</time>
      </trkpt>
      <trkpt lat="47.1047" lon="4.6734">
        <ele>1328</ele>
        <time>2014-03-17T14:36:20Z</time>
      </trkpt>
      <trkpt lat="47.10472" lon="4.67344">
        <ele>1328</ele>
        <time>2014-03-17T14:36:25Z</time>
      </trkpt>
      <trkpt lat="47.10474" lon="4.67347">
        <ele>1328</ele>
        <time>2014-03-17T14:36:27Z</time>
      </trkpt>
      <trkpt lat="47.10474" lon="4.67348">
        <ele>1328</ele>
        <time>2014-03-17T14:36:29Z</time>
      </trkpt>
      <trkpt lat="47.10477" lon="4.67352">
        <ele>1328</ele>
        <time>2014-03-17T14:36:33Z</time>
      </trkpt>
      <trkpt lat="47.10478" lon="4.67353">
        <ele>1328</ele>
        <time>2014-03-17T14:36:36Z</time>
      </trkpt>
      <trkpt lat="47.1048" lon="4.67355">
        <ele>1328</ele>
        <time>2014-03-17T14:36:38Z</time>
      </trkpt>
      <trkpt lat="47.10483" lon="4.67357">
        <ele>1328</ele>
        <time>2014-03-17T14:36:42Z</time>
      </trkpt>
      <trkpt lat="47.10484" lon="4.67358">
        <ele>1328</ele>
        <time>2014-03-17T14:36:44Z</time>
      </trkpt>
      <trkpt lat="47.10485" lon="4.67359">
        <ele>1328</ele>
        <time>2014-03-17T14:36:47Z</time>
      </trkpt>
      <trkpt lat="47.10488" lon="4.67361">
        <ele>1328</ele>
        <time>2014-03-17T14:36:51Z</time>
      </trkpt>
      <trkpt lat="47.10489" lon="4.67362">
        <ele>1328</ele>
        <time>2014-03-17T14:36:53Z</time>
      </trkpt>
      <trkpt lat="47.10491" lon="4.67363">
        <ele>1328</ele>
        <time>2014-03-17T14:36:55Z</time>
      </trkpt>
      <trkpt lat="47.10494" lon="4.67364">
        <ele>1328</ele>
        <time>2014-03-17T14:37:00Z</time>
      </trkpt>
      <trkpt lat="47.10495" lon="4.67365">
        <ele>1328</ele>
        <time>2014-03-17T14:37:02Z</time>
      </trkpt>
      <trkpt lat="47.10496" lon="4.67366">
        <ele>1328</ele>
        <time>2014-03-17T14:37:04Z</time>
      </trkpt>
      <trkpt lat="47.10499" lon="4.67368">
        <ele>1328</ele>
        <time>2014-03-17T14:37:09Z</time>
      </trkpt>
      <trkpt lat="47.10501" lon="4.67369">
        <ele>1328</ele>
        <time>2014-03-17T14:37:11Z</time>
      </trkpt>
      <trkpt lat="47.10502" lon="4.6737">
        <ele>1328</ele>
        <time>2014-03-17T14:37:13Z</time>
      </trkpt>
      <trkpt lat="47.10505" lon="4.67373">
        <ele>1328</ele>
        <time>2014-03-17T14:37:17Z</time>
      </trkpt>
      <trkpt lat="47.10506" lon="4.67374">
        <ele>1328</ele>
        <time>2014-03-17T14:37:20Z</time>
      </trkpt>
      <trkpt lat="47.10507" lon="4.67375">
        <ele>1328</ele>
        <time>2014-03-17T14:37:22Z</time>
      </trkpt>
      <trkpt lat="47.1051" lon="4.67378">
        <ele>1328</ele>
        <time>2014-03-17T14:37:26Z</time>
      </trkpt>
      <trkpt lat="47.10512" lon="4.67381">
        <ele>1328</ele>
        <time>2014-03-17T14:37:28Z</time>
      </trkpt>
      <trkpt lat="47.10513" lon="4.67383">
        <ele>1328</ele>
        <time>2014-03-17T14:37:31Z</time>
      </trkpt>
      <trkpt lat="47.10515" lon="4.67386">
        <ele>1328</ele>
        <time>2014-03-17T14:37:35Z</time>
      </trkpt>
      <trkpt lat="47.10516" lon="4.67388">
        <ele>1328</ele>
        <time>2014-03-17T14:37:37Z</time>
      </trkpt>
      <trkpt lat="47.10518" lon="4.6739">
        <ele>1328</ele>
        <time>2014-03-17T14:37:39Z</time>
      </trkpt>
      <trkpt lat="47.1052" lon="4.67393">
        <ele>1328</ele>
        <time>2014-03-17T14:37:44Z</time>
      </trkpt>
      <trkpt lat="47.10521" lon="4.67394">
        <ele>1328</ele>
        <time>2014-03-17T14:37:46Z</time>
      </trkpt>
      <trkpt lat="47.10522" lon="4.67395">
        <ele>1328</ele>
        <time>2014-03-17T14:37:48Z</time>
      </trkpt>
      <trkpt lat="47.10524" lon="4.67398">
        <ele>1328</ele>
        <time>2014-03-17T14:37:53Z</time>
      </trkpt>
      <trkpt lat="47.10525" lon="4.67398">
        <ele>1328</ele>
        <time>2014-03-17T14:37:55Z</time>
      </trkpt>
      <trkpt lat="47.10525" lon="4.67398">
        <ele>1328</ele>
        <time>2014-03-17T14:37:57Z</time>
      </trkpt>
      <trkpt lat="47.10526" lon="4.67398">
        <ele>1328</ele>
        <time>2014-03-17T14:38:01Z</time>
      </trkpt>
      <trkpt lat="47.10526" lon="4.67399">
        <ele>1328</ele>
        <time>2014-03-17T14:38:04Z</time>
      </trkpt>
      <trkpt lat="47.10526" lon="4.67399">
        <ele>1328</ele>
        <time>2014-03-17T14:38:06Z</time>
      </trkpt>
      <trkpt lat="47.10527" lon="4.67399">
        <ele>1328</ele>
        <time>2014-03-17T14:38:10Z</time>
      </trkpt>
      <trkpt lat="47.10527" lon="4.67398">
        <ele>1328</ele>
        <time>2014-03-17T14:38:12Z</time>
      </trkpt>
      <trkpt lat="47.10528" lon="4.67398">
        <ele>1328</ele>
        <time>2014-03-17T14:38:15Z</time>
      </trkpt>
      <trkpt lat="47.10527" lon="4.67399">
        <ele>1328</ele>
        <time>2014-03-17T14:38:17Z</time>
      </trkpt>
      <trkpt lat="47.10527" lon="4.67399">
        <ele>1328</ele>
        <time>2014-03-17T14:38:21Z</time>
      </trkpt>
      <trkpt lat="47.10527" lon="4.67399">
        <ele>1328</ele>
        <time>2014-03-17T14:38:24Z</time>
      </trkpt>
      <trkpt lat="47.10527" lon="4.67399">
        <ele>1328</ele>
        <time>2014-03-17T14:38:26Z</time>
      </trkpt>
      <trkpt lat="47.10527" lon="4.67399">
        <ele>1328</ele>
        <time>2014-03-17T14:38:30Z</time>
      </trkpt>
      <trkpt lat="47.10528" lon="4.674">
        <ele>1328</ele>
        <time>2014-03-17T14:38:32Z</time>
      </trkpt>
      <trkpt lat="47.10528" lon="4.67401">
        <ele>1328</ele>
        <time>2014-03-17T14:38:35Z</time>
      </trkpt>
      <trkpt lat="47.10528" lon="4.67401">
        <ele>1328</ele>
        <time>2014-03-17T14:38:39Z</time>
      </trkpt>
      <trkpt lat="47.10528" lon="4.67401">
        <ele>1328</ele>
        <time>2014-03-17T14:38:41Z</time>
      </trkpt>
      <trkpt lat="47.10528" lon="4.67401">
        <ele>1328</ele>
        <time>2014-03-17T14:38:43Z</time>
      </trkpt>
      <trkpt lat="47.10528" lon="4.674">
        <ele>1328</ele>
        <time>2014-03-17T14:38:48Z</time>
      </trkpt>
      <trkpt lat="47.10528" lon="4.674">
        <ele>1328</ele>
        <time>2014-03-17T14:38:50Z</time>
      </trkpt>
      <trkpt lat="47.10528" lon="4.67401">
        <ele>1328</ele>
        <time>2014-03-17T14:38:52Z</time>
      </trkpt>
      <trkpt lat="47.10527" lon="4.67401">
        <ele>1328</ele>
        <time>2014-03-17T14:38:57Z</time>
      </trkpt>
      <trkpt lat="47.10527" lon="4.674">
        <ele>1328</ele>
        <time>2014-03-17T14:38:59Z</time>
      </trkpt>
      <trkpt lat="47.10527" lon="4.674">
        <ele>1328</ele>
        <time>2014-03-17T14:39:01Z</time>
      </trkpt>
      <trkpt lat="47.10527" lon="4.674">
        <ele>1328</ele>
        <time>2014-03-17T14:39:05Z</time>
      </trkpt>
      <trkpt lat="47.10528" lon="4.67399">
        <ele>1328</ele>
        <time>2014-03-17T14:39:08Z</time>
      </trkpt>
      <trkpt lat="47.10528" lon="4.674">
        <ele>1328</ele>
        <time>2014-03-17T14:39:10Z</time>
      </trkpt>
      <trkpt lat="47.10527" lon="4.674">
        <ele>1328</ele>
        <time>2014-03-17T14:39:14Z</time>
      </trkpt>
      <trkpt lat="47.10527" lon="4.674">
        <ele>1328</ele>
        <time>2014-03-17T14:39:16Z</time>
      </trkpt>
      <trkpt lat="47.10527" lon="4.674">
        <ele>1328</ele>
        <time>2014-03-17T14:39:19Z</time>
      </trkpt>
      <trkpt lat="47.10527" lon="4.67399">
        <ele>1328</ele>
        <time>2014-03-17T14:39:23Z</time>
      </trkpt>
      <trkpt lat="47.10527" lon="4.67399">
        <ele>1328</ele>
        <time>2014-03-17T14:39:25Z</time>
      </trkpt>
      <trkpt lat="47.10526" lon="4.67399">
        <ele>1328</ele>
        <time>2014-03-17T14:39:27Z</time>
      </trkpt>
      <trkpt lat="47.10526" lon="4.67398">
        <ele>1328</ele>
        <time>2014-03-17T14:39:32Z</time>
      </trkpt>
      <trkpt lat="47.10526" lon="4.67398">
        <ele>1328</ele>
        <time>2014-03-17T14:39:34Z</time>
      </trkpt>
      <trkpt lat="47.10526" lon="4.67398">
        <ele>1328</ele>
        <time>2014-03-17T14:39:36Z</time>
      </trkpt>
      <trkpt lat="47.10526" lon="4.67397">
        <ele>1328</ele>
        <time>2014-03-17T14:39:41Z</time>
      </trkpt>
      <trkpt lat="47.10526" lon="4.67397">
        <ele>1328</ele>
        <time>2014-03-17T14:39:43Z</time>
      </trkpt>
      <trkpt lat="47.10526" lon="4.67396">
        <ele>1328</ele>
        <time>2014-03-17T14:39:45Z</time>
      </trkpt>
      <trkpt lat="47.10526" lon="4.67396">
        <ele>1328</ele>
        <time>2014-03-17T14:39:49Z</time>
      </trkpt>
      <trkpt lat="47.10526" lon="4.67396">
        <ele>1328</ele>
        <time>2014-03-17T14:39:52Z</time>
      </trkpt>
      <trkpt lat="47.10526" lon="4.67396">
        <ele>1328</ele>
        <time>2014-03-17T14:39:54Z</time>
      </trkpt>
      <trkpt lat="47.10526" lon="4.67396">
        <ele>1328</ele>
        <time>2014-03-17T14:39:58Z</time>
      </trkpt>
      <trkpt lat="47.10526" lon="4.67396">
        <ele>1328</ele>
        <time>2014-03-17T14:40:00Z</time>
      </trkpt>
      <trkpt lat="47.10526" lon="4.67397">
        <ele>1328</ele>
        <time>2014-03-17T14:40:03Z</time>
      </trkpt>
      <trkpt lat="47.10527" lon="4.67398">
        <ele>1328</ele>
        <time>2014-03-17T14:40:07Z</time>
      </trkpt>
      <trkpt lat="47.10527" lon="4.674">
        <ele>1328</ele>
        <time>2014-03-17T14:40:09Z</time>
      </trkpt>
      <trkpt lat="47.10527" lon="4.67401">
        <ele>1328</ele>
        <time>2014-03-17T14:40:11Z</time>
      </trkpt>
      <trkpt lat="47.10528" lon="4.67404">
        <ele>1328</ele>
        <time>2014-03-17T14:40:16Z</time>
      </trkpt>
      <trkpt lat="47.10529" lon="4.67405">
        <ele>1328</ele>
        <time>2014-03-17T14:40:18Z</time>
      </trkpt>
      <trkpt lat="47.10529" lon="4.67407">
        <ele>1328</ele>
        <time>2014-03-17T14:40:20Z</time>
      </trkpt>
      <trkpt lat="47.10531" lon="4.67409">
        <ele>1328</ele>
        <time>2014-03-17T14:40:22Z</time>
      </trkpt>
      <trkpt lat="47.10533" lon="4.67413">
        <ele>1328</ele>
        <time>2014-03-17T14:40:27Z</time>
      </trkpt>
      <trkpt lat="47.10534" lon="4.67415">
        <ele>1328</ele>
        <time>2014-03-17T14:40:29Z</time>
      </trkpt>
      <trkpt lat="47.10535" lon="4.67416">
        <ele>1328</ele>
        <time>2014-03-17T14:40:31Z</time>
      </trkpt>
      <trkpt lat="47.10537" lon="4.67418">
        <ele>1328</ele>
        <time>2014-03-17T14:40:36Z</time>
      </trkpt>
      <trkpt lat="47.10538" lon="4.67418">
        <ele>1328</ele>
        <time>2014-03-17T14:40:38Z</time>
      </trkpt>
      <trkpt lat="47.10538" lon="4.67418">
        <ele>1328</ele>
        <time>2014-03-17T14:40:40Z</time>
      </trkpt>
      <trkpt lat="47.10541" lon="4.67421">
        <ele>1328</ele>
        <time>2014-03-17T14:40:44Z</time>
      </trkpt>
      <trkpt lat="47.10542" lon="4.67422">
        <ele>1328</ele>
        <time>2014-03-17T14:40:47Z</time>
      </trkpt>
      <trkpt lat="47.10543" lon="4.67423">
        <ele>1328</ele>
        <time>2014-03-17T14:40:49Z</time>
      </trkpt>
      <trkpt lat="47.10546" lon="4.67426">
        <ele>1328</ele>
        <time>2014-03-17T14:40:53Z</time>
      </trkpt>
      <trkpt lat="47.10548" lon="4.67427">
        <ele>1328</ele>
        <time>2014-03-17T14:40:55Z</time>
      </trkpt>
      <trkpt lat="47.10549" lon="4.67428">
        <ele>1328</ele>
        <time>2014-03-17T14:40:58Z</time>
      </trkpt>
      <trkpt lat="47.10552" lon="4.6743">
        <ele>1328</ele>
        <time>2014-03-17T14:41:02Z</time>
      </trkpt>
      <trkpt lat="47.10553" lon="4.67431">
        <ele>1328</ele>
        <time>2014-03-17T14:41:04Z</time>
      </trkpt>
      <trkpt lat="47.10555" lon="4.67432">
        <ele>1328</ele>
        <time>2014-03-17T14:41:06Z</time>
      </trkpt>
      <trkpt lat="47.10558" lon="4.67434">
        <ele>1328</ele>
        <time>2014-03-17T14:41:11Z</time>
      </trkpt>
      <trkpt lat="47.1056" lon="4.67435">
        <ele>1328</ele>
        <time>2014-03-17T14:41:13Z</time>
      </trkpt>
      <trkpt lat="47.10561" lon="4.67436">
        <ele>1328</ele>
        <time>2014-03-17T14:41:15Z</time>
      </trkpt>
      <trkpt lat="47.10564" lon="4.67439">
        <ele>1328</ele>
        <time>2014-03-17T14:41:20Z</time>
      </trkpt>
      <trkpt lat="47.10565" lon="4.67441">
        <ele>1328</ele>
        <time>2014-03-17T14:41:22Z</time>
      </trkpt>
      <trkpt lat="47.10566" lon="4.67442">
        <ele>1328</ele>
        <time>2014-03-17T14:41:24Z</time>
      </trkpt>
      <trkpt lat="47.10568" lon="4.67445">
        <ele>1328</ele>
        <time>2014-03-17T14:41:28Z</time>
      </trkpt>
      <trkpt lat="47.1057" lon="4.67447">
        <ele>1328</ele>
        <time>2014-03-17T14:41:31Z</time>
      </trkpt>
      <trkpt lat="47.10571" lon="4.67447">
        <ele>1328</ele>
        <time>2014-03-17T14:41:33Z</time>
      </trkpt>
      <trkpt lat="47.10573" lon="4.67449">
        <ele>1328</ele>
        <time>2014-03-17T14:41:37Z</time>
      </trkpt>
      <trkpt lat="47.10574" lon="4.67449">
        <ele>1328</ele>
        <time>2014-03-17T14:41:39Z</time>
      </trkpt>
      <trkpt lat="47.10576" lon="4.67449">
        <ele>1328</ele>
        <time>2014-03-17T14:41:42Z</time>
      </trkpt>
      <trkpt lat="47.10578" lon="4.67451">
        <ele>1328</ele>
        <time>2014-03-17T14:41:46Z</time>
      </trkpt>
      <trkpt lat="47.10579" lon="4.67452">
        <ele>1328</ele>
        <time>2014-03-17T14:41:48Z</time>
      </trkpt>
      <trkpt lat="47.1058" lon="4.67454">
        <ele>1328</ele>
        <time>2014-03-17T14:41:50Z</time>
      </trkpt>
      <trkpt lat="47.10582" lon="4.67456">
        <ele>1328</ele>
        <time>2014-03-17T14:41:55Z</time>
      </trkpt>
      <trkpt lat="47.10583" lon="4.67457">
        <ele>1328</ele>
        <time>2014-03-17T14:41:57Z</time>
      </trkpt>
      <trkpt lat="47.10584" lon="4.67458">
        <ele>1328</ele>
        <time>2014-03-17T14:41:59Z</time>
      </trkpt>
      <trkpt lat="47.10586" lon="4.67461">
        <ele>1328</ele>
        <time>2014-03-17T14:42:04Z</time>
      </trkpt>
      <trkpt lat="47.10587" lon="4.67462">
        <ele>1328</ele>
        <time>2014-03-17T14:42:06Z</time>
      </trkpt>
      <trkpt lat="47.10589" lon="4.67464">
        <ele>1328</ele>
        <time>2014-03-17T14:42:08Z</time>
      </trkpt>
      <trkpt lat="47.10592" lon="4.67466">
        <ele>1328</ele>
        <time>2014-03-17T14:42:12Z</time>
      </trkpt>
      <trkpt lat="47.10593" lon="4.67467">
        <ele>1328</ele>
        <time>2014-03-17T14:42:15Z</time>
      </trkpt>
      <trkpt lat="47.10594" lon="4.67468">
        <ele>1328</ele>
        <time>2014-03-17T14:42:17Z</time>
      </trkpt>
      <trkpt lat="47.10596" lon="4.67471">
        <ele>1328</ele>
        <time>2014-03-17T14:42:21Z</time>
      </trkpt>
      <trkpt lat="47.10598" lon="4.67473">
        <ele>1328</ele>
        <time>2014-03-17T14:42:23Z</time>
      </trkpt>
      <trkpt lat="47.10599" lon="4.67474">
        <ele>1328</ele>
        <time>2014-03-17T14:42:26Z</time>
      </trkpt>
      <trkpt lat="47.106" lon="4.67476">
        <ele>1328</ele>
        <time>2014-03-17T14:42:28Z</time>
      </trkpt>
      <trkpt lat="47.10603" lon="4.67478">
        <ele>1328</ele>
        <time>2014-03-17T14:42:32Z</time>
      </trkpt>
      <trkpt lat="47.10605" lon="4.67479">
        <ele>1328</ele>
        <time>2014-03-17T14:42:35Z</time>
      </trkpt>
      <trkpt lat="47.10606" lon="4.6748">
        <ele>1328</ele>
        <time>2014-03-17T14:42:37Z</time>
      </trkpt>
      <trkpt lat="47.10608" lon="4.67481">
        <ele>1328</ele>
        <time>2014-03-17T14:42:41Z</time>
      </trkpt>
      <trkpt lat="47.1061" lon="4.67483">
        <ele>1328</ele>
        <time>2014-03-17T14:42:43Z</time>
      </trkpt>
      <trkpt lat="47.10612" lon="4.67483">
        <ele>1328</ele>
        <time>2014-03-17T14:42:46Z</time>
      </trkpt>
      <trkpt lat="47.10614" lon="4.67485">
        <ele>1328</ele>
        <time>2014-03-17T14:42:50Z</time>
      </trkpt>
      <trkpt lat="47.10616" lon="4.67486">
        <ele>1328</ele>
        <time>2014-03-17T14:42:52Z</time>
      </trkpt>
      <trkpt lat="47.10618" lon="4.67487">
        <ele>1328</ele>
        <time>2014-03-17T14:42:54Z</time>
      </trkpt>
      <trkpt lat="47.10621" lon="4.67489">
        <ele>1328</ele>
        <time>2014-03-17T14:42:59Z</time>
      </trkpt>
      <trkpt lat="47.10623" lon="4.6749">
        <ele>1328</ele>
        <time>2014-03-17T14:43:01Z</time>
      </trkpt>
      <trkpt lat="47.10624" lon="4.6749">
        <ele>1328</ele>
        <time>2014-03-17T14:43:03Z</time>
      </trkpt>
      <trkpt lat="47.10629" lon="4.67491">
        <ele>1328</ele>
        <time>2014-03-17T14:43:08Z</time>
      </trkpt>
      <trkpt lat="47.1063" lon="4.67491">
        <ele>1328</ele>
        <time>2014-03-17T14:43:10Z</time>
      </trkpt>
      <trkpt lat="47.10632" lon="4.67491">
        <ele>1328</ele>
        <time>2014-03-17T14:43:12Z</time>
      </trkpt>
      <trkpt lat="47.10637" lon="4.67491">
        <ele>1328</ele>
        <time>2014-03-17T14:43:16Z</time>
      </trkpt>
      <trkpt lat="47.10639" lon="4.67491">
        <ele>1328</ele>
        <time>2014-03-17T14:43:19Z</time>
      </trkpt>
      <trkpt lat="47.1064" lon="4.67491">
        <ele>1328</ele>
        <time>2014-03-17T14:43:21Z</time>
      </trkpt>
      <trkpt lat="47.10644" lon="4.67491">
        <ele>1328</ele>
        <time>2014-03-17T14:43:25Z</time>
      </trkpt>
      <trkpt lat="47.10647" lon="4.67491">
        <ele>1328</ele>
        <time>2014-03-17T14:43:27Z</time>
      </trkpt>
      <trkpt lat="47.10649" lon="4.67491">
        <ele>1328</ele>
        <time>2014-03-17T14:43:30Z</time>
      </trkpt>
      <trkpt lat="47.10653" lon="4.67492">
        <ele>1328</ele>
        <time>2014-03-17T14:43:34Z</time>
      </trkpt>
      <trkpt lat="47.10655" lon="4.67492">
        <ele>1328</ele>
        <time>2014-03-17T14:43:36Z</time>
      </trkpt>
      <trkpt lat="47.10658" lon="4.67492">
        <ele>1328</ele>
        <time>2014-03-17T14:43:38Z</time>
      </trkpt>
      <trkpt lat="47.10662" lon="4.67493">
        <ele>1328</ele>
        <time>2014-03-17T14:43:43Z</time>
      </trkpt>
      <trkpt lat="47.10664" lon="4.67493">
        <ele>1328</ele>
        <time>2014-03-17T14:43:45Z</time>
      </trkpt>
      <trkpt lat="47.10666" lon="4.67493">
        <ele>1328</ele>
        <time>2014-03-17T14:43:47Z</time>
      </trkpt>
      <trkpt lat="47.1067" lon="4.67495">
        <ele>1328</ele>
        <time>2014-03-17T14:43:52Z</time>
      </trkpt>
      <trkpt lat="47.10672" lon="4.67495">
        <ele>1328</ele>
        <time>2014-03-17T14:43:54Z</time>
      </trkpt>
      <trkpt lat="47.10674" lon="4.67496">
        <ele>1328</ele>
        <time>2014-03-17T14:43:56Z</time>
      </trkpt>
      <trkpt lat="47.10679" lon="4.67497">
        <ele>1328</ele>
        <time>2014-03-17T14:44:00Z</time>
      </trkpt>
      <trkpt lat="47.10681" lon="4.67498">
        <ele>1328</ele>
        <time>2014-03-17T14:44:03Z</time>
      </trkpt>
      <trkpt lat="47.10683" lon="4.67499">
        <ele>1328</ele>
        <time>2014-03-17T14:44:05Z</time>
      </trkpt>
      <trkpt lat="47.10686" lon="4.67499">
        <ele>1328</ele>
        <time>2014-03-17T14:44:09Z</time>
      </trkpt>
      <trkpt lat="47.10688" lon="4.675">
        <ele>1328</ele>
        <time>2014-03-17T14:44:11Z</time>
      </trkpt>
      <trkpt lat="47.1069" lon="4.675">
        <ele>1328</ele>
        <time>2014-03-17T14:44:14Z</time>
      </trkpt>
      <trkpt lat="47.10693" lon="4.67501">
        <ele>1328</ele>
        <time>2014-03-17T14:44:18Z</time>
      </trkpt>
      <trkpt lat="47.10695" lon="4.67502">
        <ele>1328</ele>
        <time>2014-03-17T14:44:20Z</time>
      </trkpt>
      <trkpt lat="47.10697" lon="4.67502">
        <ele>1328</ele>
        <time>2014-03-17T14:44:22Z</time>
      </trkpt>
      <trkpt lat="47.107" lon="4.67504">
        <ele>1328</ele>
        <time>2014-03-17T14:44:27Z</time>
      </trkpt>
      <trkpt lat="47.10701" lon="4.67504">
        <ele>1328</ele>
        <time>2014-03-17T14:44:29Z</time>
      </trkpt>
      <trkpt lat="47.10703" lon="4.67505">
        <ele>1328</ele>
        <time>2014-03-17T14:44:31Z</time>
      </trkpt>
      <trkpt lat="47.10705" lon="4.67507">
        <ele>1328</ele>
        <time>2014-03-17T14:44:36Z</time>
      </trkpt>
      <trkpt lat="47.10704" lon="4.67509">
        <ele>1328</ele>
        <time>2014-03-17T14:44:38Z</time>
      </trkpt>
      <trkpt lat="47.10703" lon="4.67509">
        <ele>1328</ele>
        <time>2014-03-17T14:44:40Z</time>
      </trkpt>
      <trkpt lat="47.10702" lon="4.67509">
        <ele>1328</ele>
        <time>2014-03-17T14:44:42Z</time>
      </trkpt>
      <trkpt lat="47.10699" lon="4.6751">
        <ele>1328</ele>
        <time>2014-03-17T14:44:47Z</time>
      </trkpt>
      <trkpt lat="47.10698" lon="4.6751">
        <ele>1328</ele>
        <time>2014-03-17T14:44:49Z</time>
      </trkpt>
      <trkpt lat="47.10696" lon="4.6751">
        <ele>1328</ele>
        <time>2014-03-17T14:44:51Z</time>
      </trkpt>
      <trkpt lat="47.10693" lon="4.6751">
        <ele>1328</ele>
        <time>2014-03-17T14:44:55Z</time>
      </trkpt>
      <trkpt lat="47.10691" lon="4.67511">
        <ele>1328</ele>
        <time>2014-03-17T14:44:58Z</time>
      </trkpt>
      <trkpt lat="47.10689" lon="4.67511">
        <ele>1328</ele>
        <time>2014-03-17T14:45:00Z</time>
      </trkpt>
      <trkpt lat="47.10686" lon="4.67512">
        <ele>1328</ele>
        <time>2014-03-17T14:45:04Z</time>
      </trkpt>
      <trkpt lat="47.10684" lon="4.67511">
        <ele>1328</ele>
        <time>2014-03-17T14:45:06Z</time>
      </trkpt>
      <trkpt lat="47.10683" lon="4.67511">
        <ele>1328</ele>
        <time>2014-03-17T14:45:09Z</time>
      </trkpt>
      <trkpt lat="47.10683" lon="4.67511">
        <ele>1328</ele>
        <time>2014-03-17T14:45:13Z</time>
      </trkpt>
      <trkpt lat="47.10684" lon="4.67511">
        <ele>1328</ele>
        <time>2014-03-17T14:45:15Z</time>
      </trkpt>
      <trkpt lat="47.10683" lon="4.67511">
        <ele>1328</ele>
        <time>2014-03-17T14:45:17Z</time>
      </trkpt>
      <trkpt lat="47.10683" lon="4.67511">
        <ele>1328</ele>
        <time>2014-03-17T14:45:22Z</time>
      </trkpt>
      <trkpt lat="47.10683" lon="4.67512">
        <ele>1328</ele>
        <time>2014-03-17T14:45:24Z</time>
      </trkpt>
      <trkpt lat="47.10683" lon="4.67512">
        <ele>1328</ele>
        <time>2014-03-17T14:45:26Z</time>
      </trkpt>
      <trkpt lat="47.10683" lon="4.67512">
        <ele>1328</ele>
        <time>2014-03-17T14:45:31Z</time>
      </trkpt>
      <trkpt lat="47.10683" lon="4.67512">
        <ele>1328</ele>
        <time>2014-03-17T14:45:33Z</time>
      </trkpt>
      <trkpt lat="47.10683" lon="4.67512">
        <ele>1328</ele>
        <time>2014-03-17T14:45:35Z</time>
      </trkpt>
      <trkpt lat="47.10683" lon="4.67512">
        <ele>1328</ele>
        <time>2014-03-17T14:45:39Z</time>
      </trkpt>
      <trkpt lat="47.10683" lon="4.67513">
        <ele>1328</ele>
        <time>2014-03-17T14:45:42Z</time>
      </trkpt>
      <trkpt lat="47.10683" lon="4.67513">
        <ele>1328</ele>
        <time>2014-03-17T14:45:44Z</time>
      </trkpt>
      <trkpt lat="47.10683" lon="4.67513">
        <ele>1328</ele>
        <time>2014-03-17T14:45:48Z</time>
      </trkpt>
      <trkpt lat="47.10682" lon="4.67515">
        <ele>1328</ele>
        <time>2014-03-17T14:45:51Z</time>
      </trkpt>
      <trkpt lat="47.10681" lon="4.67515">
        <ele>1328</ele>
        <time>2014-03-17T14:45:53Z</time>
      </trkpt>
      <trkpt lat="47.10681" lon="4.67515">
        <ele>1328</ele>
        <time>2014-03-17T14:45:57Z</time>
      </trkpt>
      <trkpt lat="47.10681" lon="4.67515">
        <ele>1328</ele>
        <time>2014-03-17T14:45:59Z</time>
      </trkpt>
      <trkpt lat="47.10681" lon="4.67515">
        <ele>1328</ele>
        <time>2014-03-17T14:46:02Z</time>
      </trkpt>
      <trkpt lat="47.1068" lon="4.67514">
        <ele>1328</ele>
        <time>2014-03-17T14:46:06Z</time>
      </trkpt>
      <trkpt lat="47.1068" lon="4.67514">
        <ele>1328</ele>
        <time>2014-03-17T14:46:08Z</time>
      </trkpt>
      <trkpt lat="47.1068" lon="4.67514">
        <ele>1328</ele>
        <time>2014-03-17T14:46:10Z</time>
      </trkpt>
      <trkpt lat="47.10678" lon="4.67511">
        <ele>1328</ele>
        <time>2014-03-17T14:46:15Z</time>
      </trkpt>
      <trkpt lat="47.10678" lon="4.6751">
        <ele>1328</ele>
        <time>2014-03-17T14:46:17Z</time>
      </trkpt>
      <trkpt lat="47.10678" lon="4.6751">
        <ele>1328</ele>
        <time>2014-03-17T14:46:19Z</time>
      </trkpt>
      <trkpt lat="47.10677" lon="4.67509">
        <ele>1328</ele>
        <time>2014-03-17T14:46:24Z</time>
      </trkpt>
      <trkpt lat="47.10678" lon="4.6751">
        <ele>1328</ele>
        <time>2014-03-17T14:46:26Z</time>
      </trkpt>
      <trkpt lat="47.10679" lon="4.6751">
        <ele>1328</ele>
        <time>2014-03-17T14:46:28Z</time>
      </trkpt>
      <trkpt lat="47.10681" lon="4.6751">
        <ele>1328</ele>
        <time>2014-03-17T14:46:32Z</time>
      </trkpt>
      <trkpt lat="47.10681" lon="4.6751">
        <ele>1328</ele>
        <time>2014-03-17T14:46:35Z</time>
      </trkpt>
      <trkpt lat="47.10681" lon="4.67511">
        <ele>1328</ele>
        <time>2014-03-17T14:46:37Z</time>
      </trkpt>
      <trkpt lat="47.10681" lon="4.67511">
        <ele>1328</ele>
        <time>2014-03-17T14:46:41Z</time>
      </trkpt>
      <trkpt lat="47.10681" lon="4.67511">
        <ele>1328</ele>
        <time>2014-03-17T14:46:43Z</time>
      </trkpt>
      <trkpt lat="47.10681" lon="4.6751">
        <ele>1328</ele>
        <time>2014-03-17T14:46:46Z</time>
      </trkpt>
      <trkpt lat="47.10681" lon="4.67511">
        <ele>1328</ele>
        <time>2014-03-17T14:46:48Z</time>
      </trkpt>
      <trkpt lat="47.10681" lon="4.67511">
        <ele>1328</ele>
        <time>2014-03-17T14:46:52Z</time>
      </trkpt>
      <trkpt lat="47.10682" lon="4.67511">
        <ele>1328</ele>
        <time>2014-03-17T14:46:54Z</time>
      </trkpt>
      <trkpt lat="47.10682" lon="4.67511">
        <ele>1328</ele>
        <time>2014-03-17T14:46:57Z</time>
      </trkpt>
      <trkpt lat="47.10682" lon="4.67511">
        <ele>1328</ele>
        <time>2014-03-17T14:47:01Z</time>
      </trkpt>
      <trkpt lat="47.10682" lon="4.67511">
        <ele>1328</ele>
        <time>2014-03-17T14:47:03Z</time>
      </trkpt>
      <trkpt lat="47.10682" lon="4.67512">
        <ele>1328</ele>
        <time>2014-03-17T14:47:05Z</time>
      </trkpt>
      <trkpt lat="47.10682" lon="4.67511">
        <ele>1328</ele>
        <time>2014-03-17T14:47:10Z</time>
      </trkpt>
      <trkpt lat="47.10682" lon="4.67511">
        <ele>1328</ele>
        <time>2014-03-17T14:47:12Z</time>
      </trkpt>
      <trkpt lat="47.10682" lon="4.67512">
        <ele>1328</ele>
        <time>2014-03-17T14:47:14Z</time>
      </trkpt>
      <trkpt lat="47.10682" lon="4.67512">
        <ele>1328</ele>
        <time>2014-03-17T14:47:19Z</time>
      </trkpt>
      <trkpt lat="47.10682" lon="4.67512">
        <ele>1328</ele>
        <time>2014-03-17T14:47:21Z</time>
      </trkpt>
      <trkpt lat="47.10682" lon="4.67512">
        <ele>1328</ele>
        <time>2014-03-17T14:47:23Z</time>
      </trkpt>
      <trkpt lat="47.10682" lon="4.67512">
        <ele>1328</ele>
        <time>2014-03-17T14:47:27Z</time>
      </trkpt>
      <trkpt lat="47.10682" lon="4.67512">
        <ele>1328</ele>
        <time>2014-03-17T14:47:30Z</time>
      </trkpt>
      <trkpt lat="47.10682" lon="4.67512">
        <ele>1328</ele>
        <time>2014-03-17T14:47:32Z</time>
      </trkpt>
      <trkpt lat="47.10682" lon="4.67512">
        <ele>1328</ele>
        <time>2014-03-17T14:47:36Z</time>
      </trkpt>
      <trkpt lat="47.10682" lon="4.67511">
        <ele>1328</ele>
        <time>2014-03-17T14:47:38Z</time>
      </trkpt>
      <trkpt lat="47.10682" lon="4.67511">
        <ele>1328</ele>
        <time>2014-03-17T14:47:41Z</time>
      </trkpt>
      <trkpt lat="47.10682" lon="4.67511">
        <ele>1328</ele>
        <time>2014-03-17T14:47:45Z</time>
      </trkpt>
      <trkpt lat="47.10682" lon="4.67511">
        <ele>1328</ele>
        <time>2014-03-17T14:47:47Z</time>
      </trkpt>
      <trkpt lat="47.10682" lon="4.6751">
        <ele>1328</ele>
        <time>2014-03-17T14:47:49Z</time>
      </trkpt>
      <trkpt lat="47.10682" lon="4.6751">
        <ele>1328</ele>
        <time>2014-03-17T14:47:54Z</time>
      </trkpt>
      <trkpt lat="47.10682" lon="4.6751">
        <ele>1328</ele>
        <time>2014-03-17T14:47:56Z</time>
      </trkpt>
      <trkpt lat="47.10682" lon="4.6751">
        <ele>1328</ele>
        <time>2014-03-17T14:47:58Z</time>
      </trkpt>
      <trkpt lat="47.10682" lon="4.67511">
        <ele>1328</ele>
        <time>2014-03-17T14:48:03Z</time>
      </trkpt>
      <trkpt lat="47.10682" lon="4.67511">
        <ele>1328</ele>
        <time>2014-03-17T14:48:05Z</time>
      </trkpt>
      <trkpt lat="47.10682" lon="4.67511">
        <ele>1328</ele>
        <time>2014-03-17T14:48:07Z</time>
      </trkpt>
      <trkpt lat="47.10682" lon="4.67511">
        <ele>1328</ele>
        <time>2014-03-17T14:48:11Z</time>
      </trkpt>
      <trkpt lat="47.10682" lon="4.67511">
        <ele>1328</ele>
        <time>2014-03-17T14:48:14Z</time>
      </trkpt>
      <trkpt lat="47.10682" lon="4.67512">
        <ele>1328</ele>
        <time>2014-03-17T14:48:16Z</time>
      </trkpt>
      <trkpt lat="47.10682" lon="4.67512">
        <ele>1328</ele>
        <time>2014-03-17T14:48:20Z</time>
      </trkpt>
      <trkpt lat="47.10682" lon="4.67512">
        <ele>1328</ele>
        <time>2014-03-17T14:48:22Z</time>
      </trkpt>
      <trkpt lat="47.10682" lon="4.67512">
        <ele>1328</ele>
        <time>2014-03-17T14:48:25Z</time>
      </trkpt>
      <trkpt lat="47.10682" lon="4.67512">
        <ele>1328</ele>
        <time>2014-03-17T14:48:29Z</time>
      </trkpt>
      <trkpt lat="47.10682" lon="4.67512">
        <ele>1328</ele>
        <time>2014-03-17T14:48:31Z</time>
      </trkpt>
      <trkpt lat="47.10682" lon="4.67512">
        <ele>1328</ele>
        <time>2014-03-17T14:48:33Z</time>
      </trkpt>
      <trkpt lat="47.10682" lon="4.67513">
        <ele>1328</ele>
        <time>2014-03-17T14:48:38Z</time>
      </trkpt>
      <trkpt lat="47.10682" lon="4.67513">
        <ele>1328</ele>
        <time>2014-03-17T14:48:40Z</time>
      </trkpt>
      <trkpt lat="47.10682" lon="4.67513">
        <ele>1328</ele>
        <time>2014-03-17T14:48:42Z</time>
      </trkpt>
      <trkpt lat="47.10682" lon="4.67514">
        <ele>1328</ele>
        <time>2014-03-17T14:48:47Z</time>
      </trkpt>
      <trkpt lat="47.10682" lon="4.67514">
        <ele>1328</ele>
        <time>2014-03-17T14:48:49Z</time>
      </trkpt>
      <trkpt lat="47.10682" lon="4.67514">
        <ele>1328</ele>
        <time>2014-03-17T14:48:51Z</time>
      </trkpt>
      <trkpt lat="47.10682" lon="4.67515">
        <ele>1328</ele>
        <time>2014-03-17T14:48:53Z</time>
      </trkpt>
      <trkpt lat="47.10681" lon="4.67515">
        <ele>1328</ele>
        <time>2014-03-17T14:48:58Z</time>
      </trkpt>
      <trkpt lat="47.10682" lon="4.67515">
        <ele>1328</ele>
        <time>2014-03-17T14:49:00Z</time>
      </trkpt>
      <trkpt lat="47.10681" lon="4.67515">
        <ele>1328</ele>
        <time>2014-03-17T14:49:02Z</time>
      </trkpt>
      <trkpt lat="47.1068" lon="4.67515">
        <ele>1328</ele>
        <time>2014-03-17T14:49:06Z</time>
      </trkpt>
      <trkpt lat="47.1068" lon="4.67515">
        <ele>1328</ele>
        <time>2014-03-17T14:49:09Z</time>
      </trkpt>
      <trkpt lat="47.1068" lon="4.67515">
        <ele>1328</ele>
        <time>2014-03-17T14:49:11Z</time>
      </trkpt>
      <trkpt lat="47.1068" lon="4.67516">
        <ele>1328</ele>
        <time>2014-03-17T14:49:15Z</time>
      </trkpt>
      <trkpt lat="47.10679" lon="4.67516">
        <ele>1328</ele>
        <time>2014-03-17T14:49:17Z</time>
      </trkpt>
      <trkpt lat="47.1068" lon="4.67516">
        <ele>1328</ele>
        <time>2014-03-17T14:49:20Z</time>
      </trkpt>
      <trkpt lat="47.10679" lon="4.67516">
        <ele>1328</ele>
        <time>2014-03-17T14:49:24Z</time>
      </trkpt>
      <trkpt lat="47.10679" lon="4.67517">
        <ele>1328</ele>
        <time>2014-03-17T14:49:26Z</time>
      </trkpt>
      <trkpt lat="47.10679" lon="4.67517">
        <ele>1328</ele>
        <time>2014-03-17T14:49:28Z</time>
      </trkpt>
      <trkpt lat="47.1068" lon="4.67517">
        <ele>1328</ele>
        <time>2014-03-17T14:49:33Z</time>
      </trkpt>
      <trkpt lat="47.1068" lon="4.67517">
        <ele>1328</ele>
        <time>2014-03-17T14:49:35Z</time>
      </trkpt>
      <trkpt lat="47.1068" lon="4.67516">
        <ele>1328</ele>
        <time>2014-03-17T14:49:37Z</time>
      </trkpt>
      <trkpt lat="47.1068" lon="4.67516">
        <ele>1328</ele>
        <time>2014-03-17T14:49:42Z</time>
      </trkpt>
      <trkpt lat="47.1068" lon="4.67516">
        <ele>1328</ele>
        <time>2014-03-17T14:49:44Z</time>
      </trkpt>
      <trkpt lat="47.1068" lon="4.67516">
        <ele>1328</ele>
        <time>2014-03-17T14:49:46Z</time>
      </trkpt>
      <trkpt lat="47.1068" lon="4.67516">
        <ele>1328</ele>
        <time>2014-03-17T14:49:50Z</time>
      </trkpt>
      <trkpt lat="47.1068" lon="4.67516">
        <ele>1328</ele>
        <time>2014-03-17T14:49:53Z</time>
      </trkpt>
      <trkpt lat="47.10681" lon="4.67516">
        <ele>1328</ele>
        <time>2014-03-17T14:49:55Z</time>
      </trkpt>
      <trkpt lat="47.10681" lon="4.67516">
        <ele>1328</ele>
        <time>2014-03-17T14:49:59Z</time>
      </trkpt>
      <trkpt lat="47.10681" lon="4.67516">
        <ele>1328</ele>
        <time>2014-03-17T14:50:01Z</time>
      </trkpt>
      <trkpt lat="47.10681" lon="4.67516">
        <ele>1328</ele>
        <time>2014-03-17T14:50:04Z</time>
      </trkpt>
      <trkpt lat="47.10681" lon="4.67516">
        <ele>1328</ele>
        <time>2014-03-17T14:50:08Z</time>
      </trkpt>
      <trkpt lat="47.10681" lon="4.67516">
        <ele>1328</ele>
        <time>2014-03-17T14:50:10Z</time>
      </trkpt>
      <trkpt lat="47.10681" lon="4.67516">
        <ele>1328</ele>
        <time>2014-03-17T14:50:12Z</time>
      </trkpt>
      <trkpt lat="47.10681" lon="4.67516">
        <ele>1328</ele>
        <time>2014-03-17T14:50:17Z</time>
      </trkpt>
      <trkpt lat="47.10681" lon="4.67515">
        <ele>1328</ele>
        <time>2014-03-17T14:50:19Z</time>
      </trkpt>
      <trkpt lat="47.10681" lon="4.67515">
        <ele>1328</ele>
        <time>2014-03-17T14:50:21Z</time>
      </trkpt>
      <trkpt lat="47.10682" lon="4.67515">
        <ele>1328</ele>
        <time>2014-03-17T14:50:26Z</time>
      </trkpt>
      <trkpt lat="47.10682" lon="4.67515">
        <ele>1328</ele>
        <time>2014-03-17T14:50:28Z</time>
      </trkpt>
      <trkpt lat="47.10682" lon="4.67515">
        <ele>1328</ele>
        <time>2014-03-17T14:50:30Z</time>
      </trkpt>
      <trkpt lat="47.10682" lon="4.67514">
        <ele>1328</ele>
        <time>2014-03-17T14:50:34Z</time>
      </trkpt>
      <trkpt lat="47.10682" lon="4.67514">
        <ele>1328</ele>
        <time>2014-03-17T14:50:37Z</time>
      </trkpt>
      <trkpt lat="47.10682" lon="4.67514">
        <ele>1328</ele>
        <time>2014-03-17T14:50:39Z</time>
      </trkpt>
      <trkpt lat="47.10682" lon="4.67514">
        <ele>1328</ele>
        <time>2014-03-17T14:50:43Z</time>
      </trkpt>
      <trkpt lat="47.10682" lon="4.67514">
        <ele>1328</ele>
        <time>2014-03-17T14:50:45Z</time>
      </trkpt>
      <trkpt lat="47.10682" lon="4.67514">
        <ele>1328</ele>
        <time>2014-03-17T14:50:48Z</time>
      </trkpt>
      <trkpt lat="47.10682" lon="4.67514">
        <ele>1328</ele>
        <time>2014-03-17T14:50:52Z</time>
      </trkpt>
      <trkpt lat="47.10682" lon="4.67514">
        <ele>1328</ele>
        <time>2014-03-17T14:50:54Z</time>
      </trkpt>
      <trkpt lat="47.10682" lon="4.67515">
        <ele>1328</ele>
        <time>2014-03-17T14:50:56Z</time>
      </trkpt>
      <trkpt lat="47.10682" lon="4.67515">
        <ele>1328</ele>
        <time>2014-03-17T14:51:01Z</time>
      </trkpt>
      <trkpt lat="47.10682" lon="4.67515">
        <ele>1328</ele>
        <time>2014-03-17T14:51:03Z</time>
      </trkpt>
      <trkpt lat="47.10682" lon="4.67515">
        <ele>1328</ele>
        <time>2014-03-17T14:51:05Z</time>
      </trkpt>
      <trkpt lat="47.10682" lon="4.67515">
        <ele>1328</ele>
        <time>2014-03-17T14:51:07Z</time>
      </trkpt>
      <trkpt lat="47.10681" lon="4.67515">
        <ele>1328</ele>
        <time>2014-03-17T14:51:12Z</time>
      </trkpt>
      <trkpt lat="47.10681" lon="4.67515">
        <ele>1328</ele>
        <time>2014-03-17T14:51:14Z</time>
      </trkpt>
      <trkpt lat="47.10682" lon="4.67515">
        <ele>1328</ele>
        <time>2014-03-17T14:51:16Z</time>
      </trkpt>
      <trkpt lat="47.10682" lon="4.67515">
        <ele>1328</ele>
        <time>2014-03-17T14:51:21Z</time>
      </trkpt>
      <trkpt lat="47.10682" lon="4.67515">
        <ele>1328</ele>
        <time>2014-03-17T14:51:23Z</time>
      </trkpt>
      <trkpt lat="47.10683" lon="4.67515">
        <ele>1328</ele>
        <time>2014-03-17T14:51:25Z</time>
      </trkpt>
      <trkpt lat="47.10688" lon="4.67515">
        <ele>1328</ele>
        <time>2014-03-17T14:51:29Z</time>
      </trkpt>
      <trkpt lat="47.10689" lon="4.67515">
        <ele>1328</ele>
        <time>2014-03-17T14:51:32Z</time>
      </trkpt>
      <trkpt lat="47.1069" lon="4.67515">
        <ele>1328</ele>
        <time>2014-03-17T14:51:34Z</time>
      </trkpt>
      <trkpt lat="47.10694" lon="4.67514">
        <ele>1328</ele>
        <time>2014-03-17T14:51:38Z</time>
      </trkpt>
      <trkpt lat="47.10696" lon="4.67513">
        <ele>1328</ele>
        <time>2014-03-17T14:51:40Z</time>
      </trkpt>
      <trkpt lat="47.10697" lon="4.67513">
        <ele>1328</ele>
        <time>2014-03-17T14:51:43Z</time>
      </trkpt>
      <trkpt lat="47.107" lon="4.67513">
        <ele>1328</ele>
        <time>2014-03-17T14:51:47Z</time>
      </trkpt>
      <trkpt lat="47.10701" lon="4.67513">
        <ele>1328</ele>
        <time>2014-03-17T14:51:49Z</time>
      </trkpt>
      <trkpt lat="47.10702" lon="4.67512">
        <ele>1328</ele>
        <time>2014-03-17T14:51:51Z</time>
      </trkpt>
      <trkpt lat="47.10706" lon="4.6751">
        <ele>1328</ele>
        <time>2014-03-17T14:51:56Z</time>
      </trkpt>
      <trkpt lat="47.10707" lon="4.67509">
        <ele>1328</ele>
        <time>2014-03-17T14:51:58Z</time>
      </trkpt>
      <trkpt lat="47.10709" lon="4.67509">
        <ele>1328</ele>
        <time>2014-03-17T14:52:00Z</time>
      </trkpt>
      <trkpt lat="47.10713" lon="4.67509">
        <ele>1328</ele>
        <time>2014-03-17T14:52:05Z</time>
      </trkpt>
      <trkpt lat="47.10715" lon="4.67509">
        <ele>1328</ele>
        <time>2014-03-17T14:52:07Z</time>
      </trkpt>
      <trkpt lat="47.10717" lon="4.6751">
        <ele>1328</ele>
        <time>2014-03-17T14:52:09Z</time>
      </trkpt>
      <trkpt lat="47.10721" lon="4.67512">
        <ele>1328</ele>
        <time>2014-03-17T14:52:13Z</time>
      </trkpt>
      <trkpt lat="47.10722" lon="4.67513">
        <ele>1328</ele>
        <time>2014-03-17T14:52:16Z</time>
      </trkpt>
      <trkpt lat="47.10723" lon="4.67515">
        <ele>1328</ele>
        <time>2014-03-17T14:52:18Z</time>
      </trkpt>
      <trkpt lat="47.10725" lon="4.67518">
        <ele>1328</ele>
        <time>2014-03-17T14:52:22Z</time>
      </trkpt>
      <trkpt lat="47.10723" lon="4.67519">
        <ele>1328</ele>
        <time>2014-03-17T14:52:24Z</time>
      </trkpt>
      <trkpt lat="47.10722" lon="4.67519">
        <ele>1328</ele>
        <time>2014-03-17T14:52:27Z</time>
      </trkpt>
      <trkpt lat="47.10719" lon="4.67519">
        <ele>1328</ele>
        <time>2014-03-17T14:52:31Z</time>
      </trkpt>
      <trkpt lat="47.10718" lon="4.6752">
        <ele>1328</ele>
        <time>2014-03-17T14:52:33Z</time>
      </trkpt>
      <trkpt lat="47.10716" lon="4.6752">
        <ele>1328</ele>
        <time>2014-03-17T14:52:35Z</time>
      </trkpt>
      <trkpt lat="47.10712" lon="4.67522">
        <ele>1328</ele>
        <time>2014-03-17T14:52:40Z</time>
      </trkpt>
      <trkpt lat="47.10711" lon="4.67523">
        <ele>1328</ele>
        <time>2014-03-17T14:52:42Z</time>
      </trkpt>
      <trkpt lat="47.10709" lon="4.67524">
        <ele>1328</ele>
        <time>2014-03-17T14:52:44Z</time>
      </trkpt>
      <trkpt lat="47.10705" lon="4.67526">
        <ele>1328</ele>
        <time>2014-03-17T14:52:49Z</time>
      </trkpt>
      <trkpt lat="47.10703" lon="4.67526">
        <ele>1328</ele>
        <time>2014-03-17T14:52:51Z</time>
      </trkpt>
      <trkpt lat="47.10701" lon="4.67527">
        <ele>1328</ele>
        <time>2014-03-17T14:52:53Z</time>
      </trkpt>
      <trkpt lat="47.10695" lon="4.67527">
        <ele>1328</ele>
        <time>2014-03-17T14:52:57Z</time>
      </trkpt>
      <trkpt lat="47.10693" lon="4.67528">
        <ele>1328</ele>
        <time>2014-03-17T14:53:00Z</time>
      </trkpt>
      <trkpt lat="47.10691" lon="4.67528">
        <ele>1328</ele>
        <time>2014-03-17T14:53:02Z</time>
      </trkpt>
      <trkpt lat="47.10685" lon="4.67529">
        <ele>1328</ele>
        <time>2014-03-17T14:53:06Z</time>
      </trkpt>
      <trkpt lat="47.10683" lon="4.6753">
        <ele>1328</ele>
        <time>2014-03-17T14:53:08Z</time>
      </trkpt>
      <trkpt lat="47.10681" lon="4.6753">
        <ele>1328</ele>
        <time>2014-03-17T14:53:11Z</time>
      </trkpt>
      <trkpt lat="47.10679" lon="4.67531">
        <ele>1328</ele>
        <time>2014-03-17T14:53:13Z</time>
      </trkpt>
      <trkpt lat="47.10676" lon="4.67531">
        <ele>1328</ele>
        <time>2014-03-17T14:53:17Z</time>
      </trkpt>
      <trkpt lat="47.10673" lon="4.67531">
        <ele>1328</ele>
        <time>2014-03-17T14:53:19Z</time>
      </trkpt>
      <trkpt lat="47.10671" lon="4.67532">
        <ele>1328</ele>
        <time>2014-03-17T14:53:22Z</time>
      </trkpt>
      <trkpt lat="47.10668" lon="4.67533">
        <ele>1328</ele>
        <time>2014-03-17T14:53:26Z</time>
      </trkpt>
      <trkpt lat="47.10668" lon="4.67533">
        <ele>1328</ele>
        <time>2014-03-17T14:53:28Z</time>
      </trkpt>
      <trkpt lat="47.10667" lon="4.67533">
        <ele>1328</ele>
        <time>2014-03-17T14:53:31Z</time>
      </trkpt>
      <trkpt lat="47.10666" lon="4.67533">
        <ele>1328</ele>
        <time>2014-03-17T14:53:35Z</time>
      </trkpt>
      <trkpt lat="47.10666" lon="4.67533">
        <ele>1328</ele>
        <time>2014-03-17T14:53:37Z</time>
      </trkpt>
      <trkpt lat="47.10664" lon="4.67534">
        <ele>1328</ele>
        <time>2014-03-17T14:53:39Z</time>
      </trkpt>
      <trkpt lat="47.10661" lon="4.67534">
        <ele>1328</ele>
        <time>2014-03-17T14:53:44Z</time>
      </trkpt>
      <trkpt lat="47.1066" lon="4.67534">
        <ele>1328</ele>
        <time>2014-03-17T14:53:46Z</time>
      </trkpt>
      <trkpt lat="47.10659" lon="4.67534">
        <ele>1328</ele>
        <time>2014-03-17T14:53:48Z</time>
      </trkpt>
      <trkpt lat="47.10654" lon="4.67535">
        <ele>1328</ele>
        <time>2014-03-17T14:53:53Z</time>
      </trkpt>
      <trkpt lat="47.10653" lon="4.67536">
        <ele>1328</ele>
        <time>2014-03-17T14:53:55Z</time>
      </trkpt>
      <trkpt lat="47.10652" lon="4.67536">
        <ele>1328</ele>
        <time>2014-03-17T14:53:57Z</time>
      </trkpt>
      <trkpt lat="47.10648" lon="4.67535">
        <ele>1328</ele>
        <time>2014-03-17T14:54:01Z</time>
      </trkpt>
      <trkpt lat="47.10646" lon="4.67535">
        <ele>1328</ele>
        <time>2014-03-17T14:54:04Z</time>
      </trkpt>
      <trkpt lat="47.10645" lon="4.67535">
        <ele>1328</ele>
        <time>2014-03-17T14:54:06Z</time>
      </trkpt>
      <trkpt lat="47.10641" lon="4.67535">
        <ele>1328</ele>
        <time>2014-03-17T14:54:10Z</time>
      </trkpt>
      <trkpt lat="47.10638" lon="4.67534">
        <ele>1328</ele>
        <time>2014-03-17T14:54:12Z</time>
      </trkpt>
      <trkpt lat="47.10637" lon="4.67533">
        <ele>1328</ele>
        <time>2014-03-17T14:54:15Z</time>
      </trkpt>
      <trkpt lat="47.10633" lon="4.67532">
        <ele>1328</ele>
        <time>2014-03-17T14:54:19Z</time>
      </trkpt>
      <trkpt lat="47.10631" lon="4.67532">
        <ele>1328</ele>
        <time>2014-03-17T14:54:21Z</time>
      </trkpt>
      <trkpt lat="47.10628" lon="4.67533">
        <ele>1328</ele>
        <time>2014-03-17T14:54:23Z</time>
      </trkpt>
      <trkpt lat="47.10625" lon="4.67533">
        <ele>1328</ele>
        <time>2014-03-17T14:54:28Z</time>
      </trkpt>
      <trkpt lat="47.10623" lon="4.67533">
        <ele>1328</ele>
        <time>2014-03-17T14:54:30Z</time>
      </trkpt>
      <trkpt lat="47.10622" lon="4.67532">
        <ele>1328</ele>
        <time>2014-03-17T14:54:32Z</time>
      </trkpt>
      <trkpt lat="47.10617" lon="4.67533">
        <ele>1328</ele>
        <time>2014-03-17T14:54:37Z</time>
      </trkpt>
      <trkpt lat="47.10616" lon="4.67534">
        <ele>1328</ele>
        <time>2014-03-17T14:54:39Z</time>
      </trkpt>
      <trkpt lat="47.10614" lon="4.67535">
        <ele>1328</ele>
        <time>2014-03-17T14:54:41Z</time>
      </trkpt>
      <trkpt lat="47.1061" lon="4.67536">
        <ele>1328</ele>
        <time>2014-03-17T14:54:45Z</time>
      </trkpt>
      <trkpt lat="47.10608" lon="4.67536">
        <ele>1328</ele>
        <time>2014-03-17T14:54:48Z</time>
      </trkpt>
      <trkpt lat="47.10606" lon="4.67536">
        <ele>1328</ele>
        <time>2014-03-17T14:54:50Z</time>
      </trkpt>
      <trkpt lat="47.10602" lon="4.67536">
        <ele>1328</ele>
        <time>2014-03-17T14:54:54Z</time>
      </trkpt>
      <trkpt lat="47.10599" lon="4.67536">
        <ele>1328</ele>
        <time>2014-03-17T14:54:56Z</time>
      </trkpt>
      <trkpt lat="47.10598" lon="4.67536">
        <ele>1328</ele>
        <time>2014-03-17T14:54:59Z</time>
      </trkpt>
      <trkpt lat="47.10593" lon="4.67537">
        <ele>1328</ele>
        <time>2014-03-17T14:55:03Z</time>
      </trkpt>
      <trkpt lat="47.10591" lon="4.67538">
        <ele>1328</ele>
        <time>2014-03-17T14:55:05Z</time>
      </trkpt>
      <trkpt lat="47.10588" lon="4.67538">
        <ele>1328</ele>
        <time>2014-03-17T14:55:07Z</time>
      </trkpt>
      <trkpt lat="47.10584" lon="4.67538">
        <ele>1328</ele>
        <time>2014-03-17T14:55:12Z</time>
      </trkpt>
      <trkpt lat="47.10582" lon="4.67538">
        <ele>1328</ele>
        <time>2014-03-17T14:55:14Z</time>
      </trkpt>
      <trkpt lat="47.1058" lon="4.67538">
        <ele>1328</ele>
        <time>2014-03-17T14:55:16Z</time>
      </trkpt>
      <trkpt lat="47.10577" lon="4.67539">
        <ele>1328</ele>
        <time>2014-03-17T14:55:18Z</time>
      </trkpt>
      <trkpt lat="47.10573" lon="4.6754">
        <ele>1328</ele>
        <time>2014-03-17T14:55:23Z</time>
      </trkpt>
      <trkpt lat="47.10571" lon="4.6754">
        <ele>1328</ele>
        <time>2014-03-17T14:55:25Z</time>
      </trkpt>
      <trkpt lat="47.10569" lon="4.6754">
        <ele>1328</ele>
        <time>2014-03-17T14:55:27Z</time>
      </trkpt>
      <trkpt lat="47.10564" lon="4.67538">
        <ele>1328</ele>
        <time>2014-03-17T14:55:32Z</time>
      </trkpt>
      <trkpt lat="47.10562" lon="4.67538">
        <ele>1328</ele>
        <time>2014-03-17T14:55:34Z</time>
      </trkpt>
      <trkpt lat="47.1056" lon="4.67538">
        <ele>1328</ele>
        <time>2014-03-17T14:55:36Z</time>
      </trkpt>
      <trkpt lat="47.10557" lon="4.6754">
        <ele>1328</ele>
        <time>2014-03-17T14:55:40Z</time>
      </trkpt>
      <trkpt lat="47.10555" lon="4.67541">
        <ele>1328</ele>
        <time>2014-03-17T14:55:43Z</time>
      </trkpt>
      <trkpt lat="47.10554" lon="4.67542">
        <ele>1328</ele>
        <time>2014-03-17T14:55:45Z</time>
      </trkpt>
      <trkpt lat="47.10552" lon="4.67543">
        <ele>1328</ele>
        <time>2014-03-17T14:55:49Z</time>
      </trkpt>
      <trkpt lat="47.1055" lon="4.67543">
        <ele>1328</ele>
        <time>2014-03-17T14:55:51Z</time>
      </trkpt>
      <trkpt lat="47.10548" lon="4.67543">
        <ele>1328</ele>
        <time>2014-03-17T14:55:54Z</time>
      </trkpt>
      <trkpt lat="47.10545" lon="4.67543">
        <ele>1328</ele>
        <time>2014-03-17T14:55:58Z</time>
      </trkpt>
      <trkpt lat="47.10543" lon="4.67544">
        <ele>1328</ele>
        <time>2014-03-17T14:56:00Z</time>
      </trkpt>
      <trkpt lat="47.1054" lon="4.67544">
        <ele>1328</ele>
        <time>2014-03-17T14:56:02Z</time>
      </trkpt>
      <trkpt lat="47.10536" lon="4.67544">
        <ele>1328</ele>
        <time>2014-03-17T14:56:07Z</time>
      </trkpt>
      <trkpt lat="47.10534" lon="4.67544">
        <ele>1328</ele>
        <time>2014-03-17T14:56:09Z</time>
      </trkpt>
      <trkpt lat="47.10532" lon="4.67544">
        <ele>1328</ele>
        <time>2014-03-17T14:56:11Z</time>
      </trkpt>
      <trkpt lat="47.10526" lon="4.67546">
        <ele>1328</ele>
        <time>2014-03-17T14:56:16Z</time>
      </trkpt>
      <trkpt lat="47.10524" lon="4.67546">
        <ele>1328</ele>
        <time>2014-03-17T14:56:18Z</time>
      </trkpt>
      <trkpt lat="47.10522" lon="4.67547">
        <ele>1328</ele>
        <time>2014-03-17T14:56:20Z</time>
      </trkpt>
      <trkpt lat="47.10517" lon="4.67548">
        <ele>1328</ele>
        <time>2014-03-17T14:56:24Z</time>
      </trkpt>
      <trkpt lat="47.10515" lon="4.67548">
        <ele>1328</ele>
        <time>2014-03-17T14:56:27Z</time>
      </trkpt>
      <trkpt lat="47.10513" lon="4.67548">
        <ele>1328</ele>
        <time>2014-03-17T14:56:29Z</time>
      </trkpt>
      <trkpt lat="47.10507" lon="4.67548">
        <ele>1328</ele>
        <time>2014-03-17T14:56:33Z</time>
      </trkpt>
      <trkpt lat="47.10503" lon="4.67549">
        <ele>1328</ele>
        <time>2014-03-17T14:56:35Z</time>
      </trkpt>
      <trkpt lat="47.10501" lon="4.67549">
        <ele>1328</ele>
        <time>2014-03-17T14:56:38Z</time>
      </trkpt>
      <trkpt lat="47.10497" lon="4.67549">
        <ele>1328</ele>
        <time>2014-03-17T14:56:42Z</time>
      </trkpt>
      <trkpt lat="47.10494" lon="4.6755">
        <ele>1328</ele>
        <time>2014-03-17T14:56:44Z</time>
      </trkpt>
      <trkpt lat="47.10491" lon="4.6755">
        <ele>1328</ele>
        <time>2014-03-17T14:56:47Z</time>
      </trkpt>
      <trkpt lat="47.10486" lon="4.67551">
        <ele>1328</ele>
        <time>2014-03-17T14:56:51Z</time>
      </trkpt>
      <trkpt lat="47.10484" lon="4.67551">
        <ele>1328</ele>
        <time>2014-03-17T14:56:53Z</time>
      </trkpt>
      <trkpt lat="47.10481" lon="4.67551">
        <ele>1328</ele>
        <time>2014-03-17T14:56:55Z</time>
      </trkpt>
      <trkpt lat="47.10474" lon="4.67552">
        <ele>1328</ele>
        <time>2014-03-17T14:57:00Z</time>
      </trkpt>
      <trkpt lat="47.10471" lon="4.67553">
        <ele>1328</ele>
        <time>2014-03-17T14:57:02Z</time>
      </trkpt>
      <trkpt lat="47.10468" lon="4.67554">
        <ele>1328</ele>
        <time>2014-03-17T14:57:04Z</time>
      </trkpt>
      <trkpt lat="47.10462" lon="4.67557">
        <ele>1328</ele>
        <time>2014-03-17T14:57:09Z</time>
      </trkpt>
      <trkpt lat="47.10459" lon="4.67557">
        <ele>1328</ele>
        <time>2014-03-17T14:57:11Z</time>
      </trkpt>
      <trkpt lat="47.10457" lon="4.67558">
        <ele>1328</ele>
        <time>2014-03-17T14:57:13Z</time>
      </trkpt>
      <trkpt lat="47.10453" lon="4.6756">
        <ele>1328</ele>
        <time>2014-03-17T14:57:17Z</time>
      </trkpt>
      <trkpt lat="47.1045" lon="4.67561">
        <ele>1328</ele>
        <time>2014-03-17T14:57:20Z</time>
      </trkpt>
      <trkpt lat="47.10447" lon="4.67563">
        <ele>1328</ele>
        <time>2014-03-17T14:57:22Z</time>
      </trkpt>
      <trkpt lat="47.10442" lon="4.67567">
        <ele>1328</ele>
        <time>2014-03-17T14:57:26Z</time>
      </trkpt>
      <trkpt lat="47.1044" lon="4.67568">
        <ele>1328</ele>
        <time>2014-03-17T14:57:28Z</time>
      </trkpt>
      <trkpt lat="47.10437" lon="4.6757">
        <ele>1328</ele>
        <time>2014-03-17T14:57:31Z</time>
      </trkpt>
      <trkpt lat="47.10435" lon="4.67572">
        <ele>1328</ele>
        <time>2014-03-17T14:57:33Z</time>
      </trkpt>
      <trkpt lat="47.10431" lon="4.67575">
        <ele>1328</ele>
        <time>2014-03-17T14:57:37Z</time>
      </trkpt>
      <trkpt lat="47.10429" lon="4.67578">
        <ele>1328</ele>
        <time>2014-03-17T14:57:39Z</time>
      </trkpt>
      <trkpt lat="47.10427" lon="4.6758">
        <ele>1328</ele>
        <time>2014-03-17T14:57:42Z</time>
      </trkpt>
      <trkpt lat="47.10424" lon="4.67582">
        <ele>1328</ele>
        <time>2014-03-17T14:57:46Z</time>
      </trkpt>
      <trkpt lat="47.10422" lon="4.67584">
        <ele>1328</ele>
        <time>2014-03-17T14:57:48Z</time>
      </trkpt>
      <trkpt lat="47.1042" lon="4.67585">
        <ele>1328</ele>
        <time>2014-03-17T14:57:50Z</time>
      </trkpt>
      <trkpt lat="47.10417" lon="4.67587">
        <ele>1328</ele>
        <time>2014-03-17T14:57:55Z</time>
      </trkpt>
      <trkpt lat="47.10415" lon="4.67588">
        <ele>1328</ele>
        <time>2014-03-17T14:57:57Z</time>
      </trkpt>
      <trkpt lat="47.10413" lon="4.67589">
        <ele>1328</ele>
        <time>2014-03-17T14:57:59Z</time>
      </trkpt>
      <trkpt lat="47.1041" lon="4.67592">
        <ele>1328</ele>
        <time>2014-03-17T14:58:04Z</time>
      </trkpt>
      <trkpt lat="47.10408" lon="4.67593">
        <ele>1328</ele>
        <time>2014-03-17T14:58:06Z</time>
      </trkpt>
      <trkpt lat="47.10407" lon="4.67594">
        <ele>1328</ele>
        <time>2014-03-17T14:58:08Z</time>
      </trkpt>
      <trkpt lat="47.10403" lon="4.67597">
        <ele>1328</ele>
        <time>2014-03-17T14:58:12Z</time>
      </trkpt>
      <trkpt lat="47.10401" lon="4.67599">
        <ele>1328</ele>
        <time>2014-03-17T14:58:15Z</time>
      </trkpt>
      <trkpt lat="47.104" lon="4.676">
        <ele>1328</ele>
        <time>2014-03-17T14:58:17Z</time>
      </trkpt>
      <trkpt lat="47.10397" lon="4.67602">
        <ele>1328</ele>
        <time>2014-03-17T14:58:21Z</time>
      </trkpt>
      <trkpt lat="47.10395" lon="4.67603">
        <ele>1328</ele>
        <time>2014-03-17T14:58:23Z</time>
      </trkpt>
      <trkpt lat="47.10394" lon="4.67604">
        <ele>1328</ele>
        <time>2014-03-17T14:58:26Z</time>
      </trkpt>
      <trkpt lat="47.10391" lon="4.67606">
        <ele>1328</ele>
        <time>2014-03-17T14:58:30Z</time>
      </trkpt>
      <trkpt lat="47.10389" lon="4.67606">
        <ele>1328</ele>
        <time>2014-03-17T14:58:32Z</time>
      </trkpt>
      <trkpt lat="47.10386" lon="4.67608">
        <ele>1328</ele>
        <time>2014-03-17T14:58:34Z</time>
      </trkpt>
      <trkpt lat="47.10381" lon="4.6761">
        <ele>1328</ele>
        <time>2014-03-17T14:58:39Z</time>
      </trkpt>
      <trkpt lat="47.10379" lon="4.67611">
        <ele>1328</ele>
        <time>2014-03-17T14:58:41Z</time>
      </trkpt>
      <trkpt lat="47.10378" lon="4.67612">
        <ele>1328</ele>
        <time>2014-03-17T14:58:43Z</time>
      </trkpt>
      <trkpt lat="47.10376" lon="4.67617">
        <ele>1328</ele>
        <time>2014-03-17T14:58:48Z</time>
      </trkpt>
      <trkpt lat="47.10375" lon="4.67618">
        <ele>1328</ele>
        <time>2014-03-17T14:58:50Z</time>
      </trkpt>
      <trkpt lat="47.10374" lon="4.67619">
        <ele>1328</ele>
        <time>2014-03-17T14:58:52Z</time>
      </trkpt>
      <trkpt lat="47.10372" lon="4.67621">
        <ele>1328</ele>
        <time>2014-03-17T14:58:56Z</time>
      </trkpt>
      <trkpt lat="47.10371" lon="4.67622">
        <ele>1328</ele>
        <time>2014-03-17T14:58:59Z</time>
      </trkpt>
      <trkpt lat="47.10371" lon="4.67623">
        <ele>1328</ele>
        <time>2014-03-17T14:59:01Z</time>
      </trkpt>
      <trkpt lat="47.1037" lon="4.67626">
        <ele>1328</ele>
        <time>2014-03-17T14:59:05Z</time>
      </trkpt>
      <trkpt lat="47.1037" lon="4.67628">
        <ele>1328</ele>
        <time>2014-03-17T14:59:07Z</time>
      </trkpt>
      <trkpt lat="47.10369" lon="4.67629">
        <ele>1328</ele>
        <time>2014-03-17T14:59:10Z</time>
      </trkpt>
      <trkpt lat="47.10367" lon="4.67632">
        <ele>1328</ele>
        <time>2014-03-17T14:59:14Z</time>
      </trkpt>
      <trkpt lat="47.10366" lon="4.67633">
        <ele>1328</ele>
        <time>2014-03-17T14:59:16Z</time>
      </trkpt>
      <trkpt lat="47.10364" lon="4.67634">
        <ele>1328</ele>
        <time>2014-03-17T14:59:18Z</time>
      </trkpt>
      <trkpt lat="47.10362" lon="4.67634">
        <ele>1328</ele>
        <time>2014-03-17T14:59:23Z</time>
      </trkpt>
      <trkpt lat="47.10361" lon="4.67634">
        <ele>1328</ele>
        <time>2014-03-17T14:59:25Z</time>
      </trkpt>
      <trkpt lat="47.10359" lon="4.67634">
        <ele>1328</ele>
        <time>2014-03-17T14:59:27Z</time>
      </trkpt>
      <trkpt lat="47.10356" lon="4.67634">
        <ele>1328</ele>
        <time>2014-03-17T14:59:32Z</time>
      </trkpt>
      <trkpt lat="47.10355" lon="4.67635">
        <ele>1328</ele>
        <time>2014-03-17T14:59:34Z</time>
      </trkpt>
      <trkpt lat="47.10354" lon="4.67634">
        <ele>1328</ele>
        <time>2014-03-17T14:59:36Z</time>
      </trkpt>
      <trkpt lat="47.10352" lon="4.67633">
        <ele>1328</ele>
        <time>2014-03-17T14:59:38Z</time>
      </trkpt>
      <trkpt lat="47.10352" lon="4.67634">
        <ele>1328</ele>
        <time>2014-03-17T14:59:43Z</time>
      </trkpt>
      <trkpt lat="47.10352" lon="4.67635">
        <ele>1328</ele>
        <time>2014-03-17T14:59:45Z</time>
      </trkpt>
      <trkpt lat="47.10352" lon="4.67634">
        <ele>1328</ele>
        <time>2014-03-17T14:59:47Z</time>
      </trkpt>
      <trkpt lat="47.10351" lon="4.67633">
        <ele>1328</ele>
        <time>2014-03-17T14:59:52Z</time>
      </trkpt>
      <trkpt lat="47.10351" lon="4.67632">
        <ele>1328</ele>
        <time>2014-03-17T14:59:54Z</time>
      </trkpt>
      <trkpt lat="47.10351" lon="4.67631">
        <ele>1328</ele>
        <time>2014-03-17T14:59:56Z</time>
      </trkpt>
      <trkpt lat="47.10351" lon="4.67632">
        <ele>1328</ele>
        <time>2014-03-17T15:00:00Z</time>
      </trkpt>
      <trkpt lat="47.1035" lon="4.67631">
        <ele>1328</ele>
        <time>2014-03-17T15:00:03Z</time>
      </trkpt>
      <trkpt lat="47.1035" lon="4.67631">
        <ele>1328</ele>
        <time>2014-03-17T15:00:05Z</time>
      </trkpt>
      <trkpt lat="47.1035" lon="4.67632">
        <ele>1328</ele>
        <time>2014-03-17T15:00:09Z</time>
      </trkpt>
      <trkpt lat="47.10349" lon="4.67631">
        <ele>1328</ele>
        <time>2014-03-17T15:00:11Z</time>
      </trkpt>
      <trkpt lat="47.10349" lon="4.6763">
        <ele>1328</ele>
        <time>2014-03-17T15:00:14Z</time>
      </trkpt>
      <trkpt lat="47.10348" lon="4.67629">
        <ele>1328</ele>
        <time>2014-03-17T15:00:18Z</time>
      </trkpt>
      <trkpt lat="47.10348" lon="4.67628">
        <ele>1328</ele>
        <time>2014-03-17T15:00:20Z</time>
      </trkpt>
      <trkpt lat="47.10347" lon="4.67626">
        <ele>1328</ele>
        <time>2014-03-17T15:00:22Z</time>
      </trkpt>
      <trkpt lat="47.10347" lon="4.67627">
        <ele>1328</ele>
        <time>2014-03-17T15:00:27Z</time>
      </trkpt>
      <trkpt lat="47.10347" lon="4.67628">
        <ele>1328</ele>
        <time>2014-03-17T15:00:29Z</time>
      </trkpt>
      <trkpt lat="47.10347" lon="4.67628">
        <ele>1328</ele>
        <time>2014-03-17T15:00:31Z</time>
      </trkpt>
      <trkpt lat="47.10347" lon="4.67629">
        <ele>1328</ele>
        <time>2014-03-17T15:00:36Z</time>
      </trkpt>
      <trkpt lat="47.10347" lon="4.6763">
        <ele>1328</ele>
        <time>2014-03-17T15:00:38Z</time>
      </trkpt>
      <trkpt lat="47.10347" lon="4.67629">
        <ele>1328</ele>
        <time>2014-03-17T15:00:40Z</time>
      </trkpt>
      <trkpt lat="47.10347" lon="4.67631">
        <ele>1328</ele>
        <time>2014-03-17T15:00:44Z</time>
      </trkpt>
      <trkpt lat="47.10347" lon="4.67631">
        <ele>1328</ele>
        <time>2014-03-17T15:00:47Z</time>
      </trkpt>
      <trkpt lat="47.10347" lon="4.67632">
        <ele>1328</ele>
        <time>2014-03-17T15:00:49Z</time>
      </trkpt>
      <trkpt lat="47.10347" lon="4.67632">
        <ele>1328</ele>
        <time>2014-03-17T15:00:53Z</time>
      </trkpt>
      <trkpt lat="47.10347" lon="4.67632">
        <ele>1328</ele>
        <time>2014-03-17T15:00:55Z</time>
      </trkpt>
      <trkpt lat="47.10346" lon="4.67632">
        <ele>1328</ele>
        <time>2014-03-17T15:00:58Z</time>
      </trkpt>
      <trkpt lat="47.10346" lon="4.67632">
        <ele>1328</ele>
        <time>2014-03-17T15:01:02Z</time>
      </trkpt>
      <trkpt lat="47.10346" lon="4.67632">
        <ele>1328</ele>
        <time>2014-03-17T15:01:04Z</time>
      </trkpt>
      <trkpt lat="47.10346" lon="4.67633">
        <ele>1328</ele>
        <time>2014-03-17T15:01:06Z</time>
      </trkpt>
      <trkpt lat="47.10346" lon="4.67634">
        <ele>1328</ele>
        <time>2014-03-17T15:01:11Z</time>
      </trkpt>
      <trkpt lat="47.10346" lon="4.67635">
        <ele>1328</ele>
        <time>2014-03-17T15:01:13Z</time>
      </trkpt>
      <trkpt lat="47.10346" lon="4.67635">
        <ele>1328</ele>
        <time>2014-03-17T15:01:15Z</time>
      </trkpt>
      <trkpt lat="47.10346" lon="4.67636">
        <ele>1328</ele>
        <time>2014-03-17T15:01:20Z</time>
      </trkpt>
      <trkpt lat="47.10346" lon="4.67636">
        <ele>1328</ele>
        <time>2014-03-17T15:01:22Z</time>
      </trkpt>
      <trkpt lat="47.10345" lon="4.67636">
        <ele>1328</ele>
        <time>2014-03-17T15:01:24Z</time>
      </trkpt>
      <trkpt lat="47.10345" lon="4.67636">
        <ele>1328</ele>
        <time>2014-03-17T15:01:28Z</time>
      </trkpt>
      <trkpt lat="47.10345" lon="4.67637">
        <ele>1328</ele>
        <time>2014-03-17T15:01:31Z</time>
      </trkpt>
      <trkpt lat="47.10345" lon="4.67636">
        <ele>1328</ele>
        <time>2014-03-17T15:01:33Z</time>
      </trkpt>
      <trkpt lat="47.10345" lon="4.67636">
        <ele>1328</ele>
        <time>2014-03-17T15:01:37Z</time>
      </trkpt>
      <trkpt lat="47.10345" lon="4.67635">
        <ele>1328</ele>
        <time>2014-03-17T15:01:39Z</time>
      </trkpt>
      <trkpt lat="47.10345" lon="4.67635">
        <ele>1328</ele>
        <time>2014-03-17T15:01:42Z</time>
      </trkpt>
      <trkpt lat="47.10345" lon="4.67634">
        <ele>1328</ele>
        <time>2014-03-17T15:01:44Z</time>
      </trkpt>
      <trkpt lat="47.10345" lon="4.67633">
        <ele>1328</ele>
        <time>2014-03-17T15:01:48Z</time>
      </trkpt>
      <trkpt lat="47.10345" lon="4.67632">
        <ele>1328</ele>
        <time>2014-03-17T15:01:50Z</time>
      </trkpt>
      <trkpt lat="47.10345" lon="4.67632">
        <ele>1328</ele>
        <time>2014-03-17T15:01:53Z</time>
      </trkpt>
      <trkpt lat="47.10345" lon="4.67632">
        <ele>1328</ele>
        <time>2014-03-17T15:01:57Z</time>
      </trkpt>
      <trkpt lat="47.10345" lon="4.67632">
        <ele>1328</ele>
        <time>2014-03-17T15:01:59Z</time>
      </trkpt>
      <trkpt lat="47.10345" lon="4.67633">
        <ele>1328</ele>
        <time>2014-03-17T15:02:02Z</time>
      </trkpt>
      <trkpt lat="47.10346" lon="4.67633">
        <ele>1328</ele>
        <time>2014-03-17T15:02:06Z</time>
      </trkpt>
      <trkpt lat="47.10346" lon="4.67633">
        <ele>1328</ele>
        <time>2014-03-17T15:02:08Z</time>
      </trkpt>
      <trkpt lat="47.10346" lon="4.67633">
        <ele>1328</ele>
        <time>2014-03-17T15:02:10Z</time>
      </trkpt>
      <trkpt lat="47.10346" lon="4.67633">
        <ele>1328</ele>
        <time>2014-03-17T15:02:15Z</time>
      </trkpt>
      <trkpt lat="47.10347" lon="4.67634">
        <ele>1328</ele>
        <time>2014-03-17T15:02:17Z</time>
      </trkpt>
      <trkpt lat="47.10347" lon="4.67634">
        <ele>1328</ele>
        <time>2014-03-17T15:02:19Z</time>
      </trkpt>
      <trkpt lat="47.10349" lon="4.67634">
        <ele>1328</ele>
        <time>2014-03-17T15:02:24Z</time>
      </trkpt>
      <trkpt lat="47.10349" lon="4.67634">
        <ele>1328</ele>
        <time>2014-03-17T15:02:26Z</time>
      </trkpt>
      <trkpt lat="47.1035" lon="4.67634">
        <ele>1328</ele>
        <time>2014-03-17T15:02:28Z</time>
      </trkpt>
      <trkpt lat="47.1035" lon="4.67634">
        <ele>1328</ele>
        <time>2014-03-17T15:02:32Z</time>
      </trkpt>
      <trkpt lat="47.1035" lon="4.67634">
        <ele>1328</ele>
        <time>2014-03-17T15:02:35Z</time>
      </trkpt>
      <trkpt lat="47.1035" lon="4.67634">
        <ele>1328</ele>
        <time>2014-03-17T15:02:37Z</time>
      </trkpt>
      <trkpt lat="47.10349" lon="4.67633">
        <ele>1328</ele>
        <time>2014-03-17T15:02:41Z</time>
      </trkpt>
      <trkpt lat="47.10349" lon="4.67633">
        <ele>1328</ele>
        <time>2014-03-17T15:02:43Z</time>
      </trkpt>
      <trkpt lat="47.10349" lon="4.67633">
        <ele>1328</ele>
        <time>2014-03-17T15:02:46Z</time>
      </trkpt>
      <trkpt lat="47.10349" lon="4.67634">
        <ele>1328</ele>
        <time>2014-03-17T15:02:50Z</time>
      </trkpt>
      <trkpt lat="47.10349" lon="4.67634">
        <ele>1328</ele>
        <time>2014-03-17T15:02:52Z</time>
      </trkpt>
      <trkpt lat="47.10349" lon="4.67634">
        <ele>1328</ele>
        <time>2014-03-17T15:02:54Z</time>
      </trkpt>
      <trkpt lat="47.10348" lon="4.67634">
        <ele>1328</ele>
        <time>2014-03-17T15:02:59Z</time>
      </trkpt>
      <trkpt lat="47.10347" lon="4.67633">
        <ele>1328</ele>
        <time>2014-03-17T15:03:01Z</time>
      </trkpt>
      <trkpt lat="47.10347" lon="4.67633">
        <ele>1328</ele>
        <time>2014-03-17T15:03:03Z</time>
      </trkpt>
      <trkpt lat="47.10346" lon="4.67633">
        <ele>1328</ele>
        <time>2014-03-17T15:03:08Z</time>
      </trkpt>
      <trkpt lat="47.10346" lon="4.67633">
        <ele>1328</ele>
        <time>2014-03-17T15:03:10Z</time>
      </trkpt>
      <trkpt lat="47.10346" lon="4.67633">
        <ele>1328</ele>
        <time>2014-03-17T15:03:12Z</time>
      </trkpt>
      <trkpt lat="47.10346" lon="4.67634">
        <ele>1328</ele>
        <time>2014-03-17T15:03:16Z</time>
      </trkpt>
      <trkpt lat="47.10346" lon="4.67634">
        <ele>1328</ele>
        <time>2014-03-17T15:03:19Z</time>
      </trkpt>
      <trkpt lat="47.10345" lon="4.67635">
        <ele>1328</ele>
        <time>2014-03-17T15:03:21Z</time>
      </trkpt>
      <trkpt lat="47.10345" lon="4.67635">
        <ele>1328</ele>
        <time>2014-03-17T15:03:25Z</time>
      </trkpt>
      <trkpt lat="47.10345" lon="4.67635">
        <ele>1328</ele>
        <time>2014-03-17T15:03:27Z</time>
      </trkpt>
      <trkpt lat="47.10345" lon="4.67636">
        <ele>1328</ele>
        <time>2014-03-17T15:03:30Z</time>
      </trkpt>
      <trkpt lat="47.10344" lon="4.67636">
        <ele>1328</ele>
        <time>2014-03-17T15:03:34Z</time>
      </trkpt>
      <trkpt lat="47.10344" lon="4.67636">
        <ele>1328</ele>
        <time>2014-03-17T15:03:36Z</time>
      </trkpt>
      <trkpt lat="47.10344" lon="4.67635">
        <ele>1328</ele>
        <time>2014-03-17T15:03:38Z</time>
      </trkpt>
      <trkpt lat="47.10344" lon="4.67637">
        <ele>1328</ele>
        <time>2014-03-17T15:03:43Z</time>
      </trkpt>
      <trkpt lat="47.10345" lon="4.67638">
        <ele>1328</ele>
        <time>2014-03-17T15:03:45Z</time>
      </trkpt>
      <trkpt lat="47.10345" lon="4.67638">
        <ele>1328</ele>
        <time>2014-03-17T15:03:47Z</time>
      </trkpt>
      <trkpt lat="47.10345" lon="4.67638">
        <ele>1328</ele>
        <time>2014-03-17T15:03:52Z</time>
      </trkpt>
      <trkpt lat="47.10345" lon="4.67638">
        <ele>1328</ele>
        <time>2014-03-17T15:03:54Z</time>
      </trkpt>
      <trkpt lat="47.10345" lon="4.67638">
        <ele>1328</ele>
        <time>2014-03-17T15:03:56Z</time>
      </trkpt>
      <trkpt lat="47.10345" lon="4.67639">
        <ele>1328</ele>
        <time>2014-03-17T15:03:58Z</time>
      </trkpt>
      <trkpt lat="47.10345" lon="4.67638">
        <ele>1328</ele>
        <time>2014-03-17T15:04:03Z</time>
      </trkpt>
      <trkpt lat="47.10345" lon="4.67639">
        <ele>1328</ele>
        <time>2014-03-17T15:04:05Z</time>
      </trkpt>
      <trkpt lat="47.10345" lon="4.67639">
        <ele>1328</ele>
        <time>2014-03-17T15:04:07Z</time>
      </trkpt>
      <trkpt lat="47.10344" lon="4.67638">
        <ele>1328</ele>
        <time>2014-03-17T15:04:11Z</time>
      </trkpt>
      <trkpt lat="47.10344" lon="4.67637">
        <ele>1328</ele>
        <time>2014-03-17T15:04:14Z</time>
      </trkpt>
      <trkpt lat="47.10344" lon="4.67638">
        <ele>1328</ele>
        <time>2014-03-17T15:04:16Z</time>
      </trkpt>
      <trkpt lat="47.10343" lon="4.67638">
        <ele>1328</ele>
        <time>2014-03-17T15:04:20Z</time>
      </trkpt>
      <trkpt lat="47.10343" lon="4.67638">
        <ele>1328</ele>
        <time>2014-03-17T15:04:22Z</time>
      </trkpt>
      <trkpt lat="47.10343" lon="4.67637">
        <ele>1328</ele>
        <time>2014-03-17T15:04:25Z</time>
      </trkpt>
      <trkpt lat="47.10343" lon="4.67637">
        <ele>1328</ele>
        <time>2014-03-17T15:04:29Z</time>
      </trkpt>
      <trkpt lat="47.10343" lon="4.67636">
        <ele>1328</ele>
        <time>2014-03-17T15:04:31Z</time>
      </trkpt>
      <trkpt lat="47.10343" lon="4.67635">
        <ele>1328</ele>
        <time>2014-03-17T15:04:33Z</time>
      </trkpt>
      <trkpt lat="47.10343" lon="4.67635">
        <ele>1328</ele>
        <time>2014-03-17T15:04:38Z</time>
      </trkpt>
      <trkpt lat="47.10343" lon="4.67634">
        <ele>1328</ele>
        <time>2014-03-17T15:04:40Z</time>
      </trkpt>
      <trkpt lat="47.10342" lon="4.67634">
        <ele>1328</ele>
        <time>2014-03-17T15:04:42Z</time>
      </trkpt>
      <trkpt lat="47.10342" lon="4.67635">
        <ele>1328</ele>
        <time>2014-03-17T15:04:47Z</time>
      </trkpt>
      <trkpt lat="47.10342" lon="4.67635">
        <ele>1328</ele>
        <time>2014-03-17T15:04:49Z</time>
      </trkpt>
      <trkpt lat="47.10342" lon="4.67635">
        <ele>1328</ele>
        <time>2014-03-17T15:04:51Z</time>
      </trkpt>
      <trkpt lat="47.10342" lon="4.67635">
        <ele>1328</ele>
        <time>2014-03-17T15:04:55Z</time>
      </trkpt>
      <trkpt lat="47.10342" lon="4.67635">
        <ele>1328</ele>
        <time>2014-03-17T15:04:58Z</time>
      </trkpt>
      <trkpt lat="47.10342" lon="4.67635">
        <ele>1328</ele>
        <time>2014-03-17T15:05:00Z</time>
      </trkpt>
      <trkpt lat="47.10342" lon="4.67635">
        <ele>1328</ele>
        <time>2014-03-17T15:05:04Z</time>
      </trkpt>
      <trkpt lat="47.10342" lon="4.67635">
        <ele>1328</ele>
        <time>2014-03-17T15:05:06Z</time>
      </trkpt>
      <trkpt lat="47.10342" lon="4.67635">
        <ele>1328</ele>
        <time>2014-03-17T15:05:09Z</time>
      </trkpt>
      <trkpt lat="47.10342" lon="4.67634">
        <ele>1328</ele>
        <time>2014-03-17T15:05:13Z</time>
      </trkpt>
      <trkpt lat="47.10342" lon="4.67633">
        <ele>1328</ele>
        <time>2014-03-17T15:05:15Z</time>
      </trkpt>
      <trkpt lat="47.10342" lon="4.67634">
        <ele>1328</ele>
        <time>2014-03-17T15:05:17Z</time>
      </trkpt>
      <trkpt lat="47.10343" lon="4.67636">
        <ele>1328</ele>
        <time>2014-03-17T15:05:22Z</time>
      </trkpt>
      <trkpt lat="47.10343" lon="4.67637">
        <ele>1328</ele>
        <time>2014-03-17T15:05:24Z</time>
      </trkpt>
      <trkpt lat="47.10344" lon="4.67639">
        <ele>1328</ele>
        <time>2014-03-17T15:05:26Z</time>
      </trkpt>
      <trkpt lat="47.10347" lon="4.67644">
        <ele>1328</ele>
        <time>2014-03-17T15:05:31Z</time>
      </trkpt>
      <trkpt lat="47.10347" lon="4.67647">
        <ele>1328</ele>
        <time>2014-03-17T15:05:33Z</time>
      </trkpt>
      <trkpt lat="47.10347" lon="4.67649">
        <ele>1328</ele>
        <time>2014-03-17T15:05:35Z</time>
      </trkpt>
      <trkpt lat="47.1035" lon="4.67655">
        <ele>1328</ele>
        <time>2014-03-17T15:05:39Z</time>
      </trkpt>
      <trkpt lat="47.10351" lon="4.67657">
        <ele>1328</ele>
        <time>2014-03-17T15:05:42Z</time>
      </trkpt>
      <trkpt lat="47.10351" lon="4.67659">
        <ele>1328</ele>
        <time>2014-03-17T15:05:44Z</time>
      </trkpt>
      <trkpt lat="47.10352" lon="4.67663">
        <ele>1328</ele>
        <time>2014-03-17T15:05:48Z</time>
      </trkpt>
      <trkpt lat="47.10353" lon="4.67666">
        <ele>1328</ele>
        <time>2014-03-17T15:05:50Z</time>
      </trkpt>
      <trkpt lat="47.10353" lon="4.67669">
        <ele>1328</ele>
        <time>2014-03-17T15:05:53Z</time>
      </trkpt>
      <trkpt lat="47.10352" lon="4.67673">
        <ele>1328</ele>
        <time>2014-03-17T15:05:57Z</time>
      </trkpt>
      <trkpt lat="47.10351" lon="4.67676">
        <ele>1328</ele>
        <time>2014-03-17T15:05:59Z</time>
      </trkpt>
      <trkpt lat="47.10351" lon="4.67679">
        <ele>1328</ele>
        <time>2014-03-17T15:06:02Z</time>
      </trkpt>
      <trkpt lat="47.10351" lon="4.67681">
        <ele>1328</ele>
        <time>2014-03-17T15:06:04Z</time>
      </trkpt>
      <trkpt lat="47.10351" lon="4.67686">
        <ele>1328</ele>
        <time>2014-03-17T15:06:08Z</time>
      </trkpt>
      <trkpt lat="47.10351" lon="4.67688">
        <ele>1328</ele>
        <time>2014-03-17T15:06:10Z</time>
      </trkpt>
      <trkpt lat="47.1035" lon="4.67692">
        <ele>1328</ele>
        <time>2014-03-17T15:06:13Z</time>
      </trkpt>
      <trkpt lat="47.10348" lon="4.67697">
        <ele>1328</ele>
        <time>2014-03-17T15:06:17Z</time>
      </trkpt>
      <trkpt lat="47.10348" lon="4.677">
        <ele>1328</ele>
        <time>2014-03-17T15:06:19Z</time>
      </trkpt>
      <trkpt lat="47.10346" lon="4.67702">
        <ele>1328</ele>
        <time>2014-03-17T15:06:21Z</time>
      </trkpt>
      <trkpt lat="47.10344" lon="4.6771">
        <ele>1328</ele>
        <time>2014-03-17T15:06:26Z</time>
      </trkpt>
      <trkpt lat="47.10343" lon="4.67712">
        <ele>1328</ele>
        <time>2014-03-17T15:06:28Z</time>
      </trkpt>
      <trkpt lat="47.10342" lon="4.67715">
        <ele>1328</ele>
        <time>2014-03-17T15:06:30Z</time>
      </trkpt>
      <trkpt lat="47.10339" lon="4.67722">
        <ele>1328</ele>
        <time>2014-03-17T15:06:35Z</time>
      </trkpt>
      <trkpt lat="47.10338" lon="4.67725">
        <ele>1328</ele>
        <time>2014-03-17T15:06:37Z</time>
      </trkpt>
      <trkpt lat="47.10337" lon="4.67728">
        <ele>1328</ele>
        <time>2014-03-17T15:06:39Z</time>
      </trkpt>
      <trkpt lat="47.10335" lon="4.67736">
        <ele>1328</ele>
        <time>2014-03-17T15:06:43Z</time>
      </trkpt>
      <trkpt lat="47.10334" lon="4.67739">
        <ele>1328</ele>
        <time>2014-03-17T15:06:46Z</time>
      </trkpt>
      <trkpt lat="47.10333" lon="4.67741">
        <ele>1328</ele>
        <time>2014-03-17T15:06:48Z</time>
      </trkpt>
      <trkpt lat="47.10332" lon="4.67747">
        <ele>1328</ele>
        <time>2014-03-17T15:06:52Z</time>
      </trkpt>
      <trkpt lat="47.10331" lon="4.67751">
        <ele>1328</ele>
        <time>2014-03-17T15:06:54Z</time>
      </trkpt>
      <trkpt lat="47.1033" lon="4.67754">
        <ele>1328</ele>
        <time>2014-03-17T15:06:57Z</time>
      </trkpt>
      <trkpt lat="47.10329" lon="4.67759">
        <ele>1328</ele>
        <time>2014-03-17T15:07:01Z</time>
      </trkpt>
      <trkpt lat="47.10328" lon="4.67761">
        <ele>1328</ele>
        <time>2014-03-17T15:07:03Z</time>
      </trkpt>
      <trkpt lat="47.10326" lon="4.67764">
        <ele>1328</ele>
        <time>2014-03-17T15:07:05Z</time>
      </trkpt>
      <trkpt lat="47.10323" lon="4.67768">
        <ele>1328</ele>
        <time>2014-03-17T15:07:10Z</time>
      </trkpt>
      <trkpt lat="47.10322" lon="4.6777">
        <ele>1328</ele>
        <time>2014-03-17T15:07:12Z</time>
      </trkpt>
      <trkpt lat="47.1032" lon="4.67772">
        <ele>1328</ele>
        <time>2014-03-17T15:07:14Z</time>
      </trkpt>
      <trkpt lat="47.10316" lon="4.67778">
        <ele>1328</ele>
        <time>2014-03-17T15:07:19Z</time>
      </trkpt>
      <trkpt lat="47.10314" lon="4.6778">
        <ele>1328</ele>
        <time>2014-03-17T15:07:21Z</time>
      </trkpt>
      <trkpt lat="47.10312" lon="4.67782">
        <ele>1328</ele>
        <time>2014-03-17T15:07:23Z</time>
      </trkpt>
      <trkpt lat="47.10308" lon="4.67788">
        <ele>1328</ele>
        <time>2014-03-17T15:07:28Z</time>
      </trkpt>
      <trkpt lat="47.10307" lon="4.6779">
        <ele>1328</ele>
        <time>2014-03-17T15:07:30Z</time>
      </trkpt>
      <trkpt lat="47.10306" lon="4.67792">
        <ele>1328</ele>
        <time>2014-03-17T15:07:32Z</time>
      </trkpt>
      <trkpt lat="47.10306" lon="4.67795">
        <ele>1328</ele>
        <time>2014-03-17T15:07:36Z</time>
      </trkpt>
      <trkpt lat="47.10306" lon="4.67795">
        <ele>1328</ele>
        <time>2014-03-17T15:07:39Z</time>
      </trkpt>
      <trkpt lat="47.10306" lon="4.67795">
        <ele>1328</ele>
        <time>2014-03-17T15:07:41Z</time>
      </trkpt>
      <trkpt lat="47.10309" lon="4.67798">
        <ele>1328</ele>
        <time>2014-03-17T15:07:45Z</time>
      </trkpt>
      <trkpt lat="47.10311" lon="4.67798">
        <ele>1328</ele>
        <time>2014-03-17T15:07:47Z</time>
      </trkpt>
      <trkpt lat="47.10313" lon="4.67798">
        <ele>1328</ele>
        <time>2014-03-17T15:07:50Z</time>
      </trkpt>
      <trkpt lat="47.10316" lon="4.67798">
        <ele>1328</ele>
        <time>2014-03-17T15:07:54Z</time>
      </trkpt>
      <trkpt lat="47.10317" lon="4.67798">
        <ele>1328</ele>
        <time>2014-03-17T15:07:56Z</time>
      </trkpt>
      <trkpt lat="47.10319" lon="4.67798">
        <ele>1328</ele>
        <time>2014-03-17T15:07:58Z</time>
      </trkpt>
      <trkpt lat="47.10323" lon="4.67799">
        <ele>1328</ele>
        <time>2014-03-17T15:08:03Z</time>
      </trkpt>
      <trkpt lat="47.10324" lon="4.67798">
        <ele>1328</ele>
        <time>2014-03-17T15:08:05Z</time>
      </trkpt>
      <trkpt lat="47.10326" lon="4.67798">
        <ele>1328</ele>
        <time>2014-03-17T15:08:07Z</time>
      </trkpt>
      <trkpt lat="47.10327" lon="4.67798">
        <ele>1328</ele>
        <time>2014-03-17T15:08:09Z</time>
      </trkpt>
      <trkpt lat="47.10332" lon="4.67798">
        <ele>1328</ele>
        <time>2014-03-17T15:08:14Z</time>
      </trkpt>
      <trkpt lat="47.10334" lon="4.67798">
        <ele>1328</ele>
        <time>2014-03-17T15:08:16Z</time>
      </trkpt>
      <trkpt lat="47.10336" lon="4.67798">
        <ele>1328</ele>
        <time>2014-03-17T15:08:18Z</time>
      </trkpt>
      <trkpt lat="47.1034" lon="4.67798">
        <ele>1328</ele>
        <time>2014-03-17T15:08:23Z</time>
      </trkpt>
      <trkpt lat="47.10342" lon="4.67798">
        <ele>1328</ele>
        <time>2014-03-17T15:08:25Z</time>
      </trkpt>
      <trkpt lat="47.10344" lon="4.67798">
        <ele>1328</ele>
        <time>2014-03-17T15:08:27Z</time>
      </trkpt>
      <trkpt lat="47.10349" lon="4.67798">
        <ele>1328</ele>
        <time>2014-03-17T15:08:31Z</time>
      </trkpt>
      <trkpt lat="47.1035" lon="4.67798">
        <ele>1328</ele>
        <time>2014-03-17T15:08:34Z</time>
      </trkpt>
      <trkpt lat="47.10352" lon="4.67798">
        <ele>1328</ele>
        <time>2014-03-17T15:08:36Z</time>
      </trkpt>
      <trkpt lat="47.10356" lon="4.67798">
        <ele>1328</ele>
        <time>2014-03-17T15:08:40Z</time>
      </trkpt>
      <trkpt lat="47.10358" lon="4.67798">
        <ele>1328</ele>
        <time>2014-03-17T15:08:42Z</time>
      </trkpt>
      <trkpt lat="47.1036" lon="4.67798">
        <ele>1328</ele>
        <time>2014-03-17T15:08:45Z</time>
      </trkpt>
      <trkpt lat="47.10363" lon="4.67798">
        <ele>1328</ele>
        <time>2014-03-17T15:08:49Z</time>
      </trkpt>
      <trkpt lat="47.10365" lon="4.67798">
        <ele>1328</ele>
        <time>2014-03-17T15:08:51Z</time>
      </trkpt>
      <trkpt lat="47.10367" lon="4.67798">
        <ele>1328</ele>
        <time>2014-03-17T15:08:54Z</time>
      </trkpt>
      <trkpt lat="47.1037" lon="4.67797">
        <ele>1328</ele>
        <time>2014-03-17T15:08:58Z</time>
      </trkpt>
      <trkpt lat="47.10372" lon="4.67798">
        <ele>1328</ele>
        <time>2014-03-17T15:09:00Z</time>
      </trkpt>
      <trkpt lat="47.10374" lon="4.67797">
        <ele>1328</ele>
        <time>2014-03-17T15:09:02Z</time>
      </trkpt>
      <trkpt lat="47.10377" lon="4.67797">
        <ele>1328</ele>
        <time>2014-03-17T15:09:07Z</time>
      </trkpt>
      <trkpt lat="47.10379" lon="4.67797">
        <ele>1328</ele>
        <time>2014-03-17T15:09:09Z</time>
      </trkpt>
      <trkpt lat="47.10381" lon="4.67798">
        <ele>1328</ele>
        <time>2014-03-17T15:09:11Z</time>
      </trkpt>
      <trkpt lat="47.10386" lon="4.67798">
        <ele>1328</ele>
        <time>2014-03-17T15:09:16Z</time>
      </trkpt>
      <trkpt lat="47.10387" lon="4.67798">
        <ele>1328</ele>
        <time>2014-03-17T15:09:18Z</time>
      </trkpt>
      <trkpt lat="47.10388" lon="4.67798">
        <ele>1328</ele>
        <time>2014-03-17T15:09:20Z</time>
      </trkpt>
      <trkpt lat="47.10393" lon="4.67799">
        <ele>1328</ele>
        <time>2014-03-17T15:09:24Z</time>
      </trkpt>
      <trkpt lat="47.10394" lon="4.678">
        <ele>1328</ele>
        <time>2014-03-17T15:09:27Z</time>
      </trkpt>
      <trkpt lat="47.10396" lon="4.67801">
        <ele>1328</ele>
        <time>2014-03-17T15:09:29Z</time>
      </trkpt>
      <trkpt lat="47.104" lon="4.67801">
        <ele>1328</ele>
        <time>2014-03-17T15:09:33Z</time>
      </trkpt>
      <trkpt lat="47.10402" lon="4.67802">
        <ele>1328</ele>
        <time>2014-03-17T15:09:35Z</time>
      </trkpt>
      <trkpt lat="47.10404" lon="4.67802">
        <ele>1328</ele>
        <time>2014-03-17T15:09:38Z</time>
      </trkpt>
      <trkpt lat="47.10408" lon="4.67803">
        <ele>1328</ele>
        <time>2014-03-17T15:09:42Z</time>
      </trkpt>
      <trkpt lat="47.1041" lon="4.67804">
        <ele>1328</ele>
        <time>2014-03-17T15:09:44Z</time>
      </trkpt>
      <trkpt lat="47.10413" lon="4.67805">
        <ele>1328</ele>
        <time>2014-03-17T15:09:46Z</time>
      </trkpt>
      <trkpt lat="47.10416" lon="4.67807">
        <ele>1328</ele>
        <time>2014-03-17T15:09:51Z</time>
      </trkpt>
      <trkpt lat="47.10418" lon="4.67808">
        <ele>1328</ele>
        <time>2014-03-17T15:09:53Z</time>
      </trkpt>
      <trkpt lat="47.1042" lon="4.67809">
        <ele>1328</ele>
        <time>2014-03-17T15:09:55Z</time>
      </trkpt>
      <trkpt lat="47.10423" lon="4.6781">
        <ele>1328</ele>
        <time>2014-03-17T15:10:00Z</time>
      </trkpt>
      <trkpt lat="47.10425" lon="4.6781">
        <ele>1328</ele>
        <time>2014-03-17T15:10:02Z</time>
      </trkpt>
      <trkpt lat="47.10427" lon="4.67811">
        <ele>1328</ele>
        <time>2014-03-17T15:10:04Z</time>
      </trkpt>
      <trkpt lat="47.10432" lon="4.67814">
        <ele>1328</ele>
        <time>2014-03-17T15:10:08Z</time>
      </trkpt>
      <trkpt lat="47.10434" lon="4.67815">
        <ele>1328</ele>
        <time>2014-03-17T15:10:11Z</time>
      </trkpt>
      <trkpt lat="47.10436" lon="4.67816">
        <ele>1328</ele>
        <time>2014-03-17T15:10:13Z</time>
      </trkpt>
      <trkpt lat="47.1044" lon="4.67817">
        <ele>1328</ele>
        <time>2014-03-17T15:10:17Z</time>
      </trkpt>
      <trkpt lat="47.10442" lon="4.67818">
        <ele>1328</ele>
        <time>2014-03-17T15:10:19Z</time>
      </trkpt>
      <trkpt lat="47.10444" lon="4.67819">
        <ele>1328</ele>
        <time>2014-03-17T15:10:22Z</time>
      </trkpt>
      <trkpt lat="47.10444" lon="4.6782">
        <ele>1328</ele>
        <time>2014-03-17T15:10:24Z</time>
      </trkpt>
      <trkpt lat="47.10446" lon="4.67819">
        <ele>1328</ele>
        <time>2014-03-17T15:10:28Z</time>
      </trkpt>
      <trkpt lat="47.10448" lon="4.67821">
        <ele>1328</ele>
        <time>2014-03-17T15:10:30Z</time>
      </trkpt>
      <trkpt lat="47.10449" lon="4.67822">
        <ele>1328</ele>
        <time>2014-03-17T15:10:33Z</time>
      </trkpt>
      <trkpt lat="47.10453" lon="4.67824">
        <ele>1328</ele>
        <time>2014-03-17T15:10:37Z</time>
      </trkpt>
      <trkpt lat="47.10454" lon="4.67825">
        <ele>1328</ele>
        <time>2014-03-17T15:10:39Z</time>
      </trkpt>
      <trkpt lat="47.10457" lon="4.67827">
        <ele>1328</ele>
        <time>2014-03-17T15:10:41Z</time>
      </trkpt>
      <trkpt lat="47.1046" lon="4.6783">
        <ele>1328</ele>
        <time>2014-03-17T15:10:46Z</time>
      </trkpt>
      <trkpt lat="47.10462" lon="4.67831">
        <ele>1328</ele>
        <time>2014-03-17T15:10:48Z</time>
      </trkpt>
      <trkpt lat="47.10464" lon="4.67834">
        <ele>1328</ele>
        <time>2014-03-17T15:10:50Z</time>
      </trkpt>
      <trkpt lat="47.10468" lon="4.67836">
        <ele>1328</ele>
        <time>2014-03-17T15:10:55Z</time>
      </trkpt>
      <trkpt lat="47.10469" lon="4.67838">
        <ele>1328</ele>
        <time>2014-03-17T15:10:57Z</time>
      </trkpt>
      <trkpt lat="47.10471" lon="4.67839">
        <ele>1328</ele>
        <time>2014-03-17T15:10:59Z</time>
      </trkpt>
      <trkpt lat="47.10476" lon="4.67843">
        <ele>1328</ele>
        <time>2014-03-17T15:11:04Z</time>
      </trkpt>
      <trkpt lat="47.10477" lon="4.67844">
        <ele>1328</ele>
        <time>2014-03-17T15:11:06Z</time>
      </trkpt>
      <trkpt lat="47.10479" lon="4.67846">
        <ele>1328</ele>
        <time>2014-03-17T15:11:08Z</time>
      </trkpt>
      <trkpt lat="47.10483" lon="4.67849">
        <ele>1328</ele>
        <time>2014-03-17T15:11:12Z</time>
      </trkpt>
      <trkpt lat="47.10484" lon="4.67851">
        <ele>1328</ele>
        <time>2014-03-17T15:11:15Z</time>
      </trkpt>
      <trkpt lat="47.10486" lon="4.67852">
        <ele>1328</ele>
        <time>2014-03-17T15:11:17Z</time>
      </trkpt>
      <trkpt lat="47.1049" lon="4.67855">
        <ele>1328</ele>
        <time>2014-03-17T15:11:21Z</time>
      </trkpt>
      <trkpt lat="47.10493" lon="4.67858">
        <ele>1328</ele>
        <time>2014-03-17T15:11:23Z</time>
      </trkpt>
      <trkpt lat="47.10494" lon="4.67859">
        <ele>1328</ele>
        <time>2014-03-17T15:11:26Z</time>
      </trkpt>
      <trkpt lat="47.10498" lon="4.67862">
        <ele>1328</ele>
        <time>2014-03-17T15:11:30Z</time>
      </trkpt>
      <trkpt lat="47.105" lon="4.67863">
        <ele>1328</ele>
        <time>2014-03-17T15:11:32Z</time>
      </trkpt>
      <trkpt lat="47.10503" lon="4.67864">
        <ele>1328</ele>
        <time>2014-03-17T15:11:34Z</time>
      </trkpt>
      <trkpt lat="47.10506" lon="4.67866">
        <ele>1328</ele>
        <time>2014-03-17T15:11:39Z</time>
      </trkpt>
      <trkpt lat="47.10509" lon="4.67867">
        <ele>1328</ele>
        <time>2014-03-17T15:11:41Z</time>
      </trkpt>
      <trkpt lat="47.10511" lon="4.67868">
        <ele>1328</ele>
        <time>2014-03-17T15:11:43Z</time>
      </trkpt>
      <trkpt lat="47.10516" lon="4.6787">
        <ele>1328</ele>
        <time>2014-03-17T15:11:48Z</time>
      </trkpt>
      <trkpt lat="47.10518" lon="4.6787">
        <ele>1328</ele>
        <time>2014-03-17T15:11:50Z</time>
      </trkpt>
      <trkpt lat="47.1052" lon="4.67871">
        <ele>1328</ele>
        <time>2014-03-17T15:11:52Z</time>
      </trkpt>
      <trkpt lat="47.10526" lon="4.67872">
        <ele>1328</ele>
        <time>2014-03-17T15:11:57Z</time>
      </trkpt>
      <trkpt lat="47.10528" lon="4.67873">
        <ele>1328</ele>
        <time>2014-03-17T15:11:59Z</time>
      </trkpt>
      <trkpt lat="47.1053" lon="4.67874">
        <ele>1328</ele>
        <time>2014-03-17T15:12:01Z</time>
      </trkpt>
      <trkpt lat="47.10534" lon="4.67878">
        <ele>1328</ele>
        <time>2014-03-17T15:12:05Z</time>
      </trkpt>
      <trkpt lat="47.10534" lon="4.67877">
        <ele>1328</ele>
        <time>2014-03-17T15:12:08Z</time>
      </trkpt>
      <trkpt lat="47.10534" lon="4.67877">
        <ele>1328</ele>
        <time>2014-03-17T15:12:10Z</time>
      </trkpt>
      <trkpt lat="47.10534" lon="4.67878">
        <ele>1328</ele>
        <time>2014-03-17T15:12:14Z</time>
      </trkpt>
      <trkpt lat="47.10534" lon="4.67878">
        <ele>1328</ele>
        <time>2014-03-17T15:12:16Z</time>
      </trkpt>
      <trkpt lat="47.10534" lon="4.67878">
        <ele>1328</ele>
        <time>2014-03-17T15:12:19Z</time>
      </trkpt>
      <trkpt lat="47.10534" lon="4.67878">
        <ele>1328</ele>
        <time>2014-03-17T15:12:23Z</time>
      </trkpt>
      <trkpt lat="47.10534" lon="4.67879">
        <ele>1328</ele>
        <time>2014-03-17T15:12:25Z</time>
      </trkpt>
      <trkpt lat="47.10534" lon="4.67879">
        <ele>1328</ele>
        <time>2014-03-17T15:12:27Z</time>
      </trkpt>
      <trkpt lat="47.10534" lon="4.67879">
        <ele>1328</ele>
        <time>2014-03-17T15:12:30Z</time>
      </trkpt>
      <trkpt lat="47.10533" lon="4.67879">
        <ele>1328</ele>
        <time>2014-03-17T15:12:34Z</time>
      </trkpt>
      <trkpt lat="47.10533" lon="4.67879">
        <ele>1328</ele>
        <time>2014-03-17T15:12:36Z</time>
      </trkpt>
      <trkpt lat="47.10533" lon="4.6788">
        <ele>1328</ele>
        <time>2014-03-17T15:12:38Z</time>
      </trkpt>
      <trkpt lat="47.10533" lon="4.6788">
        <ele>1328</ele>
        <time>2014-03-17T15:12:43Z</time>
      </trkpt>
      <trkpt lat="47.10533" lon="4.6788">
        <ele>1328</ele>
        <time>2014-03-17T15:12:45Z</time>
      </trkpt>
      <trkpt lat="47.10532" lon="4.6788">
        <ele>1328</ele>
        <time>2014-03-17T15:12:47Z</time>
      </trkpt>
      <trkpt lat="47.10532" lon="4.67881">
        <ele>1328</ele>
        <time>2014-03-17T15:12:52Z</time>
      </trkpt>
      <trkpt lat="47.10532" lon="4.67881">
        <ele>1328</ele>
        <time>2014-03-17T15:12:54Z</time>
      </trkpt>
      <trkpt lat="47.10532" lon="4.67881">
        <ele>1328</ele>
        <time>2014-03-17T15:12:56Z</time>
      </trkpt>
      <trkpt lat="47.10532" lon="4.67881">
        <ele>1328</ele>
        <time>2014-03-17T15:13:00Z</time>
      </trkpt>
      <trkpt lat="47.10532" lon="4.67881">
        <ele>1328</ele>
        <time>2014-03-17T15:13:03Z</time>
      </trkpt>
      <trkpt lat="47.10532" lon="4.67882">
        <ele>1328</ele>
        <time>2014-03-17T15:13:05Z</time>
      </trkpt>
      <trkpt lat="47.10532" lon="4.67881">
        <ele>1328</ele>
        <time>2014-03-17T15:13:09Z</time>
      </trkpt>
      <trkpt lat="47.10532" lon="4.67882">
        <ele>1328</ele>
        <time>2014-03-17T15:13:11Z</time>
      </trkpt>
      <trkpt lat="47.10532" lon="4.67882">
        <ele>1328</ele>
        <time>2014-03-17T15:13:14Z</time>
      </trkpt>
      <trkpt lat="47.10532" lon="4.67882">
        <ele>1328</ele>
        <time>2014-03-17T15:13:18Z</time>
      </trkpt>
      <trkpt lat="47.10532" lon="4.67882">
        <ele>1328</ele>
        <time>2014-03-17T15:13:20Z</time>
      </trkpt>
      <trkpt lat="47.10532" lon="4.67881">
        <ele>1328</ele>
        <time>2014-03-17T15:13:22Z</time>
      </trkpt>
      <trkpt lat="47.10533" lon="4.67881">
        <ele>1328</ele>
        <time>2014-03-17T15:13:27Z</time>
      </trkpt>
      <trkpt lat="47.10532" lon="4.67881">
        <ele>1328</ele>
        <time>2014-03-17T15:13:29Z</time>
      </trkpt>
      <trkpt lat="47.10533" lon="4.67881">
        <ele>1328</ele>
        <time>2014-03-17T15:13:31Z</time>
      </trkpt>
      <trkpt lat="47.10533" lon="4.67881">
        <ele>1328</ele>
        <time>2014-03-17T15:13:36Z</time>
      </trkpt>
      <trkpt lat="47.10533" lon="4.67881">
        <ele>1328</ele>
        <time>2014-03-17T15:13:38Z</time>
      </trkpt>
      <trkpt lat="47.10533" lon="4.67881">
        <ele>1328</ele>
        <time>2014-03-17T15:13:40Z</time>
      </trkpt>
      <trkpt lat="47.10533" lon="4.6788">
        <ele>1328</ele>
        <time>2014-03-17T15:13:44Z</time>
      </trkpt>
      <trkpt lat="47.10533" lon="4.6788">
        <ele>1328</ele>
        <time>2014-03-17T15:13:47Z</time>
      </trkpt>
      <trkpt lat="47.10533" lon="4.6788">
        <ele>1328</ele>
        <time>2014-03-17T15:13:49Z</time>
      </trkpt>
      <trkpt lat="47.10533" lon="4.6788">
        <ele>1328</ele>
        <time>2014-03-17T15:13:53Z</time>
      </trkpt>
      <trkpt lat="47.10533" lon="4.6788">
        <ele>1328</ele>
        <time>2014-03-17T15:13:55Z</time>
      </trkpt>
      <trkpt lat="47.10533" lon="4.6788">
        <ele>1328</ele>
        <time>2014-03-17T15:13:58Z</time>
      </trkpt>
      <trkpt lat="47.10533" lon="4.6788">
        <ele>1328</ele>
        <time>2014-03-17T15:14:02Z</time>
      </trkpt>
      <trkpt lat="47.10533" lon="4.67879">
        <ele>1328</ele>
        <time>2014-03-17T15:14:04Z</time>
      </trkpt>
      <trkpt lat="47.10533" lon="4.67879">
        <ele>1328</ele>
        <time>2014-03-17T15:14:06Z</time>
      </trkpt>
      <trkpt lat="47.10533" lon="4.67879">
        <ele>1328</ele>
        <time>2014-03-17T15:14:11Z</time>
      </trkpt>
      <trkpt lat="47.10533" lon="4.67879">
        <ele>1328</ele>
        <time>2014-03-17T15:14:13Z</time>
      </trkpt>
      <trkpt lat="47.10533" lon="4.67879">
        <ele>1328</ele>
        <time>2014-03-17T15:14:15Z</time>
      </trkpt>
      <trkpt lat="47.10533" lon="4.67879">
        <ele>1328</ele>
        <time>2014-03-17T15:14:20Z</time>
      </trkpt>
      <trkpt lat="47.10532" lon="4.67879">
        <ele>1328</ele>
        <time>2014-03-17T15:14:22Z</time>
      </trkpt>
      <trkpt lat="47.10532" lon="4.67879">
        <ele>1328</ele>
        <time>2014-03-17T15:14:24Z</time>
      </trkpt>
      <trkpt lat="47.10532" lon="4.67879">
        <ele>1328</ele>
        <time>2014-03-17T15:14:28Z</time>
      </trkpt>
      <trkpt lat="47.10532" lon="4.67879">
        <ele>1328</ele>
        <time>2014-03-17T15:14:31Z</time>
      </trkpt>
      <trkpt lat="47.10532" lon="4.67879">
        <ele>1328</ele>
        <time>2014-03-17T15:14:33Z</time>
      </trkpt>
      <trkpt lat="47.10532" lon="4.67879">
        <ele>1328</ele>
        <time>2014-03-17T15:14:35Z</time>
      </trkpt>
      <trkpt lat="47.10532" lon="4.67879">
        <ele>1328</ele>
        <time>2014-03-17T15:14:39Z</time>
      </trkpt>
      <trkpt lat="47.10532" lon="4.67879">
        <ele>1328</ele>
        <time>2014-03-17T15:14:42Z</time>
      </trkpt>
      <trkpt lat="47.10532" lon="4.67879">
        <ele>1328</ele>
        <time>2014-03-17T15:14:44Z</time>
      </trkpt>
      <trkpt lat="47.10532" lon="4.67879">
        <ele>1328</ele>
        <time>2014-03-17T15:14:48Z</time>
      </trkpt>
      <trkpt lat="47.10532" lon="4.67879">
        <ele>1328</ele>
        <time>2014-03-17T15:14:50Z</time>
      </trkpt>
      <trkpt lat="47.10532" lon="4.6788">
        <ele>1328</ele>
        <time>2014-03-17T15:14:53Z</time>
      </trkpt>
      <trkpt lat="47.10532" lon="4.6788">
        <ele>1328</ele>
        <time>2014-03-17T15:14:57Z</time>
      </trkpt>
      <trkpt lat="47.10531" lon="4.6788">
        <ele>1328</ele>
        <time>2014-03-17T15:14:59Z</time>
      </trkpt>
      <trkpt lat="47.10531" lon="4.6788">
        <ele>1328</ele>
        <time>2014-03-17T15:15:01Z</time>
      </trkpt>
      <trkpt lat="47.10531" lon="4.6788">
        <ele>1328</ele>
        <time>2014-03-17T15:15:06Z</time>
      </trkpt>
      <trkpt lat="47.10531" lon="4.6788">
        <ele>1328</ele>
        <time>2014-03-17T15:15:08Z</time>
      </trkpt>
      <trkpt lat="47.10531" lon="4.6788">
        <ele>1328</ele>
        <time>2014-03-17T15:15:10Z</time>
      </trkpt>
      <trkpt lat="47.10531" lon="4.67881">
        <ele>1328</ele>
        <time>2014-03-17T15:15:15Z</time>
      </trkpt>
      <trkpt lat="47.10531" lon="4.67881">
        <ele>1328</ele>
        <time>2014-03-17T15:15:17Z</time>
      </trkpt>
      <trkpt lat="47.10532" lon="4.67881">
        <ele>1328</ele>
        <time>2014-03-17T15:15:19Z</time>
      </trkpt>
      <trkpt lat="47.10532" lon="4.67881">
        <ele>1328</ele>
        <time>2014-03-17T15:15:23Z</time>
      </trkpt>
      <trkpt lat="47.10532" lon="4.6788">
        <ele>1328</ele>
        <time>2014-03-17T15:15:26Z</time>
      </trkpt>
      <trkpt lat="47.10532" lon="4.6788">
        <ele>1328</ele>
        <time>2014-03-17T15:15:28Z</time>
      </trkpt>
      <trkpt lat="47.10532" lon="4.67881">
        <ele>1328</ele>
        <time>2014-03-17T15:15:32Z</time>
      </trkpt>
      <trkpt lat="47.10532" lon="4.67881">
        <ele>1328</ele>
        <time>2014-03-17T15:15:34Z</time>
      </trkpt>
      <trkpt lat="47.10532" lon="4.67881">
        <ele>1328</ele>
        <time>2014-03-17T15:15:37Z</time>
      </trkpt>
      <trkpt lat="47.1053" lon="4.67879">
        <ele>1328</ele>
        <time>2014-03-17T15:15:41Z</time>
      </trkpt>
      <trkpt lat="47.10529" lon="4.67879">
        <ele>1328</ele>
        <time>2014-03-17T15:15:43Z</time>
      </trkpt>
      <trkpt lat="47.10529" lon="4.67879">
        <ele>1328</ele>
        <time>2014-03-17T15:15:45Z</time>
      </trkpt>
      <trkpt lat="47.1053" lon="4.67878">
        <ele>1328</ele>
        <time>2014-03-17T15:15:50Z</time>
      </trkpt>
      <trkpt lat="47.1053" lon="4.67878">
        <ele>1328</ele>
        <time>2014-03-17T15:15:52Z</time>
      </trkpt>
      <trkpt lat="47.1053" lon="4.67878">
        <ele>1328</ele>
        <time>2014-03-17T15:15:54Z</time>
      </trkpt>
      <trkpt lat="47.1053" lon="4.67878">
        <ele>1328</ele>
        <time>2014-03-17T15:15:59Z</time>
      </trkpt>
      <trkpt lat="47.1053" lon="4.67878">
        <ele>1328</ele>
        <time>2014-03-17T15:16:01Z</time>
      </trkpt>
      <trkpt lat="47.1053" lon="4.67878">
        <ele>1328</ele>
        <time>2014-03-17T15:16:03Z</time>
      </trkpt>
      <trkpt lat="47.10532" lon="4.67878">
        <ele>1328</ele>
        <time>2014-03-17T15:16:08Z</time>
      </trkpt>
      <trkpt lat="47.10532" lon="4.6788">
        <ele>1328</ele>
        <time>2014-03-17T15:16:10Z</time>
      </trkpt>
      <trkpt lat="47.10533" lon="4.6788">
        <ele>1328</ele>
        <time>2014-03-17T15:16:12Z</time>
      </trkpt>
      <trkpt lat="47.10537" lon="4.67882">
        <ele>1328</ele>
        <time>2014-03-17T15:16:16Z</time>
      </trkpt>
      <trkpt lat="47.10539" lon="4.67884">
        <ele>1328</ele>
        <time>2014-03-17T15:16:19Z</time>
      </trkpt>
      <trkpt lat="47.10541" lon="4.67885">
        <ele>1328</ele>
        <time>2014-03-17T15:16:21Z</time>
      </trkpt>
      <trkpt lat="47.10544" lon="4.6789">
        <ele>1328</ele>
        <time>2014-03-17T15:16:25Z</time>
      </trkpt>
      <trkpt lat="47.10546" lon="4.67893">
        <ele>1328</ele>
        <time>2014-03-17T15:16:27Z</time>
      </trkpt>
      <trkpt lat="47.10548" lon="4.67896">
        <ele>1328</ele>
        <time>2014-03-17T15:16:30Z</time>
      </trkpt>
      <trkpt lat="47.10551" lon="4.67901">
        <ele>1328</ele>
        <time>2014-03-17T15:16:34Z</time>
      </trkpt>
      <trkpt lat="47.10552" lon="4.67903">
        <ele>1328</ele>
        <time>2014-03-17T15:16:36Z</time>
      </trkpt>
      <trkpt lat="47.10554" lon="4.67907">
        <ele>1328</ele>
        <time>2014-03-17T15:16:38Z</time>
      </trkpt>
      <trkpt lat="47.10556" lon="4.67909">
        <ele>1328</ele>
        <time>2014-03-17T15:16:41Z</time>
      </trkpt>
      <trkpt lat="47.10559" lon="4.67915">
        <ele>1328</ele>
        <time>2014-03-17T15:16:45Z</time>
      </trkpt>
      <trkpt lat="47.1056" lon="4.67917">
        <ele>1328</ele>
        <time>2014-03-17T15:16:47Z</time>
      </trkpt>
      <trkpt lat="47.10563" lon="4.67921">
        <ele>1328</ele>
        <time>2014-03-17T15:16:49Z</time>
      </trkpt>
      <trkpt lat="47.10567" lon="4.67927">
        <ele>1328</ele>
        <time>2014-03-17T15:16:54Z</time>
      </trkpt>
      <trkpt lat="47.10569" lon="4.67929">
        <ele>1328</ele>
        <time>2014-03-17T15:16:56Z</time>
      </trkpt>
      <trkpt lat="47.10571" lon="4.67932">
        <ele>1328</ele>
        <time>2014-03-17T15:16:58Z</time>
      </trkpt>
      <trkpt lat="47.10575" lon="4.67939">
        <ele>1328</ele>
        <time>2014-03-17T15:17:03Z</time>
      </trkpt>
      <trkpt lat="47.10576" lon="4.67941">
        <ele>1328</ele>
        <time>2014-03-17T15:17:05Z</time>
      </trkpt>
      <trkpt lat="47.10578" lon="4.67944">
        <ele>1328</ele>
        <time>2014-03-17T15:17:07Z</time>
      </trkpt>
      <trkpt lat="47.10582" lon="4.67949">
        <ele>1328</ele>
        <time>2014-03-17T15:17:12Z</time>
      </trkpt>
      <trkpt lat="47.10583" lon="4.67952">
        <ele>1328</ele>
        <time>2014-03-17T15:17:14Z</time>
      </trkpt>
      <trkpt lat="47.10584" lon="4.67954">
        <ele>1328</ele>
        <time>2014-03-17T15:17:16Z</time>
      </trkpt>
      <trkpt lat="47.10588" lon="4.67961">
        <ele>1328</ele>
        <time>2014-03-17T15:17:20Z</time>
      </trkpt>
      <trkpt lat="47.1059" lon="4.67963">
        <ele>1328</ele>
        <time>2014-03-17T15:17:23Z</time>
      </trkpt>
      <trkpt lat="47.10591" lon="4.67966">
        <ele>1328</ele>
        <time>2014-03-17T15:17:25Z</time>
      </trkpt>
      <trkpt lat="47.10595" lon="4.6797">
        <ele>1328</ele>
        <time>2014-03-17T15:17:29Z</time>
      </trkpt>
      <trkpt lat="47.10597" lon="4.67973">
        <ele>1328</ele>
        <time>2014-03-17T15:17:31Z</time>
      </trkpt>
      <trkpt lat="47.10599" lon="4.67975">
        <ele>1328</ele>
        <time>2014-03-17T15:17:34Z</time>
      </trkpt>
      <trkpt lat="47.10603" lon="4.67979">
        <ele>1328</ele>
        <time>2014-03-17T15:17:38Z</time>
      </trkpt>
      <trkpt lat="47.10605" lon="4.67982">
        <ele>1328</ele>
        <time>2014-03-17T15:17:40Z</time>
      </trkpt>
      <trkpt lat="47.10607" lon="4.67985">
        <ele>1328</ele>
        <time>2014-03-17T15:17:42Z</time>
      </trkpt>
      <trkpt lat="47.1061" lon="4.67988">
        <ele>1328</ele>
        <time>2014-03-17T15:17:47Z</time>
      </trkpt>
      <trkpt lat="47.1061" lon="4.67988">
        <ele>1328</ele>
        <time>2014-03-17T15:17:49Z</time>
      </trkpt>
      <trkpt lat="47.10611" lon="4.67988">
        <ele>1328</ele>
        <time>2014-03-17T15:17:51Z</time>
      </trkpt>
      <trkpt lat="47.10615" lon="4.67993">
        <ele>1328</ele>
        <time>2014-03-17T15:17:56Z</time>
      </trkpt>
      <trkpt lat="47.10618" lon="4.67994">
        <ele>1328</ele>
        <time>2014-03-17T15:17:58Z</time>
      </trkpt>
      <trkpt lat="47.1062" lon="4.67996">
        <ele>1328</ele>
        <time>2014-03-17T15:18:00Z</time>
      </trkpt>
      <trkpt lat="47.10626" lon="4.68">
        <ele>1328</ele>
        <time>2014-03-17T15:18:04Z</time>
      </trkpt>
      <trkpt lat="47.10628" lon="4.68002">
        <ele>1328</ele>
        <time>2014-03-17T15:18:07Z</time>
      </trkpt>
      <trkpt lat="47.1063" lon="4.68004">
        <ele>1328</ele>
        <time>2014-03-17T15:18:09Z</time>
      </trkpt>
      <trkpt lat="47.10635" lon="4.68006">
        <ele>1328</ele>
        <time>2014-03-17T15:18:13Z</time>
      </trkpt>
      <trkpt lat="47.10638" lon="4.68009">
        <ele>1328</ele>
        <time>2014-03-17T15:18:15Z</time>
      </trkpt>
      <trkpt lat="47.1064" lon="4.6801">
        <ele>1328</ele>
        <time>2014-03-17T15:18:18Z</time>
      </trkpt>
      <trkpt lat="47.10644" lon="4.68014">
        <ele>1328</ele>
        <time>2014-03-17T15:18:22Z</time>
      </trkpt>
      <trkpt lat="47.10646" lon="4.68016">
        <ele>1328</ele>
        <time>2014-03-17T15:18:24Z</time>
      </trkpt>
      <trkpt lat="47.10649" lon="4.68018">
        <ele>1328</ele>
        <time>2014-03-17T15:18:26Z</time>
      </trkpt>
      <trkpt lat="47.10653" lon="4.68021">
        <ele>1328</ele>
        <time>2014-03-17T15:18:31Z</time>
      </trkpt>
      <trkpt lat="47.10655" lon="4.68023">
        <ele>1328</ele>
        <time>2014-03-17T15:18:33Z</time>
      </trkpt>
      <trkpt lat="47.10658" lon="4.68025">
        <ele>1328</ele>
        <time>2014-03-17T15:18:35Z</time>
      </trkpt>
      <trkpt lat="47.10665" lon="4.68029">
        <ele>1328</ele>
        <time>2014-03-17T15:18:40Z</time>
      </trkpt>
      <trkpt lat="47.10667" lon="4.68031">
        <ele>1328</ele>
        <time>2014-03-17T15:18:42Z</time>
      </trkpt>
      <trkpt lat="47.10669" lon="4.68032">
        <ele>1328</ele>
        <time>2014-03-17T15:18:44Z</time>
      </trkpt>
      <trkpt lat="47.10676" lon="4.68034">
        <ele>1328</ele>
        <time>2014-03-17T15:18:48Z</time>
      </trkpt>
      <trkpt lat="47.10678" lon="4.68035">
        <ele>1328</ele>
        <time>2014-03-17T15:18:51Z</time>
      </trkpt>
      <trkpt lat="47.10681" lon="4.68036">
        <ele>1328</ele>
        <time>2014-03-17T15:18:53Z</time>
      </trkpt>
      <trkpt lat="47.10683" lon="4.68037">
        <ele>1328</ele>
        <time>2014-03-17T15:18:55Z</time>
      </trkpt>
      <trkpt lat="47.10688" lon="4.68039">
        <ele>1328</ele>
        <time>2014-03-17T15:19:00Z</time>
      </trkpt>
      <trkpt lat="47.10691" lon="4.68039">
        <ele>1328</ele>
        <time>2014-03-17T15:19:02Z</time>
      </trkpt>
      <trkpt lat="47.10693" lon="4.68039">
        <ele>1328</ele>
        <time>2014-03-17T15:19:04Z</time>
      </trkpt>
      <trkpt lat="47.107" lon="4.68039">
        <ele>1328</ele>
        <time>2014-03-17T15:19:08Z</time>
      </trkpt>
      <trkpt lat="47.10703" lon="4.68039">
        <ele>1328</ele>
        <time>2014-03-17T15:19:11Z</time>
      </trkpt>
      <trkpt lat="47.10705" lon="4.6804">
        <ele>1328</ele>
        <time>2014-03-17T15:19:13Z</time>
      </trkpt>
      <trkpt lat="47.1071" lon="4.6804">
        <ele>1328</ele>
        <time>2014-03-17T15:19:17Z</time>
      </trkpt>
      <trkpt lat="47.10714" lon="4.6804">
        <ele>1328</ele>
        <time>2014-03-17T15:19:19Z</time>
      </trkpt>
      <trkpt lat="47.10716" lon="4.68039">
        <ele>1328</ele>
        <time>2014-03-17T15:19:22Z</time>
      </trkpt>
      <trkpt lat="47.10721" lon="4.68039">
        <ele>1328</ele>
        <time>2014-03-17T15:19:26Z</time>
      </trkpt>
      <trkpt lat="47.10724" lon="4.68038">
        <ele>1328</ele>
        <time>2014-03-17T15:19:28Z</time>
      </trkpt>
      <trkpt lat="47.10728" lon="4.68037">
        <ele>1328</ele>
        <time>2014-03-17T15:19:30Z</time>
      </trkpt>
      <trkpt lat="47.10734" lon="4.68036">
        <ele>1328</ele>
        <time>2014-03-17T15:19:35Z</time>
      </trkpt>
      <trkpt lat="47.10736" lon="4.68035">
        <ele>1328</ele>
        <time>2014-03-17T15:19:37Z</time>
      </trkpt>
      <trkpt lat="47.10739" lon="4.68034">
        <ele>1328</ele>
        <time>2014-03-17T15:19:39Z</time>
      </trkpt>
      <trkpt lat="47.10745" lon="4.68032">
        <ele>1328</ele>
        <time>2014-03-17T15:19:44Z</time>
      </trkpt>
      <trkpt lat="47.10748" lon="4.6803">
        <ele>1328</ele>
        <time>2014-03-17T15:19:46Z</time>
      </trkpt>
      <trkpt lat="47.1075" lon="4.68029">
        <ele>1328</ele>
        <time>2014-03-17T15:19:48Z</time>
      </trkpt>
      <trkpt lat="47.10757" lon="4.68027">
        <ele>1328</ele>
        <time>2014-03-17T15:19:52Z</time>
      </trkpt>
      <trkpt lat="47.10759" lon="4.68026">
        <ele>1328</ele>
        <time>2014-03-17T15:19:55Z</time>
      </trkpt>
      <trkpt lat="47.10762" lon="4.68025">
        <ele>1328</ele>
        <time>2014-03-17T15:19:57Z</time>
      </trkpt>
      <trkpt lat="47.10766" lon="4.68023">
        <ele>1328</ele>
        <time>2014-03-17T15:20:01Z</time>
      </trkpt>
      <trkpt lat="47.10769" lon="4.68022">
        <ele>1328</ele>
        <time>2014-03-17T15:20:03Z</time>
      </trkpt>
      <trkpt lat="47.10771" lon="4.68021">
        <ele>1328</ele>
        <time>2014-03-17T15:20:06Z</time>
      </trkpt>
      <trkpt lat="47.10775" lon="4.68019">
        <ele>1328</ele>
        <time>2014-03-17T15:20:10Z</time>
      </trkpt>
      <trkpt lat="47.10777" lon="4.68017">
        <ele>1328</ele>
        <time>2014-03-17T15:20:12Z</time>
      </trkpt>
      <trkpt lat="47.10781" lon="4.68016">
        <ele>1328</ele>
        <time>2014-03-17T15:20:14Z</time>
      </trkpt>
      <trkpt lat="47.10786" lon="4.68013">
        <ele>1328</ele>
        <time>2014-03-17T15:20:19Z</time>
      </trkpt>
      <trkpt lat="47.10789" lon="4.68011">
        <ele>1328</ele>
        <time>2014-03-17T15:20:21Z</time>
      </trkpt>
      <trkpt lat="47.10791" lon="4.68009">
        <ele>1328</ele>
        <time>2014-03-17T15:20:23Z</time>
      </trkpt>
      <trkpt lat="47.10796" lon="4.68004">
        <ele>1328</ele>
        <time>2014-03-17T15:20:28Z</time>
      </trkpt>
      <trkpt lat="47.10798" lon="4.68003">
        <ele>1328</ele>
        <time>2014-03-17T15:20:30Z</time>
      </trkpt>
      <trkpt lat="47.10801" lon="4.68001">
        <ele>1328</ele>
        <time>2014-03-17T15:20:32Z</time>
      </trkpt>
      <trkpt lat="47.10805" lon="4.67995">
        <ele>1328</ele>
        <time>2014-03-17T15:20:36Z</time>
      </trkpt>
      <trkpt lat="47.10807" lon="4.67993">
        <ele>1328</ele>
        <time>2014-03-17T15:20:39Z</time>
      </trkpt>
      <trkpt lat="47.10809" lon="4.67991">
        <ele>1328</ele>
        <time>2014-03-17T15:20:41Z</time>
      </trkpt>
      <trkpt lat="47.10812" lon="4.67986">
        <ele>1328</ele>
        <time>2014-03-17T15:20:45Z</time>
      </trkpt>
      <trkpt lat="47.10815" lon="4.67981">
        <ele>1328</ele>
        <time>2014-03-17T15:20:47Z</time>
      </trkpt>
      <trkpt lat="47.10817" lon="4.67978">
        <ele>1328</ele>
        <time>2014-03-17T15:20:50Z</time>
      </trkpt>
      <trkpt lat="47.1082" lon="4.67974">
        <ele>1328</ele>
        <time>2014-03-17T15:20:54Z</time>
      </trkpt>
      <trkpt lat="47.10822" lon="4.67972">
        <ele>1328</ele>
        <time>2014-03-17T15:20:56Z</time>
      </trkpt>
      <trkpt lat="47.10824" lon="4.67968">
        <ele>1328</ele>
        <time>2014-03-17T15:20:59Z</time>
      </trkpt>
      <trkpt lat="47.10826" lon="4.67966">
        <ele>1328</ele>
        <time>2014-03-17T15:21:01Z</time>
      </trkpt>
      <trkpt lat="47.10829" lon="4.6796">
        <ele>1328</ele>
        <time>2014-03-17T15:21:05Z</time>
      </trkpt>
      <trkpt lat="47.1083" lon="4.67957">
        <ele>1328</ele>
        <time>2014-03-17T15:21:07Z</time>
      </trkpt>
      <trkpt lat="47.10833" lon="4.67952">
        <ele>1328</ele>
        <time>2014-03-17T15:21:10Z</time>
      </trkpt>
      <trkpt lat="47.10836" lon="4.67947">
        <ele>1328</ele>
        <time>2014-03-17T15:21:14Z</time>
      </trkpt>
      <trkpt lat="47.10838" lon="4.67945">
        <ele>1328</ele>
        <time>2014-03-17T15:21:16Z</time>
      </trkpt>
      <trkpt lat="47.10841" lon="4.67942">
        <ele>1328</ele>
        <time>2014-03-17T15:21:18Z</time>
      </trkpt>
      <trkpt lat="47.10846" lon="4.67938">
        <ele>1328</ele>
        <time>2014-03-17T15:21:23Z</time>
      </trkpt>
      <trkpt lat="47.10848" lon="4.67936">
        <ele>1328</ele>
        <time>2014-03-17T15:21:25Z</time>
      </trkpt>
      <trkpt lat="47.10851" lon="4.67934">
        <ele>1328</ele>
        <time>2014-03-17T15:21:27Z</time>
      </trkpt>
      <trkpt lat="47.10856" lon="4.67929">
        <ele>1328</ele>
        <time>2014-03-17T15:21:32Z</time>
      </trkpt>
      <trkpt lat="47.10858" lon="4.67926">
        <ele>1328</ele>
        <time>2014-03-17T15:21:34Z</time>
      </trkpt>
      <trkpt lat="47.1086" lon="4.67924">
        <ele>1328</ele>
        <time>2014-03-17T15:21:36Z</time>
      </trkpt>
      <trkpt lat="47.10865" lon="4.67919">
        <ele>1328</ele>
        <time>2014-03-17T15:21:40Z</time>
      </trkpt>
      <trkpt lat="47.10867" lon="4.67917">
        <ele>1328</ele>
        <time>2014-03-17T15:21:43Z</time>
      </trkpt>
      <trkpt lat="47.1087" lon="4.67915">
        <ele>1328</ele>
        <time>2014-03-17T15:21:45Z</time>
      </trkpt>
      <trkpt lat="47.10874" lon="4.67911">
        <ele>1328</ele>
        <time>2014-03-17T15:21:49Z</time>
      </trkpt>
      <trkpt lat="47.10877" lon="4.67907">
        <ele>1328</ele>
        <time>2014-03-17T15:21:51Z</time>
      </trkpt>
      <trkpt lat="47.10878" lon="4.67905">
        <ele>1328</ele>
        <time>2014-03-17T15:21:54Z</time>
      </trkpt>
      <trkpt lat="47.10882" lon="4.679">
        <ele>1328</ele>
        <time>2014-03-17T15:21:58Z</time>
      </trkpt>
      <trkpt lat="47.10884" lon="4.67898">
        <ele>1328</ele>
        <time>2014-03-17T15:22:00Z</time>
      </trkpt>
      <trkpt lat="47.10887" lon="4.67895">
        <ele>1328</ele>
        <time>2014-03-17T15:22:02Z</time>
      </trkpt>
      <trkpt lat="47.10892" lon="4.67892">
        <ele>1328</ele>
        <time>2014-03-17T15:22:07Z</time>
      </trkpt>
      <trkpt lat="47.10894" lon="4.67891">
        <ele>1328</ele>
        <time>2014-03-17T15:22:09Z</time>
      </trkpt>
      <trkpt lat="47.10896" lon="4.6789">
        <ele>1328</ele>
        <time>2014-03-17T15:22:11Z</time>
      </trkpt>
      <trkpt lat="47.10902" lon="4.67887">
        <ele>1328</ele>
        <time>2014-03-17T15:22:16Z</time>
      </trkpt>
      <trkpt lat="47.10904" lon="4.67885">
        <ele>1328</ele>
        <time>2014-03-17T15:22:18Z</time>
      </trkpt>
      <trkpt lat="47.10906" lon="4.67885">
        <ele>1328</ele>
        <time>2014-03-17T15:22:20Z</time>
      </trkpt>
      <trkpt lat="47.10911" lon="4.67881">
        <ele>1328</ele>
        <time>2014-03-17T15:22:25Z</time>
      </trkpt>
      <trkpt lat="47.10913" lon="4.6788">
        <ele>1328</ele>
        <time>2014-03-17T15:22:27Z</time>
      </trkpt>
      <trkpt lat="47.10915" lon="4.67878">
        <ele>1328</ele>
        <time>2014-03-17T15:22:29Z</time>
      </trkpt>
      <trkpt lat="47.1092" lon="4.67875">
        <ele>1328</ele>
        <time>2014-03-17T15:22:33Z</time>
      </trkpt>
      <trkpt lat="47.10922" lon="4.67873">
        <ele>1328</ele>
        <time>2014-03-17T15:22:36Z</time>
      </trkpt>
      <trkpt lat="47.10925" lon="4.67872">
        <ele>1328</ele>
        <time>2014-03-17T15:22:38Z</time>
      </trkpt>
      <trkpt lat="47.10929" lon="4.67869">
        <ele>1328</ele>
        <time>2014-03-17T15:22:42Z</time>
      </trkpt>
      <trkpt lat="47.10932" lon="4.67867">
        <ele>1328</ele>
        <time>2014-03-17T15:22:44Z</time>
      </trkpt>
      <trkpt lat="47.10934" lon="4.67867">
        <ele>1328</ele>
        <time>2014-03-17T15:22:47Z</time>
      </trkpt>
      <trkpt lat="47.10939" lon="4.67864">
        <ele>1328</ele>
        <time>2014-03-17T15:22:51Z</time>
      </trkpt>
      <trkpt lat="47.10941" lon="4.67863">
        <ele>1328</ele>
        <time>2014-03-17T15:22:53Z</time>
      </trkpt>
      <trkpt lat="47.10944" lon="4.67861">
        <ele>1328</ele>
        <time>2014-03-17T15:22:55Z</time>
      </trkpt>
      <trkpt lat="47.10948" lon="4.67859">
        <ele>1328</ele>
        <time>2014-03-17T15:23:00Z</time>
      </trkpt>
      <trkpt lat="47.10951" lon="4.67858">
        <ele>1328</ele>
        <time>2014-03-17T15:23:02Z</time>
      </trkpt>
      <trkpt lat="47.10954" lon="4.67857">
        <ele>1328</ele>
        <time>2014-03-17T15:23:04Z</time>
      </trkpt>
      <trkpt lat="47.10956" lon="4.67856">
        <ele>1328</ele>
        <time>2014-03-17T15:23:07Z</time>
      </trkpt>
      <trkpt lat="47.10961" lon="4.67853">
        <ele>1328</ele>
        <time>2014-03-17T15:23:11Z</time>
      </trkpt>
      <trkpt lat="47.10964" lon="4.67852">
        <ele>1328</ele>
        <time>2014-03-17T15:23:13Z</time>
      </trkpt>
      <trkpt lat="47.10967" lon="4.67849">
        <ele>1328</ele>
        <time>2014-03-17T15:23:15Z</time>
      </trkpt>
      <trkpt lat="47.10971" lon="4.67845">
        <ele>1328</ele>
        <time>2014-03-17T15:23:20Z</time>
      </trkpt>
      <trkpt lat="47.10974" lon="4.67843">
        <ele>1328</ele>
        <time>2014-03-17T15:23:22Z</time>
      </trkpt>
      <trkpt lat="47.10977" lon="4.6784">
        <ele>1328</ele>
        <time>2014-03-17T15:23:24Z</time>
      </trkpt>
      <trkpt lat="47.10982" lon="4.67838">
        <ele>1328</ele>
        <time>2014-03-17T15:23:29Z</time>
      </trkpt>
      <trkpt lat="47.10984" lon="4.67837">
        <ele>1328</ele>
        <time>2014-03-17T15:23:31Z</time>
      </trkpt>
      <trkpt lat="47.10986" lon="4.67835">
        <ele>1328</ele>
        <time>2014-03-17T15:23:33Z</time>
      </trkpt>
      <trkpt lat="47.10992" lon="4.67832">
        <ele>1328</ele>
        <time>2014-03-17T15:23:38Z</time>
      </trkpt>
      <trkpt lat="47.10994" lon="4.67831">
        <ele>1328</ele>
        <time>2014-03-17T15:23:40Z</time>
      </trkpt>
      <trkpt lat="47.10997" lon="4.6783">
        <ele>1328</ele>
        <time>2014-03-17T15:23:42Z</time>
      </trkpt>
      <trkpt lat="47.11003" lon="4.67827">
        <ele>1328</ele>
        <time>2014-03-17T15:23:46Z</time>
      </trkpt>
      <trkpt lat="47.11005" lon="4.67826">
        <ele>1328</ele>
        <time>2014-03-17T15:23:49Z</time>
      </trkpt>
      <trkpt lat="47.11008" lon="4.67825">
        <ele>1328</ele>
        <time>2014-03-17T15:23:51Z</time>
      </trkpt>
      <trkpt lat="47.11013" lon="4.67824">
        <ele>1328</ele>
        <time>2014-03-17T15:23:55Z</time>
      </trkpt>
      <trkpt lat="47.11016" lon="4.67823">
        <ele>1328</ele>
        <time>2014-03-17T15:23:58Z</time>
      </trkpt>
      <trkpt lat="47.11019" lon="4.67823">
        <ele>1328</ele>
        <time>2014-03-17T15:24:00Z</time>
      </trkpt>
      <trkpt lat="47.11024" lon="4.67823">
        <ele>1328</ele>
        <time>2014-03-17T15:24:04Z</time>
      </trkpt>
      <trkpt lat="47.11026" lon="4.67823">
        <ele>1328</ele>
        <time>2014-03-17T15:24:06Z</time>
      </trkpt>
      <trkpt lat="47.11029" lon="4.67823">
        <ele>1328</ele>
        <time>2014-03-17T15:24:09Z</time>
      </trkpt>
      <trkpt lat="47.11035" lon="4.67824">
        <ele>1328</ele>
        <time>2014-03-17T15:24:13Z</time>
      </trkpt>
      <trkpt lat="47.11037" lon="4.67825">
        <ele>1328</ele>
        <time>2014-03-17T15:24:15Z</time>
      </trkpt>
      <trkpt lat="47.11039" lon="4.67825">
        <ele>1328</ele>
        <time>2014-03-17T15:24:17Z</time>
      </trkpt>
      <trkpt lat="47.11045" lon="4.67824">
        <ele>1328</ele>
        <time>2014-03-17T15:24:22Z</time>
      </trkpt>
      <trkpt lat="47.11048" lon="4.67824">
        <ele>1328</ele>
        <time>2014-03-17T15:24:24Z</time>
      </trkpt>
      <trkpt lat="47.1105" lon="4.67824">
        <ele>1328</ele>
        <time>2014-03-17T15:24:26Z</time>
      </trkpt>
      <trkpt lat="47.11057" lon="4.67825">
        <ele>1328</ele>
        <time>2014-03-17T15:24:31Z</time>
      </trkpt>
      <trkpt lat="47.11059" lon="4.67825">
        <ele>1328</ele>
        <time>2014-03-17T15:24:33Z</time>
      </trkpt>
      <trkpt lat="47.11062" lon="4.67825">
        <ele>1328</ele>
        <time>2014-03-17T15:24:35Z</time>
      </trkpt>
      <trkpt lat="47.11067" lon="4.67825">
        <ele>1328</ele>
        <time>2014-03-17T15:24:39Z</time>
      </trkpt>
      <trkpt lat="47.11071" lon="4.67825">
        <ele>1328</ele>
        <time>2014-03-17T15:24:42Z</time>
      </trkpt>
      <trkpt lat="47.11073" lon="4.67826">
        <ele>1328</ele>
        <time>2014-03-17T15:24:44Z</time>
      </trkpt>
      <trkpt lat="47.11078" lon="4.67826">
        <ele>1328</ele>
        <time>2014-03-17T15:24:48Z</time>
      </trkpt>
      <trkpt lat="47.1108" lon="4.67827">
        <ele>1328</ele>
        <time>2014-03-17T15:24:50Z</time>
      </trkpt>
      <trkpt lat="47.11084" lon="4.67827">
        <ele>1328</ele>
        <time>2014-03-17T15:24:53Z</time>
      </trkpt>
      <trkpt lat="47.11088" lon="4.67828">
        <ele>1328</ele>
        <time>2014-03-17T15:24:57Z</time>
      </trkpt>
      <trkpt lat="47.11091" lon="4.67829">
        <ele>1328</ele>
        <time>2014-03-17T15:24:59Z</time>
      </trkpt>
      <trkpt lat="47.11093" lon="4.67829">
        <ele>1328</ele>
        <time>2014-03-17T15:25:01Z</time>
      </trkpt>
      <trkpt lat="47.11099" lon="4.6783">
        <ele>1328</ele>
        <time>2014-03-17T15:25:06Z</time>
      </trkpt>
      <trkpt lat="47.11101" lon="4.6783">
        <ele>1328</ele>
        <time>2014-03-17T15:25:08Z</time>
      </trkpt>
      <trkpt lat="47.11103" lon="4.6783">
        <ele>1328</ele>
        <time>2014-03-17T15:25:10Z</time>
      </trkpt>
      <trkpt lat="47.11106" lon="4.67831">
        <ele>1328</ele>
        <time>2014-03-17T15:25:15Z</time>
      </trkpt>
      <trkpt lat="47.11106" lon="4.6783">
        <ele>1328</ele>
        <time>2014-03-17T15:25:17Z</time>
      </trkpt>
      <trkpt lat="47.11106" lon="4.6783">
        <ele>1328</ele>
        <time>2014-03-17T15:25:19Z</time>
      </trkpt>
      <trkpt lat="47.11106" lon="4.6783">
        <ele>1328</ele>
        <time>2014-03-17T15:25:21Z</time>
      </trkpt>
      <trkpt lat="47.11107" lon="4.67831">
        <ele>1328</ele>
        <time>2014-03-17T15:25:26Z</time>
      </trkpt>
      <trkpt lat="47.11108" lon="4.67831">
        <ele>1328</ele>
        <time>2014-03-17T15:25:28Z</time>
      </trkpt>
      <trkpt lat="47.11109" lon="4.67832">
        <ele>1328</ele>
        <time>2014-03-17T15:25:30Z</time>
      </trkpt>
      <trkpt lat="47.11109" lon="4.67833">
        <ele>1328</ele>
        <time>2014-03-17T15:25:34Z</time>
      </trkpt>
      <trkpt lat="47.1111" lon="4.67833">
        <ele>1328</ele>
        <time>2014-03-17T15:25:37Z</time>
      </trkpt>
      <trkpt lat="47.1111" lon="4.67834">
        <ele>1328</ele>
        <time>2014-03-17T15:25:39Z</time>
      </trkpt>
      <trkpt lat="47.11111" lon="4.67835">
        <ele>1328</ele>
        <time>2014-03-17T15:25:43Z</time>
      </trkpt>
      <trkpt lat="47.11112" lon="4.67835">
        <ele>1328</ele>
        <time>2014-03-17T15:25:45Z</time>
      </trkpt>
      <trkpt lat="47.11113" lon="4.67835">
        <ele>1328</ele>
        <time>2014-03-17T15:25:48Z</time>
      </trkpt>
      <trkpt lat="47.11117" lon="4.67836">
        <ele>1328</ele>
        <time>2014-03-17T15:25:52Z</time>
      </trkpt>
      <trkpt lat="47.11119" lon="4.67836">
        <ele>1328</ele>
        <time>2014-03-17T15:25:54Z</time>
      </trkpt>
      <trkpt lat="47.11121" lon="4.67836">
        <ele>1328</ele>
        <time>2014-03-17T15:25:56Z</time>
      </trkpt>
      <trkpt lat="47.11123" lon="4.67836">
        <ele>1328</ele>
        <time>2014-03-17T15:26:01Z</time>
      </trkpt>
      <trkpt lat="47.11123" lon="4.67835">
        <ele>1328</ele>
        <time>2014-03-17T15:26:03Z</time>
      </trkpt>
      <trkpt lat="47.11123" lon="4.67835">
        <ele>1328</ele>
        <time>2014-03-17T15:26:05Z</time>
      </trkpt>
      <trkpt lat="47.11124" lon="4.67834">
        <ele>1328</ele>
        <time>2014-03-17T15:26:10Z</time>
      </trkpt>
      <trkpt lat="47.11124" lon="4.67834">
        <ele>1328</ele>
        <time>2014-03-17T15:26:12Z</time>
      </trkpt>
      <trkpt lat="47.11124" lon="4.67834">
        <ele>1328</ele>
        <time>2014-03-17T15:26:14Z</time>
      </trkpt>
      <trkpt lat="47.11124" lon="4.67833">
        <ele>1328</ele>
        <time>2014-03-17T15:26:18Z</time>
      </trkpt>
      <trkpt lat="47.11123" lon="4.67832">
        <ele>1328</ele>
        <time>2014-03-17T15:26:21Z</time>
      </trkpt>
      <trkpt lat="47.11123" lon="4.67832">
        <ele>1328</ele>
        <time>2014-03-17T15:26:23Z</time>
      </trkpt>
      <trkpt lat="47.11123" lon="4.67831">
        <ele>1328</ele>
        <time>2014-03-17T15:26:27Z</time>
      </trkpt>
      <trkpt lat="47.11123" lon="4.67831">
        <ele>1328</ele>
        <time>2014-03-17T15:26:29Z</time>
      </trkpt>
      <trkpt lat="47.11123" lon="4.67831">
        <ele>1328</ele>
        <time>2014-03-17T15:26:32Z</time>
      </trkpt>
      <trkpt lat="47.11124" lon="4.6783">
        <ele>1328</ele>
        <time>2014-03-17T15:26:36Z</time>
      </trkpt>
      <trkpt lat="47.11125" lon="4.6783">
        <ele>1328</ele>
        <time>2014-03-17T15:26:38Z</time>
      </trkpt>
      <trkpt lat="47.11125" lon="4.6783">
        <ele>1328</ele>
        <time>2014-03-17T15:26:40Z</time>
      </trkpt>
      <trkpt lat="47.11125" lon="4.6783">
        <ele>1328</ele>
        <time>2014-03-17T15:26:45Z</time>
      </trkpt>
      <trkpt lat="47.11125" lon="4.67831">
        <ele>1328</ele>
        <time>2014-03-17T15:26:47Z</time>
      </trkpt>
      <trkpt lat="47.11126" lon="4.67831">
        <ele>1328</ele>
        <time>2014-03-17T15:26:49Z</time>
      </trkpt>
      <trkpt lat="47.11127" lon="4.67832">
        <ele>1328</ele>
        <time>2014-03-17T15:26:54Z</time>
      </trkpt>
      <trkpt lat="47.11128" lon="4.67833">
        <ele>1328</ele>
        <time>2014-03-17T15:26:56Z</time>
      </trkpt>
      <trkpt lat="47.11129" lon="4.67833">
        <ele>1328</ele>
        <time>2014-03-17T15:26:58Z</time>
      </trkpt>
      <trkpt lat="47.11131" lon="4.67832">
        <ele>1328</ele>
        <time>2014-03-17T15:27:02Z</time>
      </trkpt>
      <trkpt lat="47.11133" lon="4.67832">
        <ele>1328</ele>
        <time>2014-03-17T15:27:05Z</time>
      </trkpt>
      <trkpt lat="47.11134" lon="4.67832">
        <ele>1328</ele>
        <time>2014-03-17T15:27:07Z</time>
      </trkpt>
      <trkpt lat="47.11137" lon="4.67831">
        <ele>1328</ele>
        <time>2014-03-17T15:27:11Z</time>
      </trkpt>
      <trkpt lat="47.11139" lon="4.67831">
        <ele>1328</ele>
        <time>2014-03-17T15:27:13Z</time>
      </trkpt>
      <trkpt lat="47.11142" lon="4.67831">
        <ele>1328</ele>
        <time>2014-03-17T15:27:16Z</time>
      </trkpt>
      <trkpt lat="47.11146" lon="4.6783">
        <ele>1328</ele>
        <time>2014-03-17T15:27:20Z</time>
      </trkpt>
      <trkpt lat="47.11148" lon="4.6783">
        <ele>1328</ele>
        <time>2014-03-17T15:27:22Z</time>
      </trkpt>
      <trkpt lat="47.1115" lon="4.67831">
        <ele>1328</ele>
        <time>2014-03-17T15:27:24Z</time>
      </trkpt>
      <trkpt lat="47.11154" lon="4.67831">
        <ele>1328</ele>
        <time>2014-03-17T15:27:27Z</time>
      </trkpt>
      <trkpt lat="47.11157" lon="4.6783">
        <ele>1328</ele>
        <time>2014-03-17T15:27:31Z</time>
      </trkpt>
      <trkpt lat="47.11159" lon="4.6783">
        <ele>1328</ele>
        <time>2014-03-17T15:27:33Z</time>
      </trkpt>
      <trkpt lat="47.11161" lon="4.6783">
        <ele>1328</ele>
        <time>2014-03-17T15:27:35Z</time>
      </trkpt>
      <trkpt lat="47.11167" lon="4.67829">
        <ele>1328</ele>
        <time>2014-03-17T15:27:40Z</time>
      </trkpt>
      <trkpt lat="47.11169" lon="4.67828">
        <ele>1328</ele>
        <time>2014-03-17T15:27:42Z</time>
      </trkpt>
      <trkpt lat="47.11172" lon="4.67829">
        <ele>1328</ele>
        <time>2014-03-17T15:27:44Z</time>
      </trkpt>
      <trkpt lat="47.11177" lon="4.67827">
        <ele>1328</ele>
        <time>2014-03-17T15:27:49Z</time>
      </trkpt>
      <trkpt lat="47.1118" lon="4.67827">
        <ele>1328</ele>
        <time>2014-03-17T15:27:51Z</time>
      </trkpt>
      <trkpt lat="47.11182" lon="4.67828">
        <ele>1328</ele>
        <time>2014-03-17T15:27:53Z</time>
      </trkpt>
      <trkpt lat="47.11187" lon="4.67827">
        <ele>1328</ele>
        <time>2014-03-17T15:27:57Z</time>
      </trkpt>
      <trkpt lat="47.1119" lon="4.67828">
        <ele>1328</ele>
        <time>2014-03-17T15:28:00Z</time>
      </trkpt>
      <trkpt lat="47.11192" lon="4.67829">
        <ele>1328</ele>
        <time>2014-03-17T15:28:02Z</time>
      </trkpt>
      <trkpt lat="47.11195" lon="4.67829">
        <ele>1328</ele>
        <time>2014-03-17T15:28:06Z</time>
      </trkpt>
      <trkpt lat="47.11196" lon="4.67829">
        <ele>1328</ele>
        <time>2014-03-17T15:28:08Z</time>
      </trkpt>
      <trkpt lat="47.11197" lon="4.67829">
        <ele>1328</ele>
        <time>2014-03-17T15:28:11Z</time>
      </trkpt>
      <trkpt lat="47.11198" lon="4.6783">
        <ele>1328</ele>
        <time>2014-03-17T15:28:15Z</time>
      </trkpt>
      <trkpt lat="47.11197" lon="4.67829">
        <ele>1328</ele>
        <time>2014-03-17T15:28:17Z</time>
      </trkpt>
      <trkpt lat="47.11197" lon="4.6783">
        <ele>1328</ele>
        <time>2014-03-17T15:28:19Z</time>
      </trkpt>
      <trkpt lat="47.11198" lon="4.6783">
        <ele>1328</ele>
        <time>2014-03-17T15:28:24Z</time>
      </trkpt>
      <trkpt lat="47.11198" lon="4.6783">
        <ele>1328</ele>
        <time>2014-03-17T15:28:26Z</time>
      </trkpt>
      <trkpt lat="47.11198" lon="4.67829">
        <ele>1328</ele>
        <time>2014-03-17T15:28:28Z</time>
      </trkpt>
      <trkpt lat="47.11199" lon="4.67829">
        <ele>1328</ele>
        <time>2014-03-17T15:28:33Z</time>
      </trkpt>
      <trkpt lat="47.11199" lon="4.67829">
        <ele>1328</ele>
        <time>2014-03-17T15:28:35Z</time>
      </trkpt>
      <trkpt lat="47.11199" lon="4.67829">
        <ele>1328</ele>
        <time>2014-03-17T15:28:37Z</time>
      </trkpt>
      <trkpt lat="47.112" lon="4.6783">
        <ele>1328</ele>
        <time>2014-03-17T15:28:41Z</time>
      </trkpt>
      <trkpt lat="47.112" lon="4.67831">
        <ele>1328</ele>
        <time>2014-03-17T15:28:44Z</time>
      </trkpt>
      <trkpt lat="47.11201" lon="4.67831">
        <ele>1328</ele>
        <time>2014-03-17T15:28:46Z</time>
      </trkpt>
      <trkpt lat="47.11201" lon="4.67832">
        <ele>1328</ele>
        <time>2014-03-17T15:28:50Z</time>
      </trkpt>
      <trkpt lat="47.11202" lon="4.67832">
        <ele>1328</ele>
        <time>2014-03-17T15:28:52Z</time>
      </trkpt>
      <trkpt lat="47.11202" lon="4.67832">
        <ele>1328</ele>
        <time>2014-03-17T15:28:55Z</time>
      </trkpt>
      <trkpt lat="47.11202" lon="4.67833">
        <ele>1328</ele>
        <time>2014-03-17T15:28:59Z</time>
      </trkpt>
      <trkpt lat="47.11202" lon="4.67833">
        <ele>1328</ele>
        <time>2014-03-17T15:29:01Z</time>
      </trkpt>
      <trkpt lat="47.11202" lon="4.67833">
        <ele>1328</ele>
        <time>2014-03-17T15:29:03Z</time>
      </trkpt>
      <trkpt lat="47.11202" lon="4.67833">
        <ele>1328</ele>
        <time>2014-03-17T15:29:08Z</time>
      </trkpt>
      <trkpt lat="47.11202" lon="4.67833">
        <ele>1328</ele>
        <time>2014-03-17T15:29:10Z</time>
      </trkpt>
      <trkpt lat="47.11202" lon="4.67832">
        <ele>1328</ele>
        <time>2014-03-17T15:29:12Z</time>
      </trkpt>
      <trkpt lat="47.11202" lon="4.67832">
        <ele>1328</ele>
        <time>2014-03-17T15:29:17Z</time>
      </trkpt>
      <trkpt lat="47.11202" lon="4.67832">
        <ele>1328</ele>
        <time>2014-03-17T15:29:19Z</time>
      </trkpt>
      <trkpt lat="47.11203" lon="4.67832">
        <ele>1328</ele>
        <time>2014-03-17T15:29:21Z</time>
      </trkpt>
      <trkpt lat="47.11204" lon="4.6783">
        <ele>1328</ele>
        <time>2014-03-17T15:29:25Z</time>
      </trkpt>
      <trkpt lat="47.11204" lon="4.6783">
        <ele>1328</ele>
        <time>2014-03-17T15:29:28Z</time>
      </trkpt>
      <trkpt lat="47.11204" lon="4.6783">
        <ele>1328</ele>
        <time>2014-03-17T15:29:30Z</time>
      </trkpt>
      <trkpt lat="47.11204" lon="4.6783">
        <ele>1328</ele>
        <time>2014-03-17T15:29:32Z</time>
      </trkpt>
      <trkpt lat="47.11203" lon="4.6783">
        <ele>1328</ele>
        <time>2014-03-17T15:29:36Z</time>
      </trkpt>
      <trkpt lat="47.11203" lon="4.6783">
        <ele>1328</ele>
        <time>2014-03-17T15:29:39Z</time>
      </trkpt>
      <trkpt lat="47.11202" lon="4.6783">
        <ele>1328</ele>
        <time>2014-03-17T15:29:41Z</time>
      </trkpt>
      <trkpt lat="47.11203" lon="4.6783">
        <ele>1328</ele>
        <time>2014-03-17T15:29:45Z</time>
      </trkpt>
      <trkpt lat="47.11203" lon="4.6783">
        <ele>1328</ele>
        <time>2014-03-17T15:29:47Z</time>
      </trkpt>
      <trkpt lat="47.11203" lon="4.67829">
        <ele>1328</ele>
        <time>2014-03-17T15:29:50Z</time>
      </trkpt>
      <trkpt lat="47.11204" lon="4.67828">
        <ele>1328</ele>
        <time>2014-03-17T15:29:54Z</time>
      </trkpt>
      <trkpt lat="47.11205" lon="4.67828">
        <ele>1328</ele>
        <time>2014-03-17T15:29:56Z</time>
      </trkpt>
      <trkpt lat="47.11205" lon="4.67827">
        <ele>1328</ele>
        <time>2014-03-17T15:29:58Z</time>
      </trkpt>
      <trkpt lat="47.11207" lon="4.67825">
        <ele>1328</ele>
        <time>2014-03-17T15:30:03Z</time>
      </trkpt>
      <trkpt lat="47.11207" lon="4.67825">
        <ele>1328</ele>
        <time>2014-03-17T15:30:05Z</time>
      </trkpt>
      <trkpt lat="47.11207" lon="4.67825">
        <ele>1328</ele>
        <time>2014-03-17T15:30:07Z</time>
      </trkpt>
      <trkpt lat="47.11206" lon="4.67826">
        <ele>1328</ele>
        <time>2014-03-17T15:30:12Z</time>
      </trkpt>
      <trkpt lat="47.11206" lon="4.67826">
        <ele>1328</ele>
        <time>2014-03-17T15:30:14Z</time>
      </trkpt>
      <trkpt lat="47.11206" lon="4.67826">
        <ele>1328</ele>
        <time>2014-03-17T15:30:16Z</time>
      </trkpt>
      <trkpt lat="47.11206" lon="4.67827">
        <ele>1328</ele>
        <time>2014-03-17T15:30:20Z</time>
      </trkpt>
      <trkpt lat="47.11206" lon="4.67827">
        <ele>1328</ele>
        <time>2014-03-17T15:30:23Z</time>
      </trkpt>
      <trkpt lat="47.11205" lon="4.67828">
        <ele>1328</ele>
        <time>2014-03-17T15:30:25Z</time>
      </trkpt>
      <trkpt lat="47.11205" lon="4.6783">
        <ele>1328</ele>
        <time>2014-03-17T15:30:29Z</time>
      </trkpt>
      <trkpt lat="47.11205" lon="4.6783">
        <ele>1328</ele>
        <time>2014-03-17T15:30:31Z</time>
      </trkpt>
      <trkpt lat="47.11207" lon="4.67832">
        <ele>1328</ele>
        <time>2014-03-17T15:30:34Z</time>
      </trkpt>
      <trkpt lat="47.11208" lon="4.67832">
        <ele>1328</ele>
        <time>2014-03-17T15:30:38Z</time>
      </trkpt>
      <trkpt lat="47.11208" lon="4.67831">
        <ele>1328</ele>
        <time>2014-03-17T15:30:40Z</time>
      </trkpt>
      <trkpt lat="47.11209" lon="4.6783">
        <ele>1328</ele>
        <time>2014-03-17T15:30:42Z</time>
      </trkpt>
      <trkpt lat="47.1121" lon="4.67824">
        <ele>1328</ele>
        <time>2014-03-17T15:30:47Z</time>
      </trkpt>
      <trkpt lat="47.11211" lon="4.67823">
        <ele>1328</ele>
        <time>2014-03-17T15:30:49Z</time>
      </trkpt>
      <trkpt lat="47.11212" lon="4.67821">
        <ele>1328</ele>
        <time>2014-03-17T15:30:51Z</time>
      </trkpt>
      <trkpt lat="47.11213" lon="4.67816">
        <ele>1328</ele>
        <time>2014-03-17T15:30:56Z</time>
      </trkpt>
      <trkpt lat="47.11213" lon="4.67815">
        <ele>1328</ele>
        <time>2014-03-17T15:30:58Z</time>
      </trkpt>
      <trkpt lat="47.11214" lon="4.67814">
        <ele>1328</ele>
        <time>2014-03-17T15:31:00Z</time>
      </trkpt>
      <trkpt lat="47.11214" lon="4.67808">
        <ele>1328</ele>
        <time>2014-03-17T15:31:05Z</time>
      </trkpt>
      <trkpt lat="47.11215" lon="4.67806">
        <ele>1328</ele>
        <time>2014-03-17T15:31:07Z</time>
      </trkpt>
      <trkpt lat="47.11214" lon="4.67803">
        <ele>1328</ele>
        <time>2014-03-17T15:31:09Z</time>
      </trkpt>
      <trkpt lat="47.11215" lon="4.67799">
        <ele>1328</ele>
        <time>2014-03-17T15:31:13Z</time>
      </trkpt>
      <trkpt lat="47.11215" lon="4.67799">
        <ele>1328</ele>
        <time>2014-03-17T15:31:16Z</time>
      </trkpt>
      <trkpt lat="47.11215" lon="4.67798">
        <ele>1328</ele>
        <time>2014-03-17T15:31:18Z</time>
      </trkpt>
      <trkpt lat="47.11215" lon="4.67796">
        <ele>1328</ele>
        <time>2014-03-17T15:31:22Z</time>
      </trkpt>
      <trkpt lat="47.11215" lon="4.67795">
        <ele>1328</ele>
        <time>2014-03-17T15:31:24Z</time>
      </trkpt>
      <trkpt lat="47.11215" lon="4.67795">
        <ele>1328</ele>
        <time>2014-03-17T15:31:27Z</time>
      </trkpt>
      <trkpt lat="47.11215" lon="4.67793">
        <ele>1328</ele>
        <time>2014-03-17T15:31:31Z</time>
      </trkpt>
      <trkpt lat="47.11215" lon="4.67793">
        <ele>1328</ele>
        <time>2014-03-17T15:31:33Z</time>
      </trkpt>
      <trkpt lat="47.11215" lon="4.67792">
        <ele>1328</ele>
        <time>2014-03-17T15:31:35Z</time>
      </trkpt>
      <trkpt lat="47.11215" lon="4.67795">
        <ele>1328</ele>
        <time>2014-03-17T15:31:40Z</time>
      </trkpt>
      <trkpt lat="47.11215" lon="4.67798">
        <ele>1328</ele>
        <time>2014-03-17T15:31:42Z</time>
      </trkpt>
      <trkpt lat="47.11215" lon="4.678">
        <ele>1328</ele>
        <time>2014-03-17T15:31:44Z</time>
      </trkpt>
      <trkpt lat="47.11215" lon="4.67804">
        <ele>1328</ele>
        <time>2014-03-17T15:31:46Z</time>
      </trkpt>
      <trkpt lat="47.11215" lon="4.67807">
        <ele>1328</ele>
        <time>2014-03-17T15:31:51Z</time>
      </trkpt>
      <trkpt lat="47.11215" lon="4.67807">
        <ele>1328</ele>
        <time>2014-03-17T15:31:53Z</time>
      </trkpt>
      <trkpt lat="47.11215" lon="4.67809">
        <ele>1328</ele>
        <time>2014-03-17T15:31:55Z</time>
      </trkpt>
      <trkpt lat="47.11215" lon="4.67816">
        <ele>1328</ele>
        <time>2014-03-17T15:32:00Z</time>
      </trkpt>
      <trkpt lat="47.11216" lon="4.67817">
        <ele>1328</ele>
        <time>2014-03-17T15:32:02Z</time>
      </trkpt>
      <trkpt lat="47.11216" lon="4.67818">
        <ele>1328</ele>
        <time>2014-03-17T15:32:04Z</time>
      </trkpt>
      <trkpt lat="47.11216" lon="4.67818">
        <ele>1328</ele>
        <time>2014-03-17T15:32:09Z</time>
      </trkpt>
      <trkpt lat="47.11217" lon="4.67818">
        <ele>1328</ele>
        <time>2014-03-17T15:32:11Z</time>
      </trkpt>
      <trkpt lat="47.11217" lon="4.67818">
        <ele>1328</ele>
        <time>2014-03-17T15:32:13Z</time>
      </trkpt>
      <trkpt lat="47.11217" lon="4.67817">
        <ele>1328</ele>
        <time>2014-03-17T15:32:17Z</time>
      </trkpt>
      <trkpt lat="47.11218" lon="4.67817">
        <ele>1328</ele>
        <time>2014-03-17T15:32:20Z</time>
      </trkpt>
      <trkpt lat="47.11219" lon="4.67816">
        <ele>1328</ele>
        <time>2014-03-17T15:32:22Z</time>
      </trkpt>
      <trkpt lat="47.11221" lon="4.67816">
        <ele>1328</ele>
        <time>2014-03-17T15:32:26Z</time>
      </trkpt>
      <trkpt lat="47.11221" lon="4.67815">
        <ele>1328</ele>
        <time>2014-03-17T15:32:28Z</time>
      </trkpt>
      <trkpt lat="47.11223" lon="4.67814">
        <ele>1328</ele>
        <time>2014-03-17T15:32:31Z</time>
      </trkpt>
      <trkpt lat="47.11223" lon="4.67814">
        <ele>1328</ele>
        <time>2014-03-17T15:32:35Z</time>
      </trkpt>
      <trkpt lat="47.11223" lon="4.67815">
        <ele>1328</ele>
        <time>2014-03-17T15:32:37Z</time>
      </trkpt>
      <trkpt lat="47.11223" lon="4.67816">
        <ele>1328</ele>
        <time>2014-03-17T15:32:39Z</time>
      </trkpt>
      <trkpt lat="47.11223" lon="4.67816">
        <ele>1328</ele>
        <time>2014-03-17T15:32:44Z</time>
      </trkpt>
      <trkpt lat="47.11223" lon="4.67816">
        <ele>1328</ele>
        <time>2014-03-17T15:32:46Z</time>
      </trkpt>
      <trkpt lat="47.11222" lon="4.67817">
        <ele>1328</ele>
        <time>2014-03-17T15:32:48Z</time>
      </trkpt>
      <trkpt lat="47.11221" lon="4.67819">
        <ele>1328</ele>
        <time>2014-03-17T15:32:53Z</time>
      </trkpt>
      <trkpt lat="47.11221" lon="4.67821">
        <ele>1328</ele>
        <time>2014-03-17T15:32:55Z</time>
      </trkpt>
      <trkpt lat="47.11221" lon="4.67822">
        <ele>1328</ele>
        <time>2014-03-17T15:32:57Z</time>
      </trkpt>
      <trkpt lat="47.1122" lon="4.67823">
        <ele>1328</ele>
        <time>2014-03-17T15:33:01Z</time>
      </trkpt>
      <trkpt lat="47.11219" lon="4.67825">
        <ele>1328</ele>
        <time>2014-03-17T15:33:04Z</time>
      </trkpt>
      <trkpt lat="47.11218" lon="4.67825">
        <ele>1328</ele>
        <time>2014-03-17T15:33:06Z</time>
      </trkpt>
      <trkpt lat="47.11218" lon="4.67826">
        <ele>1328</ele>
        <time>2014-03-17T15:33:10Z</time>
      </trkpt>
      <trkpt lat="47.11217" lon="4.67826">
        <ele>1328</ele>
        <time>2014-03-17T15:33:12Z</time>
      </trkpt>
      <trkpt lat="47.11216" lon="4.67827">
        <ele>1328</ele>
        <time>2014-03-17T15:33:15Z</time>
      </trkpt>
      <trkpt lat="47.11216" lon="4.67826">
        <ele>1328</ele>
        <time>2014-03-17T15:33:19Z</time>
      </trkpt>
      <trkpt lat="47.11216" lon="4.67827">
        <ele>1328</ele>
        <time>2014-03-17T15:33:21Z</time>
      </trkpt>
      <trkpt lat="47.11215" lon="4.67827">
        <ele>1328</ele>
        <time>2014-03-17T15:33:23Z</time>
      </trkpt>
      <trkpt lat="47.11215" lon="4.67828">
        <ele>1328</ele>
        <time>2014-03-17T15:33:28Z</time>
      </trkpt>
      <trkpt lat="47.11214" lon="4.67828">
        <ele>1328</ele>
        <time>2014-03-17T15:33:30Z</time>
      </trkpt>
      <trkpt lat="47.11214" lon="4.67829">
        <ele>1328</ele>
        <time>2014-03-17T15:33:32Z</time>
      </trkpt>
      <trkpt lat="47.11213" lon="4.67829">
        <ele>1328</ele>
        <time>2014-03-17T15:33:37Z</time>
      </trkpt>
      <trkpt lat="47.11213" lon="4.67829">
        <ele>1328</ele>
        <time>2014-03-17T15:33:39Z</time>
      </trkpt>
      <trkpt lat="47.11213" lon="4.67829">
        <ele>1328</ele>
        <time>2014-03-17T15:33:41Z</time>
      </trkpt>
      <trkpt lat="47.11213" lon="4.67828">
        <ele>1328</ele>
        <time>2014-03-17T15:33:45Z</time>
      </trkpt>
      <trkpt lat="47.11213" lon="4.67825">
        <ele>1328</ele>
        <time>2014-03-17T15:33:48Z</time>
      </trkpt>
      <trkpt lat="47.11213" lon="4.67822">
        <ele>1328</ele>
        <time>2014-03-17T15:33:50Z</time>
      </trkpt>
      <trkpt lat="47.11213" lon="4.67819">
        <ele>1328</ele>
        <time>2014-03-17T15:33:52Z</time>
      </trkpt>
      <trkpt lat="47.11214" lon="4.67813">
        <ele>1328</ele>
        <time>2014-03-17T15:33:57Z</time>
      </trkpt>
      <trkpt lat="47.11214" lon="4.67811">
        <ele>1328</ele>
        <time>2014-03-17T15:33:59Z</time>
      </trkpt>
      <trkpt lat="47.11214" lon="4.6781">
        <ele>1328</ele>
        <time>2014-03-17T15:34:01Z</time>
      </trkpt>
      <trkpt lat="47.11215" lon="4.67804">
        <ele>1328</ele>
        <time>2014-03-17T15:34:05Z</time>
      </trkpt>
      <trkpt lat="47.11215" lon="4.67799">
        <ele>1328</ele>
        <time>2014-03-17T15:34:08Z</time>
      </trkpt>
      <trkpt lat="47.11215" lon="4.67795">
        <ele>1328</ele>
        <time>2014-03-17T15:34:10Z</time>
      </trkpt>
      <trkpt lat="47.1122" lon="4.6779">
        <ele>1328</ele>
        <time>2014-03-17T15:34:14Z</time>
      </trkpt>
      <trkpt lat="47.11222" lon="4.67789">
        <ele>1328</ele>
        <time>2014-03-17T15:34:16Z</time>
      </trkpt>
      <trkpt lat="47.11226" lon="4.67786">
        <ele>1328</ele>
        <time>2014-03-17T15:34:19Z</time>
      </trkpt>
      <trkpt lat="47.1123" lon="4.67781">
        <ele>1328</ele>
        <time>2014-03-17T15:34:23Z</time>
      </trkpt>
      <trkpt lat="47.11233" lon="4.67777">
        <ele>1328</ele>
        <time>2014-03-17T15:34:25Z</time>
      </trkpt>
      <trkpt lat="47.11238" lon="4.6777">
        <ele>1328</ele>
        <time>2014-03-17T15:34:27Z</time>
      </trkpt>
      <trkpt lat="47.11244" lon="4.67762">
        <ele>1328</ele>
        <time>2014-03-17T15:34:32Z</time>
      </trkpt>
      <trkpt lat="47.11247" lon="4.6776">
        <ele>1328</ele>
        <time>2014-03-17T15:34:34Z</time>
      </trkpt>
      <trkpt lat="47.1125" lon="4.67758">
        <ele>1328</ele>
        <time>2014-03-17T15:34:36Z</time>
      </trkpt>
      <trkpt lat="47.11258" lon="4.67755">
        <ele>1328</ele>
        <time>2014-03-17T15:34:41Z</time>
      </trkpt>
      <trkpt lat="47.11261" lon="4.67756">
        <ele>1328</ele>
        <time>2014-03-17T15:34:43Z</time>
      </trkpt>
      <trkpt lat="47.11264" lon="4.67756">
        <ele>1328</ele>
        <time>2014-03-17T15:34:45Z</time>
      </trkpt>
      <trkpt lat="47.11271" lon="4.67758">
        <ele>1328</ele>
        <time>2014-03-17T15:34:50Z</time>
      </trkpt>
      <trkpt lat="47.11274" lon="4.67756">
        <ele>1328</ele>
        <time>2014-03-17T15:34:52Z</time>
      </trkpt>
      <trkpt lat="47.11276" lon="4.67754">
        <ele>1328</ele>
        <time>2014-03-17T15:34:54Z</time>
      </trkpt>
      <trkpt lat="47.11282" lon="4.67749">
        <ele>1328</ele>
        <time>2014-03-17T15:34:58Z</time>
      </trkpt>
      <trkpt lat="47.11285" lon="4.67747">
        <ele>1328</ele>
        <time>2014-03-17T15:35:01Z</time>
      </trkpt>
      <trkpt lat="47.11288" lon="4.67746">
        <ele>1328</ele>
        <time>2014-03-17T15:35:03Z</time>
      </trkpt>
      <trkpt lat="47.11293" lon="4.67743">
        <ele>1328</ele>
        <time>2014-03-17T15:35:07Z</time>
      </trkpt>
      <trkpt lat="47.11296" lon="4.6774">
        <ele>1328</ele>
        <time>2014-03-17T15:35:09Z</time>
      </trkpt>
      <trkpt lat="47.11299" lon="4.67738">
        <ele>1328</ele>
        <time>2014-03-17T15:35:12Z</time>
      </trkpt>
      <trkpt lat="47.11303" lon="4.67734">
        <ele>1328</ele>
        <time>2014-03-17T15:35:16Z</time>
      </trkpt>
      <trkpt lat="47.11306" lon="4.67733">
        <ele>1328</ele>
        <time>2014-03-17T15:35:18Z</time>
      </trkpt>
      <trkpt lat="47.11309" lon="4.67731">
        <ele>1328</ele>
        <time>2014-03-17T15:35:21Z</time>
      </trkpt>
      <trkpt lat="47.11314" lon="4.67728">
        <ele>1328</ele>
        <time>2014-03-17T15:35:25Z</time>
      </trkpt>
      <trkpt lat="47.11316" lon="4.67727">
        <ele>1328</ele>
        <time>2014-03-17T15:35:27Z</time>
      </trkpt>
      <trkpt lat="47.11319" lon="4.67725">
        <ele>1328</ele>
        <time>2014-03-17T15:35:29Z</time>
      </trkpt>
      <trkpt lat="47.11323" lon="4.67722">
        <ele>1328</ele>
        <time>2014-03-17T15:35:34Z</time>
      </trkpt>
      <trkpt lat="47.11324" lon="4.67721">
        <ele>1328</ele>
        <time>2014-03-17T15:35:36Z</time>
      </trkpt>
      <trkpt lat="47.11326" lon="4.67719">
        <ele>1328</ele>
        <time>2014-03-17T15:35:38Z</time>
      </trkpt>
      <trkpt lat="47.1133" lon="4.67715">
        <ele>1328</ele>
        <time>2014-03-17T15:35:43Z</time>
      </trkpt>
      <trkpt lat="47.11332" lon="4.67714">
        <ele>1328</ele>
        <time>2014-03-17T15:35:45Z</time>
      </trkpt>
      <trkpt lat="47.11334" lon="4.67712">
        <ele>1328</ele>
        <time>2014-03-17T15:35:47Z</time>
      </trkpt>
      <trkpt lat="47.1134" lon="4.67708">
        <ele>1328</ele>
        <time>2014-03-17T15:35:52Z</time>
      </trkpt>
      <trkpt lat="47.11342" lon="4.67707">
        <ele>1328</ele>
        <time>2014-03-17T15:35:54Z</time>
      </trkpt>
      <trkpt lat="47.11344" lon="4.67705">
        <ele>1328</ele>
        <time>2014-03-17T15:35:56Z</time>
      </trkpt>
      <trkpt lat="47.11346" lon="4.67704">
        <ele>1328</ele>
        <time>2014-03-17T15:35:58Z</time>
      </trkpt>
      <trkpt lat="47.11352" lon="4.67701">
        <ele>1328</ele>
        <time>2014-03-17T15:36:03Z</time>
      </trkpt>
      <trkpt lat="47.11355" lon="4.677">
        <ele>1328</ele>
        <time>2014-03-17T15:36:05Z</time>
      </trkpt>
      <trkpt lat="47.11357" lon="4.67701">
        <ele>1328</ele>
        <time>2014-03-17T15:36:07Z</time>
      </trkpt>
      <trkpt lat="47.11363" lon="4.67704">
        <ele>1328</ele>
        <time>2014-03-17T15:36:11Z</time>
      </trkpt>
      <trkpt lat="47.11366" lon="4.67704">
        <ele>1328</ele>
        <time>2014-03-17T15:36:14Z</time>
      </trkpt>
      <trkpt lat="47.11369" lon="4.67705">
        <ele>1328</ele>
        <time>2014-03-17T15:36:16Z</time>
      </trkpt>
      <trkpt lat="47.11374" lon="4.67708">
        <ele>1328</ele>
        <time>2014-03-17T15:36:20Z</time>
      </trkpt>
      <trkpt lat="47.11377" lon="4.67711">
        <ele>1328</ele>
        <time>2014-03-17T15:36:23Z</time>
      </trkpt>
      <trkpt lat="47.11379" lon="4.67713">
        <ele>1328</ele>
        <time>2014-03-17T15:36:25Z</time>
      </trkpt>
      <trkpt lat="47.11383" lon="4.67718">
        <ele>1328</ele>
        <time>2014-03-17T15:36:29Z</time>
      </trkpt>
      <trkpt lat="47.11385" lon="4.67721">
        <ele>1328</ele>
        <time>2014-03-17T15:36:31Z</time>
      </trkpt>
      <trkpt lat="47.11387" lon="4.67723">
        <ele>1328</ele>
        <time>2014-03-17T15:36:34Z</time>
      </trkpt>
      <trkpt lat="47.11391" lon="4.67723">
        <ele>1328</ele>
        <time>2014-03-17T15:36:38Z</time>
      </trkpt>
      <trkpt lat="47.11392" lon="4.67724">
        <ele>1328</ele>
        <time>2014-03-17T15:36:40Z</time>
      </trkpt>
      <trkpt lat="47.11393" lon="4.67724">
        <ele>1328</ele>
        <time>2014-03-17T15:36:42Z</time>
      </trkpt>
      <trkpt lat="47.11393" lon="4.67724">
        <ele>1328</ele>
        <time>2014-03-17T15:36:47Z</time>
      </trkpt>
      <trkpt lat="47.11393" lon="4.67724">
        <ele>1328</ele>
        <time>2014-03-17T15:36:49Z</time>
      </trkpt>
      <trkpt lat="47.11393" lon="4.67724">
        <ele>1328</ele>
        <time>2014-03-17T15:36:51Z</time>
      </trkpt>
      <trkpt lat="47.11393" lon="4.67724">
        <ele>1328</ele>
        <time>2014-03-17T15:36:56Z</time>
      </trkpt>
      <trkpt lat="47.11393" lon="4.67724">
        <ele>1328</ele>
        <time>2014-03-17T15:36:58Z</time>
      </trkpt>
      <trkpt lat="47.11393" lon="4.67724">
        <ele>1328</ele>
        <time>2014-03-17T15:37:00Z</time>
      </trkpt>
      <trkpt lat="47.11395" lon="4.67724">
        <ele>1328</ele>
        <time>2014-03-17T15:37:04Z</time>
      </trkpt>
      <trkpt lat="47.11396" lon="4.67724">
        <ele>1328</ele>
        <time>2014-03-17T15:37:07Z</time>
      </trkpt>
      <trkpt lat="47.11397" lon="4.67724">
        <ele>1328</ele>
        <time>2014-03-17T15:37:09Z</time>
      </trkpt>
      <trkpt lat="47.11399" lon="4.67723">
        <ele>1328</ele>
        <time>2014-03-17T15:37:13Z</time>
      </trkpt>
      <trkpt lat="47.114" lon="4.67722">
        <ele>1328</ele>
        <time>2014-03-17T15:37:15Z</time>
      </trkpt>
      <trkpt lat="47.11401" lon="4.67722">
        <ele>1328</ele>
        <time>2014-03-17T15:37:18Z</time>
      </trkpt>
      <trkpt lat="47.11402" lon="4.6772">
        <ele>1328</ele>
        <time>2014-03-17T15:37:22Z</time>
      </trkpt>
      <trkpt lat="47.11403" lon="4.67718">
        <ele>1328</ele>
        <time>2014-03-17T15:37:24Z</time>
      </trkpt>
      <trkpt lat="47.11405" lon="4.67716">
        <ele>1328</ele>
        <time>2014-03-17T15:37:26Z</time>
      </trkpt>
      <trkpt lat="47.11408" lon="4.67712">
        <ele>1328</ele>
        <time>2014-03-17T15:37:31Z</time>
      </trkpt>
      <trkpt lat="47.11409" lon="4.67711">
        <ele>1328</ele>
        <time>2014-03-17T15:37:33Z</time>
      </trkpt>
      <trkpt lat="47.11411" lon="4.67709">
        <ele>1328</ele>
        <time>2014-03-17T15:37:35Z</time>
      </trkpt>
      <trkpt lat="47.11414" lon="4.67705">
        <ele>1328</ele>
        <time>2014-03-17T15:37:40Z</time>
      </trkpt>
      <trkpt lat="47.11415" lon="4.67704">
        <ele>1328</ele>
        <time>2014-03-17T15:37:42Z</time>
      </trkpt>
      <trkpt lat="47.11417" lon="4.67702">
        <ele>1328</ele>
        <time>2014-03-17T15:37:44Z</time>
      </trkpt>
      <trkpt lat="47.11422" lon="4.677">
        <ele>1328</ele>
        <time>2014-03-17T15:37:49Z</time>
      </trkpt>
      <trkpt lat="47.11424" lon="4.677">
        <ele>1328</ele>
        <time>2014-03-17T15:37:51Z</time>
      </trkpt>
      <trkpt lat="47.11425" lon="4.67699">
        <ele>1328</ele>
        <time>2014-03-17T15:37:53Z</time>
      </trkpt>
      <trkpt lat="47.1143" lon="4.67698">
        <ele>1328</ele>
        <time>2014-03-17T15:37:57Z</time>
      </trkpt>
      <trkpt lat="47.11432" lon="4.67696">
        <ele>1328</ele>
        <time>2014-03-17T15:38:00Z</time>
      </trkpt>
      <trkpt lat="47.11434" lon="4.67695">
        <ele>1328</ele>
        <time>2014-03-17T15:38:02Z</time>
      </trkpt>
      <trkpt lat="47.11437" lon="4.67691">
        <ele>1328</ele>
        <time>2014-03-17T15:38:06Z</time>
      </trkpt>
      <trkpt lat="47.11439" lon="4.67688">
        <ele>1328</ele>
        <time>2014-03-17T15:38:09Z</time>
      </trkpt>
      <trkpt lat="47.1144" lon="4.67686">
        <ele>1328</ele>
        <time>2014-03-17T15:38:11Z</time>
      </trkpt>
      <trkpt lat="47.11441" lon="4.67683">
        <ele>1328</ele>
        <time>2014-03-17T15:38:13Z</time>
      </trkpt>
      <trkpt lat="47.11442" lon="4.67678">
        <ele>1328</ele>
        <time>2014-03-17T15:38:17Z</time>
      </trkpt>
      <trkpt lat="47.11443" lon="4.67676">
        <ele>1328</ele>
        <time>2014-03-17T15:38:20Z</time>
      </trkpt>
      <trkpt lat="47.11443" lon="4.67674">
        <ele>1328</ele>
        <time>2014-03-17T15:38:22Z</time>
      </trkpt>
      <trkpt lat="47.11443" lon="4.6767">
        <ele>1328</ele>
        <time>2014-03-17T15:38:26Z</time>
      </trkpt>
      <trkpt lat="47.11443" lon="4.67666">
        <ele>1328</ele>
        <time>2014-03-17T15:38:28Z</time>
      </trkpt>
      <trkpt lat="47.11444" lon="4.67664">
        <ele>1328</ele>
        <time>2014-03-17T15:38:31Z</time>
      </trkpt>
      <trkpt lat="47.11444" lon="4.6766">
        <ele>1328</ele>
        <time>2014-03-17T15:38:35Z</time>
      </trkpt>
      <trkpt lat="47.11445" lon="4.67658">
        <ele>1328</ele>
        <time>2014-03-17T15:38:37Z</time>
      </trkpt>
      <trkpt lat="47.11445" lon="4.67655">
        <ele>1328</ele>
        <time>2014-03-17T15:38:39Z</time>
      </trkpt>
      <trkpt lat="47.11445" lon="4.67652">
        <ele>1328</ele>
        <time>2014-03-17T15:38:44Z</time>
      </trkpt>
      <trkpt lat="47.11445" lon="4.6765">
        <ele>1328</ele>
        <time>2014-03-17T15:38:46Z</time>
      </trkpt>
      <trkpt lat="47.11445" lon="4.67647">
        <ele>1328</ele>
        <time>2014-03-17T15:38:48Z</time>
      </trkpt>
      <trkpt lat="47.11446" lon="4.67642">
        <ele>1328</ele>
        <time>2014-03-17T15:38:53Z</time>
      </trkpt>
      <trkpt lat="47.11447" lon="4.6764">
        <ele>1328</ele>
        <time>2014-03-17T15:38:55Z</time>
      </trkpt>
      <trkpt lat="47.11447" lon="4.67637">
        <ele>1328</ele>
        <time>2014-03-17T15:38:57Z</time>
      </trkpt>
      <trkpt lat="47.11447" lon="4.67629">
        <ele>1328</ele>
        <time>2014-03-17T15:39:01Z</time>
      </trkpt>
      <trkpt lat="47.11447" lon="4.67627">
        <ele>1328</ele>
        <time>2014-03-17T15:39:04Z</time>
      </trkpt>
      <trkpt lat="47.11447" lon="4.67623">
        <ele>1328</ele>
        <time>2014-03-17T15:39:06Z</time>
      </trkpt>
      <trkpt lat="47.11447" lon="4.67617">
        <ele>1328</ele>
        <time>2014-03-17T15:39:10Z</time>
      </trkpt>
      <trkpt lat="47.11447" lon="4.67613">
        <ele>1328</ele>
        <time>2014-03-17T15:39:12Z</time>
      </trkpt>
      <trkpt lat="47.11447" lon="4.6761">
        <ele>1328</ele>
        <time>2014-03-17T15:39:15Z</time>
      </trkpt>
      <trkpt lat="47.11447" lon="4.67606">
        <ele>1328</ele>
        <time>2014-03-17T15:39:19Z</time>
      </trkpt>
      <trkpt lat="47.11447" lon="4.67603">
        <ele>1328</ele>
        <time>2014-03-17T15:39:21Z</time>
      </trkpt>
      <trkpt lat="47.11447" lon="4.67599">
        <ele>1328</ele>
        <time>2014-03-17T15:39:23Z</time>
      </trkpt>
      <trkpt lat="47.11447" lon="4.67594">
        <ele>1328</ele>
        <time>2014-03-17T15:39:28Z</time>
      </trkpt>
      <trkpt lat="47.11447" lon="4.67592">
        <ele>1328</ele>
        <time>2014-03-17T15:39:30Z</time>
      </trkpt>
      <trkpt lat="47.11448" lon="4.6759">
        <ele>1328</ele>
        <time>2014-03-17T15:39:32Z</time>
      </trkpt>
      <trkpt lat="47.11446" lon="4.67585">
        <ele>1328</ele>
        <time>2014-03-17T15:39:37Z</time>
      </trkpt>
      <trkpt lat="47.11446" lon="4.67584">
        <ele>1328</ele>
        <time>2014-03-17T15:39:39Z</time>
      </trkpt>
      <trkpt lat="47.11446" lon="4.67582">
        <ele>1328</ele>
        <time>2014-03-17T15:39:41Z</time>
      </trkpt>
      <trkpt lat="47.11447" lon="4.67578">
        <ele>1328</ele>
        <time>2014-03-17T15:39:45Z</time>
      </trkpt>
      <trkpt lat="47.11447" lon="4.67578">
        <ele>1328</ele>
        <time>2014-03-17T15:39:48Z</time>
      </trkpt>
      <trkpt lat="47.11447" lon="4.67577">
        <ele>1328</ele>
        <time>2014-03-17T15:39:50Z</time>
      </trkpt>
      <trkpt lat="47.11447" lon="4.67577">
        <ele>1328</ele>
        <time>2014-03-17T15:39:54Z</time>
      </trkpt>
      <trkpt lat="47.11447" lon="4.67576">
        <ele>1328</ele>
        <time>2014-03-17T15:39:56Z</time>
      </trkpt>
      <trkpt lat="47.11446" lon="4.67575">
        <ele>1328</ele>
        <time>2014-03-17T15:39:59Z</time>
      </trkpt>
      <trkpt lat="47.11445" lon="4.67573">
        <ele>1328</ele>
        <time>2014-03-17T15:40:03Z</time>
      </trkpt>
      <trkpt lat="47.11445" lon="4.67572">
        <ele>1328</ele>
        <time>2014-03-17T15:40:05Z</time>
      </trkpt>
      <trkpt lat="47.11443" lon="4.67569">
        <ele>1328</ele>
        <time>2014-03-17T15:40:07Z</time>
      </trkpt>
      <trkpt lat="47.11442" lon="4.67568">
        <ele>1328</ele>
        <time>2014-03-17T15:40:12Z</time>
      </trkpt>
      <trkpt lat="47.11441" lon="4.67567">
        <ele>1328</ele>
        <time>2014-03-17T15:40:14Z</time>
      </trkpt>
      <trkpt lat="47.11441" lon="4.67567">
        <ele>1328</ele>
        <time>2014-03-17T15:40:16Z</time>
      </trkpt>
      <trkpt lat="47.11441" lon="4.67567">
        <ele>1328</ele>
        <time>2014-03-17T15:40:18Z</time>
      </trkpt>
      <trkpt lat="47.1144" lon="4.67566">
        <ele>1328</ele>
        <time>2014-03-17T15:40:23Z</time>
      </trkpt>
      <trkpt lat="47.11439" lon="4.67565">
        <ele>1328</ele>
        <time>2014-03-17T15:40:25Z</time>
      </trkpt>
      <trkpt lat="47.11439" lon="4.67565">
        <ele>1328</ele>
        <time>2014-03-17T15:40:27Z</time>
      </trkpt>
      <trkpt lat="47.11439" lon="4.67565">
        <ele>1328</ele>
        <time>2014-03-17T15:40:32Z</time>
      </trkpt>
      <trkpt lat="47.11439" lon="4.67565">
        <ele>1328</ele>
        <time>2014-03-17T15:40:34Z</time>
      </trkpt>
      <trkpt lat="47.11439" lon="4.67565">
        <ele>1328</ele>
        <time>2014-03-17T15:40:36Z</time>
      </trkpt>
      <trkpt lat="47.1144" lon="4.67565">
        <ele>1328</ele>
        <time>2014-03-17T15:40:40Z</time>
      </trkpt>
      <trkpt lat="47.11442" lon="4.67566">
        <ele>1328</ele>
        <time>2014-03-17T15:40:43Z</time>
      </trkpt>
      <trkpt lat="47.11443" lon="4.67567">
        <ele>1328</ele>
        <time>2014-03-17T15:40:45Z</time>
      </trkpt>
      <trkpt lat="47.11445" lon="4.67567">
        <ele>1328</ele>
        <time>2014-03-17T15:40:49Z</time>
      </trkpt>
      <trkpt lat="47.11445" lon="4.67567">
        <ele>1328</ele>
        <time>2014-03-17T15:40:51Z</time>
      </trkpt>
      <trkpt lat="47.11445" lon="4.67567">
        <ele>1328</ele>
        <time>2014-03-17T15:40:54Z</time>
      </trkpt>
      <trkpt lat="47.11445" lon="4.67567">
        <ele>1328</ele>
        <time>2014-03-17T15:40:58Z</time>
      </trkpt>
      <trkpt lat="47.11445" lon="4.67567">
        <ele>1328</ele>
        <time>2014-03-17T15:41:00Z</time>
      </trkpt>
      <trkpt lat="47.11444" lon="4.67566">
        <ele>1328</ele>
        <time>2014-03-17T15:41:02Z</time>
      </trkpt>
      <trkpt lat="47.11444" lon="4.67565">
        <ele>1328</ele>
        <time>2014-03-17T15:41:07Z</time>
      </trkpt>
      <trkpt lat="47.11445" lon="4.67566">
        <ele>1328</ele>
        <time>2014-03-17T15:41:09Z</time>
      </trkpt>
      <trkpt lat="47.11445" lon="4.67565">
        <ele>1328</ele>
        <time>2014-03-17T15:41:11Z</time>
      </trkpt>
      <trkpt lat="47.11445" lon="4.67565">
        <ele>1328</ele>
        <time>2014-03-17T15:41:16Z</time>
      </trkpt>
      <trkpt lat="47.11445" lon="4.67565">
        <ele>1328</ele>
        <time>2014-03-17T15:41:18Z</time>
      </trkpt>
      <trkpt lat="47.11445" lon="4.67565">
        <ele>1328</ele>
        <time>2014-03-17T15:41:20Z</time>
      </trkpt>
      <trkpt lat="47.11445" lon="4.67565">
        <ele>1328</ele>
        <time>2014-03-17T15:41:24Z</time>
      </trkpt>
      <trkpt lat="47.11445" lon="4.67565">
        <ele>1328</ele>
        <time>2014-03-17T15:41:27Z</time>
      </trkpt>
      <trkpt lat="47.11445" lon="4.67565">
        <ele>1328</ele>
        <time>2014-03-17T15:41:29Z</time>
      </trkpt>
      <trkpt lat="47.11444" lon="4.67565">
        <ele>1328</ele>
        <time>2014-03-17T15:41:33Z</time>
      </trkpt>
      <trkpt lat="47.11444" lon="4.67565">
        <ele>1328</ele>
        <time>2014-03-17T15:41:35Z</time>
      </trkpt>
      <trkpt lat="47.11444" lon="4.67565">
        <ele>1328</ele>
        <time>2014-03-17T15:41:38Z</time>
      </trkpt>
      <trkpt lat="47.11445" lon="4.67564">
        <ele>1328</ele>
        <time>2014-03-17T15:41:42Z</time>
      </trkpt>
      <trkpt lat="47.11445" lon="4.67564">
        <ele>1328</ele>
        <time>2014-03-17T15:41:44Z</time>
      </trkpt>
      <trkpt lat="47.11445" lon="4.67564">
        <ele>1328</ele>
        <time>2014-03-17T15:41:46Z</time>
      </trkpt>
      <trkpt lat="47.11445" lon="4.67564">
        <ele>1328</ele>
        <time>2014-03-17T15:41:51Z</time>
      </trkpt>
      <trkpt lat="47.11445" lon="4.67564">
        <ele>1328</ele>
        <time>2014-03-17T15:41:53Z</time>
      </trkpt>
      <trkpt lat="47.11445" lon="4.67564">
        <ele>1328</ele>
        <time>2014-03-17T15:41:55Z</time>
      </trkpt>
      <trkpt lat="47.11445" lon="4.67568">
        <ele>1328</ele>
        <time>2014-03-17T15:42:00Z</time>
      </trkpt>
      <trkpt lat="47.11444" lon="4.67568">
        <ele>1328</ele>
        <time>2014-03-17T15:42:02Z</time>
      </trkpt>
      <trkpt lat="47.11444" lon="4.67568">
        <ele>1328</ele>
        <time>2014-03-17T15:42:04Z</time>
      </trkpt>
      <trkpt lat="47.11444" lon="4.67569">
        <ele>1328</ele>
        <time>2014-03-17T15:42:08Z</time>
      </trkpt>
      <trkpt lat="47.11444" lon="4.67569">
        <ele>1328</ele>
        <time>2014-03-17T15:42:11Z</time>
      </trkpt>
      <trkpt lat="47.11444" lon="4.67569">
        <ele>1328</ele>
        <time>2014-03-17T15:42:13Z</time>
      </trkpt>
      <trkpt lat="47.11444" lon="4.67569">
        <ele>1328</ele>
        <time>2014-03-17T15:42:17Z</time>
      </trkpt>
      <trkpt lat="47.11444" lon="4.67569">
        <ele>1328</ele>
        <time>2014-03-17T15:42:20Z</time>
      </trkpt>
      <trkpt lat="47.11444" lon="4.67569">
        <ele>1328</ele>
        <time>2014-03-17T15:42:22Z</time>
      </trkpt>
      <trkpt lat="47.11444" lon="4.67569">
        <ele>1328</ele>
        <time>2014-03-17T15:42:24Z</time>
      </trkpt>
      <trkpt lat="47.11443" lon="4.67569">
        <ele>1328</ele>
        <time>2014-03-17T15:42:28Z</time>
      </trkpt>
      <trkpt lat="47.11443" lon="4.67569">
        <ele>1328</ele>
        <time>2014-03-17T15:42:31Z</time>
      </trkpt>
      <trkpt lat="47.11443" lon="4.67569">
        <ele>1328</ele>
        <time>2014-03-17T15:42:33Z</time>
      </trkpt>
      <trkpt lat="47.11443" lon="4.67569">
        <ele>1328</ele>
        <time>2014-03-17T15:42:37Z</time>
      </trkpt>
      <trkpt lat="47.11443" lon="4.67569">
        <ele>1328</ele>
        <time>2014-03-17T15:42:39Z</time>
      </trkpt>
      <trkpt lat="47.11443" lon="4.67569">
        <ele>1328</ele>
        <time>2014-03-17T15:42:42Z</time>
      </trkpt>
      <trkpt lat="47.11443" lon="4.67569">
        <ele>1328</ele>
        <time>2014-03-17T15:42:46Z</time>
      </trkpt>
      <trkpt lat="47.11443" lon="4.67569">
        <ele>1328</ele>
        <time>2014-03-17T15:42:48Z</time>
      </trkpt>
      <trkpt lat="47.11444" lon="4.67568">
        <ele>1328</ele>
        <time>2014-03-17T15:42:50Z</time>
      </trkpt>
      <trkpt lat="47.11445" lon="4.67566">
        <ele>1328</ele>
        <time>2014-03-17T15:42:55Z</time>
      </trkpt>
      <trkpt lat="47.11445" lon="4.67566">
        <ele>1328</ele>
        <time>2014-03-17T15:42:57Z</time>
      </trkpt>
      <trkpt lat="47.11445" lon="4.67566">
        <ele>1328</ele>
        <time>2014-03-17T15:42:59Z</time>
      </trkpt>
      <trkpt lat="47.11445" lon="4.67566">
        <ele>1328</ele>
        <time>2014-03-17T15:43:04Z</time>
      </trkpt>
      <trkpt lat="47.11445" lon="4.67566">
        <ele>1328</ele>
        <time>2014-03-17T15:43:06Z</time>
      </trkpt>
      <trkpt lat="47.11445" lon="4.67566">
        <ele>1328</ele>
        <time>2014-03-17T15:43:08Z</time>
      </trkpt>
      <trkpt lat="47.11445" lon="4.67566">
        <ele>1328</ele>
        <time>2014-03-17T15:43:12Z</time>
      </trkpt>
      <trkpt lat="47.11445" lon="4.67566">
        <ele>1328</ele>
        <time>2014-03-17T15:43:15Z</time>
      </trkpt>
      <trkpt lat="47.11445" lon="4.67566">
        <ele>1328</ele>
        <time>2014-03-17T15:43:17Z</time>
      </trkpt>
      <trkpt lat="47.11445" lon="4.67565">
        <ele>1328</ele>
        <time>2014-03-17T15:43:21Z</time>
      </trkpt>
      <trkpt lat="47.11445" lon="4.67565">
        <ele>1328</ele>
        <time>2014-03-17T15:43:23Z</time>
      </trkpt>
      <trkpt lat="47.11445" lon="4.67565">
        <ele>1328</ele>
        <time>2014-03-17T15:43:26Z</time>
      </trkpt>
      <trkpt lat="47.11445" lon="4.67565">
        <ele>1328</ele>
        <time>2014-03-17T15:43:30Z</time>
      </trkpt>
      <trkpt lat="47.11445" lon="4.67565">
        <ele>1328</ele>
        <time>2014-03-17T15:43:32Z</time>
      </trkpt>
      <trkpt lat="47.11446" lon="4.67565">
        <ele>1328</ele>
        <time>2014-03-17T15:43:34Z</time>
      </trkpt>
      <trkpt lat="47.11447" lon="4.67566">
        <ele>1328</ele>
        <time>2014-03-17T15:43:39Z</time>
      </trkpt>
      <trkpt lat="47.11447" lon="4.67565">
        <ele>1328</ele>
        <time>2014-03-17T15:43:41Z</time>
      </trkpt>
      <trkpt lat="47.11448" lon="4.67564">
        <ele>1328</ele>
        <time>2014-03-17T15:43:43Z</time>
      </trkpt>
      <trkpt lat="47.11448" lon="4.67564">
        <ele>1328</ele>
        <time>2014-03-17T15:43:48Z</time>
      </trkpt>
      <trkpt lat="47.11448" lon="4.67564">
        <ele>1328</ele>
        <time>2014-03-17T15:43:50Z</time>
      </trkpt>
      <trkpt lat="47.11448" lon="4.67564">
        <ele>1328</ele>
        <time>2014-03-17T15:43:52Z</time>
      </trkpt>
      <trkpt lat="47.11448" lon="4.67565">
        <ele>1328</ele>
        <time>2014-03-17T15:43:56Z</time>
      </trkpt>
      <trkpt lat="47.11448" lon="4.67565">
        <ele>1328</ele>
        <time>2014-03-17T15:43:59Z</time>
      </trkpt>
      <trkpt lat="47.11448" lon="4.67565">
        <ele>1328</ele>
        <time>2014-03-17T15:44:01Z</time>
      </trkpt>
      <trkpt lat="47.11448" lon="4.67565">
        <ele>1328</ele>
        <time>2014-03-17T15:44:05Z</time>
      </trkpt>
      <trkpt lat="47.11448" lon="4.67565">
        <ele>1328</ele>
        <time>2014-03-17T15:44:07Z</time>
      </trkpt>
      <trkpt lat="47.11448" lon="4.67565">
        <ele>1328</ele>
        <time>2014-03-17T15:44:10Z</time>
      </trkpt>
      <trkpt lat="47.11448" lon="4.67565">
        <ele>1328</ele>
        <time>2014-03-17T15:44:14Z</time>
      </trkpt>
      <trkpt lat="47.11448" lon="4.67565">
        <ele>1328</ele>
        <time>2014-03-17T15:44:16Z</time>
      </trkpt>
      <trkpt lat="47.11448" lon="4.67565">
        <ele>1328</ele>
        <time>2014-03-17T15:44:18Z</time>
      </trkpt>
      <trkpt lat="47.11448" lon="4.67565">
        <ele>1328</ele>
        <time>2014-03-17T15:44:23Z</time>
      </trkpt>
      <trkpt lat="47.11448" lon="4.67565">
        <ele>1328</ele>
        <time>2014-03-17T15:44:25Z</time>
      </trkpt>
      <trkpt lat="47.11448" lon="4.67565">
        <ele>1328</ele>
        <time>2014-03-17T15:44:27Z</time>
      </trkpt>
      <trkpt lat="47.11448" lon="4.67565">
        <ele>1328</ele>
        <time>2014-03-17T15:44:32Z</time>
      </trkpt>
      <trkpt lat="47.11447" lon="4.67565">
        <ele>1328</ele>
        <time>2014-03-17T15:44:34Z</time>
      </trkpt>
      <trkpt lat="47.11447" lon="4.67565">
        <ele>1328</ele>
        <time>2014-03-17T15:44:36Z</time>
      </trkpt>
      <trkpt lat="47.11447" lon="4.67565">
        <ele>1328</ele>
        <time>2014-03-17T15:44:38Z</time>
      </trkpt>
      <trkpt lat="47.11447" lon="4.67565">
        <ele>1328</ele>
        <time>2014-03-17T15:44:43Z</time>
      </trkpt>
      <trkpt lat="47.11447" lon="4.67565">
        <ele>1328</ele>
        <time>2014-03-17T15:44:45Z</time>
      </trkpt>
      <trkpt lat="47.11447" lon="4.67565">
        <ele>1328</ele>
        <time>2014-03-17T15:44:47Z</time>
      </trkpt>
      <trkpt lat="47.11447" lon="4.67565">
        <ele>1328</ele>
        <time>2014-03-17T15:44:51Z</time>
      </trkpt>
      <trkpt lat="47.11447" lon="4.67565">
        <ele>1328</ele>
        <time>2014-03-17T15:44:54Z</time>
      </trkpt>
      <trkpt lat="47.11447" lon="4.67565">
        <ele>1328</ele>
        <time>2014-03-17T15:44:56Z</time>
      </trkpt>
      <trkpt lat="47.11447" lon="4.67566">
        <ele>1328</ele>
        <time>2014-03-17T15:45:00Z</time>
      </trkpt>
      <trkpt lat="47.11447" lon="4.67566">
        <ele>1328</ele>
        <time>2014-03-17T15:45:02Z</time>
      </trkpt>
      <trkpt lat="47.11447" lon="4.67566">
        <ele>1328</ele>
        <time>2014-03-17T15:45:05Z</time>
      </trkpt>
      <trkpt lat="47.11447" lon="4.67566">
        <ele>1328</ele>
        <time>2014-03-17T15:45:09Z</time>
      </trkpt>
      <trkpt lat="47.11447" lon="4.67565">
        <ele>1328</ele>
        <time>2014-03-17T15:45:11Z</time>
      </trkpt>
      <trkpt lat="47.11447" lon="4.67565">
        <ele>1328</ele>
        <time>2014-03-17T15:45:13Z</time>
      </trkpt>
      <trkpt lat="47.11447" lon="4.67565">
        <ele>1328</ele>
        <time>2014-03-17T15:45:18Z</time>
      </trkpt>
      <trkpt lat="47.11447" lon="4.67565">
        <ele>1328</ele>
        <time>2014-03-17T15:45:20Z</time>
      </trkpt>
      <trkpt lat="47.11447" lon="4.67565">
        <ele>1328</ele>
        <time>2014-03-17T15:45:22Z</time>
      </trkpt>
      <trkpt lat="47.11447" lon="4.67565">
        <ele>1328</ele>
        <time>2014-03-17T15:45:27Z</time>
      </trkpt>
      <trkpt lat="47.11448" lon="4.67565">
        <ele>1328</ele>
        <time>2014-03-17T15:45:29Z</time>
      </trkpt>
      <trkpt lat="47.11449" lon="4.67567">
        <ele>1328</ele>
        <time>2014-03-17T15:45:31Z</time>
      </trkpt>
      <trkpt lat="47.11449" lon="4.67571">
        <ele>1328</ele>
        <time>2014-03-17T15:45:35Z</time>
      </trkpt>
      <trkpt lat="47.11448" lon="4.67575">
        <ele>1328</ele>
        <time>2014-03-17T15:45:38Z</time>
      </trkpt>
      <trkpt lat="47.11448" lon="4.67577">
        <ele>1328</ele>
        <time>2014-03-17T15:45:40Z</time>
      </trkpt>
      <trkpt lat="47.11448" lon="4.67582">
        <ele>1328</ele>
        <time>2014-03-17T15:45:44Z</time>
      </trkpt>
      <trkpt lat="47.11447" lon="4.67584">
        <ele>1328</ele>
        <time>2014-03-17T15:45:46Z</time>
      </trkpt>
      <trkpt lat="47.11447" lon="4.67588">
        <ele>1328</ele>
        <time>2014-03-17T15:45:49Z</time>
      </trkpt>
      <trkpt lat="47.11446" lon="4.67594">
        <ele>1328</ele>
        <time>2014-03-17T15:45:53Z</time>
      </trkpt>
      <trkpt lat="47.11446" lon="4.67596">
        <ele>1328</ele>
        <time>2014-03-17T15:45:55Z</time>
      </trkpt>
      <trkpt lat="47.11446" lon="4.67601">
        <ele>1328</ele>
        <time>2014-03-17T15:45:57Z</time>
      </trkpt>
      <trkpt lat="47.11447" lon="4.67606">
        <ele>1328</ele>
        <time>2014-03-17T15:46:02Z</time>
      </trkpt>
      <trkpt lat="47.11447" lon="4.67608">
        <ele>1328</ele>
        <time>2014-03-17T15:46:04Z</time>
      </trkpt>
      <trkpt lat="47.11448" lon="4.67611">
        <ele>1328</ele>
        <time>2014-03-17T15:46:06Z</time>
      </trkpt>
      <trkpt lat="47.11448" lon="4.67618">
        <ele>1328</ele>
        <time>2014-03-17T15:46:11Z</time>
      </trkpt>
      <trkpt lat="47.11448" lon="4.67621">
        <ele>1328</ele>
        <time>2014-03-17T15:46:13Z</time>
      </trkpt>
      <trkpt lat="47.11449" lon="4.67623">
        <ele>1328</ele>
        <time>2014-03-17T15:46:15Z</time>
      </trkpt>
      <trkpt lat="47.11449" lon="4.6763">
        <ele>1328</ele>
        <time>2014-03-17T15:46:20Z</time>
      </trkpt>
      <trkpt lat="47.11449" lon="4.67632">
        <ele>1328</ele>
        <time>2014-03-17T15:46:22Z</time>
      </trkpt>
      <trkpt lat="47.11449" lon="4.67635">
        <ele>1328</ele>
        <time>2014-03-17T15:46:24Z</time>
      </trkpt>
      <trkpt lat="47.11448" lon="4.6764">
        <ele>1328</ele>
        <time>2014-03-17T15:46:28Z</time>
      </trkpt>
      <trkpt lat="47.11448" lon="4.67644">
        <ele>1328</ele>
        <time>2014-03-17T15:46:31Z</time>
      </trkpt>
      <trkpt lat="47.11448" lon="4.67646">
        <ele>1328</ele>
        <time>2014-03-17T15:46:33Z</time>
      </trkpt>
      <trkpt lat="47.11448" lon="4.6765">
        <ele>1328</ele>
        <time>2014-03-17T15:46:37Z</time>
      </trkpt>
      <trkpt lat="47.11448" lon="4.67652">
        <ele>1328</ele>
        <time>2014-03-17T15:46:39Z</time>
      </trkpt>
      <trkpt lat="47.11447" lon="4.67656">
        <ele>1328</ele>
        <time>2014-03-17T15:46:42Z</time>
      </trkpt>
      <trkpt lat="47.11447" lon="4.67658">
        <ele>1328</ele>
        <time>2014-03-17T15:46:44Z</time>
      </trkpt>
      <trkpt lat="47.11446" lon="4.67662">
        <ele>1328</ele>
        <time>2014-03-17T15:46:48Z</time>
      </trkpt>
      <trkpt lat="47.11446" lon="4.67665">
        <ele>1328</ele>
        <time>2014-03-17T15:46:50Z</time>
      </trkpt>
      <trkpt lat="47.11445" lon="4.6767">
        <ele>1328</ele>
        <time>2014-03-17T15:46:53Z</time>
      </trkpt>
      <trkpt lat="47.11445" lon="4.67676">
        <ele>1328</ele>
        <time>2014-03-17T15:46:57Z</time>
      </trkpt>
      <trkpt lat="47.11445" lon="4.67679">
        <ele>1328</ele>
        <time>2014-03-17T15:46:59Z</time>
      </trkpt>
      <trkpt lat="47.11443" lon="4.67683">
        <ele>1328</ele>
        <time>2014-03-17T15:47:01Z</time>
      </trkpt>
      <trkpt lat="47.11439" lon="4.6769">
        <ele>1328</ele>
        <time>2014-03-17T15:47:06Z</time>
      </trkpt>
      <trkpt lat="47.11438" lon="4.67693">
        <ele>1328</ele>
        <time>2014-03-17T15:47:08Z</time>
      </trkpt>
      <trkpt lat="47.11438" lon="4.67696">
        <ele>1328</ele>
        <time>2014-03-17T15:47:10Z</time>
      </trkpt>
      <trkpt lat="47.11439" lon="4.67703">
        <ele>1328</ele>
        <time>2014-03-17T15:47:15Z</time>
      </trkpt>
      <trkpt lat="47.1144" lon="4.67706">
        <ele>1328</ele>
        <time>2014-03-17T15:47:17Z</time>
      </trkpt>
      <trkpt lat="47.11442" lon="4.67709">
        <ele>1328</ele>
        <time>2014-03-17T15:47:19Z</time>
      </trkpt>
      <trkpt lat="47.11446" lon="4.67714">
        <ele>1328</ele>
        <time>2014-03-17T15:47:23Z</time>
      </trkpt>
      <trkpt lat="47.11447" lon="4.67718">
        <ele>1328</ele>
        <time>2014-03-17T15:47:26Z</time>
      </trkpt>
      <trkpt lat="47.11449" lon="4.67721">
        <ele>1328</ele>
        <time>2014-03-17T15:47:28Z</time>
      </trkpt>
      <trkpt lat="47.11449" lon="4.67728">
        <ele>1328</ele>
        <time>2014-03-17T15:47:32Z</time>
      </trkpt>
      <trkpt lat="47.11449" lon="4.67731">
        <ele>1328</ele>
        <time>2014-03-17T15:47:34Z</time>
      </trkpt>
      <trkpt lat="47.11448" lon="4.67736">
        <ele>1328</ele>
        <time>2014-03-17T15:47:37Z</time>
      </trkpt>
      <trkpt lat="47.11448" lon="4.67743">
        <ele>1328</ele>
        <time>2014-03-17T15:47:41Z</time>
      </trkpt>
      <trkpt lat="47.11449" lon="4.67746">
        <ele>1328</ele>
        <time>2014-03-17T15:47:43Z</time>
      </trkpt>
      <trkpt lat="47.1145" lon="4.6775">
        <ele>1328</ele>
        <time>2014-03-17T15:47:45Z</time>
      </trkpt>
      <trkpt lat="47.11451" lon="4.67757">
        <ele>1328</ele>
        <time>2014-03-17T15:47:50Z</time>
      </trkpt>
      <trkpt lat="47.11451" lon="4.6776">
        <ele>1328</ele>
        <time>2014-03-17T15:47:52Z</time>
      </trkpt>
      <trkpt lat="47.1145" lon="4.67763">
        <ele>1328</ele>
        <time>2014-03-17T15:47:54Z</time>
      </trkpt>
      <trkpt lat="47.11446" lon="4.6777">
        <ele>1328</ele>
        <time>2014-03-17T15:47:59Z</time>
      </trkpt>
      <trkpt lat="47.11444" lon="4.67772">
        <ele>1328</ele>
        <time>2014-03-17T15:48:01Z</time>
      </trkpt>
      <trkpt lat="47.11442" lon="4.67773">
        <ele>1328</ele>
        <time>2014-03-17T15:48:03Z</time>
      </trkpt>
      <trkpt lat="47.11438" lon="4.67778">
        <ele>1328</ele>
        <time>2014-03-17T15:48:08Z</time>
      </trkpt>
      <trkpt lat="47.11437" lon="4.6778">
        <ele>1328</ele>
        <time>2014-03-17T15:48:10Z</time>
      </trkpt>
      <trkpt lat="47.11436" lon="4.67783">
        <ele>1328</ele>
        <time>2014-03-17T15:48:12Z</time>
      </trkpt>
      <trkpt lat="47.11436" lon="4.67789">
        <ele>1328</ele>
        <time>2014-03-17T15:48:16Z</time>
      </trkpt>
      <trkpt lat="47.11435" lon="4.67793">
        <ele>1328</ele>
        <time>2014-03-17T15:48:19Z</time>
      </trkpt>
      <trkpt lat="47.11435" lon="4.67796">
        <ele>1328</ele>
        <time>2014-03-17T15:48:21Z</time>
      </trkpt>
      <trkpt lat="47.11433" lon="4.67802">
        <ele>1328</ele>
        <time>2014-03-17T15:48:25Z</time>
      </trkpt>
      <trkpt lat="47.11433" lon="4.67804">
        <ele>1328</ele>
        <time>2014-03-17T15:48:27Z</time>
      </trkpt>
      <trkpt lat="47.11433" lon="4.67808">
        <ele>1328</ele>
        <time>2014-03-17T15:48:30Z</time>
      </trkpt>
      <trkpt lat="47.11433" lon="4.67813">
        <ele>1328</ele>
        <time>2014-03-17T15:48:34Z</time>
      </trkpt>
      <trkpt lat="47.11433" lon="4.67815">
        <ele>1328</ele>
        <time>2014-03-17T15:48:36Z</time>
      </trkpt>
      <trkpt lat="47.11434" lon="4.6782">
        <ele>1328</ele>
        <time>2014-03-17T15:48:38Z</time>
      </trkpt>
      <trkpt lat="47.11434" lon="4.67827">
        <ele>1328</ele>
        <time>2014-03-17T15:48:43Z</time>
      </trkpt>
      <trkpt lat="47.11434" lon="4.67831">
        <ele>1328</ele>
        <time>2014-03-17T15:48:45Z</time>
      </trkpt>
      <trkpt lat="47.11434" lon="4.67835">
        <ele>1328</ele>
        <time>2014-03-17T15:48:47Z</time>
      </trkpt>
      <trkpt lat="47.11433" lon="4.67841">
        <ele>1328</ele>
        <time>2014-03-17T15:48:49Z</time>
      </trkpt>
      <trkpt lat="47.11433" lon="4.67847">
        <ele>1328</ele>
        <time>2014-03-17T15:48:54Z</time>
      </trkpt>
      <trkpt lat="47.11432" lon="4.6785">
        <ele>1328</ele>
        <time>2014-03-17T15:48:56Z</time>
      </trkpt>
      <trkpt lat="47.11432" lon="4.67853">
        <ele>1328</ele>
        <time>2014-03-17T15:48:58Z</time>
      </trkpt>
      <trkpt lat="47.11432" lon="4.67861">
        <ele>1328</ele>
        <time>2014-03-17T15:49:03Z</time>
      </trkpt>
      <trkpt lat="47.11431" lon="4.67863">
        <ele>1328</ele>
        <time>2014-03-17T15:49:05Z</time>
      </trkpt>
      <trkpt lat="47.11431" lon="4.67866">
        <ele>1328</ele>
        <time>2014-03-17T15:49:07Z</time>
      </trkpt>
      <trkpt lat="47.11431" lon="4.67873">
        <ele>1328</ele>
        <time>2014-03-17T15:49:12Z</time>
      </trkpt>
      <trkpt lat="47.1143" lon="4.67876">
        <ele>1328</ele>
        <time>2014-03-17T15:49:14Z</time>
      </trkpt>
      <trkpt lat="47.1143" lon="4.6788">
        <ele>1328</ele>
        <time>2014-03-17T15:49:16Z</time>
      </trkpt>
      <trkpt lat="47.1143" lon="4.67886">
        <ele>1328</ele>
        <time>2014-03-17T15:49:20Z</time>
      </trkpt>
      <trkpt lat="47.11429" lon="4.6789">
        <ele>1328</ele>
        <time>2014-03-17T15:49:23Z</time>
      </trkpt>
      <trkpt lat="47.11429" lon="4.67893">
        <ele>1328</ele>
        <time>2014-03-17T15:49:25Z</time>
      </trkpt>
      <trkpt lat="47.11428" lon="4.67899">
        <ele>1328</ele>
        <time>2014-03-17T15:49:29Z</time>
      </trkpt>
      <trkpt lat="47.11428" lon="4.67901">
        <ele>1328</ele>
        <time>2014-03-17T15:49:31Z</time>
      </trkpt>
      <trkpt lat="47.11427" lon="4.67906">
        <ele>1328</ele>
        <time>2014-03-17T15:49:34Z</time>
      </trkpt>
      <trkpt lat="47.11426" lon="4.67913">
        <ele>1328</ele>
        <time>2014-03-17T15:49:38Z</time>
      </trkpt>
      <trkpt lat="47.11426" lon="4.67917">
        <ele>1328</ele>
        <time>2014-03-17T15:49:40Z</time>
      </trkpt>
      <trkpt lat="47.11425" lon="4.6792">
        <ele>1328</ele>
        <time>2014-03-17T15:49:42Z</time>
      </trkpt>
      <trkpt lat="47.11424" lon="4.67924">
        <ele>1328</ele>
        <time>2014-03-17T15:49:47Z</time>
      </trkpt>
      <trkpt lat="47.11424" lon="4.67925">
        <ele>1328</ele>
        <time>2014-03-17T15:49:49Z</time>
      </trkpt>
      <trkpt lat="47.11424" lon="4.67926">
        <ele>1328</ele>
        <time>2014-03-17T15:49:51Z</time>
      </trkpt>
      <trkpt lat="47.11424" lon="4.67928">
        <ele>1328</ele>
        <time>2014-03-17T15:49:56Z</time>
      </trkpt>
      <trkpt lat="47.11424" lon="4.67929">
        <ele>1328</ele>
        <time>2014-03-17T15:49:58Z</time>
      </trkpt>
      <trkpt lat="47.11424" lon="4.6793">
        <ele>1328</ele>
        <time>2014-03-17T15:50:00Z</time>
      </trkpt>
      <trkpt lat="47.11424" lon="4.67932">
        <ele>1328</ele>
        <time>2014-03-17T15:50:04Z</time>
      </trkpt>
      <trkpt lat="47.11424" lon="4.67932">
        <ele>1328</ele>
        <time>2014-03-17T15:50:07Z</time>
      </trkpt>
      <trkpt lat="47.11424" lon="4.67932">
        <ele>1328</ele>
        <time>2014-03-17T15:50:09Z</time>
      </trkpt>
      <trkpt lat="47.11425" lon="4.67933">
        <ele>1328</ele>
        <time>2014-03-17T15:50:13Z</time>
      </trkpt>
      <trkpt lat="47.11425" lon="4.67933">
        <ele>1328</ele>
        <time>2014-03-17T15:50:15Z</time>
      </trkpt>
      <trkpt lat="47.11425" lon="4.67934">
        <ele>1328</ele>
        <time>2014-03-17T15:50:18Z</time>
      </trkpt>
      <trkpt lat="47.11426" lon="4.67934">
        <ele>1328</ele>
        <time>2014-03-17T15:50:22Z</time>
      </trkpt>
      <trkpt lat="47.11426" lon="4.67935">
        <ele>1328</ele>
        <time>2014-03-17T15:50:24Z</time>
      </trkpt>
      <trkpt lat="47.11427" lon="4.67935">
        <ele>1328</ele>
        <time>2014-03-17T15:50:26Z</time>
      </trkpt>
      <trkpt lat="47.1143" lon="4.67938">
        <ele>1328</ele>
        <time>2014-03-17T15:50:31Z</time>
      </trkpt>
      <trkpt lat="47.11431" lon="4.67939">
        <ele>1328</ele>
        <time>2014-03-17T15:50:33Z</time>
      </trkpt>
      <trkpt lat="47.11431" lon="4.6794">
        <ele>1328</ele>
        <time>2014-03-17T15:50:35Z</time>
      </trkpt>
      <trkpt lat="47.11433" lon="4.67941">
        <ele>1328</ele>
        <time>2014-03-17T15:50:40Z</time>
      </trkpt>
      <trkpt lat="47.11434" lon="4.67942">
        <ele>1328</ele>
        <time>2014-03-17T15:50:42Z</time>
      </trkpt>
      <trkpt lat="47.11435" lon="4.67942">
        <ele>1328</ele>
        <time>2014-03-17T15:50:44Z</time>
      </trkpt>
      <trkpt lat="47.11438" lon="4.67943">
        <ele>1328</ele>
        <time>2014-03-17T15:50:48Z</time>
      </trkpt>
      <trkpt lat="47.1144" lon="4.67944">
        <ele>1328</ele>
        <time>2014-03-17T15:50:51Z</time>
      </trkpt>
      <trkpt lat="47.11442" lon="4.67944">
        <ele>1328</ele>
        <time>2014-03-17T15:50:53Z</time>
      </trkpt>
      <trkpt lat="47.11444" lon="4.67944">
        <ele>1328</ele>
        <time>2014-03-17T15:50:57Z</time>
      </trkpt>
      <trkpt lat="47.11446" lon="4.67944">
        <ele>1328</ele>
        <time>2014-03-17T15:50:59Z</time>
      </trkpt>
      <trkpt lat="47.11448" lon="4.67945">
        <ele>1328</ele>
        <time>2014-03-17T15:51:02Z</time>
      </trkpt>
      <trkpt lat="47.1145" lon="4.67946">
        <ele>1328</ele>
        <time>2014-03-17T15:51:04Z</time>
      </trkpt>
      <trkpt lat="47.11452" lon="4.67949">
        <ele>1328</ele>
        <time>2014-03-17T15:51:08Z</time>
      </trkpt>
      <trkpt lat="47.11453" lon="4.67951">
        <ele>1328</ele>
        <time>2014-03-17T15:51:10Z</time>
      </trkpt>
      <trkpt lat="47.11456" lon="4.67954">
        <ele>1328</ele>
        <time>2014-03-17T15:51:13Z</time>
      </trkpt>
      <trkpt lat="47.11459" lon="4.67958">
        <ele>1328</ele>
        <time>2014-03-17T15:51:17Z</time>
      </trkpt>
      <trkpt lat="47.11461" lon="4.67959">
        <ele>1328</ele>
        <time>2014-03-17T15:51:19Z</time>
      </trkpt>
      <trkpt lat="47.11462" lon="4.67961">
        <ele>1328</ele>
        <time>2014-03-17T15:51:21Z</time>
      </trkpt>
      <trkpt lat="47.11465" lon="4.67967">
        <ele>1328</ele>
        <time>2014-03-17T15:51:26Z</time>
      </trkpt>
      <trkpt lat="47.11466" lon="4.6797">
        <ele>1328</ele>
        <time>2014-03-17T15:51:28Z</time>
      </trkpt>
      <trkpt lat="47.11467" lon="4.67973">
        <ele>1328</ele>
        <time>2014-03-17T15:51:30Z</time>
      </trkpt>
      <trkpt lat="47.11471" lon="4.67979">
        <ele>1328</ele>
        <time>2014-03-17T15:51:35Z</time>
      </trkpt>
      <trkpt lat="47.11472" lon="4.67982">
        <ele>1328</ele>
        <time>2014-03-17T15:51:37Z</time>
      </trkpt>
      <trkpt lat="47.11474" lon="4.67985">
        <ele>1328</ele>
        <time>2014-03-17T15:51:39Z</time>
      </trkpt>
      <trkpt lat="47.11478" lon="4.6799">
        <ele>1328</ele>
        <time>2014-03-17T15:51:43Z</time>
      </trkpt>
      <trkpt lat="47.1148" lon="4.67992">
        <ele>1328</ele>
        <time>2014-03-17T15:51:46Z</time>
      </trkpt>
      <trkpt lat="47.11482" lon="4.67993">
        <ele>1328</ele>
        <time>2014-03-17T15:51:48Z</time>
      </trkpt>
      <trkpt lat="47.11486" lon="4.67997">
        <ele>1328</ele>
        <time>2014-03-17T15:51:52Z</time>
      </trkpt>
      <trkpt lat="47.11489" lon="4.67999">
        <ele>1328</ele>
        <time>2014-03-17T15:51:55Z</time>
      </trkpt>
      <trkpt lat="47.1149" lon="4.68001">
        <ele>1328</ele>
        <time>2014-03-17T15:51:57Z</time>
      </trkpt>
      <trkpt lat="47.11493" lon="4.68004">
        <ele>1328</ele>
        <time>2014-03-17T15:52:01Z</time>
      </trkpt>
      <trkpt lat="47.11494" lon="4.68005">
        <ele>1328</ele>
        <time>2014-03-17T15:52:03Z</time>
      </trkpt>
      <trkpt lat="47.11496" lon="4.68008">
        <ele>1328</ele>
        <time>2014-03-17T15:52:06Z</time>
      </trkpt>
      <trkpt lat="47.11498" lon="4.6801">
        <ele>1328</ele>
        <time>2014-03-17T15:52:10Z</time>
      </trkpt>
      <trkpt lat="47.115" lon="4.68012">
        <ele>1328</ele>
        <time>2014-03-17T15:52:12Z</time>
      </trkpt>
      <trkpt lat="47.11502" lon="4.68015">
        <ele>1328</ele>
        <time>2014-03-17T15:52:14Z</time>
      </trkpt>
      <trkpt lat="47.11507" lon="4.68021">
        <ele>1328</ele>
        <time>2014-03-17T15:52:19Z</time>
      </trkpt>
      <trkpt lat="47.11509" lon="4.68024">
        <ele>1328</ele>
        <time>2014-03-17T15:52:21Z</time>
      </trkpt>
      <trkpt lat="47.11512" lon="4.68027">
        <ele>1328</ele>
        <time>2014-03-17T15:52:23Z</time>
      </trkpt>
      <trkpt lat="47.11517" lon="4.68034">
        <ele>1328</ele>
        <time>2014-03-17T15:52:28Z</time>
      </trkpt>
      <trkpt lat="47.11519" lon="4.68036">
        <ele>1328</ele>
        <time>2014-03-17T15:52:30Z</time>
      </trkpt>
      <trkpt lat="47.11521" lon="4.68039">
        <ele>1328</ele>
        <time>2014-03-17T15:52:32Z</time>
      </trkpt>
      <trkpt lat="47.11525" lon="4.68045">
        <ele>1328</ele>
        <time>2014-03-17T15:52:36Z</time>
      </trkpt>
      <trkpt lat="47.11527" lon="4.68048">
        <ele>1328</ele>
        <time>2014-03-17T15:52:39Z</time>
      </trkpt>
      <trkpt lat="47.11529" lon="4.6805">
        <ele>1328</ele>
        <time>2014-03-17T15:52:41Z</time>
      </trkpt>
      <trkpt lat="47.11532" lon="4.68055">
        <ele>1328</ele>
        <time>2014-03-17T15:52:45Z</time>
      </trkpt>
      <trkpt lat="47.11534" lon="4.6806">
        <ele>1328</ele>
        <time>2014-03-17T15:52:48Z</time>
      </trkpt>
      <trkpt lat="47.11535" lon="4.68063">
        <ele>1328</ele>
        <time>2014-03-17T15:52:50Z</time>
      </trkpt>
      <trkpt lat="47.11539" lon="4.6807">
        <ele>1328</ele>
        <time>2014-03-17T15:52:54Z</time>
      </trkpt>
      <trkpt lat="47.11541" lon="4.68073">
        <ele>1328</ele>
        <time>2014-03-17T15:52:56Z</time>
      </trkpt>
      <trkpt lat="47.11543" lon="4.68077">
        <ele>1328</ele>
        <time>2014-03-17T15:52:59Z</time>
      </trkpt>
      <trkpt lat="47.11544" lon="4.68083">
        <ele>1328</ele>
        <time>2014-03-17T15:53:03Z</time>
      </trkpt>
      <trkpt lat="47.11546" lon="4.68086">
        <ele>1328</ele>
        <time>2014-03-17T15:53:05Z</time>
      </trkpt>
      <trkpt lat="47.11547" lon="4.68089">
        <ele>1328</ele>
        <time>2014-03-17T15:53:07Z</time>
      </trkpt>
      <trkpt lat="47.11547" lon="4.68094">
        <ele>1328</ele>
        <time>2014-03-17T15:53:10Z</time>
      </trkpt>
      <trkpt lat="47.11548" lon="4.681">
        <ele>1328</ele>
        <time>2014-03-17T15:53:14Z</time>
      </trkpt>
      <trkpt lat="47.11548" lon="4.68103">
        <ele>1328</ele>
        <time>2014-03-17T15:53:16Z</time>
      </trkpt>
      <trkpt lat="47.11547" lon="4.68107">
        <ele>1328</ele>
        <time>2014-03-17T15:53:18Z</time>
      </trkpt>
      <trkpt lat="47.11546" lon="4.68112">
        <ele>1328</ele>
        <time>2014-03-17T15:53:23Z</time>
      </trkpt>
      <trkpt lat="47.11545" lon="4.68115">
        <ele>1328</ele>
        <time>2014-03-17T15:53:25Z</time>
      </trkpt>
      <trkpt lat="47.11545" lon="4.68118">
        <ele>1328</ele>
        <time>2014-03-17T15:53:27Z</time>
      </trkpt>
      <trkpt lat="47.11544" lon="4.68127">
        <ele>1328</ele>
        <time>2014-03-17T15:53:32Z</time>
      </trkpt>
      <trkpt lat="47.11543" lon="4.6813">
        <ele>1328</ele>
        <time>2014-03-17T15:53:34Z</time>
      </trkpt>
      <trkpt lat="47.11543" lon="4.68133">
        <ele>1328</ele>
        <time>2014-03-17T15:53:36Z</time>
      </trkpt>
      <trkpt lat="47.11541" lon="4.6814">
        <ele>1328</ele>
        <time>2014-03-17T15:53:41Z</time>
      </trkpt>
      <trkpt lat="47.1154" lon="4.68143">
        <ele>1328</ele>
        <time>2014-03-17T15:53:43Z</time>
      </trkpt>
      <trkpt lat="47.11539" lon="4.68146">
        <ele>1328</ele>
        <time>2014-03-17T15:53:45Z</time>
      </trkpt>
      <trkpt lat="47.11536" lon="4.68153">
        <ele>1328</ele>
        <time>2014-03-17T15:53:50Z</time>
      </trkpt>
      <trkpt lat="47.11535" lon="4.68156">
        <ele>1328</ele>
        <time>2014-03-17T15:53:52Z</time>
      </trkpt>
      <trkpt lat="47.11534" lon="4.6816">
        <ele>1328</ele>
        <time>2014-03-17T15:53:54Z</time>
      </trkpt>
      <trkpt lat="47.11533" lon="4.68167">
        <ele>1328</ele>
        <time>2014-03-17T15:53:58Z</time>
      </trkpt>
      <trkpt lat="47.11531" lon="4.68171">
        <ele>1328</ele>
        <time>2014-03-17T15:54:01Z</time>
      </trkpt>
      <trkpt lat="47.11531" lon="4.68174">
        <ele>1328</ele>
        <time>2014-03-17T15:54:03Z</time>
      </trkpt>
      <trkpt lat="47.11529" lon="4.6818">
        <ele>1328</ele>
        <time>2014-03-17T15:54:07Z</time>
      </trkpt>
      <trkpt lat="47.11528" lon="4.68185">
        <ele>1328</ele>
        <time>2014-03-17T15:54:10Z</time>
      </trkpt>
      <trkpt lat="47.11527" lon="4.68188">
        <ele>1328</ele>
        <time>2014-03-17T15:54:12Z</time>
      </trkpt>
      <trkpt lat="47.11524" lon="4.68194">
        <ele>1328</ele>
        <time>2014-03-17T15:54:16Z</time>
      </trkpt>
      <trkpt lat="47.11523" lon="4.68197">
        <ele>1328</ele>
        <time>2014-03-17T15:54:18Z</time>
      </trkpt>
      <trkpt lat="47.11521" lon="4.68202">
        <ele>1328</ele>
        <time>2014-03-17T15:54:21Z</time>
      </trkpt>
      <trkpt lat="47.11518" lon="4.68207">
        <ele>1328</ele>
        <time>2014-03-17T15:54:25Z</time>
      </trkpt>
      <trkpt lat="47.11516" lon="4.6821">
        <ele>1328</ele>
        <time>2014-03-17T15:54:27Z</time>
      </trkpt>
      <trkpt lat="47.11514" lon="4.68214">
        <ele>1328</ele>
        <time>2014-03-17T15:54:29Z</time>
      </trkpt>
      <trkpt lat="47.11511" lon="4.68219">
        <ele>1328</ele>
        <time>2014-03-17T15:54:34Z</time>
      </trkpt>
      <trkpt lat="47.1151" lon="4.68223">
        <ele>1328</ele>
        <time>2014-03-17T15:54:36Z</time>
      </trkpt>
      <trkpt lat="47.11509" lon="4.68225">
        <ele>1328</ele>
        <time>2014-03-17T15:54:38Z</time>
      </trkpt>
      <trkpt lat="47.11505" lon="4.68232">
        <ele>1328</ele>
        <time>2014-03-17T15:54:43Z</time>
      </trkpt>
      <trkpt lat="47.11504" lon="4.68234">
        <ele>1328</ele>
        <time>2014-03-17T15:54:45Z</time>
      </trkpt>
      <trkpt lat="47.11503" lon="4.68237">
        <ele>1328</ele>
        <time>2014-03-17T15:54:47Z</time>
      </trkpt>
      <trkpt lat="47.115" lon="4.68243">
        <ele>1328</ele>
        <time>2014-03-17T15:54:52Z</time>
      </trkpt>
      <trkpt lat="47.11499" lon="4.68245">
        <ele>1328</ele>
        <time>2014-03-17T15:54:54Z</time>
      </trkpt>
      <trkpt lat="47.11497" lon="4.68247">
        <ele>1328</ele>
        <time>2014-03-17T15:54:56Z</time>
      </trkpt>
      <trkpt lat="47.11494" lon="4.68251">
        <ele>1328</ele>
        <time>2014-03-17T15:55:00Z</time>
      </trkpt>
      <trkpt lat="47.11492" lon="4.68255">
        <ele>1328</ele>
        <time>2014-03-17T15:55:03Z</time>
      </trkpt>
      <trkpt lat="47.11491" lon="4.68257">
        <ele>1328</ele>
        <time>2014-03-17T15:55:05Z</time>
      </trkpt>
      <trkpt lat="47.11488" lon="4.68261">
        <ele>1328</ele>
        <time>2014-03-17T15:55:09Z</time>
      </trkpt>
      <trkpt lat="47.11487" lon="4.68264">
        <ele>1328</ele>
        <time>2014-03-17T15:55:11Z</time>
      </trkpt>
      <trkpt lat="47.11485" lon="4.68266">
        <ele>1328</ele>
        <time>2014-03-17T15:55:14Z</time>
      </trkpt>
      <trkpt lat="47.11484" lon="4.68268">
        <ele>1328</ele>
        <time>2014-03-17T15:55:16Z</time>
      </trkpt>
      <trkpt lat="47.11481" lon="4.68272">
        <ele>1328</ele>
        <time>2014-03-17T15:55:20Z</time>
      </trkpt>
      <trkpt lat="47.11479" lon="4.68275">
        <ele>1328</ele>
        <time>2014-03-17T15:55:22Z</time>
      </trkpt>
      <trkpt lat="47.11477" lon="4.68277">
        <ele>1328</ele>
        <time>2014-03-17T15:55:25Z</time>
      </trkpt>
      <trkpt lat="47.11474" lon="4.68281">
        <ele>1328</ele>
        <time>2014-03-17T15:55:29Z</time>
      </trkpt>
      <trkpt lat="47.11472" lon="4.68283">
        <ele>1328</ele>
        <time>2014-03-17T15:55:31Z</time>
      </trkpt>
      <trkpt lat="47.1147" lon="4.68285">
        <ele>1328</ele>
        <time>2014-03-17T15:55:34Z</time>
      </trkpt>
      <trkpt lat="47.11467" lon="4.68289">
        <ele>1328</ele>
        <time>2014-03-17T15:55:38Z</time>
      </trkpt>
      <trkpt lat="47.11465" lon="4.68291">
        <ele>1328</ele>
        <time>2014-03-17T15:55:40Z</time>
      </trkpt>
      <trkpt lat="47.11463" lon="4.68292">
        <ele>1328</ele>
        <time>2014-03-17T15:55:42Z</time>
      </trkpt>
      <trkpt lat="47.11459" lon="4.68297">
        <ele>1328</ele>
        <time>2014-03-17T15:55:47Z</time>
      </trkpt>
      <trkpt lat="47.11458" lon="4.68299">
        <ele>1328</ele>
        <time>2014-03-17T15:55:49Z</time>
      </trkpt>
      <trkpt lat="47.11456" lon="4.68301">
        <ele>1328</ele>
        <time>2014-03-17T15:55:51Z</time>
      </trkpt>
      <trkpt lat="47.11452" lon="4.68306">
        <ele>1328</ele>
        <time>2014-03-17T15:55:56Z</time>
      </trkpt>
      <trkpt lat="47.1145" lon="4.68308">
        <ele>1328</ele>
        <time>2014-03-17T15:55:58Z</time>
      </trkpt>
      <trkpt lat="47.11448" lon="4.68311">
        <ele>1328</ele>
        <time>2014-03-17T15:56:00Z</time>
      </trkpt>
      <trkpt lat="47.11444" lon="4.68317">
        <ele>1328</ele>
        <time>2014-03-17T15:56:05Z</time>
      </trkpt>
      <trkpt lat="47.11442" lon="4.6832">
        <ele>1328</ele>
        <time>2014-03-17T15:56:07Z</time>
      </trkpt>
      <trkpt lat="47.1144" lon="4.68322">
        <ele>1328</ele>
        <time>2014-03-17T15:56:09Z</time>
      </trkpt>
      <trkpt lat="47.11437" lon="4.68327">
        <ele>1328</ele>
        <time>2014-03-17T15:56:13Z</time>
      </trkpt>
      <trkpt lat="47.11434" lon="4.68331">
        <ele>1328</ele>
        <time>2014-03-17T15:56:16Z</time>
      </trkpt>
      <trkpt lat="47.11433" lon="4.68333">
        <ele>1328</ele>
        <time>2014-03-17T15:56:18Z</time>
      </trkpt>
      <trkpt lat="47.1143" lon="4.6834">
        <ele>1328</ele>
        <time>2014-03-17T15:56:22Z</time>
      </trkpt>
      <trkpt lat="47.11427" lon="4.68344">
        <ele>1328</ele>
        <time>2014-03-17T15:56:24Z</time>
      </trkpt>
      <trkpt lat="47.11426" lon="4.68347">
        <ele>1328</ele>
        <time>2014-03-17T15:56:27Z</time>
      </trkpt>
      <trkpt lat="47.11423" lon="4.68352">
        <ele>1328</ele>
        <time>2014-03-17T15:56:31Z</time>
      </trkpt>
      <trkpt lat="47.11421" lon="4.68354">
        <ele>1328</ele>
        <time>2014-03-17T15:56:33Z</time>
      </trkpt>
      <trkpt lat="47.11419" lon="4.68358">
        <ele>1328</ele>
        <time>2014-03-17T15:56:36Z</time>
      </trkpt>
      <trkpt lat="47.11417" lon="4.68363">
        <ele>1328</ele>
        <time>2014-03-17T15:56:40Z</time>
      </trkpt>
      <trkpt lat="47.11415" lon="4.68366">
        <ele>1328</ele>
        <time>2014-03-17T15:56:42Z</time>
      </trkpt>
      <trkpt lat="47.11414" lon="4.68369">
        <ele>1328</ele>
        <time>2014-03-17T15:56:44Z</time>
      </trkpt>
      <trkpt lat="47.11411" lon="4.68375">
        <ele>1328</ele>
        <time>2014-03-17T15:56:49Z</time>
      </trkpt>
      <trkpt lat="47.1141" lon="4.68378">
        <ele>1328</ele>
        <time>2014-03-17T15:56:51Z</time>
      </trkpt>
      <trkpt lat="47.11409" lon="4.6838">
        <ele>1328</ele>
        <time>2014-03-17T15:56:53Z</time>
      </trkpt>
      <trkpt lat="47.11406" lon="4.68386">
        <ele>1328</ele>
        <time>2014-03-17T15:56:58Z</time>
      </trkpt>
      <trkpt lat="47.11404" lon="4.68388">
        <ele>1328</ele>
        <time>2014-03-17T15:57:00Z</time>
      </trkpt>
      <trkpt lat="47.11403" lon="4.68391">
        <ele>1328</ele>
        <time>2014-03-17T15:57:02Z</time>
      </trkpt>
      <trkpt lat="47.11399" lon="4.68397">
        <ele>1328</ele>
        <time>2014-03-17T15:57:06Z</time>
      </trkpt>
      <trkpt lat="47.11398" lon="4.68399">
        <ele>1328</ele>
        <time>2014-03-17T15:57:09Z</time>
      </trkpt>
      <trkpt lat="47.11396" lon="4.68402">
        <ele>1328</ele>
        <time>2014-03-17T15:57:11Z</time>
      </trkpt>
      <trkpt lat="47.11394" lon="4.68407">
        <ele>1328</ele>
        <time>2014-03-17T15:57:15Z</time>
      </trkpt>
      <trkpt lat="47.11391" lon="4.6841">
        <ele>1328</ele>
        <time>2014-03-17T15:57:18Z</time>
      </trkpt>
      <trkpt lat="47.11389" lon="4.68412">
        <ele>1328</ele>
        <time>2014-03-17T15:57:20Z</time>
      </trkpt>
      <trkpt lat="47.11386" lon="4.68417">
        <ele>1328</ele>
        <time>2014-03-17T15:57:24Z</time>
      </trkpt>
      <trkpt lat="47.11384" lon="4.68419">
        <ele>1328</ele>
        <time>2014-03-17T15:57:26Z</time>
      </trkpt>
      <trkpt lat="47.11381" lon="4.68423">
        <ele>1328</ele>
        <time>2014-03-17T15:57:29Z</time>
      </trkpt>
      <trkpt lat="47.1138" lon="4.68426">
        <ele>1328</ele>
        <time>2014-03-17T15:57:31Z</time>
      </trkpt>
      <trkpt lat="47.11379" lon="4.68432">
        <ele>1328</ele>
        <time>2014-03-17T15:57:35Z</time>
      </trkpt>
      <trkpt lat="47.11378" lon="4.68435">
        <ele>1328</ele>
        <time>2014-03-17T15:57:37Z</time>
      </trkpt>
      <trkpt lat="47.11376" lon="4.68438">
        <ele>1328</ele>
        <time>2014-03-17T15:57:40Z</time>
      </trkpt>
      <trkpt lat="47.11373" lon="4.68444">
        <ele>1328</ele>
        <time>2014-03-17T15:57:44Z</time>
      </trkpt>
      <trkpt lat="47.11372" lon="4.68446">
        <ele>1328</ele>
        <time>2014-03-17T15:57:46Z</time>
      </trkpt>
      <trkpt lat="47.1137" lon="4.6845">
        <ele>1328</ele>
        <time>2014-03-17T15:57:48Z</time>
      </trkpt>
      <trkpt lat="47.11367" lon="4.68453">
        <ele>1328</ele>
        <time>2014-03-17T15:57:53Z</time>
      </trkpt>
      <trkpt lat="47.11366" lon="4.68455">
        <ele>1328</ele>
        <time>2014-03-17T15:57:55Z</time>
      </trkpt>
      <trkpt lat="47.11365" lon="4.68457">
        <ele>1328</ele>
        <time>2014-03-17T15:57:57Z</time>
      </trkpt>
      <trkpt lat="47.11361" lon="4.68462">
        <ele>1328</ele>
        <time>2014-03-17T15:58:02Z</time>
      </trkpt>
      <trkpt lat="47.11359" lon="4.68464">
        <ele>1328</ele>
        <time>2014-03-17T15:58:04Z</time>
      </trkpt>
      <trkpt lat="47.11358" lon="4.68466">
        <ele>1328</ele>
        <time>2014-03-17T15:58:06Z</time>
      </trkpt>
      <trkpt lat="47.11353" lon="4.68472">
        <ele>1328</ele>
        <time>2014-03-17T15:58:11Z</time>
      </trkpt>
      <trkpt lat="47.11352" lon="4.68475">
        <ele>1328</ele>
        <time>2014-03-17T15:58:13Z</time>
      </trkpt>
      <trkpt lat="47.1135" lon="4.68478">
        <ele>1328</ele>
        <time>2014-03-17T15:58:15Z</time>
      </trkpt>
      <trkpt lat="47.11346" lon="4.68484">
        <ele>1328</ele>
        <time>2014-03-17T15:58:19Z</time>
      </trkpt>
      <trkpt lat="47.11345" lon="4.68487">
        <ele>1328</ele>
        <time>2014-03-17T15:58:22Z</time>
      </trkpt>
      <trkpt lat="47.11343" lon="4.68489">
        <ele>1328</ele>
        <time>2014-03-17T15:58:24Z</time>
      </trkpt>
      <trkpt lat="47.1134" lon="4.68494">
        <ele>1328</ele>
        <time>2014-03-17T15:58:28Z</time>
      </trkpt>
      <trkpt lat="47.11338" lon="4.68498">
        <ele>1328</ele>
        <time>2014-03-17T15:58:30Z</time>
      </trkpt>
      <trkpt lat="47.11337" lon="4.68501">
        <ele>1328</ele>
        <time>2014-03-17T15:58:33Z</time>
      </trkpt>
      <trkpt lat="47.11334" lon="4.68506">
        <ele>1328</ele>
        <time>2014-03-17T15:58:37Z</time>
      </trkpt>
      <trkpt lat="47.11333" lon="4.68508">
        <ele>1328</ele>
        <time>2014-03-17T15:58:39Z</time>
      </trkpt>
      <trkpt lat="47.1133" lon="4.68511">
        <ele>1328</ele>
        <time>2014-03-17T15:58:42Z</time>
      </trkpt>
      <trkpt lat="47.11328" lon="4.68516">
        <ele>1328</ele>
        <time>2014-03-17T15:58:46Z</time>
      </trkpt>
      <trkpt lat="47.11326" lon="4.68518">
        <ele>1328</ele>
        <time>2014-03-17T15:58:48Z</time>
      </trkpt>
      <trkpt lat="47.11324" lon="4.68521">
        <ele>1328</ele>
        <time>2014-03-17T15:58:50Z</time>
      </trkpt>
      <trkpt lat="47.1132" lon="4.68524">
        <ele>1328</ele>
        <time>2014-03-17T15:58:55Z</time>
      </trkpt>
      <trkpt lat="47.11318" lon="4.68526">
        <ele>1328</ele>
        <time>2014-03-17T15:58:57Z</time>
      </trkpt>
      <trkpt lat="47.11317" lon="4.68528">
        <ele>1328</ele>
        <time>2014-03-17T15:58:59Z</time>
      </trkpt>
      <trkpt lat="47.11314" lon="4.68532">
        <ele>1328</ele>
        <time>2014-03-17T15:59:04Z</time>
      </trkpt>
      <trkpt lat="47.11313" lon="4.68533">
        <ele>1328</ele>
        <time>2014-03-17T15:59:06Z</time>
      </trkpt>
      <trkpt lat="47.11313" lon="4.68534">
        <ele>1328</ele>
        <time>2014-03-17T15:59:08Z</time>
      </trkpt>
      <trkpt lat="47.11313" lon="4.68536">
        <ele>1328</ele>
        <time>2014-03-17T15:59:13Z</time>
      </trkpt>
      <trkpt lat="47.11313" lon="4.68536">
        <ele>1328</ele>
        <time>2014-03-17T15:59:15Z</time>
      </trkpt>
      <trkpt lat="47.11313" lon="4.68536">
        <ele>1328</ele>
        <time>2014-03-17T15:59:17Z</time>
      </trkpt>
      <trkpt lat="47.11312" lon="4.68537">
        <ele>1328</ele>
        <time>2014-03-17T15:59:21Z</time>
      </trkpt>
      <trkpt lat="47.11312" lon="4.68537">
        <ele>1328</ele>
        <time>2014-03-17T15:59:24Z</time>
      </trkpt>
      <trkpt lat="47.11312" lon="4.68538">
        <ele>1328</ele>
        <time>2014-03-17T15:59:26Z</time>
      </trkpt>
      <trkpt lat="47.11312" lon="4.68537">
        <ele>1328</ele>
        <time>2014-03-17T15:59:30Z</time>
      </trkpt>
      <trkpt lat="47.11312" lon="4.68538">
        <ele>1328</ele>
        <time>2014-03-17T15:59:32Z</time>
      </trkpt>
      <trkpt lat="47.11311" lon="4.68538">
        <ele>1328</ele>
        <time>2014-03-17T15:59:35Z</time>
      </trkpt>
      <trkpt lat="47.11311" lon="4.68537">
        <ele>1328</ele>
        <time>2014-03-17T15:59:37Z</time>
      </trkpt>
      <trkpt lat="47.11311" lon="4.68538">
        <ele>1328</ele>
        <time>2014-03-17T15:59:41Z</time>
      </trkpt>
      <trkpt lat="47.1131" lon="4.68538">
        <ele>1328</ele>
        <time>2014-03-17T15:59:43Z</time>
      </trkpt>
      <trkpt lat="47.1131" lon="4.68538">
        <ele>1328</ele>
        <time>2014-03-17T15:59:46Z</time>
      </trkpt>
      <trkpt lat="47.1131" lon="4.68538">
        <ele>1328</ele>
        <time>2014-03-17T15:59:50Z</time>
      </trkpt>
      <trkpt lat="47.1131" lon="4.68538">
        <ele>1328</ele>
        <time>2014-03-17T15:59:52Z</time>
      </trkpt>
      <trkpt lat="47.1131" lon="4.68538">
        <ele>1328</ele>
        <time>2014-03-17T15:59:54Z</time>
      </trkpt>
      <trkpt lat="47.1131" lon="4.68538">
        <ele>1328</ele>
        <time>2014-03-17T15:59:59Z</time>
      </trkpt>
      <trkpt lat="47.1131" lon="4.68538">
        <ele>1328</ele>
        <time>2014-03-17T16:00:01Z</time>
      </trkpt>
      <trkpt lat="47.1131" lon="4.68539">
        <ele>1328</ele>
        <time>2014-03-17T16:00:03Z</time>
      </trkpt>
      <trkpt lat="47.11311" lon="4.68539">
        <ele>1328</ele>
        <time>2014-03-17T16:00:08Z</time>
      </trkpt>
      <trkpt lat="47.11311" lon="4.6854">
        <ele>1328</ele>
        <time>2014-03-17T16:00:10Z</time>
      </trkpt>
      <trkpt lat="47.11311" lon="4.6854">
        <ele>1328</ele>
        <time>2014-03-17T16:00:12Z</time>
      </trkpt>
      <trkpt lat="47.11311" lon="4.68541">
        <ele>1328</ele>
        <time>2014-03-17T16:00:16Z</time>
      </trkpt>
      <trkpt lat="47.11312" lon="4.68541">
        <ele>1328</ele>
        <time>2014-03-17T16:00:19Z</time>
      </trkpt>
      <trkpt lat="47.11313" lon="4.68541">
        <ele>1328</ele>
        <time>2014-03-17T16:00:21Z</time>
      </trkpt>
      <trkpt lat="47.11313" lon="4.6854">
        <ele>1328</ele>
        <time>2014-03-17T16:00:25Z</time>
      </trkpt>
      <trkpt lat="47.11312" lon="4.6854">
        <ele>1328</ele>
        <time>2014-03-17T16:00:27Z</time>
      </trkpt>
      <trkpt lat="47.11312" lon="4.68539">
        <ele>1328</ele>
        <time>2014-03-17T16:00:30Z</time>
      </trkpt>
      <trkpt lat="47.11312" lon="4.68538">
        <ele>1328</ele>
        <time>2014-03-17T16:00:34Z</time>
      </trkpt>
      <trkpt lat="47.11311" lon="4.68538">
        <ele>1328</ele>
        <time>2014-03-17T16:00:36Z</time>
      </trkpt>
      <trkpt lat="47.11311" lon="4.68537">
        <ele>1328</ele>
        <time>2014-03-17T16:00:38Z</time>
      </trkpt>
      <trkpt lat="47.11311" lon="4.68538">
        <ele>1328</ele>
        <time>2014-03-17T16:00:43Z</time>
      </trkpt>
      <trkpt lat="47.11311" lon="4.68538">
        <ele>1328</ele>
        <time>2014-03-17T16:00:45Z</time>
      </trkpt>
      <trkpt lat="47.11311" lon="4.68538">
        <ele>1328</ele>
        <time>2014-03-17T16:00:47Z</time>
      </trkpt>
      <trkpt lat="47.11312" lon="4.68539">
        <ele>1328</ele>
        <time>2014-03-17T16:00:52Z</time>
      </trkpt>
      <trkpt lat="47.11313" lon="4.6854">
        <ele>1328</ele>
        <time>2014-03-17T16:00:54Z</time>
      </trkpt>
      <trkpt lat="47.11315" lon="4.68541">
        <ele>1328</ele>
        <time>2014-03-17T16:00:56Z</time>
      </trkpt>
      <trkpt lat="47.11318" lon="4.68541">
        <ele>1328</ele>
        <time>2014-03-17T16:01:00Z</time>
      </trkpt>
      <trkpt lat="47.11321" lon="4.68541">
        <ele>1328</ele>
        <time>2014-03-17T16:01:03Z</time>
      </trkpt>
      <trkpt lat="47.11323" lon="4.68541">
        <ele>1328</ele>
        <time>2014-03-17T16:01:05Z</time>
      </trkpt>
      <trkpt lat="47.11327" lon="4.68542">
        <ele>1328</ele>
        <time>2014-03-17T16:01:09Z</time>
      </trkpt>
      <trkpt lat="47.1133" lon="4.68542">
        <ele>1328</ele>
        <time>2014-03-17T16:01:12Z</time>
      </trkpt>
      <trkpt lat="47.11332" lon="4.68543">
        <ele>1328</ele>
        <time>2014-03-17T16:01:14Z</time>
      </trkpt>
      <trkpt lat="47.11336" lon="4.68543">
        <ele>1328</ele>
        <time>2014-03-17T16:01:18Z</time>
      </trkpt>
      <trkpt lat="47.11336" lon="4.68543">
        <ele>1328</ele>
        <time>2014-03-17T16:01:20Z</time>
      </trkpt>
      <trkpt lat="47.11339" lon="4.68543">
        <ele>1328</ele>
        <time>2014-03-17T16:01:23Z</time>
      </trkpt>
      <trkpt lat="47.11343" lon="4.68543">
        <ele>1328</ele>
        <time>2014-03-17T16:01:27Z</time>
      </trkpt>
      <trkpt lat="47.11345" lon="4.68543">
        <ele>1328</ele>
        <time>2014-03-17T16:01:29Z</time>
      </trkpt>
      <trkpt lat="47.11347" lon="4.68544">
        <ele>1328</ele>
        <time>2014-03-17T16:01:31Z</time>
      </trkpt>
      <trkpt lat="47.11352" lon="4.68544">
        <ele>1328</ele>
        <time>2014-03-17T16:01:36Z</time>
      </trkpt>
      <trkpt lat="47.11354" lon="4.68544">
        <ele>1328</ele>
        <time>2014-03-17T16:01:38Z</time>
      </trkpt>
      <trkpt lat="47.11357" lon="4.68544">
        <ele>1328</ele>
        <time>2014-03-17T16:01:40Z</time>
      </trkpt>
      <trkpt lat="47.1136" lon="4.68545">
        <ele>1328</ele>
        <time>2014-03-17T16:01:42Z</time>
      </trkpt>
      <trkpt lat="47.11366" lon="4.68545">
        <ele>1328</ele>
        <time>2014-03-17T16:01:47Z</time>
      </trkpt>
      <trkpt lat="47.11368" lon="4.68544">
        <ele>1328</ele>
        <time>2014-03-17T16:01:49Z</time>
      </trkpt>
      <trkpt lat="47.1137" lon="4.68543">
        <ele>1328</ele>
        <time>2014-03-17T16:01:51Z</time>
      </trkpt>
      <trkpt lat="47.11376" lon="4.68541">
        <ele>1328</ele>
        <time>2014-03-17T16:01:56Z</time>
      </trkpt>
      <trkpt lat="47.11378" lon="4.6854">
        <ele>1328</ele>
        <time>2014-03-17T16:01:58Z</time>
      </trkpt>
      <trkpt lat="47.11381" lon="4.6854">
        <ele>1328</ele>
        <time>2014-03-17T16:02:00Z</time>
      </trkpt>
      <trkpt lat="47.11386" lon="4.68538">
        <ele>1328</ele>
        <time>2014-03-17T16:02:04Z</time>
      </trkpt>
      <trkpt lat="47.1139" lon="4.68537">
        <ele>1328</ele>
        <time>2014-03-17T16:02:07Z</time>
      </trkpt>
      <trkpt lat="47.11392" lon="4.68537">
        <ele>1328</ele>
        <time>2014-03-17T16:02:09Z</time>
      </trkpt>
      <trkpt lat="47.11397" lon="4.68535">
        <ele>1328</ele>
        <time>2014-03-17T16:02:13Z</time>
      </trkpt>
      <trkpt lat="47.11399" lon="4.68535">
        <ele>1328</ele>
        <time>2014-03-17T16:02:15Z</time>
      </trkpt>
      <trkpt lat="47.11403" lon="4.68533">
        <ele>1328</ele>
        <time>2014-03-17T16:02:18Z</time>
      </trkpt>
      <trkpt lat="47.11408" lon="4.68532">
        <ele>1328</ele>
        <time>2014-03-17T16:02:22Z</time>
      </trkpt>
      <trkpt lat="47.11411" lon="4.6853">
        <ele>1328</ele>
        <time>2014-03-17T16:02:24Z</time>
      </trkpt>
      <trkpt lat="47.11415" lon="4.68529">
        <ele>1328</ele>
        <time>2014-03-17T16:02:26Z</time>
      </trkpt>
      <trkpt lat="47.1142" lon="4.68526">
        <ele>1328</ele>
        <time>2014-03-17T16:02:31Z</time>
      </trkpt>
      <trkpt lat="47.11422" lon="4.68525">
        <ele>1328</ele>
        <time>2014-03-17T16:02:33Z</time>
      </trkpt>
      <trkpt lat="47.11424" lon="4.68524">
        <ele>1328</ele>
        <time>2014-03-17T16:02:35Z</time>
      </trkpt>
      <trkpt lat="47.1143" lon="4.68521">
        <ele>1328</ele>
        <time>2014-03-17T16:02:40Z</time>
      </trkpt>
      <trkpt lat="47.11432" lon="4.6852">
        <ele>1328</ele>
        <time>2014-03-17T16:02:42Z</time>
      </trkpt>
      <trkpt lat="47.11434" lon="4.68519">
        <ele>1328</ele>
        <time>2014-03-17T16:02:44Z</time>
      </trkpt>
      <trkpt lat="47.11439" lon="4.68516">
        <ele>1328</ele>
        <time>2014-03-17T16:02:49Z</time>
      </trkpt>
      <trkpt lat="47.11441" lon="4.68515">
        <ele>1328</ele>
        <time>2014-03-17T16:02:51Z</time>
      </trkpt>
      <trkpt lat="47.11443" lon="4.68513">
        <ele>1328</ele>
        <time>2014-03-17T16:02:53Z</time>
      </trkpt>
      <trkpt lat="47.11449" lon="4.6851">
        <ele>1328</ele>
        <time>2014-03-17T16:02:57Z</time>
      </trkpt>
      <trkpt lat="47.11451" lon="4.68509">
        <ele>1328</ele>
        <time>2014-03-17T16:03:00Z</time>
      </trkpt>
      <trkpt lat="47.11453" lon="4.68507">
        <ele>1328</ele>
        <time>2014-03-17T16:03:02Z</time>
      </trkpt>
      <trkpt lat="47.11457" lon="4.68505">
        <ele>1328</ele>
        <time>2014-03-17T16:03:06Z</time>
      </trkpt>
      <trkpt lat="47.11462" lon="4.68504">
        <ele>1328</ele>
        <time>2014-03-17T16:03:08Z</time>
      </trkpt>
      <trkpt lat="47.11465" lon="4.68503">
        <ele>1328</ele>
        <time>2014-03-17T16:03:11Z</time>
      </trkpt>
      <trkpt lat="47.11469" lon="4.68501">
        <ele>1328</ele>
        <time>2014-03-17T16:03:15Z</time>
      </trkpt>
      <trkpt lat="47.11471" lon="4.685">
        <ele>1328</ele>
        <time>2014-03-17T16:03:17Z</time>
      </trkpt>
      <trkpt lat="47.11475" lon="4.68498">
        <ele>1328</ele>
        <time>2014-03-17T16:03:20Z</time>
      </trkpt>
      <trkpt lat="47.1148" lon="4.68496">
        <ele>1328</ele>
        <time>2014-03-17T16:03:24Z</time>
      </trkpt>
      <trkpt lat="47.11482" lon="4.68495">
        <ele>1328</ele>
        <time>2014-03-17T16:03:26Z</time>
      </trkpt>
      <trkpt lat="47.11484" lon="4.68494">
        <ele>1328</ele>
        <time>2014-03-17T16:03:28Z</time>
      </trkpt>
      <trkpt lat="47.1149" lon="4.68491">
        <ele>1328</ele>
        <time>2014-03-17T16:03:33Z</time>
      </trkpt>
      <trkpt lat="47.11492" lon="4.6849">
        <ele>1328</ele>
        <time>2014-03-17T16:03:35Z</time>
      </trkpt>
      <trkpt lat="47.11495" lon="4.68489">
        <ele>1328</ele>
        <time>2014-03-17T16:03:37Z</time>
      </trkpt>
      <trkpt lat="47.115" lon="4.68485">
        <ele>1328</ele>
        <time>2014-03-17T16:03:42Z</time>
      </trkpt>
      <trkpt lat="47.11501" lon="4.68485">
        <ele>1328</ele>
        <time>2014-03-17T16:03:44Z</time>
      </trkpt>
      <trkpt lat="47.11501" lon="4.68485">
        <ele>1328</ele>
        <time>2014-03-17T16:03:46Z</time>
      </trkpt>
      <trkpt lat="47.11503" lon="4.68484">
        <ele>1328</ele>
        <time>2014-03-17T16:03:48Z</time>
      </trkpt>
      <trkpt lat="47.11509" lon="4.68481">
        <ele>1328</ele>
        <time>2014-03-17T16:03:53Z</time>
      </trkpt>
      <trkpt lat="47.11511" lon="4.6848">
        <ele>1328</ele>
        <time>2014-03-17T16:03:55Z</time>
      </trkpt>
      <trkpt lat="47.11512" lon="4.6848">
        <ele>1328</ele>
        <time>2014-03-17T16:03:57Z</time>
      </trkpt>
      <trkpt lat="47.11515" lon="4.68478">
        <ele>1328</ele>
        <time>2014-03-17T16:04:01Z</time>
      </trkpt>
      <trkpt lat="47.11516" lon="4.68477">
        <ele>1328</ele>
        <time>2014-03-17T16:04:04Z</time>
      </trkpt>
      <trkpt lat="47.11518" lon="4.68477">
        <ele>1328</ele>
        <time>2014-03-17T16:04:06Z</time>
      </trkpt>
      <trkpt lat="47.1152" lon="4.68476">
        <ele>1328</ele>
        <time>2014-03-17T16:04:10Z</time>
      </trkpt>
      <trkpt lat="47.11523" lon="4.68475">
        <ele>1328</ele>
        <time>2014-03-17T16:04:12Z</time>
      </trkpt>
      <trkpt lat="47.11525" lon="4.68474">
        <ele>1328</ele>
        <time>2014-03-17T16:04:15Z</time>
      </trkpt>
      <trkpt lat="47.11529" lon="4.68473">
        <ele>1328</ele>
        <time>2014-03-17T16:04:19Z</time>
      </trkpt>
      <trkpt lat="47.1153" lon="4.68473">
        <ele>1328</ele>
        <time>2014-03-17T16:04:21Z</time>
      </trkpt>
      <trkpt lat="47.11533" lon="4.68472">
        <ele>1328</ele>
        <time>2014-03-17T16:04:24Z</time>
      </trkpt>
      <trkpt lat="47.11538" lon="4.68472">
        <ele>1328</ele>
        <time>2014-03-17T16:04:28Z</time>
      </trkpt>
      <trkpt lat="47.1154" lon="4.68472">
        <ele>1328</ele>
        <time>2014-03-17T16:04:30Z</time>
      </trkpt>
      <trkpt lat="47.11543" lon="4.68472">
        <ele>1328</ele>
        <time>2014-03-17T16:04:32Z</time>
      </trkpt>
      <trkpt lat="47.11548" lon="4.6847">
        <ele>1328</ele>
        <time>2014-03-17T16:04:37Z</time>
      </trkpt>
      <trkpt lat="47.1155" lon="4.6847">
        <ele>1328</ele>
        <time>2014-03-17T16:04:39Z</time>
      </trkpt>
      <trkpt lat="47.11552" lon="4.68469">
        <ele>1328</ele>
        <time>2014-03-17T16:04:41Z</time>
      </trkpt>
      <trkpt lat="47.11558" lon="4.68468">
        <ele>1328</ele>
        <time>2014-03-17T16:04:46Z</time>
      </trkpt>
      <trkpt lat="47.1156" lon="4.68467">
        <ele>1328</ele>
        <time>2014-03-17T16:04:48Z</time>
      </trkpt>
      <trkpt lat="47.11561" lon="4.68467">
        <ele>1328</ele>
        <time>2014-03-17T16:04:50Z</time>
      </trkpt>
      <trkpt lat="47.11565" lon="4.68466">
        <ele>1328</ele>
        <time>2014-03-17T16:04:54Z</time>
      </trkpt>
      <trkpt lat="47.11569" lon="4.68466">
        <ele>1328</ele>
        <time>2014-03-17T16:04:57Z</time>
      </trkpt>
      <trkpt lat="47.11571" lon="4.68466">
        <ele>1328</ele>
        <time>2014-03-17T16:04:59Z</time>
      </trkpt>
      <trkpt lat="47.11576" lon="4.68466">
        <ele>1328</ele>
        <time>2014-03-17T16:05:03Z</time>
      </trkpt>
      <trkpt lat="47.11579" lon="4.68466">
        <ele>1328</ele>
        <time>2014-03-17T16:05:05Z</time>
      </trkpt>
      <trkpt lat="47.11583" lon="4.68465">
        <ele>1328</ele>
        <time>2014-03-17T16:05:08Z</time>
      </trkpt>
      <trkpt lat="47.11587" lon="4.68465">
        <ele>1328</ele>
        <time>2014-03-17T16:05:12Z</time>
      </trkpt>
      <trkpt lat="47.11589" lon="4.68464">
        <ele>1328</ele>
        <time>2014-03-17T16:05:14Z</time>
      </trkpt>
      <trkpt lat="47.11591" lon="4.68464">
        <ele>1328</ele>
        <time>2014-03-17T16:05:16Z</time>
      </trkpt>
      <trkpt lat="47.11597" lon="4.68463">
        <ele>1328</ele>
        <time>2014-03-17T16:05:21Z</time>
      </trkpt>
      <trkpt lat="47.11599" lon="4.68462">
        <ele>1328</ele>
        <time>2014-03-17T16:05:23Z</time>
      </trkpt>
      <trkpt lat="47.11602" lon="4.68461">
        <ele>1328</ele>
        <time>2014-03-17T16:05:25Z</time>
      </trkpt>
      <trkpt lat="47.11609" lon="4.68459">
        <ele>1328</ele>
        <time>2014-03-17T16:05:30Z</time>
      </trkpt>
      <trkpt lat="47.11612" lon="4.68458">
        <ele>1328</ele>
        <time>2014-03-17T16:05:32Z</time>
      </trkpt>
      <trkpt lat="47.11615" lon="4.68457">
        <ele>1328</ele>
        <time>2014-03-17T16:05:34Z</time>
      </trkpt>
      <trkpt lat="47.11621" lon="4.68454">
        <ele>1328</ele>
        <time>2014-03-17T16:05:39Z</time>
      </trkpt>
      <trkpt lat="47.11624" lon="4.68452">
        <ele>1328</ele>
        <time>2014-03-17T16:05:41Z</time>
      </trkpt>
      <trkpt lat="47.11627" lon="4.68451">
        <ele>1328</ele>
        <time>2014-03-17T16:05:43Z</time>
      </trkpt>
      <trkpt lat="47.11632" lon="4.68448">
        <ele>1328</ele>
        <time>2014-03-17T16:05:47Z</time>
      </trkpt>
      <trkpt lat="47.11635" lon="4.68446">
        <ele>1328</ele>
        <time>2014-03-17T16:05:50Z</time>
      </trkpt>
      <trkpt lat="47.11638" lon="4.68445">
        <ele>1328</ele>
        <time>2014-03-17T16:05:52Z</time>
      </trkpt>
      <trkpt lat="47.11642" lon="4.68442">
        <ele>1328</ele>
        <time>2014-03-17T16:05:56Z</time>
      </trkpt>
      <trkpt lat="47.11644" lon="4.68441">
        <ele>1328</ele>
        <time>2014-03-17T16:05:58Z</time>
      </trkpt>
      <trkpt lat="47.11648" lon="4.68439">
        <ele>1328</ele>
        <time>2014-03-17T16:06:01Z</time>
      </trkpt>
      <trkpt lat="47.1165" lon="4.68438">
        <ele>1328</ele>
        <time>2014-03-17T16:06:03Z</time>
      </trkpt>
      <trkpt lat="47.11653" lon="4.68437">
        <ele>1328</ele>
        <time>2014-03-17T16:06:07Z</time>
      </trkpt>
      <trkpt lat="47.11657" lon="4.68436">
        <ele>1328</ele>
        <time>2014-03-17T16:06:09Z</time>
      </trkpt>
      <trkpt lat="47.11659" lon="4.68436">
        <ele>1328</ele>
        <time>2014-03-17T16:06:12Z</time>
      </trkpt>
      <trkpt lat="47.11664" lon="4.68434">
        <ele>1328</ele>
        <time>2014-03-17T16:06:16Z</time>
      </trkpt>
      <trkpt lat="47.11666" lon="4.68434">
        <ele>1328</ele>
        <time>2014-03-17T16:06:18Z</time>
      </trkpt>
      <trkpt lat="47.11669" lon="4.68433">
        <ele>1328</ele>
        <time>2014-03-17T16:06:21Z</time>
      </trkpt>
      <trkpt lat="47.11674" lon="4.68431">
        <ele>1328</ele>
        <time>2014-03-17T16:06:25Z</time>
      </trkpt>
      <trkpt lat="47.11677" lon="4.6843">
        <ele>1328</ele>
        <time>2014-03-17T16:06:27Z</time>
      </trkpt>
      <trkpt lat="47.1168" lon="4.6843">
        <ele>1328</ele>
        <time>2014-03-17T16:06:29Z</time>
      </trkpt>
      <trkpt lat="47.11685" lon="4.68428">
        <ele>1328</ele>
        <time>2014-03-17T16:06:34Z</time>
      </trkpt>
      <trkpt lat="47.11688" lon="4.68427">
        <ele>1328</ele>
        <time>2014-03-17T16:06:36Z</time>
      </trkpt>
      <trkpt lat="47.1169" lon="4.68426">
        <ele>1328</ele>
        <time>2014-03-17T16:06:38Z</time>
      </trkpt>
      <trkpt lat="47.11696" lon="4.68428">
        <ele>1328</ele>
        <time>2014-03-17T16:06:43Z</time>
      </trkpt>
      <trkpt lat="47.11699" lon="4.68429">
        <ele>1328</ele>
        <time>2014-03-17T16:06:45Z</time>
      </trkpt>
      <trkpt lat="47.11701" lon="4.6843">
        <ele>1328</ele>
        <time>2014-03-17T16:06:47Z</time>
      </trkpt>
      <trkpt lat="47.11708" lon="4.68433">
        <ele>1328</ele>
        <time>2014-03-17T16:06:51Z</time>
      </trkpt>
      <trkpt lat="47.11711" lon="4.68434">
        <ele>1328</ele>
        <time>2014-03-17T16:06:54Z</time>
      </trkpt>
      <trkpt lat="47.11714" lon="4.68435">
        <ele>1328</ele>
        <time>2014-03-17T16:06:56Z</time>
      </trkpt>
      <trkpt lat="47.11719" lon="4.68437">
        <ele>1328</ele>
        <time>2014-03-17T16:07:00Z</time>
      </trkpt>
      <trkpt lat="47.11723" lon="4.68438">
        <ele>1328</ele>
        <time>2014-03-17T16:07:03Z</time>
      </trkpt>
      <trkpt lat="47.11726" lon="4.68439">
        <ele>1328</ele>
        <time>2014-03-17T16:07:05Z</time>
      </trkpt>
      <trkpt lat="47.11731" lon="4.68441">
        <ele>1328</ele>
        <time>2014-03-17T16:07:09Z</time>
      </trkpt>
      <trkpt lat="47.11733" lon="4.68442">
        <ele>1328</ele>
        <time>2014-03-17T16:07:11Z</time>
      </trkpt>
      <trkpt lat="47.11737" lon="4.68444">
        <ele>1328</ele>
        <time>2014-03-17T16:07:14Z</time>
      </trkpt>
      <trkpt lat="47.11741" lon="4.68445">
        <ele>1328</ele>
        <time>2014-03-17T16:07:18Z</time>
      </trkpt>
      <trkpt lat="47.11743" lon="4.68446">
        <ele>1328</ele>
        <time>2014-03-17T16:07:20Z</time>
      </trkpt>
      <trkpt lat="47.11746" lon="4.68447">
        <ele>1328</ele>
        <time>2014-03-17T16:07:22Z</time>
      </trkpt>
      <trkpt lat="47.1175" lon="4.68449">
        <ele>1328</ele>
        <time>2014-03-17T16:07:27Z</time>
      </trkpt>
      <trkpt lat="47.11752" lon="4.6845">
        <ele>1328</ele>
        <time>2014-03-17T16:07:29Z</time>
      </trkpt>
      <trkpt lat="47.11754" lon="4.68451">
        <ele>1328</ele>
        <time>2014-03-17T16:07:31Z</time>
      </trkpt>
      <trkpt lat="47.11759" lon="4.68456">
        <ele>1328</ele>
        <time>2014-03-17T16:07:36Z</time>
      </trkpt>
      <trkpt lat="47.11761" lon="4.68458">
        <ele>1328</ele>
        <time>2014-03-17T16:07:38Z</time>
      </trkpt>
      <trkpt lat="47.11763" lon="4.6846">
        <ele>1328</ele>
        <time>2014-03-17T16:07:40Z</time>
      </trkpt>
      <trkpt lat="47.11768" lon="4.68468">
        <ele>1328</ele>
        <time>2014-03-17T16:07:45Z</time>
      </trkpt>
      <trkpt lat="47.11769" lon="4.68471">
        <ele>1328</ele>
        <time>2014-03-17T16:07:47Z</time>
      </trkpt>
      <trkpt lat="47.1177" lon="4.68474">
        <ele>1328</ele>
        <time>2014-03-17T16:07:49Z</time>
      </trkpt>
      <trkpt lat="47.11772" lon="4.68482">
        <ele>1328</ele>
        <time>2014-03-17T16:07:53Z</time>
      </trkpt>
      <trkpt lat="47.11773" lon="4.68486">
        <ele>1328</ele>
        <time>2014-03-17T16:07:56Z</time>
      </trkpt>
      <trkpt lat="47.11774" lon="4.68489">
        <ele>1328</ele>
        <time>2014-03-17T16:07:58Z</time>
      </trkpt>
      <trkpt lat="47.11776" lon="4.68495">
        <ele>1328</ele>
        <time>2014-03-17T16:08:02Z</time>
      </trkpt>
      <trkpt lat="47.11778" lon="4.685">
        <ele>1328</ele>
        <time>2014-03-17T16:08:05Z</time>
      </trkpt>
      <trkpt lat="47.11778" lon="4.68503">
        <ele>1328</ele>
        <time>2014-03-17T16:08:07Z</time>
      </trkpt>
      <trkpt lat="47.11779" lon="4.68506">
        <ele>1328</ele>
        <time>2014-03-17T16:08:09Z</time>
      </trkpt>
      <trkpt lat="47.11779" lon="4.68512">
        <ele>1328</ele>
        <time>2014-03-17T16:08:13Z</time>
      </trkpt>
      <trkpt lat="47.11781" lon="4.68517">
        <ele>1328</ele>
        <time>2014-03-17T16:08:16Z</time>
      </trkpt>
      <trkpt lat="47.11782" lon="4.68519">
        <ele>1328</ele>
        <time>2014-03-17T16:08:18Z</time>
      </trkpt>
      <trkpt lat="47.11783" lon="4.68525">
        <ele>1328</ele>
        <time>2014-03-17T16:08:22Z</time>
      </trkpt>
      <trkpt lat="47.11783" lon="4.68528">
        <ele>1328</ele>
        <time>2014-03-17T16:08:24Z</time>
      </trkpt>
      <trkpt lat="47.11784" lon="4.68533">
        <ele>1328</ele>
        <time>2014-03-17T16:08:27Z</time>
      </trkpt>
      <trkpt lat="47.11786" lon="4.68539">
        <ele>1328</ele>
        <time>2014-03-17T16:08:31Z</time>
      </trkpt>
      <trkpt lat="47.11787" lon="4.68542">
        <ele>1328</ele>
        <time>2014-03-17T16:08:33Z</time>
      </trkpt>
      <trkpt lat="47.11789" lon="4.68547">
        <ele>1328</ele>
        <time>2014-03-17T16:08:35Z</time>
      </trkpt>
      <trkpt lat="47.11791" lon="4.68553">
        <ele>1328</ele>
        <time>2014-03-17T16:08:40Z</time>
      </trkpt>
      <trkpt lat="47.11793" lon="4.68556">
        <ele>1328</ele>
        <time>2014-03-17T16:08:42Z</time>
      </trkpt>
      <trkpt lat="47.11793" lon="4.68558">
        <ele>1328</ele>
        <time>2014-03-17T16:08:44Z</time>
      </trkpt>
      <trkpt lat="47.11793" lon="4.6856">
        <ele>1328</ele>
        <time>2014-03-17T16:08:49Z</time>
      </trkpt>
      <trkpt lat="47.11793" lon="4.6856">
        <ele>1328</ele>
        <time>2014-03-17T16:08:51Z</time>
      </trkpt>
      <trkpt lat="47.11793" lon="4.68561">
        <ele>1328</ele>
        <time>2014-03-17T16:08:53Z</time>
      </trkpt>
      <trkpt lat="47.11795" lon="4.68565">
        <ele>1328</ele>
        <time>2014-03-17T16:08:58Z</time>
      </trkpt>
      <trkpt lat="47.11795" lon="4.68566">
        <ele>1328</ele>
        <time>2014-03-17T16:09:00Z</time>
      </trkpt>
      <trkpt lat="47.11796" lon="4.68567">
        <ele>1328</ele>
        <time>2014-03-17T16:09:02Z</time>
      </trkpt>
      <trkpt lat="47.118" lon="4.68571">
        <ele>1328</ele>
        <time>2014-03-17T16:09:07Z</time>
      </trkpt>
      <trkpt lat="47.118" lon="4.68572">
        <ele>1328</ele>
        <time>2014-03-17T16:09:09Z</time>
      </trkpt>
      <trkpt lat="47.11801" lon="4.68573">
        <ele>1328</ele>
        <time>2014-03-17T16:09:11Z</time>
      </trkpt>
      <trkpt lat="47.11803" lon="4.68575">
        <ele>1328</ele>
        <time>2014-03-17T16:09:15Z</time>
      </trkpt>
      <trkpt lat="47.11805" lon="4.68578">
        <ele>1328</ele>
        <time>2014-03-17T16:09:18Z</time>
      </trkpt>
      <trkpt lat="47.11805" lon="4.68579">
        <ele>1328</ele>
        <time>2014-03-17T16:09:20Z</time>
      </trkpt>
      <trkpt lat="47.11806" lon="4.68581">
        <ele>1328</ele>
        <time>2014-03-17T16:09:24Z</time>
      </trkpt>
      <trkpt lat="47.11807" lon="4.68582">
        <ele>1328</ele>
        <time>2014-03-17T16:09:26Z</time>
      </trkpt>
      <trkpt lat="47.11808" lon="4.68583">
        <ele>1328</ele>
        <time>2014-03-17T16:09:29Z</time>
      </trkpt>
      <trkpt lat="47.11808" lon="4.68584">
        <ele>1328</ele>
        <time>2014-03-17T16:09:33Z</time>
      </trkpt>
      <trkpt lat="47.11809" lon="4.68586">
        <ele>1328</ele>
        <time>2014-03-17T16:09:35Z</time>
      </trkpt>
      <trkpt lat="47.1181" lon="4.68587">
        <ele>1328</ele>
        <time>2014-03-17T16:09:37Z</time>
      </trkpt>
      <trkpt lat="47.11814" lon="4.6859">
        <ele>1328</ele>
        <time>2014-03-17T16:09:42Z</time>
      </trkpt>
      <trkpt lat="47.11816" lon="4.68592">
        <ele>1328</ele>
        <time>2014-03-17T16:09:44Z</time>
      </trkpt>
      <trkpt lat="47.11819" lon="4.68594">
        <ele>1328</ele>
        <time>2014-03-17T16:09:46Z</time>
      </trkpt>
      <trkpt lat="47.11823" lon="4.68596">
        <ele>1328</ele>
        <time>2014-03-17T16:09:51Z</time>
      </trkpt>
      <trkpt lat="47.11825" lon="4.68597">
        <ele>1328</ele>
        <time>2014-03-17T16:09:53Z</time>
      </trkpt>
      <trkpt lat="47.11826" lon="4.68598">
        <ele>1328</ele>
        <time>2014-03-17T16:09:55Z</time>
      </trkpt>
      <trkpt lat="47.11832" lon="4.68599">
        <ele>1328</ele>
        <time>2014-03-17T16:10:00Z</time>
      </trkpt>
      <trkpt lat="47.11834" lon="4.686">
        <ele>1328</ele>
        <time>2014-03-17T16:10:02Z</time>
      </trkpt>
      <trkpt lat="47.11835" lon="4.686">
        <ele>1328</ele>
        <time>2014-03-17T16:10:04Z</time>
      </trkpt>
      <trkpt lat="47.1184" lon="4.68601">
        <ele>1328</ele>
        <time>2014-03-17T16:10:08Z</time>
      </trkpt>
      <trkpt lat="47.11841" lon="4.68602">
        <ele>1328</ele>
        <time>2014-03-17T16:10:11Z</time>
      </trkpt>
      <trkpt lat="47.11843" lon="4.68602">
        <ele>1328</ele>
        <time>2014-03-17T16:10:13Z</time>
      </trkpt>
      <trkpt lat="47.11844" lon="4.68603">
        <ele>1328</ele>
        <time>2014-03-17T16:10:15Z</time>
      </trkpt>
      <trkpt lat="47.11848" lon="4.68605">
        <ele>1328</ele>
        <time>2014-03-17T16:10:20Z</time>
      </trkpt>
      <trkpt lat="47.11848" lon="4.68606">
        <ele>1328</ele>
        <time>2014-03-17T16:10:22Z</time>
      </trkpt>
      <trkpt lat="47.11849" lon="4.68606">
        <ele>1328</ele>
        <time>2014-03-17T16:10:24Z</time>
      </trkpt>
      <trkpt lat="47.11852" lon="4.68607">
        <ele>1328</ele>
        <time>2014-03-17T16:10:28Z</time>
      </trkpt>
      <trkpt lat="47.11853" lon="4.68608">
        <ele>1328</ele>
        <time>2014-03-17T16:10:31Z</time>
      </trkpt>
      <trkpt lat="47.11854" lon="4.68608">
        <ele>1328</ele>
        <time>2014-03-17T16:10:33Z</time>
      </trkpt>
      <trkpt lat="47.11856" lon="4.68609">
        <ele>1328</ele>
        <time>2014-03-17T16:10:37Z</time>
      </trkpt>
      <trkpt lat="47.11858" lon="4.6861">
        <ele>1328</ele>
        <time>2014-03-17T16:10:39Z</time>
      </trkpt>
      <trkpt lat="47.11861" lon="4.68611">
        <ele>1328</ele>
        <time>2014-03-17T16:10:42Z</time>
      </trkpt>
      <trkpt lat="47.11864" lon="4.68613">
        <ele>1328</ele>
        <time>2014-03-17T16:10:46Z</time>
      </trkpt>
      <trkpt lat="47.11866" lon="4.68614">
        <ele>1328</ele>
        <time>2014-03-17T16:10:48Z</time>
      </trkpt>
      <trkpt lat="47.11869" lon="4.68616">
        <ele>1328</ele>
        <time>2014-03-17T16:10:50Z</time>
      </trkpt>
      <trkpt lat="47.11874" lon="4.68617">
        <ele>1328</ele>
        <time>2014-03-17T16:10:55Z</time>
      </trkpt>
      <trkpt lat="47.11876" lon="4.68618">
        <ele>1328</ele>
        <time>2014-03-17T16:10:57Z</time>
      </trkpt>
      <trkpt lat="47.11879" lon="4.68619">
        <ele>1328</ele>
        <time>2014-03-17T16:10:59Z</time>
      </trkpt>
      <trkpt lat="47.11884" lon="4.68621">
        <ele>1328</ele>
        <time>2014-03-17T16:11:04Z</time>
      </trkpt>
      <trkpt lat="47.11887" lon="4.68622">
        <ele>1328</ele>
        <time>2014-03-17T16:11:06Z</time>
      </trkpt>
      <trkpt lat="47.11889" lon="4.68623">
        <ele>1328</ele>
        <time>2014-03-17T16:11:08Z</time>
      </trkpt>
      <trkpt lat="47.11893" lon="4.68623">
        <ele>1328</ele>
        <time>2014-03-17T16:11:13Z</time>
      </trkpt>
      <trkpt lat="47.11894" lon="4.68624">
        <ele>1328</ele>
        <time>2014-03-17T16:11:15Z</time>
      </trkpt>
      <trkpt lat="47.11895" lon="4.68624">
        <ele>1328</ele>
        <time>2014-03-17T16:11:17Z</time>
      </trkpt>
      <trkpt lat="47.11897" lon="4.68626">
        <ele>1328</ele>
        <time>2014-03-17T16:11:21Z</time>
      </trkpt>
      <trkpt lat="47.119" lon="4.68626">
        <ele>1328</ele>
        <time>2014-03-17T16:11:24Z</time>
      </trkpt>
      <trkpt lat="47.11902" lon="4.68627">
        <ele>1328</ele>
        <time>2014-03-17T16:11:26Z</time>
      </trkpt>
      <trkpt lat="47.11907" lon="4.68629">
        <ele>1328</ele>
        <time>2014-03-17T16:11:30Z</time>
      </trkpt>
      <trkpt lat="47.1191" lon="4.68631">
        <ele>1328</ele>
        <time>2014-03-17T16:11:33Z</time>
      </trkpt>
      <trkpt lat="47.11912" lon="4.68631">
        <ele>1328</ele>
        <time>2014-03-17T16:11:35Z</time>
      </trkpt>
      <trkpt lat="47.11915" lon="4.68631">
        <ele>1328</ele>
        <time>2014-03-17T16:11:39Z</time>
      </trkpt>
      <trkpt lat="47.11917" lon="4.68632">
        <ele>1328</ele>
        <time>2014-03-17T16:11:41Z</time>
      </trkpt>
      <trkpt lat="47.1192" lon="4.68633">
        <ele>1328</ele>
        <time>2014-03-17T16:11:44Z</time>
      </trkpt>
      <trkpt lat="47.11923" lon="4.68633">
        <ele>1328</ele>
        <time>2014-03-17T16:11:48Z</time>
      </trkpt>
      <trkpt lat="47.11925" lon="4.68634">
        <ele>1328</ele>
        <time>2014-03-17T16:11:50Z</time>
      </trkpt>
      <trkpt lat="47.11926" lon="4.68634">
        <ele>1328</ele>
        <time>2014-03-17T16:11:52Z</time>
      </trkpt>
      <trkpt lat="47.1193" lon="4.68636">
        <ele>1328</ele>
        <time>2014-03-17T16:11:57Z</time>
      </trkpt>
      <trkpt lat="47.11932" lon="4.68637">
        <ele>1328</ele>
        <time>2014-03-17T16:11:59Z</time>
      </trkpt>
      <trkpt lat="47.11933" lon="4.68637">
        <ele>1328</ele>
        <time>2014-03-17T16:12:01Z</time>
      </trkpt>
      <trkpt lat="47.11938" lon="4.68639">
        <ele>1328</ele>
        <time>2014-03-17T16:12:06Z</time>
      </trkpt>
      <trkpt lat="47.1194" lon="4.6864">
        <ele>1328</ele>
        <time>2014-03-17T16:12:08Z</time>
      </trkpt>
      <trkpt lat="47.11941" lon="4.6864">
        <ele>1328</ele>
        <time>2014-03-17T16:12:10Z</time>
      </trkpt>
      <trkpt lat="47.11943" lon="4.6864">
        <ele>1328</ele>
        <time>2014-03-17T16:12:14Z</time>
      </trkpt>
      <trkpt lat="47.11943" lon="4.6864">
        <ele>1328</ele>
        <time>2014-03-17T16:12:17Z</time>
      </trkpt>
      <trkpt lat="47.11944" lon="4.68641">
        <ele>1328</ele>
        <time>2014-03-17T16:12:19Z</time>
      </trkpt>
      <trkpt lat="47.11946" lon="4.68641">
        <ele>1328</ele>
        <time>2014-03-17T16:12:23Z</time>
      </trkpt>
      <trkpt lat="47.11948" lon="4.68642">
        <ele>1328</ele>
        <time>2014-03-17T16:12:26Z</time>
      </trkpt>
      <trkpt lat="47.11949" lon="4.68642">
        <ele>1328</ele>
        <time>2014-03-17T16:12:28Z</time>
      </trkpt>
      <trkpt lat="47.1195" lon="4.68642">
        <ele>1328</ele>
        <time>2014-03-17T16:12:30Z</time>
      </trkpt>
      <trkpt lat="47.11953" lon="4.68643">
        <ele>1328</ele>
        <time>2014-03-17T16:12:34Z</time>
      </trkpt>
      <trkpt lat="47.11955" lon="4.68644">
        <ele>1328</ele>
        <time>2014-03-17T16:12:37Z</time>
      </trkpt>
      <trkpt lat="47.11956" lon="4.68644">
        <ele>1328</ele>
        <time>2014-03-17T16:12:39Z</time>
      </trkpt>
      <trkpt lat="47.11958" lon="4.68646">
        <ele>1328</ele>
        <time>2014-03-17T16:12:43Z</time>
      </trkpt>
      <trkpt lat="47.1196" lon="4.68647">
        <ele>1328</ele>
        <time>2014-03-17T16:12:45Z</time>
      </trkpt>
      <trkpt lat="47.11963" lon="4.68648">
        <ele>1328</ele>
        <time>2014-03-17T16:12:48Z</time>
      </trkpt>
      <trkpt lat="47.11967" lon="4.6865">
        <ele>1328</ele>
        <time>2014-03-17T16:12:52Z</time>
      </trkpt>
      <trkpt lat="47.11969" lon="4.68651">
        <ele>1328</ele>
        <time>2014-03-17T16:12:54Z</time>
      </trkpt>
      <trkpt lat="47.11972" lon="4.68653">
        <ele>1328</ele>
        <time>2014-03-17T16:12:56Z</time>
      </trkpt>
      <trkpt lat="47.11975" lon="4.68655">
        <ele>1328</ele>
        <time>2014-03-17T16:13:01Z</time>
      </trkpt>
      <trkpt lat="47.11977" lon="4.68656">
        <ele>1328</ele>
        <time>2014-03-17T16:13:03Z</time>
      </trkpt>
      <trkpt lat="47.11978" lon="4.68657">
        <ele>1328</ele>
        <time>2014-03-17T16:13:05Z</time>
      </trkpt>
      <trkpt lat="47.11982" lon="4.68658">
        <ele>1328</ele>
        <time>2014-03-17T16:13:10Z</time>
      </trkpt>
      <trkpt lat="47.11983" lon="4.68658">
        <ele>1328</ele>
        <time>2014-03-17T16:13:12Z</time>
      </trkpt>
      <trkpt lat="47.11985" lon="4.68658">
        <ele>1328</ele>
        <time>2014-03-17T16:13:14Z</time>
      </trkpt>
      <trkpt lat="47.11988" lon="4.68659">
        <ele>1328</ele>
        <time>2014-03-17T16:13:19Z</time>
      </trkpt>
      <trkpt lat="47.11989" lon="4.6866">
        <ele>1328</ele>
        <time>2014-03-17T16:13:21Z</time>
      </trkpt>
      <trkpt lat="47.11991" lon="4.6866">
        <ele>1328</ele>
        <time>2014-03-17T16:13:23Z</time>
      </trkpt>
      <trkpt lat="47.11994" lon="4.6866">
        <ele>1328</ele>
        <time>2014-03-17T16:13:27Z</time>
      </trkpt>
      <trkpt lat="47.11996" lon="4.6866">
        <ele>1328</ele>
        <time>2014-03-17T16:13:30Z</time>
      </trkpt>
      <trkpt lat="47.11997" lon="4.68661">
        <ele>1328</ele>
        <time>2014-03-17T16:13:32Z</time>
      </trkpt>
      <trkpt lat="47.12" lon="4.68661">
        <ele>1328</ele>
        <time>2014-03-17T16:13:36Z</time>
      </trkpt>
      <trkpt lat="47.12003" lon="4.68662">
        <ele>1328</ele>
        <time>2014-03-17T16:13:39Z</time>
      </trkpt>
      <trkpt lat="47.12004" lon="4.68663">
        <ele>1328</ele>
        <time>2014-03-17T16:13:41Z</time>
      </trkpt>
      <trkpt lat="47.12006" lon="4.68664">
        <ele>1328</ele>
        <time>2014-03-17T16:13:45Z</time>
      </trkpt>
      <trkpt lat="47.12008" lon="4.68665">
        <ele>1328</ele>
        <time>2014-03-17T16:13:47Z</time>
      </trkpt>
      <trkpt lat="47.12011" lon="4.68667">
        <ele>1328</ele>
        <time>2014-03-17T16:13:50Z</time>
      </trkpt>
      <trkpt lat="47.12014" lon="4.68668">
        <ele>1328</ele>
        <time>2014-03-17T16:13:54Z</time>
      </trkpt>
      <trkpt lat="47.12015" lon="4.6867">
        <ele>1328</ele>
        <time>2014-03-17T16:13:56Z</time>
      </trkpt>
      <trkpt lat="47.12018" lon="4.68671">
        <ele>1328</ele>
        <time>2014-03-17T16:13:58Z</time>
      </trkpt>
      <trkpt lat="47.12021" lon="4.68673">
        <ele>1328</ele>
        <time>2014-03-17T16:14:03Z</time>
      </trkpt>
      <trkpt lat="47.12022" lon="4.68673">
        <ele>1328</ele>
        <time>2014-03-17T16:14:05Z</time>
      </trkpt>
      <trkpt lat="47.12024" lon="4.68674">
        <ele>1328</ele>
        <time>2014-03-17T16:14:07Z</time>
      </trkpt>
      <trkpt lat="47.12028" lon="4.68676">
        <ele>1328</ele>
        <time>2014-03-17T16:14:12Z</time>
      </trkpt>
      <trkpt lat="47.12029" lon="4.68676">
        <ele>1328</ele>
        <time>2014-03-17T16:14:14Z</time>
      </trkpt>
      <trkpt lat="47.12031" lon="4.68676">
        <ele>1328</ele>
        <time>2014-03-17T16:14:16Z</time>
      </trkpt>
      <trkpt lat="47.12035" lon="4.68678">
        <ele>1328</ele>
        <time>2014-03-17T16:14:21Z</time>
      </trkpt>
      <trkpt lat="47.12037" lon="4.68679">
        <ele>1328</ele>
        <time>2014-03-17T16:14:23Z</time>
      </trkpt>
      <trkpt lat="47.12039" lon="4.68679">
        <ele>1328</ele>
        <time>2014-03-17T16:14:25Z</time>
      </trkpt>
      <trkpt lat="47.1204" lon="4.6868">
        <ele>1328</ele>
        <time>2014-03-17T16:14:29Z</time>
      </trkpt>
      <trkpt lat="47.12041" lon="4.6868">
        <ele>1328</ele>
        <time>2014-03-17T16:14:32Z</time>
      </trkpt>
      <trkpt lat="47.12042" lon="4.68681">
        <ele>1328</ele>
        <time>2014-03-17T16:14:34Z</time>
      </trkpt>
      <trkpt lat="47.12044" lon="4.68681">
        <ele>1328</ele>
        <time>2014-03-17T16:14:36Z</time>
      </trkpt>
      <trkpt lat="47.12047" lon="4.68682">
        <ele>1328</ele>
        <time>2014-03-17T16:14:40Z</time>
      </trkpt>
      <trkpt lat="47.12048" lon="4.68682">
        <ele>1328</ele>
        <time>2014-03-17T16:14:43Z</time>
      </trkpt>
      <trkpt lat="47.12049" lon="4.68682">
        <ele>1328</ele>
        <time>2014-03-17T16:14:45Z</time>
      </trkpt>
      <trkpt lat="47.12052" lon="4.68683">
        <ele>1328</ele>
        <time>2014-03-17T16:14:49Z</time>
      </trkpt>
      <trkpt lat="47.12054" lon="4.68684">
        <ele>1328</ele>
        <time>2014-03-17T16:14:52Z</time>
      </trkpt>
      <trkpt lat="47.12056" lon="4.68685">
        <ele>1328</ele>
        <time>2014-03-17T16:14:54Z</time>
      </trkpt>
      <trkpt lat="47.12059" lon="4.68686">
        <ele>1328</ele>
        <time>2014-03-17T16:14:58Z</time>
      </trkpt>
      <trkpt lat="47.12061" lon="4.68687">
        <ele>1328</ele>
        <time>2014-03-17T16:15:00Z</time>
      </trkpt>
      <trkpt lat="47.12064" lon="4.68689">
        <ele>1328</ele>
        <time>2014-03-17T16:15:03Z</time>
      </trkpt>
      <trkpt lat="47.12067" lon="4.68691">
        <ele>1328</ele>
        <time>2014-03-17T16:15:07Z</time>
      </trkpt>
      <trkpt lat="47.12068" lon="4.6869">
        <ele>1328</ele>
        <time>2014-03-17T16:15:09Z</time>
      </trkpt>
      <trkpt lat="47.12069" lon="4.68691">
        <ele>1328</ele>
        <time>2014-03-17T16:15:11Z</time>
      </trkpt>
      <trkpt lat="47.12071" lon="4.68692">
        <ele>1328</ele>
        <time>2014-03-17T16:15:16Z</time>
      </trkpt>
      <trkpt lat="47.12071" lon="4.68692">
        <ele>1328</ele>
        <time>2014-03-17T16:15:18Z</time>
      </trkpt>
      <trkpt lat="47.12072" lon="4.68692">
        <ele>1328</ele>
        <time>2014-03-17T16:15:20Z</time>
      </trkpt>
      <trkpt lat="47.12073" lon="4.68693">
        <ele>1328</ele>
        <time>2014-03-17T16:15:25Z</time>
      </trkpt>
      <trkpt lat="47.12073" lon="4.68694">
        <ele>1328</ele>
        <time>2014-03-17T16:15:27Z</time>
      </trkpt>
      <trkpt lat="47.12073" lon="4.68694">
        <ele>1328</ele>
        <time>2014-03-17T16:15:29Z</time>
      </trkpt>
      <trkpt lat="47.12076" lon="4.68695">
        <ele>1328</ele>
        <time>2014-03-17T16:15:34Z</time>
      </trkpt>
      <trkpt lat="47.12077" lon="4.68695">
        <ele>1328</ele>
        <time>2014-03-17T16:15:36Z</time>
      </trkpt>
      <trkpt lat="47.12079" lon="4.68696">
        <ele>1328</ele>
        <time>2014-03-17T16:15:38Z</time>
      </trkpt>
      <trkpt lat="47.12081" lon="4.68697">
        <ele>1328</ele>
        <time>2014-03-17T16:15:42Z</time>
      </trkpt>
      <trkpt lat="47.12082" lon="4.68698">
        <ele>1328</ele>
        <time>2014-03-17T16:15:45Z</time>
      </trkpt>
      <trkpt lat="47.12083" lon="4.68698">
        <ele>1328</ele>
        <time>2014-03-17T16:15:47Z</time>
      </trkpt>
      <trkpt lat="47.12084" lon="4.68698">
        <ele>1328</ele>
        <time>2014-03-17T16:15:51Z</time>
      </trkpt>
      <trkpt lat="47.12084" lon="4.68699">
        <ele>1328</ele>
        <time>2014-03-17T16:15:53Z</time>
      </trkpt>
      <trkpt lat="47.12085" lon="4.68699">
        <ele>1328</ele>
        <time>2014-03-17T16:15:56Z</time>
      </trkpt>
      <trkpt lat="47.12086" lon="4.687">
        <ele>1328</ele>
        <time>2014-03-17T16:16:00Z</time>
      </trkpt>
      <trkpt lat="47.12088" lon="4.68701">
        <ele>1328</ele>
        <time>2014-03-17T16:16:02Z</time>
      </trkpt>
      <trkpt lat="47.12088" lon="4.68701">
        <ele>1328</ele>
        <time>2014-03-17T16:16:04Z</time>
      </trkpt>
      <trkpt lat="47.12091" lon="4.68702">
        <ele>1328</ele>
        <time>2014-03-17T16:16:09Z</time>
      </trkpt>
      <trkpt lat="47.12092" lon="4.68703">
        <ele>1328</ele>
        <time>2014-03-17T16:16:11Z</time>
      </trkpt>
      <trkpt lat="47.12094" lon="4.68703">
        <ele>1328</ele>
        <time>2014-03-17T16:16:13Z</time>
      </trkpt>
      <trkpt lat="47.12096" lon="4.68704">
        <ele>1328</ele>
        <time>2014-03-17T16:16:18Z</time>
      </trkpt>
      <trkpt lat="47.12098" lon="4.68705">
        <ele>1328</ele>
        <time>2014-03-17T16:16:20Z</time>
      </trkpt>
      <trkpt lat="47.12099" lon="4.68705">
        <ele>1328</ele>
        <time>2014-03-17T16:16:22Z</time>
      </trkpt>
      <trkpt lat="47.12104" lon="4.68707">
        <ele>1328</ele>
        <time>2014-03-17T16:16:27Z</time>
      </trkpt>
      <trkpt lat="47.12106" lon="4.68708">
        <ele>1328</ele>
        <time>2014-03-17T16:16:29Z</time>
      </trkpt>
      <trkpt lat="47.12108" lon="4.68709">
        <ele>1328</ele>
        <time>2014-03-17T16:16:31Z</time>
      </trkpt>
      <trkpt lat="47.12112" lon="4.68711">
        <ele>1328</ele>
        <time>2014-03-17T16:16:35Z</time>
      </trkpt>
      <trkpt lat="47.12114" lon="4.68711">
        <ele>1328</ele>
        <time>2014-03-17T16:16:38Z</time>
      </trkpt>
      <trkpt lat="47.12116" lon="4.68711">
        <ele>1328</ele>
        <time>2014-03-17T16:16:40Z</time>
      </trkpt>
      <trkpt lat="47.12117" lon="4.68712">
        <ele>1328</ele>
        <time>2014-03-17T16:16:42Z</time>
      </trkpt>
      <trkpt lat="47.12121" lon="4.68713">
        <ele>1328</ele>
        <time>2014-03-17T16:16:47Z</time>
      </trkpt>
      <trkpt lat="47.12123" lon="4.68714">
        <ele>1328</ele>
        <time>2014-03-17T16:16:49Z</time>
      </trkpt>
      <trkpt lat="47.12124" lon="4.68714">
        <ele>1328</ele>
        <time>2014-03-17T16:16:51Z</time>
      </trkpt>
      <trkpt lat="47.12127" lon="4.68714">
        <ele>1328</ele>
        <time>2014-03-17T16:16:55Z</time>
      </trkpt>
      <trkpt lat="47.12129" lon="4.68714">
        <ele>1328</ele>
        <time>2014-03-17T16:16:58Z</time>
      </trkpt>
      <trkpt lat="47.12131" lon="4.68714">
        <ele>1328</ele>
        <time>2014-03-17T16:17:00Z</time>
      </trkpt>
      <trkpt lat="47.12135" lon="4.68715">
        <ele>1328</ele>
        <time>2014-03-17T16:17:04Z</time>
      </trkpt>
      <trkpt lat="47.12136" lon="4.68716">
        <ele>1328</ele>
        <time>2014-03-17T16:17:06Z</time>
      </trkpt>
      <trkpt lat="47.12139" lon="4.68717">
        <ele>1328</ele>
        <time>2014-03-17T16:17:09Z</time>
      </trkpt>
      <trkpt lat="47.12141" lon="4.68718">
        <ele>1328</ele>
        <time>2014-03-17T16:17:13Z</time>
      </trkpt>
      <trkpt lat="47.12143" lon="4.68719">
        <ele>1328</ele>
        <time>2014-03-17T16:17:15Z</time>
      </trkpt>
      <trkpt lat="47.12144" lon="4.6872">
        <ele>1328</ele>
        <time>2014-03-17T16:17:17Z</time>
      </trkpt>
      <trkpt lat="47.12148" lon="4.6872">
        <ele>1328</ele>
        <time>2014-03-17T16:17:22Z</time>
      </trkpt>
      <trkpt lat="47.12149" lon="4.68721">
        <ele>1328</ele>
        <time>2014-03-17T16:17:24Z</time>
      </trkpt>
      <trkpt lat="47.1215" lon="4.68722">
        <ele>1328</ele>
        <time>2014-03-17T16:17:26Z</time>
      </trkpt>
      <trkpt lat="47.12155" lon="4.68724">
        <ele>1328</ele>
        <time>2014-03-17T16:17:31Z</time>
      </trkpt>
      <trkpt lat="47.12157" lon="4.68724">
        <ele>1328</ele>
        <time>2014-03-17T16:17:33Z</time>
      </trkpt>
      <trkpt lat="47.12159" lon="4.68726">
        <ele>1328</ele>
        <time>2014-03-17T16:17:35Z</time>
      </trkpt>
      <trkpt lat="47.12163" lon="4.68728">
        <ele>1328</ele>
        <time>2014-03-17T16:17:40Z</time>
      </trkpt>
      <trkpt lat="47.12165" lon="4.68728">
        <ele>1328</ele>
        <time>2014-03-17T16:17:42Z</time>
      </trkpt>
      <trkpt lat="47.12167" lon="4.68729">
        <ele>1328</ele>
        <time>2014-03-17T16:17:44Z</time>
      </trkpt>
      <trkpt lat="47.12171" lon="4.68731">
        <ele>1328</ele>
        <time>2014-03-17T16:17:48Z</time>
      </trkpt>
      <trkpt lat="47.12174" lon="4.68733">
        <ele>1328</ele>
        <time>2014-03-17T16:17:51Z</time>
      </trkpt>
      <trkpt lat="47.12177" lon="4.68734">
        <ele>1328</ele>
        <time>2014-03-17T16:17:53Z</time>
      </trkpt>
      <trkpt lat="47.12181" lon="4.68736">
        <ele>1328</ele>
        <time>2014-03-17T16:17:57Z</time>
      </trkpt>
      <trkpt lat="47.12184" lon="4.68737">
        <ele>1328</ele>
        <time>2014-03-17T16:17:59Z</time>
      </trkpt>
      <trkpt lat="47.12187" lon="4.68738">
        <ele>1328</ele>
        <time>2014-03-17T16:18:02Z</time>
      </trkpt>
      <trkpt lat="47.12192" lon="4.6874">
        <ele>1328</ele>
        <time>2014-03-17T16:18:06Z</time>
      </trkpt>
      <trkpt lat="47.12195" lon="4.68741">
        <ele>1328</ele>
        <time>2014-03-17T16:18:08Z</time>
      </trkpt>
      <trkpt lat="47.12198" lon="4.68742">
        <ele>1328</ele>
        <time>2014-03-17T16:18:11Z</time>
      </trkpt>
      <trkpt lat="47.12203" lon="4.68744">
        <ele>1328</ele>
        <time>2014-03-17T16:18:15Z</time>
      </trkpt>
      <trkpt lat="47.12205" lon="4.68745">
        <ele>1328</ele>
        <time>2014-03-17T16:18:17Z</time>
      </trkpt>
      <trkpt lat="47.12207" lon="4.68745">
        <ele>1328</ele>
        <time>2014-03-17T16:18:19Z</time>
      </trkpt>
      <trkpt lat="47.12212" lon="4.68746">
        <ele>1328</ele>
        <time>2014-03-17T16:18:24Z</time>
      </trkpt>
      <trkpt lat="47.12214" lon="4.68747">
        <ele>1328</ele>
        <time>2014-03-17T16:18:26Z</time>
      </trkpt>
      <trkpt lat="47.12216" lon="4.68749">
        <ele>1328</ele>
        <time>2014-03-17T16:18:28Z</time>
      </trkpt>
      <trkpt lat="47.12221" lon="4.68752">
        <ele>1328</ele>
        <time>2014-03-17T16:18:33Z</time>
      </trkpt>
      <trkpt lat="47.12223" lon="4.68752">
        <ele>1328</ele>
        <time>2014-03-17T16:18:35Z</time>
      </trkpt>
      <trkpt lat="47.12225" lon="4.68753">
        <ele>1328</ele>
        <time>2014-03-17T16:18:37Z</time>
      </trkpt>
      <trkpt lat="47.12229" lon="4.68755">
        <ele>1328</ele>
        <time>2014-03-17T16:18:42Z</time>
      </trkpt>
      <trkpt lat="47.12231" lon="4.68755">
        <ele>1328</ele>
        <time>2014-03-17T16:18:44Z</time>
      </trkpt>
      <trkpt lat="47.12233" lon="4.68756">
        <ele>1328</ele>
        <time>2014-03-17T16:18:46Z</time>
      </trkpt>
      <trkpt lat="47.12238" lon="4.68758">
        <ele>1328</ele>
        <time>2014-03-17T16:18:50Z</time>
      </trkpt>
      <trkpt lat="47.12241" lon="4.68759">
        <ele>1328</ele>
        <time>2014-03-17T16:18:53Z</time>
      </trkpt>
      <trkpt lat="47.12243" lon="4.6876">
        <ele>1328</ele>
        <time>2014-03-17T16:18:55Z</time>
      </trkpt>
      <trkpt lat="47.12245" lon="4.68761">
        <ele>1328</ele>
        <time>2014-03-17T16:18:57Z</time>
      </trkpt>
      <trkpt lat="47.12249" lon="4.68763">
        <ele>1328</ele>
        <time>2014-03-17T16:19:01Z</time>
      </trkpt>
      <trkpt lat="47.12252" lon="4.68764">
        <ele>1328</ele>
        <time>2014-03-17T16:19:04Z</time>
      </trkpt>
      <trkpt lat="47.12254" lon="4.68764">
        <ele>1328</ele>
        <time>2014-03-17T16:19:06Z</time>
      </trkpt>
      <trkpt lat="47.12258" lon="4.68766">
        <ele>1328</ele>
        <time>2014-03-17T16:19:10Z</time>
      </trkpt>
      <trkpt lat="47.1226" lon="4.68766">
        <ele>1328</ele>
        <time>2014-03-17T16:19:13Z</time>
      </trkpt>
      <trkpt lat="47.12261" lon="4.68767">
        <ele>1328</ele>
        <time>2014-03-17T16:19:15Z</time>
      </trkpt>
      <trkpt lat="47.12262" lon="4.68768">
        <ele>1328</ele>
        <time>2014-03-17T16:19:19Z</time>
      </trkpt>
      <trkpt lat="47.12263" lon="4.68768">
        <ele>1328</ele>
        <time>2014-03-17T16:19:21Z</time>
      </trkpt>
      <trkpt lat="47.12265" lon="4.68769">
        <ele>1328</ele>
        <time>2014-03-17T16:19:24Z</time>
      </trkpt>
      <trkpt lat="47.12269" lon="4.68769">
        <ele>1328</ele>
        <time>2014-03-17T16:19:28Z</time>
      </trkpt>
      <trkpt lat="47.12271" lon="4.68769">
        <ele>1328</ele>
        <time>2014-03-17T16:19:30Z</time>
      </trkpt>
      <trkpt lat="47.12273" lon="4.6877">
        <ele>1328</ele>
        <time>2014-03-17T16:19:32Z</time>
      </trkpt>
      <trkpt lat="47.12277" lon="4.68772">
        <ele>1328</ele>
        <time>2014-03-17T16:19:37Z</time>
      </trkpt>
      <trkpt lat="47.1228" lon="4.68773">
        <ele>1328</ele>
        <time>2014-03-17T16:19:39Z</time>
      </trkpt>
      <trkpt lat="47.12282" lon="4.68773">
        <ele>1328</ele>
        <time>2014-03-17T16:19:41Z</time>
      </trkpt>
      <trkpt lat="47.12286" lon="4.68775">
        <ele>1328</ele>
        <time>2014-03-17T16:19:46Z</time>
      </trkpt>
      <trkpt lat="47.12288" lon="4.68776">
        <ele>1328</ele>
        <time>2014-03-17T16:19:48Z</time>
      </trkpt>
      <trkpt lat="47.12291" lon="4.68777">
        <ele>1328</ele>
        <time>2014-03-17T16:19:50Z</time>
      </trkpt>
      <trkpt lat="47.12295" lon="4.68778">
        <ele>1328</ele>
        <time>2014-03-17T16:19:54Z</time>
      </trkpt>
      <trkpt lat="47.12298" lon="4.6878">
        <ele>1328</ele>
        <time>2014-03-17T16:19:57Z</time>
      </trkpt>
      <trkpt lat="47.12301" lon="4.68781">
        <ele>1328</ele>
        <time>2014-03-17T16:19:59Z</time>
      </trkpt>
      <trkpt lat="47.12306" lon="4.68782">
        <ele>1328</ele>
        <time>2014-03-17T16:20:03Z</time>
      </trkpt>
      <trkpt lat="47.12309" lon="4.68784">
        <ele>1328</ele>
        <time>2014-03-17T16:20:06Z</time>
      </trkpt>
      <trkpt lat="47.12312" lon="4.68785">
        <ele>1328</ele>
        <time>2014-03-17T16:20:08Z</time>
      </trkpt>
      <trkpt lat="47.12317" lon="4.68787">
        <ele>1328</ele>
        <time>2014-03-17T16:20:12Z</time>
      </trkpt>
      <trkpt lat="47.1232" lon="4.68788">
        <ele>1328</ele>
        <time>2014-03-17T16:20:14Z</time>
      </trkpt>
      <trkpt lat="47.12324" lon="4.6879">
        <ele>1328</ele>
        <time>2014-03-17T16:20:17Z</time>
      </trkpt>
      <trkpt lat="47.12329" lon="4.68792">
        <ele>1328</ele>
        <time>2014-03-17T16:20:21Z</time>
      </trkpt>
      <trkpt lat="47.12331" lon="4.68793">
        <ele>1328</ele>
        <time>2014-03-17T16:20:23Z</time>
      </trkpt>
      <trkpt lat="47.12334" lon="4.68794">
        <ele>1328</ele>
        <time>2014-03-17T16:20:25Z</time>
      </trkpt>
      <trkpt lat="47.1234" lon="4.68797">
        <ele>1328</ele>
        <time>2014-03-17T16:20:30Z</time>
      </trkpt>
      <trkpt lat="47.12342" lon="4.68798">
        <ele>1328</ele>
        <time>2014-03-17T16:20:32Z</time>
      </trkpt>
      <trkpt lat="47.12344" lon="4.68799">
        <ele>1328</ele>
        <time>2014-03-17T16:20:34Z</time>
      </trkpt>
      <trkpt lat="47.12349" lon="4.688">
        <ele>1328</ele>
        <time>2014-03-17T16:20:39Z</time>
      </trkpt>
      <trkpt lat="47.12352" lon="4.68801">
        <ele>1328</ele>
        <time>2014-03-17T16:20:41Z</time>
      </trkpt>
      <trkpt lat="47.12354" lon="4.68802">
        <ele>1328</ele>
        <time>2014-03-17T16:20:43Z</time>
      </trkpt>
      <trkpt lat="47.12361" lon="4.68803">
        <ele>1328</ele>
        <time>2014-03-17T16:20:48Z</time>
      </trkpt>
      <trkpt lat="47.12363" lon="4.68804">
        <ele>1328</ele>
        <time>2014-03-17T16:20:50Z</time>
      </trkpt>
      <trkpt lat="47.12366" lon="4.68804">
        <ele>1328</ele>
        <time>2014-03-17T16:20:52Z</time>
      </trkpt>
      <trkpt lat="47.12371" lon="4.68806">
        <ele>1328</ele>
        <time>2014-03-17T16:20:56Z</time>
      </trkpt>
      <trkpt lat="47.12375" lon="4.68808">
        <ele>1328</ele>
        <time>2014-03-17T16:20:59Z</time>
      </trkpt>
      <trkpt lat="47.12377" lon="4.68808">
        <ele>1328</ele>
        <time>2014-03-17T16:21:01Z</time>
      </trkpt>
      <trkpt lat="47.12379" lon="4.68809">
        <ele>1328</ele>
        <time>2014-03-17T16:21:03Z</time>
      </trkpt>
      <trkpt lat="47.12384" lon="4.68812">
        <ele>1328</ele>
        <time>2014-03-17T16:21:08Z</time>
      </trkpt>
      <trkpt lat="47.12386" lon="4.68813">
        <ele>1328</ele>
        <time>2014-03-17T16:21:10Z</time>
      </trkpt>
      <trkpt lat="47.12388" lon="4.68813">
        <ele>1328</ele>
        <time>2014-03-17T16:21:12Z</time>
      </trkpt>
      <trkpt lat="47.12393" lon="4.68815">
        <ele>1328</ele>
        <time>2014-03-17T16:21:16Z</time>
      </trkpt>
      <trkpt lat="47.12396" lon="4.68816">
        <ele>1328</ele>
        <time>2014-03-17T16:21:19Z</time>
      </trkpt>
      <trkpt lat="47.12398" lon="4.68816">
        <ele>1328</ele>
        <time>2014-03-17T16:21:21Z</time>
      </trkpt>
      <trkpt lat="47.12402" lon="4.68818">
        <ele>1328</ele>
        <time>2014-03-17T16:21:25Z</time>
      </trkpt>
      <trkpt lat="47.12404" lon="4.68818">
        <ele>1328</ele>
        <time>2014-03-17T16:21:27Z</time>
      </trkpt>
      <trkpt lat="47.12407" lon="4.6882">
        <ele>1328</ele>
        <time>2014-03-17T16:21:30Z</time>
      </trkpt>
      <trkpt lat="47.12411" lon="4.68822">
        <ele>1328</ele>
        <time>2014-03-17T16:21:34Z</time>
      </trkpt>
      <trkpt lat="47.12413" lon="4.68823">
        <ele>1328</ele>
        <time>2014-03-17T16:21:36Z</time>
      </trkpt>
      <trkpt lat="47.12416" lon="4.68824">
        <ele>1328</ele>
        <time>2014-03-17T16:21:39Z</time>
      </trkpt>
      <trkpt lat="47.12421" lon="4.68826">
        <ele>1328</ele>
        <time>2014-03-17T16:21:43Z</time>
      </trkpt>
      <trkpt lat="47.12424" lon="4.68827">
        <ele>1328</ele>
        <time>2014-03-17T16:21:45Z</time>
      </trkpt>
      <trkpt lat="47.12426" lon="4.68828">
        <ele>1328</ele>
        <time>2014-03-17T16:21:47Z</time>
      </trkpt>
      <trkpt lat="47.12431" lon="4.6883">
        <ele>1328</ele>
        <time>2014-03-17T16:21:52Z</time>
      </trkpt>
      <trkpt lat="47.12433" lon="4.68831">
        <ele>1328</ele>
        <time>2014-03-17T16:21:54Z</time>
      </trkpt>
      <trkpt lat="47.12435" lon="4.68832">
        <ele>1328</ele>
        <time>2014-03-17T16:21:56Z</time>
      </trkpt>
      <trkpt lat="47.1244" lon="4.68833">
        <ele>1328</ele>
        <time>2014-03-17T16:22:01Z</time>
      </trkpt>
      <trkpt lat="47.12442" lon="4.68834">
        <ele>1328</ele>
        <time>2014-03-17T16:22:03Z</time>
      </trkpt>
      <trkpt lat="47.12444" lon="4.68835">
        <ele>1328</ele>
        <time>2014-03-17T16:22:05Z</time>
      </trkpt>
      <trkpt lat="47.12449" lon="4.68836">
        <ele>1328</ele>
        <time>2014-03-17T16:22:10Z</time>
      </trkpt>
      <trkpt lat="47.12451" lon="4.68836">
        <ele>1328</ele>
        <time>2014-03-17T16:22:12Z</time>
      </trkpt>
      <trkpt lat="47.12453" lon="4.68837">
        <ele>1328</ele>
        <time>2014-03-17T16:22:14Z</time>
      </trkpt>
      <trkpt lat="47.12458" lon="4.6884">
        <ele>1328</ele>
        <time>2014-03-17T16:22:18Z</time>
      </trkpt>
      <trkpt lat="47.12462" lon="4.68841">
        <ele>1328</ele>
        <time>2014-03-17T16:22:21Z</time>
      </trkpt>
      <trkpt lat="47.12465" lon="4.68843">
        <ele>1328</ele>
        <time>2014-03-17T16:22:23Z</time>
      </trkpt>
      <trkpt lat="47.12469" lon="4.68845">
        <ele>1328</ele>
        <time>2014-03-17T16:22:27Z</time>
      </trkpt>
      <trkpt lat="47.12471" lon="4.68846">
        <ele>1328</ele>
        <time>2014-03-17T16:22:29Z</time>
      </trkpt>
      <trkpt lat="47.12475" lon="4.68848">
        <ele>1328</ele>
        <time>2014-03-17T16:22:32Z</time>
      </trkpt>
      <trkpt lat="47.1248" lon="4.6885">
        <ele>1328</ele>
        <time>2014-03-17T16:22:36Z</time>
      </trkpt>
      <trkpt lat="47.12482" lon="4.68852">
        <ele>1328</ele>
        <time>2014-03-17T16:22:38Z</time>
      </trkpt>
      <trkpt lat="47.12486" lon="4.68853">
        <ele>1328</ele>
        <time>2014-03-17T16:22:41Z</time>
      </trkpt>
      <trkpt lat="47.12491" lon="4.68855">
        <ele>1328</ele>
        <time>2014-03-17T16:22:45Z</time>
      </trkpt>
      <trkpt lat="47.12493" lon="4.68856">
        <ele>1328</ele>
        <time>2014-03-17T16:22:47Z</time>
      </trkpt>
      <trkpt lat="47.12495" lon="4.68857">
        <ele>1328</ele>
        <time>2014-03-17T16:22:49Z</time>
      </trkpt>
      <trkpt lat="47.125" lon="4.68859">
        <ele>1328</ele>
        <time>2014-03-17T16:22:54Z</time>
      </trkpt>
      <trkpt lat="47.12502" lon="4.6886">
        <ele>1328</ele>
        <time>2014-03-17T16:22:56Z</time>
      </trkpt>
      <trkpt lat="47.12504" lon="4.68861">
        <ele>1328</ele>
        <time>2014-03-17T16:22:58Z</time>
      </trkpt>
      <trkpt lat="47.12507" lon="4.68862">
        <ele>1328</ele>
        <time>2014-03-17T16:23:03Z</time>
      </trkpt>
      <trkpt lat="47.12507" lon="4.68862">
        <ele>1328</ele>
        <time>2014-03-17T16:23:05Z</time>
      </trkpt>
      <trkpt lat="47.12507" lon="4.68862">
        <ele>1328</ele>
        <time>2014-03-17T16:23:07Z</time>
      </trkpt>
      <trkpt lat="47.12507" lon="4.68863">
        <ele>1328</ele>
        <time>2014-03-17T16:23:09Z</time>
      </trkpt>
      <trkpt lat="47.12508" lon="4.68864">
        <ele>1328</ele>
        <time>2014-03-17T16:23:14Z</time>
      </trkpt>
      <trkpt lat="47.12508" lon="4.68864">
        <ele>1328</ele>
        <time>2014-03-17T16:23:16Z</time>
      </trkpt>
      <trkpt lat="47.12508" lon="4.68864">
        <ele>1328</ele>
        <time>2014-03-17T16:23:18Z</time>
      </trkpt>
      <trkpt lat="47.12509" lon="4.68864">
        <ele>1328</ele>
        <time>2014-03-17T16:23:23Z</time>
      </trkpt>
      <trkpt lat="47.12509" lon="4.68864">
        <ele>1328</ele>
        <time>2014-03-17T16:23:25Z</time>
      </trkpt>
      <trkpt lat="47.12509" lon="4.68865">
        <ele>1328</ele>
        <time>2014-03-17T16:23:27Z</time>
      </trkpt>
      <trkpt lat="47.1251" lon="4.68865">
        <ele>1328</ele>
        <time>2014-03-17T16:23:31Z</time>
      </trkpt>
      <trkpt lat="47.1251" lon="4.68865">
        <ele>1328</ele>
        <time>2014-03-17T16:23:34Z</time>
      </trkpt>
      <trkpt lat="47.1251" lon="4.68864">
        <ele>1328</ele>
        <time>2014-03-17T16:23:36Z</time>
      </trkpt>
      <trkpt lat="47.12511" lon="4.68863">
        <ele>1328</ele>
        <time>2014-03-17T16:23:40Z</time>
      </trkpt>
      <trkpt lat="47.12511" lon="4.68862">
        <ele>1328</ele>
        <time>2014-03-17T16:23:43Z</time>
      </trkpt>
      <trkpt lat="47.12512" lon="4.6886">
        <ele>1328</ele>
        <time>2014-03-17T16:23:45Z</time>
      </trkpt>
      <trkpt lat="47.12514" lon="4.68855">
        <ele>1328</ele>
        <time>2014-03-17T16:23:49Z</time>
      </trkpt>
      <trkpt lat="47.12515" lon="4.68854">
        <ele>1328</ele>
        <time>2014-03-17T16:23:51Z</time>
      </trkpt>
      <trkpt lat="47.12516" lon="4.68852">
        <ele>1328</ele>
        <time>2014-03-17T16:23:54Z</time>
      </trkpt>
      <trkpt lat="47.12516" lon="4.68848">
        <ele>1328</ele>
        <time>2014-03-17T16:23:58Z</time>
      </trkpt>
      <trkpt lat="47.12517" lon="4.68847">
        <ele>1328</ele>
        <time>2014-03-17T16:24:00Z</time>
      </trkpt>
      <trkpt lat="47.12518" lon="4.68846">
        <ele>1328</ele>
        <time>2014-03-17T16:24:02Z</time>
      </trkpt>
      <trkpt lat="47.12518" lon="4.68841">
        <ele>1328</ele>
        <time>2014-03-17T16:24:07Z</time>
      </trkpt>
      <trkpt lat="47.12517" lon="4.68841">
        <ele>1328</ele>
        <time>2014-03-17T16:24:09Z</time>
      </trkpt>
      <trkpt lat="47.12517" lon="4.6884">
        <ele>1328</ele>
        <time>2014-03-17T16:24:11Z</time>
      </trkpt>
      <trkpt lat="47.12516" lon="4.68838">
        <ele>1328</ele>
        <time>2014-03-17T16:24:16Z</time>
      </trkpt>
      <trkpt lat="47.12517" lon="4.68837">
        <ele>1328</ele>
        <time>2014-03-17T16:24:18Z</time>
      </trkpt>
      <trkpt lat="47.12517" lon="4.68835">
        <ele>1328</ele>
        <time>2014-03-17T16:24:20Z</time>
      </trkpt>
      <trkpt lat="47.12518" lon="4.68832">
        <ele>1328</ele>
        <time>2014-03-17T16:24:25Z</time>
      </trkpt>
      <trkpt lat="47.12519" lon="4.6883">
        <ele>1328</ele>
        <time>2014-03-17T16:24:27Z</time>
      </trkpt>
      <trkpt lat="47.12519" lon="4.68828">
        <ele>1328</ele>
        <time>2014-03-17T16:24:29Z</time>
      </trkpt>
      <trkpt lat="47.1252" lon="4.68825">
        <ele>1328</ele>
        <time>2014-03-17T16:24:33Z</time>
      </trkpt>
      <trkpt lat="47.12522" lon="4.68823">
        <ele>1328</ele>
        <time>2014-03-17T16:24:36Z</time>
      </trkpt>
      <trkpt lat="47.12523" lon="4.68822">
        <ele>1328</ele>
        <time>2014-03-17T16:24:38Z</time>
      </trkpt>
      <trkpt lat="47.12525" lon="4.68819">
        <ele>1328</ele>
        <time>2014-03-17T16:24:42Z</time>
      </trkpt>
      <trkpt lat="47.12528" lon="4.68819">
        <ele>1328</ele>
        <time>2014-03-17T16:24:45Z</time>
      </trkpt>
      <trkpt lat="47.12529" lon="4.68819">
        <ele>1328</ele>
        <time>2014-03-17T16:24:47Z</time>
      </trkpt>
      <trkpt lat="47.1253" lon="4.68818">
        <ele>1328</ele>
        <time>2014-03-17T16:24:51Z</time>
      </trkpt>
      <trkpt lat="47.12531" lon="4.68817">
        <ele>1328</ele>
        <time>2014-03-17T16:24:53Z</time>
      </trkpt>
      <trkpt lat="47.12532" lon="4.68817">
        <ele>1328</ele>
        <time>2014-03-17T16:24:56Z</time>
      </trkpt>
      <trkpt lat="47.12533" lon="4.68815">
        <ele>1328</ele>
        <time>2014-03-17T16:25:00Z</time>
      </trkpt>
      <trkpt lat="47.12533" lon="4.68815">
        <ele>1328</ele>
        <time>2014-03-17T16:25:02Z</time>
      </trkpt>
      <trkpt lat="47.12534" lon="4.68814">
        <ele>1328</ele>
        <time>2014-03-17T16:25:04Z</time>
      </trkpt>
      <trkpt lat="47.12534" lon="4.68814">
        <ele>1328</ele>
        <time>2014-03-17T16:25:09Z</time>
      </trkpt>
      <trkpt lat="47.12535" lon="4.68814">
        <ele>1328</ele>
        <time>2014-03-17T16:25:11Z</time>
      </trkpt>
      <trkpt lat="47.12535" lon="4.68814">
        <ele>1328</ele>
        <time>2014-03-17T16:25:13Z</time>
      </trkpt>
      <trkpt lat="47.12536" lon="4.68813">
        <ele>1328</ele>
        <time>2014-03-17T16:25:18Z</time>
      </trkpt>
      <trkpt lat="47.12536" lon="4.68814">
        <ele>1328</ele>
        <time>2014-03-17T16:25:20Z</time>
      </trkpt>
      <trkpt lat="47.12536" lon="4.68814">
        <ele>1328</ele>
        <time>2014-03-17T16:25:22Z</time>
      </trkpt>
      <trkpt lat="47.12537" lon="4.68814">
        <ele>1328</ele>
        <time>2014-03-17T16:25:24Z</time>
      </trkpt>
      <trkpt lat="47.12538" lon="4.68814">
        <ele>1328</ele>
        <time>2014-03-17T16:25:29Z</time>
      </trkpt>
      <trkpt lat="47.12538" lon="4.68815">
        <ele>1328</ele>
        <time>2014-03-17T16:25:31Z</time>
      </trkpt>
      <trkpt lat="47.12538" lon="4.68815">
        <ele>1328</ele>
        <time>2014-03-17T16:25:33Z</time>
      </trkpt>
      <trkpt lat="47.12539" lon="4.68816">
        <ele>1328</ele>
        <time>2014-03-17T16:25:38Z</time>
      </trkpt>
      <trkpt lat="47.12539" lon="4.68816">
        <ele>1328</ele>
        <time>2014-03-17T16:25:40Z</time>
      </trkpt>
      <trkpt lat="47.1254" lon="4.68816">
        <ele>1328</ele>
        <time>2014-03-17T16:25:42Z</time>
      </trkpt>
      <trkpt lat="47.1254" lon="4.68815">
        <ele>1328</ele>
        <time>2014-03-17T16:25:46Z</time>
      </trkpt>
      <trkpt lat="47.12541" lon="4.68815">
        <ele>1328</ele>
        <time>2014-03-17T16:25:49Z</time>
      </trkpt>
      <trkpt lat="47.12541" lon="4.68815">
        <ele>1328</ele>
        <time>2014-03-17T16:25:51Z</time>
      </trkpt>
      <trkpt lat="47.12541" lon="4.68814">
        <ele>1328</ele>
        <time>2014-03-17T16:25:55Z</time>
      </trkpt>
      <trkpt lat="47.12541" lon="4.68814">
        <ele>1328</ele>
        <time>2014-03-17T16:25:57Z</time>
      </trkpt>
      <trkpt lat="47.12542" lon="4.68814">
        <ele>1328</ele>
        <time>2014-03-17T16:26:00Z</time>
      </trkpt>
      <trkpt lat="47.12544" lon="4.68815">
        <ele>1328</ele>
        <time>2014-03-17T16:26:04Z</time>
      </trkpt>
      <trkpt lat="47.12545" lon="4.68815">
        <ele>1328</ele>
        <time>2014-03-17T16:26:06Z</time>
      </trkpt>
      <trkpt lat="47.12545" lon="4.68815">
        <ele>1328</ele>
        <time>2014-03-17T16:26:08Z</time>
      </trkpt>
      <trkpt lat="47.12545" lon="4.68815">
        <ele>1328</ele>
        <time>2014-03-17T16:26:13Z</time>
      </trkpt>
      <trkpt lat="47.12545" lon="4.68815">
        <ele>1328</ele>
        <time>2014-03-17T16:26:15Z</time>
      </trkpt>
      <trkpt lat="47.12545" lon="4.68814">
        <ele>1328</ele>
        <time>2014-03-17T16:26:17Z</time>
      </trkpt>
      <trkpt lat="47.12544" lon="4.68814">
        <ele>1328</ele>
        <time>2014-03-17T16:26:22Z</time>
      </trkpt>
      <trkpt lat="47.12544" lon="4.68814">
        <ele>1328</ele>
        <time>2014-03-17T16:26:24Z</time>
      </trkpt>
      <trkpt lat="47.12543" lon="4.68815">
        <ele>1328</ele>
        <time>2014-03-17T16:26:26Z</time>
      </trkpt>
      <trkpt lat="47.12542" lon="4.68815">
        <ele>1328</ele>
        <time>2014-03-17T16:26:31Z</time>
      </trkpt>
      <trkpt lat="47.12541" lon="4.68815">
        <ele>1328</ele>
        <time>2014-03-17T16:26:33Z</time>
      </trkpt>
      <trkpt lat="47.12541" lon="4.68816">
        <ele>1328</ele>
        <time>2014-03-17T16:26:35Z</time>
      </trkpt>
      <trkpt lat="47.12542" lon="4.68817">
        <ele>1328</ele>
        <time>2014-03-17T16:26:39Z</time>
      </trkpt>
      <trkpt lat="47.12542" lon="4.68817">
        <ele>1328</ele>
        <time>2014-03-17T16:26:42Z</time>
      </trkpt>
      <trkpt lat="47.12542" lon="4.68818">
        <ele>1328</ele>
        <time>2014-03-17T16:26:44Z</time>
      </trkpt>
      <trkpt lat="47.12544" lon="4.6882">
        <ele>1328</ele>
        <time>2014-03-17T16:26:48Z</time>
      </trkpt>
      <trkpt lat="47.12544" lon="4.68821">
        <ele>1328</ele>
        <time>2014-03-17T16:26:50Z</time>
      </trkpt>
      <trkpt lat="47.12545" lon="4.68822">
        <ele>1328</ele>
        <time>2014-03-17T16:26:53Z</time>
      </trkpt>
      <trkpt lat="47.12544" lon="4.68824">
        <ele>1328</ele>
        <time>2014-03-17T16:26:57Z</time>
      </trkpt>
      <trkpt lat="47.12544" lon="4.68825">
        <ele>1328</ele>
        <time>2014-03-17T16:26:59Z</time>
      </trkpt>
      <trkpt lat="47.12543" lon="4.68826">
        <ele>1328</ele>
        <time>2014-03-17T16:27:02Z</time>
      </trkpt>
      <trkpt lat="47.12543" lon="4.68827">
        <ele>1328</ele>
        <time>2014-03-17T16:27:06Z</time>
      </trkpt>
      <trkpt lat="47.12543" lon="4.68827">
        <ele>1328</ele>
        <time>2014-03-17T16:27:08Z</time>
      </trkpt>
      <trkpt lat="47.12544" lon="4.68827">
        <ele>1328</ele>
        <time>2014-03-17T16:27:10Z</time>
      </trkpt>
      <trkpt lat="47.12545" lon="4.68827">
        <ele>1328</ele>
        <time>2014-03-17T16:27:15Z</time>
      </trkpt>
      <trkpt lat="47.12545" lon="4.68827">
        <ele>1328</ele>
        <time>2014-03-17T16:27:17Z</time>
      </trkpt>
      <trkpt lat="47.12544" lon="4.68826">
        <ele>1328</ele>
        <time>2014-03-17T16:27:19Z</time>
      </trkpt>
      <trkpt lat="47.12543" lon="4.68826">
        <ele>1328</ele>
        <time>2014-03-17T16:27:24Z</time>
      </trkpt>
      <trkpt lat="47.12543" lon="4.68826">
        <ele>1328</ele>
        <time>2014-03-17T16:27:26Z</time>
      </trkpt>
      <trkpt lat="47.12542" lon="4.68825">
        <ele>1328</ele>
        <time>2014-03-17T16:27:28Z</time>
      </trkpt>
      <trkpt lat="47.12542" lon="4.68825">
        <ele>1328</ele>
        <time>2014-03-17T16:27:30Z</time>
      </trkpt>
      <trkpt lat="47.1254" lon="4.68823">
        <ele>1328</ele>
        <time>2014-03-17T16:27:35Z</time>
      </trkpt>
      <trkpt lat="47.1254" lon="4.68822">
        <ele>1328</ele>
        <time>2014-03-17T16:27:37Z</time>
      </trkpt>
      <trkpt lat="47.1254" lon="4.68822">
        <ele>1328</ele>
        <time>2014-03-17T16:27:39Z</time>
      </trkpt>
      <trkpt lat="47.12539" lon="4.6882">
        <ele>1328</ele>
        <time>2014-03-17T16:27:44Z</time>
      </trkpt>
      <trkpt lat="47.12539" lon="4.6882">
        <ele>1328</ele>
        <time>2014-03-17T16:27:46Z</time>
      </trkpt>
      <trkpt lat="47.12539" lon="4.68819">
        <ele>1328</ele>
        <time>2014-03-17T16:27:48Z</time>
      </trkpt>
      <trkpt lat="47.12539" lon="4.68818">
        <ele>1328</ele>
        <time>2014-03-17T16:27:52Z</time>
      </trkpt>
      <trkpt lat="47.12539" lon="4.68817">
        <ele>1328</ele>
        <time>2014-03-17T16:27:55Z</time>
      </trkpt>
      <trkpt lat="47.12539" lon="4.68817">
        <ele>1328</ele>
        <time>2014-03-17T16:27:57Z</time>
      </trkpt>
      <trkpt lat="47.1254" lon="4.68818">
        <ele>1328</ele>
        <time>2014-03-17T16:28:01Z</time>
      </trkpt>
      <trkpt lat="47.1254" lon="4.68819">
        <ele>1328</ele>
        <time>2014-03-17T16:28:03Z</time>
      </trkpt>
      <trkpt lat="47.1254" lon="4.6882">
        <ele>1328</ele>
        <time>2014-03-17T16:28:06Z</time>
      </trkpt>
      <trkpt lat="47.1254" lon="4.68821">
        <ele>1328</ele>
        <time>2014-03-17T16:28:10Z</time>
      </trkpt>
      <trkpt lat="47.1254" lon="4.68821">
        <ele>1328</ele>
        <time>2014-03-17T16:28:12Z</time>
      </trkpt>
      <trkpt lat="47.12539" lon="4.68821">
        <ele>1328</ele>
        <time>2014-03-17T16:28:14Z</time>
      </trkpt>
      <trkpt lat="47.1254" lon="4.6882">
        <ele>1328</ele>
        <time>2014-03-17T16:28:19Z</time>
      </trkpt>
      <trkpt lat="47.1254" lon="4.68819">
        <ele>1328</ele>
        <time>2014-03-17T16:28:21Z</time>
      </trkpt>
      <trkpt lat="47.1254" lon="4.68819">
        <ele>1328</ele>
        <time>2014-03-17T16:28:23Z</time>
      </trkpt>
      <trkpt lat="47.12539" lon="4.68817">
        <ele>1328</ele>
        <time>2014-03-17T16:28:28Z</time>
      </trkpt>
      <trkpt lat="47.12539" lon="4.68817">
        <ele>1328</ele>
        <time>2014-03-17T16:28:30Z</time>
      </trkpt>
      <trkpt lat="47.12539" lon="4.68817">
        <ele>1328</ele>
        <time>2014-03-17T16:28:32Z</time>
      </trkpt>
      <trkpt lat="47.12541" lon="4.68817">
        <ele>1328</ele>
        <time>2014-03-17T16:28:37Z</time>
      </trkpt>
      <trkpt lat="47.1254" lon="4.68816">
        <ele>1328</ele>
        <time>2014-03-17T16:28:39Z</time>
      </trkpt>
      <trkpt lat="47.1254" lon="4.68815">
        <ele>1328</ele>
        <time>2014-03-17T16:28:41Z</time>
      </trkpt>
      <trkpt lat="47.1254" lon="4.68815">
        <ele>1328</ele>
        <time>2014-03-17T16:28:45Z</time>
      </trkpt>
      <trkpt lat="47.12541" lon="4.68815">
        <ele>1328</ele>
        <time>2014-03-17T16:28:48Z</time>
      </trkpt>
      <trkpt lat="47.12542" lon="4.68814">
        <ele>1328</ele>
        <time>2014-03-17T16:28:50Z</time>
      </trkpt>
      <trkpt lat="47.12545" lon="4.68814">
        <ele>1328</ele>
        <time>2014-03-17T16:28:54Z</time>
      </trkpt>
      <trkpt lat="47.12547" lon="4.68814">
        <ele>1328</ele>
        <time>2014-03-17T16:28:56Z</time>
      </trkpt>
      <trkpt lat="47.1255" lon="4.68814">
        <ele>1328</ele>
        <time>2014-03-17T16:28:59Z</time>
      </trkpt>
      <trkpt lat="47.12553" lon="4.68815">
        <ele>1328</ele>
        <time>2014-03-17T16:29:03Z</time>
      </trkpt>
      <trkpt lat="47.12554" lon="4.68814">
        <ele>1328</ele>
        <time>2014-03-17T16:29:05Z</time>
      </trkpt>
      <trkpt lat="47.12555" lon="4.68814">
        <ele>1328</ele>
        <time>2014-03-17T16:29:07Z</time>
      </trkpt>
      <trkpt lat="47.12553" lon="4.68815">
        <ele>1328</ele>
        <time>2014-03-17T16:29:12Z</time>
      </trkpt>
      <trkpt lat="47.12553" lon="4.68816">
        <ele>1328</ele>
        <time>2014-03-17T16:29:14Z</time>
      </trkpt>
      <trkpt lat="47.12553" lon="4.68817">
        <ele>1328</ele>
        <time>2014-03-17T16:29:16Z</time>
      </trkpt>
      <trkpt lat="47.1255" lon="4.68818">
        <ele>1328</ele>
        <time>2014-03-17T16:29:21Z</time>
      </trkpt>
      <trkpt lat="47.12548" lon="4.68819">
        <ele>1328</ele>
        <time>2014-03-17T16:29:23Z</time>
      </trkpt>
      <trkpt lat="47.12548" lon="4.68819">
        <ele>1328</ele>
        <time>2014-03-17T16:29:25Z</time>
      </trkpt>
      <trkpt lat="47.12547" lon="4.68819">
        <ele>1328</ele>
        <time>2014-03-17T16:29:29Z</time>
      </trkpt>
      <trkpt lat="47.12546" lon="4.68819">
        <ele>1328</ele>
        <time>2014-03-17T16:29:32Z</time>
      </trkpt>
      <trkpt lat="47.12545" lon="4.68819">
        <ele>1328</ele>
        <time>2014-03-17T16:29:34Z</time>
      </trkpt>
      <trkpt lat="47.12545" lon="4.68819">
        <ele>1328</ele>
        <time>2014-03-17T16:29:36Z</time>
      </trkpt>
      <trkpt lat="47.12543" lon="4.68818">
        <ele>1328</ele>
        <time>2014-03-17T16:29:41Z</time>
      </trkpt>
      <trkpt lat="47.12542" lon="4.68818">
        <ele>1328</ele>
        <time>2014-03-17T16:29:43Z</time>
      </trkpt>
      <trkpt lat="47.12542" lon="4.68818">
        <ele>1328</ele>
        <time>2014-03-17T16:29:45Z</time>
      </trkpt>
      <trkpt lat="47.12542" lon="4.68818">
        <ele>1328</ele>
        <time>2014-03-17T16:29:49Z</time>
      </trkpt>
      <trkpt lat="47.12542" lon="4.68818">
        <ele>1328</ele>
        <time>2014-03-17T16:29:52Z</time>
      </trkpt>
      <trkpt lat="47.12541" lon="4.68818">
        <ele>1328</ele>
        <time>2014-03-17T16:29:54Z</time>
      </trkpt>
      <trkpt lat="47.12541" lon="4.68819">
        <ele>1328</ele>
        <time>2014-03-17T16:29:58Z</time>
      </trkpt>
      <trkpt lat="47.12541" lon="4.68819">
        <ele>1328</ele>
        <time>2014-03-17T16:30:00Z</time>
      </trkpt>
      <trkpt lat="47.12541" lon="4.68819">
        <ele>1328</ele>
        <time>2014-03-17T16:30:03Z</time>
      </trkpt>
      <trkpt lat="47.12541" lon="4.6882">
        <ele>1328</ele>
        <time>2014-03-17T16:30:07Z</time>
      </trkpt>
      <trkpt lat="47.12541" lon="4.6882">
        <ele>1328</ele>
        <time>2014-03-17T16:30:09Z</time>
      </trkpt>
      <trkpt lat="47.12542" lon="4.6882">
        <ele>1328</ele>
        <time>2014-03-17T16:30:11Z</time>
      </trkpt>
      <trkpt lat="47.12543" lon="4.68822">
        <ele>1328</ele>
        <time>2014-03-17T16:30:16Z</time>
      </trkpt>
      <trkpt lat="47.12544" lon="4.68822">
        <ele>1328</ele>
        <time>2014-03-17T16:30:18Z</time>
      </trkpt>
      <trkpt lat="47.12544" lon="4.68822">
        <ele>1328</ele>
        <time>2014-03-17T16:30:20Z</time>
      </trkpt>
      <trkpt lat="47.12543" lon="4.68821">
        <ele>1328</ele>
        <time>2014-03-17T16:30:25Z</time>
      </trkpt>
      <trkpt lat="47.12543" lon="4.6882">
        <ele>1328</ele>
        <time>2014-03-17T16:30:27Z</time>
      </trkpt>
      <trkpt lat="47.12542" lon="4.6882">
        <ele>1328</ele>
        <time>2014-03-17T16:30:29Z</time>
      </trkpt>
      <trkpt lat="47.12542" lon="4.68818">
        <ele>1328</ele>
        <time>2014-03-17T16:30:33Z</time>
      </trkpt>
      <trkpt lat="47.12541" lon="4.68816">
        <ele>1328</ele>
        <time>2014-03-17T16:30:36Z</time>
      </trkpt>
      <trkpt lat="47.1254" lon="4.68815">
        <ele>1328</ele>
        <time>2014-03-17T16:30:38Z</time>
      </trkpt>
      <trkpt lat="47.12538" lon="4.68812">
        <ele>1328</ele>
        <time>2014-03-17T16:30:42Z</time>
      </trkpt>
      <trkpt lat="47.12537" lon="4.6881">
        <ele>1328</ele>
        <time>2014-03-17T16:30:45Z</time>
      </trkpt>
      <trkpt lat="47.12536" lon="4.68809">
        <ele>1328</ele>
        <time>2014-03-17T16:30:47Z</time>
      </trkpt>
      <trkpt lat="47.12536" lon="4.68808">
        <ele>1328</ele>
        <time>2014-03-17T16:30:51Z</time>
      </trkpt>
      <trkpt lat="47.12536" lon="4.68808">
        <ele>1328</ele>
        <time>2014-03-17T16:30:53Z</time>
      </trkpt>
      <trkpt lat="47.12536" lon="4.68808">
        <ele>1328</ele>
        <time>2014-03-17T16:30:56Z</time>
      </trkpt>
      <trkpt lat="47.12537" lon="4.6881">
        <ele>1328</ele>
        <time>2014-03-17T16:31:00Z</time>
      </trkpt>
      <trkpt lat="47.12537" lon="4.6881">
        <ele>1328</ele>
        <time>2014-03-17T16:31:02Z</time>
      </trkpt>
      <trkpt lat="47.12538" lon="4.68811">
        <ele>1328</ele>
        <time>2014-03-17T16:31:04Z</time>
      </trkpt>
      <trkpt lat="47.12539" lon="4.68811">
        <ele>1328</ele>
        <time>2014-03-17T16:31:09Z</time>
      </trkpt>
      <trkpt lat="47.12539" lon="4.68812">
        <ele>1328</ele>
        <time>2014-03-17T16:31:11Z</time>
      </trkpt>
      <trkpt lat="47.12539" lon="4.68812">
        <ele>1328</ele>
        <time>2014-03-17T16:31:13Z</time>
      </trkpt>
      <trkpt lat="47.12541" lon="4.68812">
        <ele>1328</ele>
        <time>2014-03-17T16:31:18Z</time>
      </trkpt>
      <trkpt lat="47.12541" lon="4.68811">
        <ele>1328</ele>
        <time>2014-03-17T16:31:20Z</time>
      </trkpt>
      <trkpt lat="47.12542" lon="4.68811">
        <ele>1328</ele>
        <time>2014-03-17T16:31:22Z</time>
      </trkpt>
      <trkpt lat="47.12543" lon="4.68811">
        <ele>1328</ele>
        <time>2014-03-17T16:31:27Z</time>
      </trkpt>
      <trkpt lat="47.12544" lon="4.68811">
        <ele>1328</ele>
        <time>2014-03-17T16:31:29Z</time>
      </trkpt>
      <trkpt lat="47.12545" lon="4.68811">
        <ele>1328</ele>
        <time>2014-03-17T16:31:31Z</time>
      </trkpt>
      <trkpt lat="47.12546" lon="4.68811">
        <ele>1328</ele>
        <time>2014-03-17T16:31:35Z</time>
      </trkpt>
      <trkpt lat="47.12546" lon="4.68811">
        <ele>1328</ele>
        <time>2014-03-17T16:31:38Z</time>
      </trkpt>
      <trkpt lat="47.12546" lon="4.68811">
        <ele>1328</ele>
        <time>2014-03-17T16:31:40Z</time>
      </trkpt>
      <trkpt lat="47.12546" lon="4.68811">
        <ele>1328</ele>
        <time>2014-03-17T16:31:44Z</time>
      </trkpt>
      <trkpt lat="47.12546" lon="4.68812">
        <ele>1328</ele>
        <time>2014-03-17T16:31:46Z</time>
      </trkpt>
      <trkpt lat="47.12546" lon="4.68811">
        <ele>1328</ele>
        <time>2014-03-17T16:31:49Z</time>
      </trkpt>
      <trkpt lat="47.12546" lon="4.68812">
        <ele>1328</ele>
        <time>2014-03-17T16:31:51Z</time>
      </trkpt>
      <trkpt lat="47.12547" lon="4.68813">
        <ele>1328</ele>
        <time>2014-03-17T16:31:55Z</time>
      </trkpt>
      <trkpt lat="47.12547" lon="4.68813">
        <ele>1328</ele>
        <time>2014-03-17T16:31:57Z</time>
      </trkpt>
      <trkpt lat="47.12547" lon="4.68813">
        <ele>1328</ele>
        <time>2014-03-17T16:32:00Z</time>
      </trkpt>
      <trkpt lat="47.12547" lon="4.68813">
        <ele>1328</ele>
        <time>2014-03-17T16:32:04Z</time>
      </trkpt>
      <trkpt lat="47.12546" lon="4.68814">
        <ele>1328</ele>
        <time>2014-03-17T16:32:06Z</time>
      </trkpt>
      <trkpt lat="47.12547" lon="4.68815">
        <ele>1328</ele>
        <time>2014-03-17T16:32:08Z</time>
      </trkpt>
      <trkpt lat="47.12549" lon="4.68815">
        <ele>1328</ele>
        <time>2014-03-17T16:32:13Z</time>
      </trkpt>
      <trkpt lat="47.12549" lon="4.68815">
        <ele>1328</ele>
        <time>2014-03-17T16:32:15Z</time>
      </trkpt>
      <trkpt lat="47.1255" lon="4.68815">
        <ele>1328</ele>
        <time>2014-03-17T16:32:17Z</time>
      </trkpt>
      <trkpt lat="47.12549" lon="4.68816">
        <ele>1328</ele>
        <time>2014-03-17T16:32:22Z</time>
      </trkpt>
      <trkpt lat="47.12549" lon="4.68816">
        <ele>1328</ele>
        <time>2014-03-17T16:32:24Z</time>
      </trkpt>
      <trkpt lat="47.12549" lon="4.68816">
        <ele>1328</ele>
        <time>2014-03-17T16:32:26Z</time>
      </trkpt>
      <trkpt lat="47.12549" lon="4.68816">
        <ele>1328</ele>
        <time>2014-03-17T16:32:31Z</time>
      </trkpt>
      <trkpt lat="47.12548" lon="4.68816">
        <ele>1328</ele>
        <time>2014-03-17T16:32:33Z</time>
      </trkpt>
      <trkpt lat="47.12548" lon="4.68816">
        <ele>1328</ele>
        <time>2014-03-17T16:32:35Z</time>
      </trkpt>
      <trkpt lat="47.12548" lon="4.68816">
        <ele>1328</ele>
        <time>2014-03-17T16:32:39Z</time>
      </trkpt>
      <trkpt lat="47.12548" lon="4.68816">
        <ele>1328</ele>
        <time>2014-03-17T16:32:42Z</time>
      </trkpt>
      <trkpt lat="47.12547" lon="4.68816">
        <ele>1328</ele>
        <time>2014-03-17T16:32:44Z</time>
      </trkpt>
      <trkpt lat="47.12548" lon="4.68816">
        <ele>1328</ele>
        <time>2014-03-17T16:32:48Z</time>
      </trkpt>
      <trkpt lat="47.12548" lon="4.68816">
        <ele>1328</ele>
        <time>2014-03-17T16:32:50Z</time>
      </trkpt>
      <trkpt lat="47.12548" lon="4.68815">
        <ele>1328</ele>
        <time>2014-03-17T16:32:53Z</time>
      </trkpt>
      <trkpt lat="47.12547" lon="4.68815">
        <ele>1328</ele>
        <time>2014-03-17T16:32:57Z</time>
      </trkpt>
      <trkpt lat="47.12547" lon="4.68814">
        <ele>1328</ele>
        <time>2014-03-17T16:32:59Z</time>
      </trkpt>
      <trkpt lat="47.12546" lon="4.68814">
        <ele>1328</ele>
        <time>2014-03-17T16:33:02Z</time>
      </trkpt>
      <trkpt lat="47.12544" lon="4.68814">
        <ele>1328</ele>
        <time>2014-03-17T16:33:06Z</time>
      </trkpt>
      <trkpt lat="47.12544" lon="4.68814">
        <ele>1328</ele>
        <time>2014-03-17T16:33:08Z</time>
      </trkpt>
      <trkpt lat="47.12543" lon="4.68814">
        <ele>1328</ele>
        <time>2014-03-17T16:33:10Z</time>
      </trkpt>
      <trkpt lat="47.12543" lon="4.68813">
        <ele>1328</ele>
        <time>2014-03-17T16:33:15Z</time>
      </trkpt>
      <trkpt lat="47.12542" lon="4.68813">
        <ele>1328</ele>
        <time>2014-03-17T16:33:17Z</time>
      </trkpt>
      <trkpt lat="47.12541" lon="4.68812">
        <ele>1328</ele>
        <time>2014-03-17T16:33:19Z</time>
      </trkpt>
      <trkpt lat="47.12539" lon="4.68811">
        <ele>1328</ele>
        <time>2014-03-17T16:33:24Z</time>
      </trkpt>
      <trkpt lat="47.12538" lon="4.68811">
        <ele>1328</ele>
        <time>2014-03-17T16:33:26Z</time>
      </trkpt>
      <trkpt lat="47.12537" lon="4.68811">
        <ele>1328</ele>
        <time>2014-03-17T16:33:28Z</time>
      </trkpt>
      <trkpt lat="47.12537" lon="4.68811">
        <ele>1328</ele>
        <time>2014-03-17T16:33:32Z</time>
      </trkpt>
      <trkpt lat="47.12536" lon="4.68811">
        <ele>1328</ele>
        <time>2014-03-17T16:33:35Z</time>
      </trkpt>
      <trkpt lat="47.12535" lon="4.6881">
        <ele>1328</ele>
        <time>2014-03-17T16:33:37Z</time>
      </trkpt>
      <trkpt lat="47.12534" lon="4.6881">
        <ele>1328</ele>
        <time>2014-03-17T16:33:41Z</time>
      </trkpt>
      <trkpt lat="47.12534" lon="4.6881">
        <ele>1328</ele>
        <time>2014-03-17T16:33:44Z</time>
      </trkpt>
      <trkpt lat="47.12534" lon="4.6881">
        <ele>1328</ele>
        <time>2014-03-17T16:33:46Z</time>
      </trkpt>
      <trkpt lat="47.12533" lon="4.6881">
        <ele>1328</ele>
        <time>2014-03-17T16:33:50Z</time>
      </trkpt>
      <trkpt lat="47.12533" lon="4.6881">
        <ele>1328</ele>
        <time>2014-03-17T16:33:52Z</time>
      </trkpt>
      <trkpt lat="47.12532" lon="4.6881">
        <ele>1328</ele>
        <time>2014-03-17T16:33:55Z</time>
      </trkpt>
      <trkpt lat="47.12532" lon="4.6881">
        <ele>1328</ele>
        <time>2014-03-17T16:33:57Z</time>
      </trkpt>
      <trkpt lat="47.1253" lon="4.6881">
        <ele>1328</ele>
        <time>2014-03-17T16:34:01Z</time>
      </trkpt>
      <trkpt lat="47.12529" lon="4.6881">
        <ele>1328</ele>
        <time>2014-03-17T16:34:03Z</time>
      </trkpt>
      <trkpt lat="47.12528" lon="4.68809">
        <ele>1328</ele>
        <time>2014-03-17T16:34:06Z</time>
      </trkpt>
      <trkpt lat="47.12527" lon="4.68808">
        <ele>1328</ele>
        <time>2014-03-17T16:34:10Z</time>
      </trkpt>
      <trkpt lat="47.12527" lon="4.68808">
        <ele>1328</ele>
        <time>2014-03-17T16:34:12Z</time>
      </trkpt>
      <trkpt lat="47.12528" lon="4.68807">
        <ele>1328</ele>
        <time>2014-03-17T16:34:14Z</time>
      </trkpt>
      <trkpt lat="47.12529" lon="4.68806">
        <ele>1328</ele>
        <time>2014-03-17T16:34:19Z</time>
      </trkpt>
      <trkpt lat="47.12529" lon="4.68805">
        <ele>1328</ele>
        <time>2014-03-17T16:34:21Z</time>
      </trkpt>
      <trkpt lat="47.12528" lon="4.68804">
        <ele>1328</ele>
        <time>2014-03-17T16:34:23Z</time>
      </trkpt>
      <trkpt lat="47.12527" lon="4.688">
        <ele>1328</ele>
        <time>2014-03-17T16:34:28Z</time>
      </trkpt>
      <trkpt lat="47.12527" lon="4.68799">
        <ele>1328</ele>
        <time>2014-03-17T16:34:30Z</time>
      </trkpt>
      <trkpt lat="47.12527" lon="4.68798">
        <ele>1328</ele>
        <time>2014-03-17T16:34:32Z</time>
      </trkpt>
      <trkpt lat="47.12526" lon="4.68794">
        <ele>1328</ele>
        <time>2014-03-17T16:34:37Z</time>
      </trkpt>
      <trkpt lat="47.12525" lon="4.68793">
        <ele>1328</ele>
        <time>2014-03-17T16:34:39Z</time>
      </trkpt>
      <trkpt lat="47.12525" lon="4.68793">
        <ele>1328</ele>
        <time>2014-03-17T16:34:41Z</time>
      </trkpt>
      <trkpt lat="47.12526" lon="4.68791">
        <ele>1328</ele>
        <time>2014-03-17T16:34:45Z</time>
      </trkpt>
      <trkpt lat="47.12526" lon="4.6879">
        <ele>1328</ele>
        <time>2014-03-17T16:34:48Z</time>
      </trkpt>
      <trkpt lat="47.12527" lon="4.68789">
        <ele>1328</ele>
        <time>2014-03-17T16:34:50Z</time>
      </trkpt>
      <trkpt lat="47.12529" lon="4.68787">
        <ele>1328</ele>
        <time>2014-03-17T16:34:54Z</time>
      </trkpt>
      <trkpt lat="47.12529" lon="4.68786">
        <ele>1328</ele>
        <time>2014-03-17T16:34:56Z</time>
      </trkpt>
      <trkpt lat="47.1253" lon="4.68785">
        <ele>1328</ele>
        <time>2014-03-17T16:34:59Z</time>
      </trkpt>
      <trkpt lat="47.12532" lon="4.68784">
        <ele>1328</ele>
        <time>2014-03-17T16:35:03Z</time>
      </trkpt>
      <trkpt lat="47.12533" lon="4.68783">
        <ele>1328</ele>
        <time>2014-03-17T16:35:05Z</time>
      </trkpt>
      <trkpt lat="47.12535" lon="4.68783">
        <ele>1328</ele>
        <time>2014-03-17T16:35:08Z</time>
      </trkpt>
      <trkpt lat="47.12538" lon="4.68784">
        <ele>1328</ele>
        <time>2014-03-17T16:35:12Z</time>
      </trkpt>
      <trkpt lat="47.1254" lon="4.68784">
        <ele>1328</ele>
        <time>2014-03-17T16:35:14Z</time>
      </trkpt>
      <trkpt lat="47.12542" lon="4.68785">
        <ele>1328</ele>
        <time>2014-03-17T16:35:16Z</time>
      </trkpt>
      <trkpt lat="47.12544" lon="4.68787">
        <ele>1328</ele>
        <time>2014-03-17T16:35:21Z</time>
      </trkpt>
      <trkpt lat="47.12546" lon="4.68787">
        <ele>1328</ele>
        <time>2014-03-17T16:35:23Z</time>
      </trkpt>
      <trkpt lat="47.12546" lon="4.68788">
        <ele>1328</ele>
        <time>2014-03-17T16:35:25Z</time>
      </trkpt>
      <trkpt lat="47.12544" lon="4.68789">
        <ele>1328</ele>
        <time>2014-03-17T16:35:30Z</time>
      </trkpt>
      <trkpt lat="47.12543" lon="4.68789">
        <ele>1328</ele>
        <time>2014-03-17T16:35:32Z</time>
      </trkpt>
      <trkpt lat="47.12542" lon="4.68789">
        <ele>1328</ele>
        <time>2014-03-17T16:35:34Z</time>
      </trkpt>
      <trkpt lat="47.1254" lon="4.6879">
        <ele>1328</ele>
        <time>2014-03-17T16:35:39Z</time>
      </trkpt>
      <trkpt lat="47.12539" lon="4.68791">
        <ele>1328</ele>
        <time>2014-03-17T16:35:41Z</time>
      </trkpt>
      <trkpt lat="47.12538" lon="4.68791">
        <ele>1328</ele>
        <time>2014-03-17T16:35:43Z</time>
      </trkpt>
      <trkpt lat="47.12537" lon="4.68791">
        <ele>1328</ele>
        <time>2014-03-17T16:35:47Z</time>
      </trkpt>
      <trkpt lat="47.12534" lon="4.68791">
        <ele>1328</ele>
        <time>2014-03-17T16:35:50Z</time>
      </trkpt>
      <trkpt lat="47.12533" lon="4.6879">
        <ele>1328</ele>
        <time>2014-03-17T16:35:52Z</time>
      </trkpt>
      <trkpt lat="47.12532" lon="4.6879">
        <ele>1328</ele>
        <time>2014-03-17T16:35:56Z</time>
      </trkpt>
      <trkpt lat="47.12531" lon="4.6879">
        <ele>1328</ele>
        <time>2014-03-17T16:35:58Z</time>
      </trkpt>
      <trkpt lat="47.1253" lon="4.6879">
        <ele>1328</ele>
        <time>2014-03-17T16:36:01Z</time>
      </trkpt>
      <trkpt lat="47.12529" lon="4.6879">
        <ele>1328</ele>
        <time>2014-03-17T16:36:03Z</time>
      </trkpt>
      <trkpt lat="47.12528" lon="4.68791">
        <ele>1328</ele>
        <time>2014-03-17T16:36:07Z</time>
      </trkpt>
      <trkpt lat="47.12527" lon="4.6879">
        <ele>1328</ele>
        <time>2014-03-17T16:36:10Z</time>
      </trkpt>
      <trkpt lat="47.12527" lon="4.68791">
        <ele>1328</ele>
        <time>2014-03-17T16:36:12Z</time>
      </trkpt>
      <trkpt lat="47.12528" lon="4.68791">
        <ele>1328</ele>
        <time>2014-03-17T16:36:16Z</time>
      </trkpt>
      <trkpt lat="47.12528" lon="4.68791">
        <ele>1328</ele>
        <time>2014-03-17T16:36:18Z</time>
      </trkpt>
      <trkpt lat="47.12528" lon="4.68791">
        <ele>1328</ele>
        <time>2014-03-17T16:36:21Z</time>
      </trkpt>
      <trkpt lat="47.12528" lon="4.68789">
        <ele>1328</ele>
        <time>2014-03-17T16:36:25Z</time>
      </trkpt>
      <trkpt lat="47.12528" lon="4.68787">
        <ele>1328</ele>
        <time>2014-03-17T16:36:27Z</time>
      </trkpt>
      <trkpt lat="47.12527" lon="4.68785">
        <ele>1328</ele>
        <time>2014-03-17T16:36:29Z</time>
      </trkpt>
      <trkpt lat="47.12526" lon="4.6878">
        <ele>1328</ele>
        <time>2014-03-17T16:36:34Z</time>
      </trkpt>
      <trkpt lat="47.12526" lon="4.68779">
        <ele>1328</ele>
        <time>2014-03-17T16:36:36Z</time>
      </trkpt>
      <trkpt lat="47.12525" lon="4.68778">
        <ele>1328</ele>
        <time>2014-03-17T16:36:38Z</time>
      </trkpt>
      <trkpt lat="47.12524" lon="4.68777">
        <ele>1328</ele>
        <time>2014-03-17T16:36:43Z</time>
      </trkpt>
      <trkpt lat="47.12524" lon="4.68776">
        <ele>1328</ele>
        <time>2014-03-17T16:36:45Z</time>
      </trkpt>
      <trkpt lat="47.12524" lon="4.68776">
        <ele>1328</ele>
        <time>2014-03-17T16:36:47Z</time>
      </trkpt>
      <trkpt lat="47.12524" lon="4.68776">
        <ele>1328</ele>
        <time>2014-03-17T16:36:52Z</time>
      </trkpt>
      <trkpt lat="47.12524" lon="4.68777">
        <ele>1328</ele>
        <time>2014-03-17T16:36:54Z</time>
      </trkpt>
      <trkpt lat="47.12524" lon="4.68777">
        <ele>1328</ele>
        <time>2014-03-17T16:36:56Z</time>
      </trkpt>
      <trkpt lat="47.12523" lon="4.68777">
        <ele>1328</ele>
        <time>2014-03-17T16:37:00Z</time>
      </trkpt>
      <trkpt lat="47.12521" lon="4.68776">
        <ele>1328</ele>
        <time>2014-03-17T16:37:03Z</time>
      </trkpt>
      <trkpt lat="47.1252" lon="4.68775">
        <ele>1328</ele>
        <time>2014-03-17T16:37:05Z</time>
      </trkpt>
      <trkpt lat="47.12519" lon="4.68775">
        <ele>1328</ele>
        <time>2014-03-17T16:37:09Z</time>
      </trkpt>
      <trkpt lat="47.12519" lon="4.68775">
        <ele>1328</ele>
        <time>2014-03-17T16:37:11Z</time>
      </trkpt>
      <trkpt lat="47.12519" lon="4.68777">
        <ele>1328</ele>
        <time>2014-03-17T16:37:14Z</time>
      </trkpt>
      <trkpt lat="47.1252" lon="4.68778">
        <ele>1328</ele>
        <time>2014-03-17T16:37:18Z</time>
      </trkpt>
      <trkpt lat="47.1252" lon="4.6878">
        <ele>1328</ele>
        <time>2014-03-17T16:37:20Z</time>
      </trkpt>
      <trkpt lat="47.12521" lon="4.68782">
        <ele>1328</ele>
        <time>2014-03-17T16:37:22Z</time>
      </trkpt>
      <trkpt lat="47.12522" lon="4.68787">
        <ele>1328</ele>
        <time>2014-03-17T16:37:27Z</time>
      </trkpt>
      <trkpt lat="47.12522" lon="4.68789">
        <ele>1328</ele>
        <time>2014-03-17T16:37:29Z</time>
      </trkpt>
      <trkpt lat="47.12522" lon="4.6879">
        <ele>1328</ele>
        <time>2014-03-17T16:37:31Z</time>
      </trkpt>
      <trkpt lat="47.12522" lon="4.68791">
        <ele>1328</ele>
        <time>2014-03-17T16:37:36Z</time>
      </trkpt>
      <trkpt lat="47.12523" lon="4.68791">
        <ele>1328</ele>
        <time>2014-03-17T16:37:38Z</time>
      </trkpt>
      <trkpt lat="47.12523" lon="4.68791">
        <ele>1328</ele>
        <time>2014-03-17T16:37:40Z</time>
      </trkpt>
      <trkpt lat="47.12524" lon="4.68793">
        <ele>1328</ele>
        <time>2014-03-17T16:37:45Z</time>
      </trkpt>
      <trkpt lat="47.12525" lon="4.68793">
        <ele>1328</ele>
        <time>2014-03-17T16:37:47Z</time>
      </trkpt>
      <trkpt lat="47.12525" lon="4.68794">
        <ele>1328</ele>
        <time>2014-03-17T16:37:49Z</time>
      </trkpt>
      <trkpt lat="47.12525" lon="4.68798">
        <ele>1328</ele>
        <time>2014-03-17T16:37:53Z</time>
      </trkpt>
      <trkpt lat="47.12525" lon="4.68799">
        <ele>1328</ele>
        <time>2014-03-17T16:37:56Z</time>
      </trkpt>
      <trkpt lat="47.12525" lon="4.68799">
        <ele>1328</ele>
        <time>2014-03-17T16:37:58Z</time>
      </trkpt>
      <trkpt lat="47.12525" lon="4.688">
        <ele>1328</ele>
        <time>2014-03-17T16:38:02Z</time>
      </trkpt>
      <trkpt lat="47.12524" lon="4.68801">
        <ele>1328</ele>
        <time>2014-03-17T16:38:05Z</time>
      </trkpt>
      <trkpt lat="47.12524" lon="4.68801">
        <ele>1328</ele>
        <time>2014-03-17T16:38:07Z</time>
      </trkpt>
      <trkpt lat="47.12523" lon="4.68801">
        <ele>1328</ele>
        <time>2014-03-17T16:38:11Z</time>
      </trkpt>
      <trkpt lat="47.12523" lon="4.68801">
        <ele>1328</ele>
        <time>2014-03-17T16:38:13Z</time>
      </trkpt>
      <trkpt lat="47.12523" lon="4.68801">
        <ele>1328</ele>
        <time>2014-03-17T16:38:16Z</time>
      </trkpt>
      <trkpt lat="47.12523" lon="4.688">
        <ele>1328</ele>
        <time>2014-03-17T16:38:18Z</time>
      </trkpt>
      <trkpt lat="47.12522" lon="4.688">
        <ele>1328</ele>
        <time>2014-03-17T16:38:22Z</time>
      </trkpt>
      <trkpt lat="47.12522" lon="4.688">
        <ele>1328</ele>
        <time>2014-03-17T16:38:24Z</time>
      </trkpt>
      <trkpt lat="47.12521" lon="4.68799">
        <ele>1328</ele>
        <time>2014-03-17T16:38:27Z</time>
      </trkpt>
      <trkpt lat="47.1252" lon="4.68798">
        <ele>1328</ele>
        <time>2014-03-17T16:38:31Z</time>
      </trkpt>
      <trkpt lat="47.1252" lon="4.68797">
        <ele>1328</ele>
        <time>2014-03-17T16:38:33Z</time>
      </trkpt>
      <trkpt lat="47.1252" lon="4.68796">
        <ele>1328</ele>
        <time>2014-03-17T16:38:35Z</time>
      </trkpt>
      <trkpt lat="47.1252" lon="4.68795">
        <ele>1328</ele>
        <time>2014-03-17T16:38:40Z</time>
      </trkpt>
      <trkpt lat="47.1252" lon="4.68794">
        <ele>1328</ele>
        <time>2014-03-17T16:38:42Z</time>
      </trkpt>
      <trkpt lat="47.1252" lon="4.68794">
        <ele>1328</ele>
        <time>2014-03-17T16:38:44Z</time>
      </trkpt>
      <trkpt lat="47.1252" lon="4.68794">
        <ele>1328</ele>
        <time>2014-03-17T16:38:49Z</time>
      </trkpt>
      <trkpt lat="47.1252" lon="4.68794">
        <ele>1328</ele>
        <time>2014-03-17T16:38:51Z</time>
      </trkpt>
      <trkpt lat="47.12521" lon="4.68794">
        <ele>1328</ele>
        <time>2014-03-17T16:38:53Z</time>
      </trkpt>
      <trkpt lat="47.12522" lon="4.68794">
        <ele>1328</ele>
        <time>2014-03-17T16:38:58Z</time>
      </trkpt>
      <trkpt lat="47.12522" lon="4.68793">
        <ele>1328</ele>
        <time>2014-03-17T16:39:00Z</time>
      </trkpt>
      <trkpt lat="47.12523" lon="4.68793">
        <ele>1328</ele>
        <time>2014-03-17T16:39:02Z</time>
      </trkpt>
      <trkpt lat="47.12525" lon="4.68794">
        <ele>1328</ele>
        <time>2014-03-17T16:39:06Z</time>
      </trkpt>
      <trkpt lat="47.12527" lon="4.68794">
        <ele>1328</ele>
        <time>2014-03-17T16:39:09Z</time>
      </trkpt>
      <trkpt lat="47.12528" lon="4.68794">
        <ele>1328</ele>
        <time>2014-03-17T16:39:11Z</time>
      </trkpt>
      <trkpt lat="47.12531" lon="4.68794">
        <ele>1328</ele>
        <time>2014-03-17T16:39:15Z</time>
      </trkpt>
      <trkpt lat="47.12532" lon="4.68794">
        <ele>1328</ele>
        <time>2014-03-17T16:39:17Z</time>
      </trkpt>
      <trkpt lat="47.12532" lon="4.68795">
        <ele>1328</ele>
        <time>2014-03-17T16:39:20Z</time>
      </trkpt>
      <trkpt lat="47.12532" lon="4.68796">
        <ele>1328</ele>
        <time>2014-03-17T16:39:24Z</time>
      </trkpt>
      <trkpt lat="47.12532" lon="4.68797">
        <ele>1328</ele>
        <time>2014-03-17T16:39:26Z</time>
      </trkpt>
      <trkpt lat="47.12532" lon="4.68797">
        <ele>1328</ele>
        <time>2014-03-17T16:39:28Z</time>
      </trkpt>
      <trkpt lat="47.12532" lon="4.68798">
        <ele>1328</ele>
        <time>2014-03-17T16:39:33Z</time>
      </trkpt>
      <trkpt lat="47.12532" lon="4.68798">
        <ele>1328</ele>
        <time>2014-03-17T16:39:35Z</time>
      </trkpt>
      <trkpt lat="47.12532" lon="4.68799">
        <ele>1328</ele>
        <time>2014-03-17T16:39:37Z</time>
      </trkpt>
      <trkpt lat="47.12532" lon="4.688">
        <ele>1328</ele>
        <time>2014-03-17T16:39:42Z</time>
      </trkpt>
      <trkpt lat="47.12532" lon="4.688">
        <ele>1328</ele>
        <time>2014-03-17T16:39:44Z</time>
      </trkpt>
      <trkpt lat="47.12531" lon="4.688">
        <ele>1328</ele>
        <time>2014-03-17T16:39:46Z</time>
      </trkpt>
      <trkpt lat="47.12531" lon="4.688">
        <ele>1328</ele>
        <time>2014-03-17T16:39:50Z</time>
      </trkpt>
      <trkpt lat="47.12531" lon="4.688">
        <ele>1328</ele>
        <time>2014-03-17T16:39:53Z</time>
      </trkpt>
      <trkpt lat="47.12531" lon="4.68799">
        <ele>1328</ele>
        <time>2014-03-17T16:39:55Z</time>
      </trkpt>
      <trkpt lat="47.12532" lon="4.688">
        <ele>1328</ele>
        <time>2014-03-17T16:39:59Z</time>
      </trkpt>
      <trkpt lat="47.12532" lon="4.68801">
        <ele>1328</ele>
        <time>2014-03-17T16:40:01Z</time>
      </trkpt>
      <trkpt lat="47.12533" lon="4.68801">
        <ele>1328</ele>
        <time>2014-03-17T16:40:04Z</time>
      </trkpt>
      <trkpt lat="47.12532" lon="4.68803">
        <ele>1328</ele>
        <time>2014-03-17T16:40:08Z</time>
      </trkpt>
      <trkpt lat="47.12531" lon="4.68803">
        <ele>1328</ele>
        <time>2014-03-17T16:40:10Z</time>
      </trkpt>
      <trkpt lat="47.1253" lon="4.68803">
        <ele>1328</ele>
        <time>2014-03-17T16:40:13Z</time>
      </trkpt>
      <trkpt lat="47.12528" lon="4.68802">
        <ele>1328</ele>
        <time>2014-03-17T16:40:17Z</time>
      </trkpt>
      <trkpt lat="47.12527" lon="4.68801">
        <ele>1328</ele>
        <time>2014-03-17T16:40:19Z</time>
      </trkpt>
      <trkpt lat="47.12526" lon="4.688">
        <ele>1328</ele>
        <time>2014-03-17T16:40:21Z</time>
      </trkpt>
      <trkpt lat="47.12524" lon="4.68799">
        <ele>1328</ele>
        <time>2014-03-17T16:40:24Z</time>
      </trkpt>
      <trkpt lat="47.12522" lon="4.68799">
        <ele>1328</ele>
        <time>2014-03-17T16:40:28Z</time>
      </trkpt>
      <trkpt lat="47.12521" lon="4.68799">
        <ele>1328</ele>
        <time>2014-03-17T16:40:30Z</time>
      </trkpt>
      <trkpt lat="47.12521" lon="4.68798">
        <ele>1328</ele>
        <time>2014-03-17T16:40:32Z</time>
      </trkpt>
      <trkpt lat="47.1252" lon="4.68798">
        <ele>1328</ele>
        <time>2014-03-17T16:40:37Z</time>
      </trkpt>
      <trkpt lat="47.12519" lon="4.68798">
        <ele>1328</ele>
        <time>2014-03-17T16:40:39Z</time>
      </trkpt>
      <trkpt lat="47.12519" lon="4.68798">
        <ele>1328</ele>
        <time>2014-03-17T16:40:41Z</time>
      </trkpt>
      <trkpt lat="47.12518" lon="4.68797">
        <ele>1328</ele>
        <time>2014-03-17T16:40:46Z</time>
      </trkpt>
      <trkpt lat="47.12518" lon="4.68796">
        <ele>1328</ele>
        <time>2014-03-17T16:40:48Z</time>
      </trkpt>
      <trkpt lat="47.12518" lon="4.68797">
        <ele>1328</ele>
        <time>2014-03-17T16:40:50Z</time>
      </trkpt>
      <trkpt lat="47.12519" lon="4.68797">
        <ele>1328</ele>
        <time>2014-03-17T16:40:55Z</time>
      </trkpt>
      <trkpt lat="47.12518" lon="4.68797">
        <ele>1328</ele>
        <time>2014-03-17T16:40:57Z</time>
      </trkpt>
      <trkpt lat="47.12518" lon="4.68797">
        <ele>1328</ele>
        <time>2014-03-17T16:40:59Z</time>
      </trkpt>
      <trkpt lat="47.12518" lon="4.68796">
        <ele>1328</ele>
        <time>2014-03-17T16:41:03Z</time>
      </trkpt>
      <trkpt lat="47.12518" lon="4.68796">
        <ele>1328</ele>
        <time>2014-03-17T16:41:06Z</time>
      </trkpt>
      <trkpt lat="47.12518" lon="4.68796">
        <ele>1328</ele>
        <time>2014-03-17T16:41:08Z</time>
      </trkpt>
      <trkpt lat="47.12518" lon="4.68796">
        <ele>1328</ele>
        <time>2014-03-17T16:41:12Z</time>
      </trkpt>
      <trkpt lat="47.12519" lon="4.68796">
        <ele>1328</ele>
        <time>2014-03-17T16:41:14Z</time>
      </trkpt>
      <trkpt lat="47.12519" lon="4.68796">
        <ele>1328</ele>
        <time>2014-03-17T16:41:17Z</time>
      </trkpt>
      <trkpt lat="47.12518" lon="4.68796">
        <ele>1328</ele>
        <time>2014-03-17T16:41:21Z</time>
      </trkpt>
      <trkpt lat="47.12518" lon="4.68796">
        <ele>1328</ele>
        <time>2014-03-17T16:41:23Z</time>
      </trkpt>
      <trkpt lat="47.12518" lon="4.68796">
        <ele>1328</ele>
        <time>2014-03-17T16:41:25Z</time>
      </trkpt>
      <trkpt lat="47.12518" lon="4.68796">
        <ele>1328</ele>
        <time>2014-03-17T16:41:30Z</time>
      </trkpt>
      <trkpt lat="47.12518" lon="4.68796">
        <ele>1328</ele>
        <time>2014-03-17T16:41:32Z</time>
      </trkpt>
      <trkpt lat="47.12518" lon="4.68796">
        <ele>1328</ele>
        <time>2014-03-17T16:41:34Z</time>
      </trkpt>
      <trkpt lat="47.12517" lon="4.68795">
        <ele>1328</ele>
        <time>2014-03-17T16:41:39Z</time>
      </trkpt>
      <trkpt lat="47.12517" lon="4.68794">
        <ele>1328</ele>
        <time>2014-03-17T16:41:41Z</time>
      </trkpt>
      <trkpt lat="47.12517" lon="4.68794">
        <ele>1328</ele>
        <time>2014-03-17T16:41:43Z</time>
      </trkpt>
      <trkpt lat="47.12516" lon="4.68793">
        <ele>1328</ele>
        <time>2014-03-17T16:41:47Z</time>
      </trkpt>
      <trkpt lat="47.12516" lon="4.68794">
        <ele>1328</ele>
        <time>2014-03-17T16:41:50Z</time>
      </trkpt>
      <trkpt lat="47.12516" lon="4.68794">
        <ele>1328</ele>
        <time>2014-03-17T16:41:52Z</time>
      </trkpt>
      <trkpt lat="47.12517" lon="4.68795">
        <ele>1328</ele>
        <time>2014-03-17T16:41:56Z</time>
      </trkpt>
      <trkpt lat="47.12517" lon="4.68796">
        <ele>1328</ele>
        <time>2014-03-17T16:41:58Z</time>
      </trkpt>
      <trkpt lat="47.12518" lon="4.68797">
        <ele>1328</ele>
        <time>2014-03-17T16:42:01Z</time>
      </trkpt>
      <trkpt lat="47.12519" lon="4.68798">
        <ele>1328</ele>
        <time>2014-03-17T16:42:05Z</time>
      </trkpt>
      <trkpt lat="47.1252" lon="4.68798">
        <ele>1328</ele>
        <time>2014-03-17T16:42:07Z</time>
      </trkpt>
      <trkpt lat="47.1252" lon="4.68799">
        <ele>1328</ele>
        <time>2014-03-17T16:42:10Z</time>
      </trkpt>
      <trkpt lat="47.12521" lon="4.68801">
        <ele>1328</ele>
        <time>2014-03-17T16:42:14Z</time>
      </trkpt>
      <trkpt lat="47.12521" lon="4.68801">
        <ele>1328</ele>
        <time>2014-03-17T16:42:16Z</time>
      </trkpt>
      <trkpt lat="47.12521" lon="4.688">
        <ele>1328</ele>
        <time>2014-03-17T16:42:18Z</time>
      </trkpt>
      <trkpt lat="47.1252" lon="4.68799">
        <ele>1328</ele>
        <time>2014-03-17T16:42:23Z</time>
      </trkpt>
      <trkpt lat="47.12519" lon="4.68799">
        <ele>1328</ele>
        <time>2014-03-17T16:42:25Z</time>
      </trkpt>
      <trkpt lat="47.12519" lon="4.68798">
        <ele>1328</ele>
        <time>2014-03-17T16:42:27Z</time>
      </trkpt>
      <trkpt lat="47.12518" lon="4.68798">
        <ele>1328</ele>
        <time>2014-03-17T16:42:29Z</time>
      </trkpt>
      <trkpt lat="47.12518" lon="4.68802">
        <ele>1328</ele>
        <time>2014-03-17T16:42:34Z</time>
      </trkpt>
      <trkpt lat="47.12518" lon="4.68804">
        <ele>1328</ele>
        <time>2014-03-17T16:42:36Z</time>
      </trkpt>
      <trkpt lat="47.12518" lon="4.68806">
        <ele>1328</ele>
        <time>2014-03-17T16:42:38Z</time>
      </trkpt>
      <trkpt lat="47.12518" lon="4.68807">
        <ele>1328</ele>
        <time>2014-03-17T16:42:43Z</time>
      </trkpt>
      <trkpt lat="47.12518" lon="4.68807">
        <ele>1328</ele>
        <time>2014-03-17T16:42:45Z</time>
      </trkpt>
      <trkpt lat="47.12519" lon="4.68808">
        <ele>1328</ele>
        <time>2014-03-17T16:42:47Z</time>
      </trkpt>
      <trkpt lat="47.12521" lon="4.68809">
        <ele>1328</ele>
        <time>2014-03-17T16:42:52Z</time>
      </trkpt>
      <trkpt lat="47.12523" lon="4.68808">
        <ele>1328</ele>
        <time>2014-03-17T16:42:54Z</time>
      </trkpt>
      <trkpt lat="47.12523" lon="4.68807">
        <ele>1328</ele>
        <time>2014-03-17T16:42:56Z</time>
      </trkpt>
      <trkpt lat="47.12522" lon="4.68806">
        <ele>1328</ele>
        <time>2014-03-17T16:43:00Z</time>
      </trkpt>
      <trkpt lat="47.12521" lon="4.68805">
        <ele>1328</ele>
        <time>2014-03-17T16:43:03Z</time>
      </trkpt>
      <trkpt lat="47.12521" lon="4.68804">
        <ele>1328</ele>
        <time>2014-03-17T16:43:05Z</time>
      </trkpt>
      <trkpt lat="47.12519" lon="4.68802">
        <ele>1328</ele>
        <time>2014-03-17T16:43:09Z</time>
      </trkpt>
      <trkpt lat="47.1252" lon="4.68801">
        <ele>1328</ele>
        <time>2014-03-17T16:43:11Z</time>
      </trkpt>
      <trkpt lat="47.1252" lon="4.68801">
        <ele>1328</ele>
        <time>2014-03-17T16:43:14Z</time>
      </trkpt>
      <trkpt lat="47.1252" lon="4.688">
        <ele>1328</ele>
        <time>2014-03-17T16:43:18Z</time>
      </trkpt>
      <trkpt lat="47.1252" lon="4.68799">
        <ele>1328</ele>
        <time>2014-03-17T16:43:20Z</time>
      </trkpt>
      <trkpt lat="47.1252" lon="4.68798">
        <ele>1328</ele>
        <time>2014-03-17T16:43:23Z</time>
      </trkpt>
      <trkpt lat="47.12521" lon="4.68798">
        <ele>1328</ele>
        <time>2014-03-17T16:43:27Z</time>
      </trkpt>
      <trkpt lat="47.12521" lon="4.68798">
        <ele>1328</ele>
        <time>2014-03-17T16:43:29Z</time>
      </trkpt>
      <trkpt lat="47.1252" lon="4.68797">
        <ele>1328</ele>
        <time>2014-03-17T16:43:31Z</time>
      </trkpt>
      <trkpt lat="47.12519" lon="4.68794">
        <ele>1328</ele>
        <time>2014-03-17T16:43:36Z</time>
      </trkpt>
      <trkpt lat="47.12518" lon="4.68794">
        <ele>1328</ele>
        <time>2014-03-17T16:43:38Z</time>
      </trkpt>
      <trkpt lat="47.12518" lon="4.68793">
        <ele>1328</ele>
        <time>2014-03-17T16:43:40Z</time>
      </trkpt>
      <trkpt lat="47.12518" lon="4.68793">
        <ele>1328</ele>
        <time>2014-03-17T16:43:45Z</time>
      </trkpt>
      <trkpt lat="47.12518" lon="4.68792">
        <ele>1328</ele>
        <time>2014-03-17T16:43:47Z</time>
      </trkpt>
      <trkpt lat="47.12519" lon="4.68792">
        <ele>1328</ele>
        <time>2014-03-17T16:43:49Z</time>
      </trkpt>
      <trkpt lat="47.12519" lon="4.68792">
        <ele>1328</ele>
        <time>2014-03-17T16:43:53Z</time>
      </trkpt>
      <trkpt lat="47.12519" lon="4.68792">
        <ele>1328</ele>
        <time>2014-03-17T16:43:56Z</time>
      </trkpt>
      <trkpt lat="47.12518" lon="4.68791">
        <ele>1328</ele>
        <time>2014-03-17T16:43:58Z</time>
      </trkpt>
      <trkpt lat="47.12519" lon="4.68789">
        <ele>1328</ele>
        <time>2014-03-17T16:44:02Z</time>
      </trkpt>
      <trkpt lat="47.12519" lon="4.68788">
        <ele>1328</ele>
        <time>2014-03-17T16:44:04Z</time>
      </trkpt>
      <trkpt lat="47.12519" lon="4.68788">
        <ele>1328</ele>
        <time>2014-03-17T16:44:07Z</time>
      </trkpt>
      <trkpt lat="47.1252" lon="4.68786">
        <ele>1328</ele>
        <time>2014-03-17T16:44:11Z</time>
      </trkpt>
      <trkpt lat="47.12521" lon="4.68785">
        <ele>1328</ele>
        <time>2014-03-17T16:44:13Z</time>
      </trkpt>
      <trkpt lat="47.1252" lon="4.68785">
        <ele>1328</ele>
        <time>2014-03-17T16:44:16Z</time>
      </trkpt>
      <trkpt lat="47.1252" lon="4.68781">
        <ele>1328</ele>
        <time>2014-03-17T16:44:20Z</time>
      </trkpt>
      <trkpt lat="47.12521" lon="4.68779">
        <ele>1328</ele>
        <time>2014-03-17T16:44:22Z</time>
      </trkpt>
      <trkpt lat="47.12521" lon="4.68777">
        <ele>1328</ele>
        <time>2014-03-17T16:44:24Z</time>
      </trkpt>
      <trkpt lat="47.12523" lon="4.68774">
        <ele>1328</ele>
        <time>2014-03-17T16:44:29Z</time>
      </trkpt>
      <trkpt lat="47.12523" lon="4.68773">
        <ele>1328</ele>
        <time>2014-03-17T16:44:31Z</time>
      </trkpt>
      <trkpt lat="47.12523" lon="4.68772">
        <ele>1328</ele>
        <time>2014-03-17T16:44:33Z</time>
      </trkpt>
      <trkpt lat="47.12522" lon="4.68767">
        <ele>1328</ele>
        <time>2014-03-17T16:44:38Z</time>
      </trkpt>
      <trkpt lat="47.12523" lon="4.68765">
        <ele>1328</ele>
        <time>2014-03-17T16:44:40Z</time>
      </trkpt>
      <trkpt lat="47.12523" lon="4.68763">
        <ele>1328</ele>
        <time>2014-03-17T16:44:42Z</time>
      </trkpt>
      <trkpt lat="47.12524" lon="4.6876">
        <ele>1328</ele>
        <time>2014-03-17T16:44:44Z</time>
      </trkpt>
      <trkpt lat="47.12526" lon="4.68754">
        <ele>1328</ele>
        <time>2014-03-17T16:44:49Z</time>
      </trkpt>
      <trkpt lat="47.12526" lon="4.68751">
        <ele>1328</ele>
        <time>2014-03-17T16:44:51Z</time>
      </trkpt>
      <trkpt lat="47.12527" lon="4.68749">
        <ele>1328</ele>
        <time>2014-03-17T16:44:53Z</time>
      </trkpt>
      <trkpt lat="47.12526" lon="4.68744">
        <ele>1328</ele>
        <time>2014-03-17T16:44:58Z</time>
      </trkpt>
      <trkpt lat="47.12527" lon="4.68742">
        <ele>1328</ele>
        <time>2014-03-17T16:45:00Z</time>
      </trkpt>
      <trkpt lat="47.12527" lon="4.68741">
        <ele>1328</ele>
        <time>2014-03-17T16:45:02Z</time>
      </trkpt>
      <trkpt lat="47.12527" lon="4.68736">
        <ele>1328</ele>
        <time>2014-03-17T16:45:06Z</time>
      </trkpt>
      <trkpt lat="47.12529" lon="4.68732">
        <ele>1328</ele>
        <time>2014-03-17T16:45:09Z</time>
      </trkpt>
      <trkpt lat="47.1253" lon="4.68729">
        <ele>1328</ele>
        <time>2014-03-17T16:45:11Z</time>
      </trkpt>
      <trkpt lat="47.12531" lon="4.68723">
        <ele>1328</ele>
        <time>2014-03-17T16:45:15Z</time>
      </trkpt>
      <trkpt lat="47.12531" lon="4.6872">
        <ele>1328</ele>
        <time>2014-03-17T16:45:18Z</time>
      </trkpt>
      <trkpt lat="47.12534" lon="4.68716">
        <ele>1328</ele>
        <time>2014-03-17T16:45:20Z</time>
      </trkpt>
      <trkpt lat="47.12537" lon="4.68711">
        <ele>1328</ele>
        <time>2014-03-17T16:45:24Z</time>
      </trkpt>
      <trkpt lat="47.12538" lon="4.68709">
        <ele>1328</ele>
        <time>2014-03-17T16:45:26Z</time>
      </trkpt>
      <trkpt lat="47.12538" lon="4.68705">
        <ele>1328</ele>
        <time>2014-03-17T16:45:29Z</time>
      </trkpt>
      <trkpt lat="47.12537" lon="4.68701">
        <ele>1328</ele>
        <time>2014-03-17T16:45:33Z</time>
      </trkpt>
      <trkpt lat="47.12537" lon="4.68699">
        <ele>1328</ele>
        <time>2014-03-17T16:45:35Z</time>
      </trkpt>
      <trkpt lat="47.12536" lon="4.68697">
        <ele>1328</ele>
        <time>2014-03-17T16:45:37Z</time>
      </trkpt>
      <trkpt lat="47.12536" lon="4.6869">
        <ele>1328</ele>
        <time>2014-03-17T16:45:42Z</time>
      </trkpt>
      <trkpt lat="47.12537" lon="4.68686">
        <ele>1328</ele>
        <time>2014-03-17T16:45:44Z</time>
      </trkpt>
      <trkpt lat="47.12537" lon="4.68683">
        <ele>1328</ele>
        <time>2014-03-17T16:45:46Z</time>
      </trkpt>
      <trkpt lat="47.12538" lon="4.68676">
        <ele>1328</ele>
        <time>2014-03-17T16:45:51Z</time>
      </trkpt>
      <trkpt lat="47.12539" lon="4.68673">
        <ele>1328</ele>
        <time>2014-03-17T16:45:53Z</time>
      </trkpt>
      <trkpt lat="47.1254" lon="4.6867">
        <ele>1328</ele>
        <time>2014-03-17T16:45:55Z</time>
      </trkpt>
      <trkpt lat="47.12542" lon="4.68664">
        <ele>1328</ele>
        <time>2014-03-17T16:46:00Z</time>
      </trkpt>
      <trkpt lat="47.12543" lon="4.68662">
        <ele>1328</ele>
        <time>2014-03-17T16:46:02Z</time>
      </trkpt>
      <trkpt lat="47.12544" lon="4.6866">
        <ele>1328</ele>
        <time>2014-03-17T16:46:04Z</time>
      </trkpt>
      <trkpt lat="47.12546" lon="4.68655">
        <ele>1328</ele>
        <time>2014-03-17T16:46:08Z</time>
      </trkpt>
      <trkpt lat="47.12548" lon="4.68652">
        <ele>1328</ele>
        <time>2014-03-17T16:46:11Z</time>
      </trkpt>
      <trkpt lat="47.12549" lon="4.68649">
        <ele>1328</ele>
        <time>2014-03-17T16:46:13Z</time>
      </trkpt>
      <trkpt lat="47.12551" lon="4.68644">
        <ele>1328</ele>
        <time>2014-03-17T16:46:17Z</time>
      </trkpt>
      <trkpt lat="47.12553" lon="4.68641">
        <ele>1328</ele>
        <time>2014-03-17T16:46:20Z</time>
      </trkpt>
      <trkpt lat="47.12553" lon="4.68639">
        <ele>1328</ele>
        <time>2014-03-17T16:46:22Z</time>
      </trkpt>
      <trkpt lat="47.12553" lon="4.68634">
        <ele>1328</ele>
        <time>2014-03-17T16:46:26Z</time>
      </trkpt>
      <trkpt lat="47.12553" lon="4.68632">
        <ele>1328</ele>
        <time>2014-03-17T16:46:29Z</time>
      </trkpt>
      <trkpt lat="47.12553" lon="4.68628">
        <ele>1328</ele>
        <time>2014-03-17T16:46:31Z</time>
      </trkpt>
      <trkpt lat="47.12554" lon="4.68624">
        <ele>1328</ele>
        <time>2014-03-17T16:46:35Z</time>
      </trkpt>
      <trkpt lat="47.12554" lon="4.68621">
        <ele>1328</ele>
        <time>2014-03-17T16:46:37Z</time>
      </trkpt>
      <trkpt lat="47.12554" lon="4.68619">
        <ele>1328</ele>
        <time>2014-03-17T16:46:40Z</time>
      </trkpt>
      <trkpt lat="47.12554" lon="4.68612">
        <ele>1328</ele>
        <time>2014-03-17T16:46:44Z</time>
      </trkpt>
      <trkpt lat="47.12554" lon="4.68609">
        <ele>1328</ele>
        <time>2014-03-17T16:46:46Z</time>
      </trkpt>
      <trkpt lat="47.12555" lon="4.68607">
        <ele>1328</ele>
        <time>2014-03-17T16:46:48Z</time>
      </trkpt>
      <trkpt lat="47.12555" lon="4.68602">
        <ele>1328</ele>
        <time>2014-03-17T16:46:51Z</time>
      </trkpt>
      <trkpt lat="47.12555" lon="4.68597">
        <ele>1328</ele>
        <time>2014-03-17T16:46:55Z</time>
      </trkpt>
      <trkpt lat="47.12556" lon="4.68594">
        <ele>1328</ele>
        <time>2014-03-17T16:46:57Z</time>
      </trkpt>
      <trkpt lat="47.12557" lon="4.68591">
        <ele>1328</ele>
        <time>2014-03-17T16:46:59Z</time>
      </trkpt>
      <trkpt lat="47.12558" lon="4.68583">
        <ele>1328</ele>
        <time>2014-03-17T16:47:04Z</time>
      </trkpt>
      <trkpt lat="47.12559" lon="4.6858">
        <ele>1328</ele>
        <time>2014-03-17T16:47:06Z</time>
      </trkpt>
      <trkpt lat="47.12559" lon="4.68577">
        <ele>1328</ele>
        <time>2014-03-17T16:47:08Z</time>
      </trkpt>
      <trkpt lat="47.1256" lon="4.6857">
        <ele>1328</ele>
        <time>2014-03-17T16:47:13Z</time>
      </trkpt>
      <trkpt lat="47.1256" lon="4.68567">
        <ele>1328</ele>
        <time>2014-03-17T16:47:15Z</time>
      </trkpt>
      <trkpt lat="47.12561" lon="4.68565">
        <ele>1328</ele>
        <time>2014-03-17T16:47:17Z</time>
      </trkpt>
      <trkpt lat="47.12562" lon="4.68558">
        <ele>1328</ele>
        <time>2014-03-17T16:47:22Z</time>
      </trkpt>
      <trkpt lat="47.12562" lon="4.68556">
        <ele>1328</ele>
        <time>2014-03-17T16:47:24Z</time>
      </trkpt>
      <trkpt lat="47.12562" lon="4.68555">
        <ele>1328</ele>
        <time>2014-03-17T16:47:26Z</time>
      </trkpt>
      <trkpt lat="47.12562" lon="4.68553">
        <ele>1328</ele>
        <time>2014-03-17T16:47:30Z</time>
      </trkpt>
      <trkpt lat="47.12564" lon="4.68551">
        <ele>1328</ele>
        <time>2014-03-17T16:47:33Z</time>
      </trkpt>
      <trkpt lat="47.12564" lon="4.6855">
        <ele>1328</ele>
        <time>2014-03-17T16:47:35Z</time>
      </trkpt>
      <trkpt lat="47.12564" lon="4.68549">
        <ele>1328</ele>
        <time>2014-03-17T16:47:39Z</time>
      </trkpt>
      <trkpt lat="47.12564" lon="4.68547">
        <ele>1328</ele>
        <time>2014-03-17T16:47:42Z</time>
      </trkpt>
      <trkpt lat="47.12563" lon="4.68546">
        <ele>1328</ele>
        <time>2014-03-17T16:47:44Z</time>
      </trkpt>
      <trkpt lat="47.12564" lon="4.68541">
        <ele>1328</ele>
        <time>2014-03-17T16:47:48Z</time>
      </trkpt>
      <trkpt lat="47.12564" lon="4.68539">
        <ele>1328</ele>
        <time>2014-03-17T16:47:50Z</time>
      </trkpt>
      <trkpt lat="47.12564" lon="4.68536">
        <ele>1328</ele>
        <time>2014-03-17T16:47:53Z</time>
      </trkpt>
      <trkpt lat="47.12564" lon="4.68532">
        <ele>1328</ele>
        <time>2014-03-17T16:47:57Z</time>
      </trkpt>
      <trkpt lat="47.12564" lon="4.6853">
        <ele>1328</ele>
        <time>2014-03-17T16:47:59Z</time>
      </trkpt>
      <trkpt lat="47.12564" lon="4.68529">
        <ele>1328</ele>
        <time>2014-03-17T16:48:01Z</time>
      </trkpt>
      <trkpt lat="47.12564" lon="4.68524">
        <ele>1328</ele>
        <time>2014-03-17T16:48:06Z</time>
      </trkpt>
      <trkpt lat="47.12563" lon="4.68523">
        <ele>1328</ele>
        <time>2014-03-17T16:48:08Z</time>
      </trkpt>
      <trkpt lat="47.12563" lon="4.68521">
        <ele>1328</ele>
        <time>2014-03-17T16:48:10Z</time>
      </trkpt>
      <trkpt lat="47.12562" lon="4.68517">
        <ele>1328</ele>
        <time>2014-03-17T16:48:15Z</time>
      </trkpt>
      <trkpt lat="47.12562" lon="4.68516">
        <ele>1328</ele>
        <time>2014-03-17T16:48:17Z</time>
      </trkpt>
      <trkpt lat="47.12561" lon="4.68514">
        <ele>1328</ele>
        <time>2014-03-17T16:48:19Z</time>
      </trkpt>
      <trkpt lat="47.12562" lon="4.68511">
        <ele>1328</ele>
        <time>2014-03-17T16:48:24Z</time>
      </trkpt>
      <trkpt lat="47.12562" lon="4.68511">
        <ele>1328</ele>
        <time>2014-03-17T16:48:26Z</time>
      </trkpt>
      <trkpt lat="47.12563" lon="4.68509">
        <ele>1328</ele>
        <time>2014-03-17T16:48:28Z</time>
      </trkpt>
      <trkpt lat="47.12563" lon="4.68507">
        <ele>1328</ele>
        <time>2014-03-17T16:48:32Z</time>
      </trkpt>
      <trkpt lat="47.12564" lon="4.68505">
        <ele>1328</ele>
        <time>2014-03-17T16:48:35Z</time>
      </trkpt>
      <trkpt lat="47.12565" lon="4.68503">
        <ele>1328</ele>
        <time>2014-03-17T16:48:37Z</time>
      </trkpt>
      <trkpt lat="47.12566" lon="4.68499">
        <ele>1328</ele>
        <time>2014-03-17T16:48:41Z</time>
      </trkpt>
      <trkpt lat="47.12566" lon="4.68498">
        <ele>1328</ele>
        <time>2014-03-17T16:48:44Z</time>
      </trkpt>
      <trkpt lat="47.12567" lon="4.68496">
        <ele>1328</ele>
        <time>2014-03-17T16:48:46Z</time>
      </trkpt>
      <trkpt lat="47.1257" lon="4.68495">
        <ele>1328</ele>
        <time>2014-03-17T16:48:50Z</time>
      </trkpt>
      <trkpt lat="47.12571" lon="4.68494">
        <ele>1328</ele>
        <time>2014-03-17T16:48:52Z</time>
      </trkpt>
      <trkpt lat="47.12572" lon="4.68492">
        <ele>1328</ele>
        <time>2014-03-17T16:48:55Z</time>
      </trkpt>
      <trkpt lat="47.12573" lon="4.6849">
        <ele>1328</ele>
        <time>2014-03-17T16:48:57Z</time>
      </trkpt>
      <trkpt lat="47.12574" lon="4.68487">
        <ele>1328</ele>
        <time>2014-03-17T16:49:01Z</time>
      </trkpt>
      <trkpt lat="47.12574" lon="4.68485">
        <ele>1328</ele>
        <time>2014-03-17T16:49:03Z</time>
      </trkpt>
      <trkpt lat="47.12575" lon="4.68483">
        <ele>1328</ele>
        <time>2014-03-17T16:49:06Z</time>
      </trkpt>
      <trkpt lat="47.12575" lon="4.68479">
        <ele>1328</ele>
        <time>2014-03-17T16:49:10Z</time>
      </trkpt>
      <trkpt lat="47.12576" lon="4.68477">
        <ele>1328</ele>
        <time>2014-03-17T16:49:12Z</time>
      </trkpt>
      <trkpt lat="47.12576" lon="4.68476">
        <ele>1328</ele>
        <time>2014-03-17T16:49:15Z</time>
      </trkpt>
      <trkpt lat="47.12577" lon="4.68471">
        <ele>1328</ele>
        <time>2014-03-17T16:49:19Z</time>
      </trkpt>
      <trkpt lat="47.12577" lon="4.68469">
        <ele>1328</ele>
        <time>2014-03-17T16:49:21Z</time>
      </trkpt>
      <trkpt lat="47.12577" lon="4.68467">
        <ele>1328</ele>
        <time>2014-03-17T16:49:23Z</time>
      </trkpt>
      <trkpt lat="47.12578" lon="4.68462">
        <ele>1328</ele>
        <time>2014-03-17T16:49:28Z</time>
      </trkpt>
      <trkpt lat="47.12578" lon="4.6846">
        <ele>1328</ele>
        <time>2014-03-17T16:49:30Z</time>
      </trkpt>
      <trkpt lat="47.12579" lon="4.68458">
        <ele>1328</ele>
        <time>2014-03-17T16:49:32Z</time>
      </trkpt>
      <trkpt lat="47.1258" lon="4.68453">
        <ele>1328</ele>
        <time>2014-03-17T16:49:37Z</time>
      </trkpt>
      <trkpt lat="47.1258" lon="4.68451">
        <ele>1328</ele>
        <time>2014-03-17T16:49:39Z</time>
      </trkpt>
      <trkpt lat="47.1258" lon="4.68448">
        <ele>1328</ele>
        <time>2014-03-17T16:49:41Z</time>
      </trkpt>
      <trkpt lat="47.1258" lon="4.68444">
        <ele>1328</ele>
        <time>2014-03-17T16:49:46Z</time>
      </trkpt>
      <trkpt lat="47.12579" lon="4.68442">
        <ele>1328</ele>
        <time>2014-03-17T16:49:48Z</time>
      </trkpt>
      <trkpt lat="47.12579" lon="4.68441">
        <ele>1328</ele>
        <time>2014-03-17T16:49:50Z</time>
      </trkpt>
      <trkpt lat="47.12579" lon="4.6844">
        <ele>1328</ele>
        <time>2014-03-17T16:49:54Z</time>
      </trkpt>
      <trkpt lat="47.12579" lon="4.68438">
        <ele>1328</ele>
        <time>2014-03-17T16:49:57Z</time>
      </trkpt>
      <trkpt lat="47.1258" lon="4.68438">
        <ele>1328</ele>
        <time>2014-03-17T16:49:59Z</time>
      </trkpt>
      <trkpt lat="47.12581" lon="4.68436">
        <ele>1328</ele>
        <time>2014-03-17T16:50:03Z</time>
      </trkpt>
      <trkpt lat="47.12581" lon="4.68436">
        <ele>1328</ele>
        <time>2014-03-17T16:50:05Z</time>
      </trkpt>
      <trkpt lat="47.12582" lon="4.68435">
        <ele>1328</ele>
        <time>2014-03-17T16:50:08Z</time>
      </trkpt>
      <trkpt lat="47.12583" lon="4.68435">
        <ele>1328</ele>
        <time>2014-03-17T16:50:12Z</time>
      </trkpt>
      <trkpt lat="47.12584" lon="4.68434">
        <ele>1328</ele>
        <time>2014-03-17T16:50:14Z</time>
      </trkpt>
      <trkpt lat="47.12584" lon="4.68433">
        <ele>1328</ele>
        <time>2014-03-17T16:50:17Z</time>
      </trkpt>
      <trkpt lat="47.12582" lon="4.68431">
        <ele>1328</ele>
        <time>2014-03-17T16:50:21Z</time>
      </trkpt>
      <trkpt lat="47.12581" lon="4.68431">
        <ele>1328</ele>
        <time>2014-03-17T16:50:23Z</time>
      </trkpt>
      <trkpt lat="47.1258" lon="4.6843">
        <ele>1328</ele>
        <time>2014-03-17T16:50:25Z</time>
      </trkpt>
      <trkpt lat="47.12578" lon="4.68428">
        <ele>1328</ele>
        <time>2014-03-17T16:50:30Z</time>
      </trkpt>
      <trkpt lat="47.12576" lon="4.68428">
        <ele>1328</ele>
        <time>2014-03-17T16:50:32Z</time>
      </trkpt>
      <trkpt lat="47.12575" lon="4.68427">
        <ele>1328</ele>
        <time>2014-03-17T16:50:34Z</time>
      </trkpt>
      <trkpt lat="47.12572" lon="4.68426">
        <ele>1328</ele>
        <time>2014-03-17T16:50:39Z</time>
      </trkpt>
      <trkpt lat="47.1257" lon="4.68425">
        <ele>1328</ele>
        <time>2014-03-17T16:50:41Z</time>
      </trkpt>
      <trkpt lat="47.12569" lon="4.68424">
        <ele>1328</ele>
        <time>2014-03-17T16:50:43Z</time>
      </trkpt>
      <trkpt lat="47.12565" lon="4.68423">
        <ele>1328</ele>
        <time>2014-03-17T16:50:47Z</time>
      </trkpt>
      <trkpt lat="47.12563" lon="4.68421">
        <ele>1328</ele>
        <time>2014-03-17T16:50:50Z</time>
      </trkpt>
      <trkpt lat="47.12561" lon="4.68421">
        <ele>1328</ele>
        <time>2014-03-17T16:50:52Z</time>
      </trkpt>
      <trkpt lat="47.12557" lon="4.6842">
        <ele>1328</ele>
        <time>2014-03-17T16:50:56Z</time>
      </trkpt>
      <trkpt lat="47.12556" lon="4.6842">
        <ele>1328</ele>
        <time>2014-03-17T16:50:59Z</time>
      </trkpt>
      <trkpt lat="47.12553" lon="4.68419">
        <ele>1328</ele>
        <time>2014-03-17T16:51:01Z</time>
      </trkpt>
      <trkpt lat="47.12551" lon="4.68418">
        <ele>1328</ele>
        <time>2014-03-17T16:51:03Z</time>
      </trkpt>
      <trkpt lat="47.12548" lon="4.68417">
        <ele>1328</ele>
        <time>2014-03-17T16:51:07Z</time>
      </trkpt>
      <trkpt lat="47.12545" lon="4.68417">
        <ele>1328</ele>
        <time>2014-03-17T16:51:10Z</time>
      </trkpt>
      <trkpt lat="47.12543" lon="4.68416">
        <ele>1328</ele>
        <time>2014-03-17T16:51:12Z</time>
      </trkpt>
      <trkpt lat="47.1254" lon="4.68415">
        <ele>1328</ele>
        <time>2014-03-17T16:51:16Z</time>
      </trkpt>
      <trkpt lat="47.12538" lon="4.68415">
        <ele>1328</ele>
        <time>2014-03-17T16:51:18Z</time>
      </trkpt>
      <trkpt lat="47.12535" lon="4.68414">
        <ele>1328</ele>
        <time>2014-03-17T16:51:21Z</time>
      </trkpt>
      <trkpt lat="47.12532" lon="4.68412">
        <ele>1328</ele>
        <time>2014-03-17T16:51:25Z</time>
      </trkpt>
      <trkpt lat="47.1253" lon="4.68411">
        <ele>1328</ele>
        <time>2014-03-17T16:51:27Z</time>
      </trkpt>
      <trkpt lat="47.12528" lon="4.6841">
        <ele>1328</ele>
        <time>2014-03-17T16:51:30Z</time>
      </trkpt>
      <trkpt lat="47.12524" lon="4.68407">
        <ele>1328</ele>
        <time>2014-03-17T16:51:34Z</time>
      </trkpt>
      <trkpt lat="47.12522" lon="4.68406">
        <ele>1328</ele>
        <time>2014-03-17T16:51:36Z</time>
      </trkpt>
      <trkpt lat="47.1252" lon="4.68405">
        <ele>1328</ele>
        <time>2014-03-17T16:51:38Z</time>
      </trkpt>
      <trkpt lat="47.12514" lon="4.68402">
        <ele>1328</ele>
        <time>2014-03-17T16:51:43Z</time>
      </trkpt>
      <trkpt lat="47.12513" lon="4.68401">
        <ele>1328</ele>
        <time>2014-03-17T16:51:45Z</time>
      </trkpt>
      <trkpt lat="47.12511" lon="4.68401">
        <ele>1328</ele>
        <time>2014-03-17T16:51:47Z</time>
      </trkpt>
      <trkpt lat="47.12507" lon="4.68398">
        <ele>1328</ele>
        <time>2014-03-17T16:51:52Z</time>
      </trkpt>
      <trkpt lat="47.12505" lon="4.68398">
        <ele>1328</ele>
        <time>2014-03-17T16:51:54Z</time>
      </trkpt>
      <trkpt lat="47.12503" lon="4.68396">
        <ele>1328</ele>
        <time>2014-03-17T16:51:56Z</time>
      </trkpt>
      <trkpt lat="47.12499" lon="4.68394">
        <ele>1328</ele>
        <time>2014-03-17T16:52:00Z</time>
      </trkpt>
      <trkpt lat="47.12496" lon="4.68392">
        <ele>1328</ele>
        <time>2014-03-17T16:52:03Z</time>
      </trkpt>
      <trkpt lat="47.12493" lon="4.68391">
        <ele>1328</ele>
        <time>2014-03-17T16:52:05Z</time>
      </trkpt>
      <trkpt lat="47.12489" lon="4.6839">
        <ele>1328</ele>
        <time>2014-03-17T16:52:09Z</time>
      </trkpt>
      <trkpt lat="47.12486" lon="4.68389">
        <ele>1328</ele>
        <time>2014-03-17T16:52:12Z</time>
      </trkpt>
      <trkpt lat="47.12484" lon="4.68387">
        <ele>1328</ele>
        <time>2014-03-17T16:52:14Z</time>
      </trkpt>
      <trkpt lat="47.12479" lon="4.68387">
        <ele>1328</ele>
        <time>2014-03-17T16:52:18Z</time>
      </trkpt>
      <trkpt lat="47.12477" lon="4.68386">
        <ele>1328</ele>
        <time>2014-03-17T16:52:20Z</time>
      </trkpt>
      <trkpt lat="47.12473" lon="4.68385">
        <ele>1328</ele>
        <time>2014-03-17T16:52:23Z</time>
      </trkpt>
      <trkpt lat="47.12469" lon="4.68383">
        <ele>1328</ele>
        <time>2014-03-17T16:52:27Z</time>
      </trkpt>
      <trkpt lat="47.12466" lon="4.68383">
        <ele>1328</ele>
        <time>2014-03-17T16:52:29Z</time>
      </trkpt>
      <trkpt lat="47.12464" lon="4.68382">
        <ele>1328</ele>
        <time>2014-03-17T16:52:31Z</time>
      </trkpt>
      <trkpt lat="47.12458" lon="4.68379">
        <ele>1328</ele>
        <time>2014-03-17T16:52:36Z</time>
      </trkpt>
      <trkpt lat="47.12456" lon="4.68379">
        <ele>1328</ele>
        <time>2014-03-17T16:52:38Z</time>
      </trkpt>
      <trkpt lat="47.12454" lon="4.68378">
        <ele>1328</ele>
        <time>2014-03-17T16:52:40Z</time>
      </trkpt>
      <trkpt lat="47.12448" lon="4.68376">
        <ele>1328</ele>
        <time>2014-03-17T16:52:45Z</time>
      </trkpt>
      <trkpt lat="47.12445" lon="4.68375">
        <ele>1328</ele>
        <time>2014-03-17T16:52:47Z</time>
      </trkpt>
      <trkpt lat="47.12443" lon="4.68374">
        <ele>1328</ele>
        <time>2014-03-17T16:52:49Z</time>
      </trkpt>
      <trkpt lat="47.12438" lon="4.68372">
        <ele>1328</ele>
        <time>2014-03-17T16:52:54Z</time>
      </trkpt>
      <trkpt lat="47.12435" lon="4.68371">
        <ele>1328</ele>
        <time>2014-03-17T16:52:56Z</time>
      </trkpt>
      <trkpt lat="47.12433" lon="4.6837">
        <ele>1328</ele>
        <time>2014-03-17T16:52:58Z</time>
      </trkpt>
      <trkpt lat="47.12428" lon="4.68368">
        <ele>1328</ele>
        <time>2014-03-17T16:53:02Z</time>
      </trkpt>
      <trkpt lat="47.12425" lon="4.68366">
        <ele>1328</ele>
        <time>2014-03-17T16:53:05Z</time>
      </trkpt>
      <trkpt lat="47.12422" lon="4.68365">
        <ele>1328</ele>
        <time>2014-03-17T16:53:07Z</time>
      </trkpt>
      <trkpt lat="47.12418" lon="4.68363">
        <ele>1328</ele>
        <time>2014-03-17T16:53:11Z</time>
      </trkpt>
      <trkpt lat="47.12416" lon="4.68362">
        <ele>1328</ele>
        <time>2014-03-17T16:53:13Z</time>
      </trkpt>
      <trkpt lat="47.12413" lon="4.6836">
        <ele>1328</ele>
        <time>2014-03-17T16:53:16Z</time>
      </trkpt>
      <trkpt lat="47.1241" lon="4.68358">
        <ele>1328</ele>
        <time>2014-03-17T16:53:18Z</time>
      </trkpt>
      <trkpt lat="47.12405" lon="4.68355">
        <ele>1328</ele>
        <time>2014-03-17T16:53:22Z</time>
      </trkpt>
      <trkpt lat="47.12403" lon="4.68353">
        <ele>1328</ele>
        <time>2014-03-17T16:53:25Z</time>
      </trkpt>
      <trkpt lat="47.124" lon="4.68351">
        <ele>1328</ele>
        <time>2014-03-17T16:53:27Z</time>
      </trkpt>
      <trkpt lat="47.12395" lon="4.68347">
        <ele>1328</ele>
        <time>2014-03-17T16:53:31Z</time>
      </trkpt>
      <trkpt lat="47.12393" lon="4.68346">
        <ele>1328</ele>
        <time>2014-03-17T16:53:33Z</time>
      </trkpt>
      <trkpt lat="47.12388" lon="4.68343">
        <ele>1328</ele>
        <time>2014-03-17T16:53:36Z</time>
      </trkpt>
      <trkpt lat="47.12384" lon="4.68339">
        <ele>1328</ele>
        <time>2014-03-17T16:53:40Z</time>
      </trkpt>
      <trkpt lat="47.12381" lon="4.68338">
        <ele>1328</ele>
        <time>2014-03-17T16:53:42Z</time>
      </trkpt>
      <trkpt lat="47.12378" lon="4.68336">
        <ele>1328</ele>
        <time>2014-03-17T16:53:44Z</time>
      </trkpt>
      <trkpt lat="47.12372" lon="4.68332">
        <ele>1328</ele>
        <time>2014-03-17T16:53:49Z</time>
      </trkpt>
      <trkpt lat="47.1237" lon="4.6833">
        <ele>1328</ele>
        <time>2014-03-17T16:53:51Z</time>
      </trkpt>
      <trkpt lat="47.12367" lon="4.68328">
        <ele>1328</ele>
        <time>2014-03-17T16:53:53Z</time>
      </trkpt>
      <trkpt lat="47.12361" lon="4.68324">
        <ele>1328</ele>
        <time>2014-03-17T16:53:58Z</time>
      </trkpt>
      <trkpt lat="47.12359" lon="4.68322">
        <ele>1328</ele>
        <time>2014-03-17T16:54:00Z</time>
      </trkpt>
      <trkpt lat="47.12357" lon="4.68321">
        <ele>1328</ele>
        <time>2014-03-17T16:54:02Z</time>
      </trkpt>
      <trkpt lat="47.12351" lon="4.68317">
        <ele>1328</ele>
        <time>2014-03-17T16:54:07Z</time>
      </trkpt>
      <trkpt lat="47.12349" lon="4.68316">
        <ele>1328</ele>
        <time>2014-03-17T16:54:09Z</time>
      </trkpt>
      <trkpt lat="47.12348" lon="4.68315">
        <ele>1328</ele>
        <time>2014-03-17T16:54:11Z</time>
      </trkpt>
      <trkpt lat="47.12343" lon="4.68312">
        <ele>1328</ele>
        <time>2014-03-17T16:54:16Z</time>
      </trkpt>
      <trkpt lat="47.1234" lon="4.6831">
        <ele>1328</ele>
        <time>2014-03-17T16:54:18Z</time>
      </trkpt>
      <trkpt lat="47.12338" lon="4.68309">
        <ele>1328</ele>
        <time>2014-03-17T16:54:20Z</time>
      </trkpt>
      <trkpt lat="47.12333" lon="4.68306">
        <ele>1328</ele>
        <time>2014-03-17T16:54:24Z</time>
      </trkpt>
      <trkpt lat="47.12329" lon="4.68304">
        <ele>1328</ele>
        <time>2014-03-17T16:54:27Z</time>
      </trkpt>
      <trkpt lat="47.12327" lon="4.68302">
        <ele>1328</ele>
        <time>2014-03-17T16:54:29Z</time>
      </trkpt>
      <trkpt lat="47.12322" lon="4.68299">
        <ele>1328</ele>
        <time>2014-03-17T16:54:33Z</time>
      </trkpt>
      <trkpt lat="47.1232" lon="4.68298">
        <ele>1328</ele>
        <time>2014-03-17T16:54:35Z</time>
      </trkpt>
      <trkpt lat="47.12317" lon="4.68295">
        <ele>1328</ele>
        <time>2014-03-17T16:54:38Z</time>
      </trkpt>
      <trkpt lat="47.12313" lon="4.68292">
        <ele>1328</ele>
        <time>2014-03-17T16:54:42Z</time>
      </trkpt>
      <trkpt lat="47.12311" lon="4.6829">
        <ele>1328</ele>
        <time>2014-03-17T16:54:44Z</time>
      </trkpt>
      <trkpt lat="47.12309" lon="4.68289">
        <ele>1328</ele>
        <time>2014-03-17T16:54:47Z</time>
      </trkpt>
      <trkpt lat="47.12303" lon="4.68285">
        <ele>1328</ele>
        <time>2014-03-17T16:54:51Z</time>
      </trkpt>
      <trkpt lat="47.12301" lon="4.68284">
        <ele>1328</ele>
        <time>2014-03-17T16:54:53Z</time>
      </trkpt>
      <trkpt lat="47.12299" lon="4.68283">
        <ele>1328</ele>
        <time>2014-03-17T16:54:55Z</time>
      </trkpt>
      <trkpt lat="47.12293" lon="4.6828">
        <ele>1328</ele>
        <time>2014-03-17T16:55:00Z</time>
      </trkpt>
      <trkpt lat="47.12291" lon="4.68278">
        <ele>1328</ele>
        <time>2014-03-17T16:55:02Z</time>
      </trkpt>
      <trkpt lat="47.12289" lon="4.68277">
        <ele>1328</ele>
        <time>2014-03-17T16:55:04Z</time>
      </trkpt>
      <trkpt lat="47.12284" lon="4.68273">
        <ele>1328</ele>
        <time>2014-03-17T16:55:09Z</time>
      </trkpt>
      <trkpt lat="47.12282" lon="4.68272">
        <ele>1328</ele>
        <time>2014-03-17T16:55:11Z</time>
      </trkpt>
      <trkpt lat="47.12279" lon="4.6827">
        <ele>1328</ele>
        <time>2014-03-17T16:55:13Z</time>
      </trkpt>
      <trkpt lat="47.12275" lon="4.68267">
        <ele>1328</ele>
        <time>2014-03-17T16:55:18Z</time>
      </trkpt>
      <trkpt lat="47.12271" lon="4.68267">
        <ele>1328</ele>
        <time>2014-03-17T16:55:20Z</time>
      </trkpt>
      <trkpt lat="47.12269" lon="4.68266">
        <ele>1328</ele>
        <time>2014-03-17T16:55:22Z</time>
      </trkpt>
      <trkpt lat="47.12267" lon="4.68265">
        <ele>1328</ele>
        <time>2014-03-17T16:55:24Z</time>
      </trkpt>
      <trkpt lat="47.12261" lon="4.68263">
        <ele>1328</ele>
        <time>2014-03-17T16:55:29Z</time>
      </trkpt>
      <trkpt lat="47.12259" lon="4.68262">
        <ele>1328</ele>
        <time>2014-03-17T16:55:31Z</time>
      </trkpt>
      <trkpt lat="47.12257" lon="4.6826">
        <ele>1328</ele>
        <time>2014-03-17T16:55:33Z</time>
      </trkpt>
      <trkpt lat="47.12253" lon="4.68258">
        <ele>1328</ele>
        <time>2014-03-17T16:55:37Z</time>
      </trkpt>
      <trkpt lat="47.12249" lon="4.68255">
        <ele>1328</ele>
        <time>2014-03-17T16:55:40Z</time>
      </trkpt>
      <trkpt lat="47.12248" lon="4.68253">
        <ele>1328</ele>
        <time>2014-03-17T16:55:42Z</time>
      </trkpt>
      <trkpt lat="47.12244" lon="4.6825">
        <ele>1328</ele>
        <time>2014-03-17T16:55:46Z</time>
      </trkpt>
      <trkpt lat="47.12242" lon="4.68248">
        <ele>1328</ele>
        <time>2014-03-17T16:55:49Z</time>
      </trkpt>
      <trkpt lat="47.12239" lon="4.68244">
        <ele>1328</ele>
        <time>2014-03-17T16:55:51Z</time>
      </trkpt>
      <trkpt lat="47.12235" lon="4.6824">
        <ele>1328</ele>
        <time>2014-03-17T16:55:55Z</time>
      </trkpt>
      <trkpt lat="47.12233" lon="4.68238">
        <ele>1328</ele>
        <time>2014-03-17T16:55:57Z</time>
      </trkpt>
      <trkpt lat="47.1223" lon="4.68234">
        <ele>1328</ele>
        <time>2014-03-17T16:56:00Z</time>
      </trkpt>
      <trkpt lat="47.12225" lon="4.6823">
        <ele>1328</ele>
        <time>2014-03-17T16:56:04Z</time>
      </trkpt>
      <trkpt lat="47.12224" lon="4.68228">
        <ele>1328</ele>
        <time>2014-03-17T16:56:06Z</time>
      </trkpt>
      <trkpt lat="47.12222" lon="4.68226">
        <ele>1328</ele>
        <time>2014-03-17T16:56:08Z</time>
      </trkpt>
      <trkpt lat="47.12216" lon="4.68221">
        <ele>1328</ele>
        <time>2014-03-17T16:56:13Z</time>
      </trkpt>
      <trkpt lat="47.12215" lon="4.68219">
        <ele>1328</ele>
        <time>2014-03-17T16:56:15Z</time>
      </trkpt>
      <trkpt lat="47.12213" lon="4.68216">
        <ele>1328</ele>
        <time>2014-03-17T16:56:17Z</time>
      </trkpt>
      <trkpt lat="47.12208" lon="4.68209">
        <ele>1328</ele>
        <time>2014-03-17T16:56:22Z</time>
      </trkpt>
      <trkpt lat="47.12206" lon="4.68206">
        <ele>1328</ele>
        <time>2014-03-17T16:56:24Z</time>
      </trkpt>
      <trkpt lat="47.12204" lon="4.68204">
        <ele>1328</ele>
        <time>2014-03-17T16:56:26Z</time>
      </trkpt>
      <trkpt lat="47.12199" lon="4.68199">
        <ele>1328</ele>
        <time>2014-03-17T16:56:31Z</time>
      </trkpt>
      <trkpt lat="47.12196" lon="4.68196">
        <ele>1328</ele>
        <time>2014-03-17T16:56:33Z</time>
      </trkpt>
      <trkpt lat="47.12194" lon="4.68194">
        <ele>1328</ele>
        <time>2014-03-17T16:56:35Z</time>
      </trkpt>
      <trkpt lat="47.12191" lon="4.68189">
        <ele>1328</ele>
        <time>2014-03-17T16:56:39Z</time>
      </trkpt>
      <trkpt lat="47.12188" lon="4.68187">
        <ele>1328</ele>
        <time>2014-03-17T16:56:42Z</time>
      </trkpt>
      <trkpt lat="47.12186" lon="4.68185">
        <ele>1328</ele>
        <time>2014-03-17T16:56:44Z</time>
      </trkpt>
      <trkpt lat="47.12183" lon="4.68181">
        <ele>1328</ele>
        <time>2014-03-17T16:56:48Z</time>
      </trkpt>
      <trkpt lat="47.12182" lon="4.68178">
        <ele>1328</ele>
        <time>2014-03-17T16:56:50Z</time>
      </trkpt>
      <trkpt lat="47.12179" lon="4.68176">
        <ele>1328</ele>
        <time>2014-03-17T16:56:53Z</time>
      </trkpt>
      <trkpt lat="47.12175" lon="4.68172">
        <ele>1328</ele>
        <time>2014-03-17T16:56:57Z</time>
      </trkpt>
      <trkpt lat="47.12173" lon="4.6817">
        <ele>1328</ele>
        <time>2014-03-17T16:56:59Z</time>
      </trkpt>
      <trkpt lat="47.12171" lon="4.68169">
        <ele>1328</ele>
        <time>2014-03-17T16:57:02Z</time>
      </trkpt>
      <trkpt lat="47.12165" lon="4.68166">
        <ele>1328</ele>
        <time>2014-03-17T16:57:06Z</time>
      </trkpt>
      <trkpt lat="47.12163" lon="4.68164">
        <ele>1328</ele>
        <time>2014-03-17T16:57:08Z</time>
      </trkpt>
      <trkpt lat="47.12161" lon="4.68163">
        <ele>1328</ele>
        <time>2014-03-17T16:57:10Z</time>
      </trkpt>
      <trkpt lat="47.12156" lon="4.68158">
        <ele>1328</ele>
        <time>2014-03-17T16:57:15Z</time>
      </trkpt>
      <trkpt lat="47.12155" lon="4.68156">
        <ele>1328</ele>
        <time>2014-03-17T16:57:17Z</time>
      </trkpt>
      <trkpt lat="47.12154" lon="4.68154">
        <ele>1328</ele>
        <time>2014-03-17T16:57:19Z</time>
      </trkpt>
      <trkpt lat="47.12151" lon="4.68151">
        <ele>1328</ele>
        <time>2014-03-17T16:57:24Z</time>
      </trkpt>
      <trkpt lat="47.1215" lon="4.68149">
        <ele>1328</ele>
        <time>2014-03-17T16:57:26Z</time>
      </trkpt>
      <trkpt lat="47.12148" lon="4.68148">
        <ele>1328</ele>
        <time>2014-03-17T16:57:28Z</time>
      </trkpt>
      <trkpt lat="47.12147" lon="4.68146">
        <ele>1328</ele>
        <time>2014-03-17T16:57:30Z</time>
      </trkpt>
      <trkpt lat="47.12142" lon="4.68143">
        <ele>1328</ele>
        <time>2014-03-17T16:57:35Z</time>
      </trkpt>
      <trkpt lat="47.12141" lon="4.68141">
        <ele>1328</ele>
        <time>2014-03-17T16:57:37Z</time>
      </trkpt>
      <trkpt lat="47.1214" lon="4.6814">
        <ele>1328</ele>
        <time>2014-03-17T16:57:39Z</time>
      </trkpt>
      <trkpt lat="47.12138" lon="4.68136">
        <ele>1328</ele>
        <time>2014-03-17T16:57:44Z</time>
      </trkpt>
      <trkpt lat="47.12137" lon="4.68135">
        <ele>1328</ele>
        <time>2014-03-17T16:57:46Z</time>
      </trkpt>
      <trkpt lat="47.12136" lon="4.68135">
        <ele>1328</ele>
        <time>2014-03-17T16:57:48Z</time>
      </trkpt>
      <trkpt lat="47.12134" lon="4.68131">
        <ele>1328</ele>
        <time>2014-03-17T16:57:52Z</time>
      </trkpt>
      <trkpt lat="47.12132" lon="4.6813">
        <ele>1328</ele>
        <time>2014-03-17T16:57:55Z</time>
      </trkpt>
      <trkpt lat="47.12131" lon="4.68128">
        <ele>1328</ele>
        <time>2014-03-17T16:57:57Z</time>
      </trkpt>
      <trkpt lat="47.12129" lon="4.68126">
        <ele>1328</ele>
        <time>2014-03-17T16:58:01Z</time>
      </trkpt>
      <trkpt lat="47.12127" lon="4.68125">
        <ele>1328</ele>
        <time>2014-03-17T16:58:04Z</time>
      </trkpt>
      <trkpt lat="47.12125" lon="4.68123">
        <ele>1328</ele>
        <time>2014-03-17T16:58:06Z</time>
      </trkpt>
      <trkpt lat="47.12123" lon="4.6812">
        <ele>1328</ele>
        <time>2014-03-17T16:58:10Z</time>
      </trkpt>
      <trkpt lat="47.12122" lon="4.68119">
        <ele>1328</ele>
        <time>2014-03-17T16:58:12Z</time>
      </trkpt>
      <trkpt lat="47.12121" lon="4.68117">
        <ele>1328</ele>
        <time>2014-03-17T16:58:15Z</time>
      </trkpt>
      <trkpt lat="47.12118" lon="4.68115">
        <ele>1328</ele>
        <time>2014-03-17T16:58:19Z</time>
      </trkpt>
      <trkpt lat="47.12117" lon="4.68113">
        <ele>1328</ele>
        <time>2014-03-17T16:58:21Z</time>
      </trkpt>
      <trkpt lat="47.12115" lon="4.68112">
        <ele>1328</ele>
        <time>2014-03-17T16:58:23Z</time>
      </trkpt>
      <trkpt lat="47.12112" lon="4.68109">
        <ele>1328</ele>
        <time>2014-03-17T16:58:28Z</time>
      </trkpt>
      <trkpt lat="47.12111" lon="4.68108">
        <ele>1328</ele>
        <time>2014-03-17T16:58:30Z</time>
      </trkpt>
      <trkpt lat="47.1211" lon="4.68106">
        <ele>1328</ele>
        <time>2014-03-17T16:58:32Z</time>
      </trkpt>
      <trkpt lat="47.12107" lon="4.68103">
        <ele>1328</ele>
        <time>2014-03-17T16:58:37Z</time>
      </trkpt>
      <trkpt lat="47.12106" lon="4.68102">
        <ele>1328</ele>
        <time>2014-03-17T16:58:39Z</time>
      </trkpt>
      <trkpt lat="47.12104" lon="4.681">
        <ele>1328</ele>
        <time>2014-03-17T16:58:41Z</time>
      </trkpt>
      <trkpt lat="47.12102" lon="4.68096">
        <ele>1328</ele>
        <time>2014-03-17T16:58:46Z</time>
      </trkpt>
      <trkpt lat="47.12101" lon="4.68095">
        <ele>1328</ele>
        <time>2014-03-17T16:58:48Z</time>
      </trkpt>
      <trkpt lat="47.121" lon="4.68093">
        <ele>1328</ele>
        <time>2014-03-17T16:58:50Z</time>
      </trkpt>
      <trkpt lat="47.12099" lon="4.68089">
        <ele>1328</ele>
        <time>2014-03-17T16:58:54Z</time>
      </trkpt>
      <trkpt lat="47.12098" lon="4.68087">
        <ele>1328</ele>
        <time>2014-03-17T16:58:57Z</time>
      </trkpt>
      <trkpt lat="47.12097" lon="4.68085">
        <ele>1328</ele>
        <time>2014-03-17T16:58:59Z</time>
      </trkpt>
      <trkpt lat="47.12096" lon="4.68082">
        <ele>1328</ele>
        <time>2014-03-17T16:59:03Z</time>
      </trkpt>
      <trkpt lat="47.12095" lon="4.6808">
        <ele>1328</ele>
        <time>2014-03-17T16:59:06Z</time>
      </trkpt>
      <trkpt lat="47.12094" lon="4.68078">
        <ele>1328</ele>
        <time>2014-03-17T16:59:08Z</time>
      </trkpt>
      <trkpt lat="47.12093" lon="4.68075">
        <ele>1328</ele>
        <time>2014-03-17T16:59:12Z</time>
      </trkpt>
      <trkpt lat="47.12092" lon="4.68073">
        <ele>1328</ele>
        <time>2014-03-17T16:59:14Z</time>
      </trkpt>
      <trkpt lat="47.12091" lon="4.68071">
        <ele>1328</ele>
        <time>2014-03-17T16:59:17Z</time>
      </trkpt>
      <trkpt lat="47.12089" lon="4.68067">
        <ele>1328</ele>
        <time>2014-03-17T16:59:21Z</time>
      </trkpt>
      <trkpt lat="47.12088" lon="4.68066">
        <ele>1328</ele>
        <time>2014-03-17T16:59:23Z</time>
      </trkpt>
      <trkpt lat="47.12087" lon="4.68065">
        <ele>1328</ele>
        <time>2014-03-17T16:59:25Z</time>
      </trkpt>
      <trkpt lat="47.12084" lon="4.68061">
        <ele>1328</ele>
        <time>2014-03-17T16:59:30Z</time>
      </trkpt>
      <trkpt lat="47.12083" lon="4.6806">
        <ele>1328</ele>
        <time>2014-03-17T16:59:32Z</time>
      </trkpt>
      <trkpt lat="47.12082" lon="4.68058">
        <ele>1328</ele>
        <time>2014-03-17T16:59:34Z</time>
      </trkpt>
      <trkpt lat="47.1208" lon="4.68055">
        <ele>1328</ele>
        <time>2014-03-17T16:59:39Z</time>
      </trkpt>
      <trkpt lat="47.12079" lon="4.68053">
        <ele>1328</ele>
        <time>2014-03-17T16:59:41Z</time>
      </trkpt>
      <trkpt lat="47.12078" lon="4.68052">
        <ele>1328</ele>
        <time>2014-03-17T16:59:43Z</time>
      </trkpt>
      <trkpt lat="47.12077" lon="4.6805">
        <ele>1328</ele>
        <time>2014-03-17T16:59:45Z</time>
      </trkpt>
      <trkpt lat="47.12075" lon="4.68046">
        <ele>1328</ele>
        <time>2014-03-17T16:59:50Z</time>
      </trkpt>
      <trkpt lat="47.12074" lon="4.68045">
        <ele>1328</ele>
        <time>2014-03-17T16:59:52Z</time>
      </trkpt>
      <trkpt lat="47.12073" lon="4.68044">
        <ele>1328</ele>
        <time>2014-03-17T16:59:54Z</time>
      </trkpt>
      <trkpt lat="47.12071" lon="4.68039">
        <ele>1328</ele>
        <time>2014-03-17T16:59:59Z</time>
      </trkpt>
      <trkpt lat="47.1207" lon="4.68038">
        <ele>1328</ele>
        <time>2014-03-17T17:00:01Z</time>
      </trkpt>
      <trkpt lat="47.12069" lon="4.68037">
        <ele>1328</ele>
        <time>2014-03-17T17:00:03Z</time>
      </trkpt>
      <trkpt lat="47.12066" lon="4.68033">
        <ele>1328</ele>
        <time>2014-03-17T17:00:08Z</time>
      </trkpt>
      <trkpt lat="47.12065" lon="4.6803">
        <ele>1328</ele>
        <time>2014-03-17T17:00:10Z</time>
      </trkpt>
      <trkpt lat="47.12064" lon="4.68029">
        <ele>1328</ele>
        <time>2014-03-17T17:00:12Z</time>
      </trkpt>
      <trkpt lat="47.12062" lon="4.68027">
        <ele>1328</ele>
        <time>2014-03-17T17:00:16Z</time>
      </trkpt>
      <trkpt lat="47.12061" lon="4.68025">
        <ele>1328</ele>
        <time>2014-03-17T17:00:19Z</time>
      </trkpt>
      <trkpt lat="47.12059" lon="4.68022">
        <ele>1328</ele>
        <time>2014-03-17T17:00:21Z</time>
      </trkpt>
      <trkpt lat="47.12057" lon="4.6802">
        <ele>1328</ele>
        <time>2014-03-17T17:00:25Z</time>
      </trkpt>
      <trkpt lat="47.12056" lon="4.68019">
        <ele>1328</ele>
        <time>2014-03-17T17:00:27Z</time>
      </trkpt>
      <trkpt lat="47.12054" lon="4.68016">
        <ele>1328</ele>
        <time>2014-03-17T17:00:30Z</time>
      </trkpt>
      <trkpt lat="47.12052" lon="4.68013">
        <ele>1328</ele>
        <time>2014-03-17T17:00:34Z</time>
      </trkpt>
      <trkpt lat="47.12051" lon="4.68011">
        <ele>1328</ele>
        <time>2014-03-17T17:00:36Z</time>
      </trkpt>
      <trkpt lat="47.12049" lon="4.68009">
        <ele>1328</ele>
        <time>2014-03-17T17:00:39Z</time>
      </trkpt>
      <trkpt lat="47.12046" lon="4.68004">
        <ele>1328</ele>
        <time>2014-03-17T17:00:43Z</time>
      </trkpt>
      <trkpt lat="47.12045" lon="4.68003">
        <ele>1328</ele>
        <time>2014-03-17T17:00:45Z</time>
      </trkpt>
      <trkpt lat="47.12044" lon="4.68001">
        <ele>1328</ele>
        <time>2014-03-17T17:00:47Z</time>
      </trkpt>
      <trkpt lat="47.12042" lon="4.67998">
        <ele>1328</ele>
        <time>2014-03-17T17:00:52Z</time>
      </trkpt>
      <trkpt lat="47.1204" lon="4.67997">
        <ele>1328</ele>
        <time>2014-03-17T17:00:54Z</time>
      </trkpt>
      <trkpt lat="47.12039" lon="4.67996">
        <ele>1328</ele>
        <time>2014-03-17T17:00:56Z</time>
      </trkpt>
      <trkpt lat="47.12035" lon="4.67994">
        <ele>1328</ele>
        <time>2014-03-17T17:01:01Z</time>
      </trkpt>
      <trkpt lat="47.12034" lon="4.67992">
        <ele>1328</ele>
        <time>2014-03-17T17:01:03Z</time>
      </trkpt>
      <trkpt lat="47.12033" lon="4.67992">
        <ele>1328</ele>
        <time>2014-03-17T17:01:05Z</time>
      </trkpt>
      <trkpt lat="47.12031" lon="4.6799">
        <ele>1328</ele>
        <time>2014-03-17T17:01:10Z</time>
      </trkpt>
      <trkpt lat="47.12029" lon="4.67988">
        <ele>1328</ele>
        <time>2014-03-17T17:01:12Z</time>
      </trkpt>
      <trkpt lat="47.12027" lon="4.67987">
        <ele>1328</ele>
        <time>2014-03-17T17:01:14Z</time>
      </trkpt>
      <trkpt lat="47.12025" lon="4.67985">
        <ele>1328</ele>
        <time>2014-03-17T17:01:18Z</time>
      </trkpt>
      <trkpt lat="47.12023" lon="4.67984">
        <ele>1328</ele>
        <time>2014-03-17T17:01:21Z</time>
      </trkpt>
      <trkpt lat="47.12022" lon="4.67982">
        <ele>1328</ele>
        <time>2014-03-17T17:01:23Z</time>
      </trkpt>
      <trkpt lat="47.12019" lon="4.6798">
        <ele>1328</ele>
        <time>2014-03-17T17:01:27Z</time>
      </trkpt>
      <trkpt lat="47.12018" lon="4.67979">
        <ele>1328</ele>
        <time>2014-03-17T17:01:30Z</time>
      </trkpt>
      <trkpt lat="47.12016" lon="4.67978">
        <ele>1328</ele>
        <time>2014-03-17T17:01:32Z</time>
      </trkpt>
      <trkpt lat="47.12014" lon="4.67978">
        <ele>1328</ele>
        <time>2014-03-17T17:01:36Z</time>
      </trkpt>
      <trkpt lat="47.12013" lon="4.67977">
        <ele>1328</ele>
        <time>2014-03-17T17:01:38Z</time>
      </trkpt>
      <trkpt lat="47.12012" lon="4.67976">
        <ele>1328</ele>
        <time>2014-03-17T17:01:41Z</time>
      </trkpt>
      <trkpt lat="47.1201" lon="4.67974">
        <ele>1328</ele>
        <time>2014-03-17T17:01:45Z</time>
      </trkpt>
      <trkpt lat="47.12009" lon="4.67974">
        <ele>1328</ele>
        <time>2014-03-17T17:01:47Z</time>
      </trkpt>
      <trkpt lat="47.12007" lon="4.67973">
        <ele>1328</ele>
        <time>2014-03-17T17:01:50Z</time>
      </trkpt>
      <trkpt lat="47.12006" lon="4.67972">
        <ele>1328</ele>
        <time>2014-03-17T17:01:52Z</time>
      </trkpt>
      <trkpt lat="47.12003" lon="4.67971">
        <ele>1328</ele>
        <time>2014-03-17T17:01:56Z</time>
      </trkpt>
      <trkpt lat="47.12002" lon="4.6797">
        <ele>1328</ele>
        <time>2014-03-17T17:01:58Z</time>
      </trkpt>
      <trkpt lat="47.12001" lon="4.67969">
        <ele>1328</ele>
        <time>2014-03-17T17:02:01Z</time>
      </trkpt>
      <trkpt lat="47.11998" lon="4.67967">
        <ele>1328</ele>
        <time>2014-03-17T17:02:05Z</time>
      </trkpt>
      <trkpt lat="47.11997" lon="4.67966">
        <ele>1328</ele>
        <time>2014-03-17T17:02:07Z</time>
      </trkpt>
      <trkpt lat="47.11996" lon="4.67965">
        <ele>1328</ele>
        <time>2014-03-17T17:02:09Z</time>
      </trkpt>
      <trkpt lat="47.11993" lon="4.67963">
        <ele>1328</ele>
        <time>2014-03-17T17:02:14Z</time>
      </trkpt>
      <trkpt lat="47.11992" lon="4.67962">
        <ele>1328</ele>
        <time>2014-03-17T17:02:16Z</time>
      </trkpt>
      <trkpt lat="47.11991" lon="4.67961">
        <ele>1328</ele>
        <time>2014-03-17T17:02:18Z</time>
      </trkpt>
      <trkpt lat="47.11988" lon="4.67958">
        <ele>1328</ele>
        <time>2014-03-17T17:02:23Z</time>
      </trkpt>
      <trkpt lat="47.11988" lon="4.67958">
        <ele>1328</ele>
        <time>2014-03-17T17:02:25Z</time>
      </trkpt>
      <trkpt lat="47.11988" lon="4.67957">
        <ele>1328</ele>
        <time>2014-03-17T17:02:27Z</time>
      </trkpt>
      <trkpt lat="47.11986" lon="4.67955">
        <ele>1328</ele>
        <time>2014-03-17T17:02:32Z</time>
      </trkpt>
      <trkpt lat="47.11985" lon="4.67954">
        <ele>1328</ele>
        <time>2014-03-17T17:02:34Z</time>
      </trkpt>
      <trkpt lat="47.11984" lon="4.67953">
        <ele>1328</ele>
        <time>2014-03-17T17:02:36Z</time>
      </trkpt>
      <trkpt lat="47.11983" lon="4.67951">
        <ele>1328</ele>
        <time>2014-03-17T17:02:40Z</time>
      </trkpt>
      <trkpt lat="47.11982" lon="4.67948">
        <ele>1328</ele>
        <time>2014-03-17T17:02:43Z</time>
      </trkpt>
      <trkpt lat="47.1198" lon="4.67947">
        <ele>1328</ele>
        <time>2014-03-17T17:02:45Z</time>
      </trkpt>
      <trkpt lat="47.11979" lon="4.67944">
        <ele>1328</ele>
        <time>2014-03-17T17:02:49Z</time>
      </trkpt>
      <trkpt lat="47.11979" lon="4.67943">
        <ele>1328</ele>
        <time>2014-03-17T17:02:51Z</time>
      </trkpt>
      <trkpt lat="47.11978" lon="4.67941">
        <ele>1328</ele>
        <time>2014-03-17T17:02:54Z</time>
      </trkpt>
      <trkpt lat="47.11977" lon="4.67938">
        <ele>1328</ele>
        <time>2014-03-17T17:02:58Z</time>
      </trkpt>
      <trkpt lat="47.11977" lon="4.67936">
        <ele>1328</ele>
        <time>2014-03-17T17:03:00Z</time>
      </trkpt>
      <trkpt lat="47.11976" lon="4.67935">
        <ele>1328</ele>
        <time>2014-03-17T17:03:03Z</time>
      </trkpt>
      <trkpt lat="47.11974" lon="4.67931">
        <ele>1328</ele>
        <time>2014-03-17T17:03:07Z</time>
      </trkpt>
      <trkpt lat="47.11973" lon="4.6793">
        <ele>1328</ele>
        <time>2014-03-17T17:03:09Z</time>
      </trkpt>
      <trkpt lat="47.11973" lon="4.67929">
        <ele>1328</ele>
        <time>2014-03-17T17:03:11Z</time>
      </trkpt>
      <trkpt lat="47.11971" lon="4.67927">
        <ele>1328</ele>
        <time>2014-03-17T17:03:16Z</time>
      </trkpt>
      <trkpt lat="47.11971" lon="4.67926">
        <ele>1328</ele>
        <time>2014-03-17T17:03:18Z</time>
      </trkpt>
      <trkpt lat="47.1197" lon="4.67925">
        <ele>1328</ele>
        <time>2014-03-17T17:03:20Z</time>
      </trkpt>
      <trkpt lat="47.11969" lon="4.67923">
        <ele>1328</ele>
        <time>2014-03-17T17:03:25Z</time>
      </trkpt>
      <trkpt lat="47.11969" lon="4.67923">
        <ele>1328</ele>
        <time>2014-03-17T17:03:27Z</time>
      </trkpt>
      <trkpt lat="47.11968" lon="4.67921">
        <ele>1328</ele>
        <time>2014-03-17T17:03:29Z</time>
      </trkpt>
      <trkpt lat="47.11967" lon="4.6792">
        <ele>1328</ele>
        <time>2014-03-17T17:03:34Z</time>
      </trkpt>
      <trkpt lat="47.11967" lon="4.67918">
        <ele>1328</ele>
        <time>2014-03-17T17:03:36Z</time>
      </trkpt>
      <trkpt lat="47.11966" lon="4.67917">
        <ele>1328</ele>
        <time>2014-03-17T17:03:38Z</time>
      </trkpt>
      <trkpt lat="47.11965" lon="4.67915">
        <ele>1328</ele>
        <time>2014-03-17T17:03:42Z</time>
      </trkpt>
      <trkpt lat="47.11965" lon="4.67914">
        <ele>1328</ele>
        <time>2014-03-17T17:03:45Z</time>
      </trkpt>
      <trkpt lat="47.11965" lon="4.67912">
        <ele>1328</ele>
        <time>2014-03-17T17:03:47Z</time>
      </trkpt>
      <trkpt lat="47.11965" lon="4.6791">
        <ele>1328</ele>
        <time>2014-03-17T17:03:51Z</time>
      </trkpt>
      <trkpt lat="47.11964" lon="4.6791">
        <ele>1328</ele>
        <time>2014-03-17T17:03:53Z</time>
      </trkpt>
      <trkpt lat="47.11964" lon="4.67909">
        <ele>1328</ele>
        <time>2014-03-17T17:03:56Z</time>
      </trkpt>
      <trkpt lat="47.11964" lon="4.67907">
        <ele>1328</ele>
        <time>2014-03-17T17:03:58Z</time>
      </trkpt>
      <trkpt lat="47.11963" lon="4.67906">
        <ele>1328</ele>
        <time>2014-03-17T17:04:02Z</time>
      </trkpt>
      <trkpt lat="47.11962" lon="4.67905">
        <ele>1328</ele>
        <time>2014-03-17T17:04:05Z</time>
      </trkpt>
      <trkpt lat="47.11962" lon="4.67905">
        <ele>1328</ele>
        <time>2014-03-17T17:04:07Z</time>
      </trkpt>
      <trkpt lat="47.11962" lon="4.67905">
        <ele>1328</ele>
        <time>2014-03-17T17:04:11Z</time>
      </trkpt>
      <trkpt lat="47.11961" lon="4.67904">
        <ele>1328</ele>
        <time>2014-03-17T17:04:13Z</time>
      </trkpt>
      <trkpt lat="47.11961" lon="4.67905">
        <ele>1328</ele>
        <time>2014-03-17T17:04:16Z</time>
      </trkpt>
      <trkpt lat="47.11961" lon="4.67904">
        <ele>1328</ele>
        <time>2014-03-17T17:04:20Z</time>
      </trkpt>
      <trkpt lat="47.11962" lon="4.67904">
        <ele>1328</ele>
        <time>2014-03-17T17:04:22Z</time>
      </trkpt>
      <trkpt lat="47.11962" lon="4.67904">
        <ele>1328</ele>
        <time>2014-03-17T17:04:24Z</time>
      </trkpt>
      <trkpt lat="47.11963" lon="4.67903">
        <ele>1328</ele>
        <time>2014-03-17T17:04:29Z</time>
      </trkpt>
      <trkpt lat="47.11963" lon="4.67902">
        <ele>1328</ele>
        <time>2014-03-17T17:04:31Z</time>
      </trkpt>
      <trkpt lat="47.11963" lon="4.67902">
        <ele>1328</ele>
        <time>2014-03-17T17:04:33Z</time>
      </trkpt>
      <trkpt lat="47.11963" lon="4.67899">
        <ele>1328</ele>
        <time>2014-03-17T17:04:38Z</time>
      </trkpt>
      <trkpt lat="47.11964" lon="4.67898">
        <ele>1328</ele>
        <time>2014-03-17T17:04:40Z</time>
      </trkpt>
      <trkpt lat="47.11964" lon="4.67897">
        <ele>1328</ele>
        <time>2014-03-17T17:04:42Z</time>
      </trkpt>
      <trkpt lat="47.11963" lon="4.67895">
        <ele>1328</ele>
        <time>2014-03-17T17:04:47Z</time>
      </trkpt>
      <trkpt lat="47.11963" lon="4.67894">
        <ele>1328</ele>
        <time>2014-03-17T17:04:49Z</time>
      </trkpt>
      <trkpt lat="47.11963" lon="4.67893">
        <ele>1328</ele>
        <time>2014-03-17T17:04:51Z</time>
      </trkpt>
      <trkpt lat="47.11962" lon="4.67891">
        <ele>1328</ele>
        <time>2014-03-17T17:04:55Z</time>
      </trkpt>
      <trkpt lat="47.11962" lon="4.6789">
        <ele>1328</ele>
        <time>2014-03-17T17:04:58Z</time>
      </trkpt>
      <trkpt lat="47.11961" lon="4.67889">
        <ele>1328</ele>
        <time>2014-03-17T17:05:00Z</time>
      </trkpt>
      <trkpt lat="47.11962" lon="4.67888">
        <ele>1328</ele>
        <time>2014-03-17T17:05:04Z</time>
      </trkpt>
      <trkpt lat="47.11962" lon="4.67887">
        <ele>1328</ele>
        <time>2014-03-17T17:05:06Z</time>
      </trkpt>
      <trkpt lat="47.11962" lon="4.67885">
        <ele>1328</ele>
        <time>2014-03-17T17:05:09Z</time>
      </trkpt>
      <trkpt lat="47.11962" lon="4.67884">
        <ele>1328</ele>
        <time>2014-03-17T17:05:13Z</time>
      </trkpt>
      <trkpt lat="47.11962" lon="4.67883">
        <ele>1328</ele>
        <time>2014-03-17T17:05:15Z</time>
      </trkpt>
      <trkpt lat="47.11963" lon="4.67882">
        <ele>1328</ele>
        <time>2014-03-17T17:05:18Z</time>
      </trkpt>
      <trkpt lat="47.11965" lon="4.67878">
        <ele>1328</ele>
        <time>2014-03-17T17:05:22Z</time>
      </trkpt>
      <trkpt lat="47.11967" lon="4.67877">
        <ele>1328</ele>
        <time>2014-03-17T17:05:24Z</time>
      </trkpt>
      <trkpt lat="47.11969" lon="4.67876">
        <ele>1328</ele>
        <time>2014-03-17T17:05:26Z</time>
      </trkpt>
      <trkpt lat="47.11973" lon="4.67873">
        <ele>1328</ele>
        <time>2014-03-17T17:05:31Z</time>
      </trkpt>
      <trkpt lat="47.11974" lon="4.67872">
        <ele>1328</ele>
        <time>2014-03-17T17:05:33Z</time>
      </trkpt>
      <trkpt lat="47.11975" lon="4.67871">
        <ele>1328</ele>
        <time>2014-03-17T17:05:35Z</time>
      </trkpt>
      <trkpt lat="47.11977" lon="4.67869">
        <ele>1328</ele>
        <time>2014-03-17T17:05:40Z</time>
      </trkpt>
      <trkpt lat="47.11978" lon="4.67868">
        <ele>1328</ele>
        <time>2014-03-17T17:05:42Z</time>
      </trkpt>
      <trkpt lat="47.1198" lon="4.67867">
        <ele>1328</ele>
        <time>2014-03-17T17:05:44Z</time>
      </trkpt>
      <trkpt lat="47.11984" lon="4.67864">
        <ele>1328</ele>
        <time>2014-03-17T17:05:49Z</time>
      </trkpt>
      <trkpt lat="47.11986" lon="4.67863">
        <ele>1328</ele>
        <time>2014-03-17T17:05:51Z</time>
      </trkpt>
      <trkpt lat="47.11988" lon="4.67862">
        <ele>1328</ele>
        <time>2014-03-17T17:05:53Z</time>
      </trkpt>
      <trkpt lat="47.11991" lon="4.67857">
        <ele>1328</ele>
        <time>2014-03-17T17:05:57Z</time>
      </trkpt>
      <trkpt lat="47.11992" lon="4.67856">
        <ele>1328</ele>
        <time>2014-03-17T17:06:00Z</time>
      </trkpt>
      <trkpt lat="47.11995" lon="4.67855">
        <ele>1328</ele>
        <time>2014-03-17T17:06:02Z</time>
      </trkpt>
      <trkpt lat="47.11998" lon="4.67853">
        <ele>1328</ele>
        <time>2014-03-17T17:06:06Z</time>
      </trkpt>
      <trkpt lat="47.11999" lon="4.67852">
        <ele>1328</ele>
        <time>2014-03-17T17:06:08Z</time>
      </trkpt>
      <trkpt lat="47.12001" lon="4.6785">
        <ele>1328</ele>
        <time>2014-03-17T17:06:11Z</time>
      </trkpt>
      <trkpt lat="47.12002" lon="4.67849">
        <ele>1328</ele>
        <time>2014-03-17T17:06:13Z</time>
      </trkpt>
      <trkpt lat="47.12006" lon="4.67847">
        <ele>1328</ele>
        <time>2014-03-17T17:06:17Z</time>
      </trkpt>
      <trkpt lat="47.12008" lon="4.67846">
        <ele>1328</ele>
        <time>2014-03-17T17:06:19Z</time>
      </trkpt>
      <trkpt lat="47.12011" lon="4.67844">
        <ele>1328</ele>
        <time>2014-03-17T17:06:22Z</time>
      </trkpt>
      <trkpt lat="47.12015" lon="4.67843">
        <ele>1328</ele>
        <time>2014-03-17T17:06:26Z</time>
      </trkpt>
      <trkpt lat="47.12017" lon="4.67842">
        <ele>1328</ele>
        <time>2014-03-17T17:06:28Z</time>
      </trkpt>
      <trkpt lat="47.12019" lon="4.6784">
        <ele>1328</ele>
        <time>2014-03-17T17:06:31Z</time>
      </trkpt>
      <trkpt lat="47.12025" lon="4.67837">
        <ele>1328</ele>
        <time>2014-03-17T17:06:35Z</time>
      </trkpt>
      <trkpt lat="47.12027" lon="4.67835">
        <ele>1328</ele>
        <time>2014-03-17T17:06:37Z</time>
      </trkpt>
      <trkpt lat="47.1203" lon="4.67834">
        <ele>1328</ele>
        <time>2014-03-17T17:06:39Z</time>
      </trkpt>
      <trkpt lat="47.12035" lon="4.67831">
        <ele>1328</ele>
        <time>2014-03-17T17:06:44Z</time>
      </trkpt>
      <trkpt lat="47.12036" lon="4.6783">
        <ele>1328</ele>
        <time>2014-03-17T17:06:46Z</time>
      </trkpt>
      <trkpt lat="47.12038" lon="4.67828">
        <ele>1328</ele>
        <time>2014-03-17T17:06:48Z</time>
      </trkpt>
      <trkpt lat="47.12042" lon="4.67824">
        <ele>1328</ele>
        <time>2014-03-17T17:06:53Z</time>
      </trkpt>
      <trkpt lat="47.12044" lon="4.67822">
        <ele>1328</ele>
        <time>2014-03-17T17:06:55Z</time>
      </trkpt>
      <trkpt lat="47.12046" lon="4.6782">
        <ele>1328</ele>
        <time>2014-03-17T17:06:57Z</time>
      </trkpt>
      <trkpt lat="47.1205" lon="4.67817">
        <ele>1328</ele>
        <time>2014-03-17T17:07:01Z</time>
      </trkpt>
      <trkpt lat="47.12052" lon="4.67814">
        <ele>1328</ele>
        <time>2014-03-17T17:07:04Z</time>
      </trkpt>
      <trkpt lat="47.12054" lon="4.67812">
        <ele>1328</ele>
        <time>2014-03-17T17:07:06Z</time>
      </trkpt>
      <trkpt lat="47.12058" lon="4.67809">
        <ele>1328</ele>
        <time>2014-03-17T17:07:10Z</time>
      </trkpt>
      <trkpt lat="47.1206" lon="4.67808">
        <ele>1328</ele>
        <time>2014-03-17T17:07:13Z</time>
      </trkpt>
      <trkpt lat="47.12064" lon="4.67806">
        <ele>1328</ele>
        <time>2014-03-17T17:07:15Z</time>
      </trkpt>
      <trkpt lat="47.12068" lon="4.67804">
        <ele>1328</ele>
        <time>2014-03-17T17:07:19Z</time>
      </trkpt>
      <trkpt lat="47.1207" lon="4.67803">
        <ele>1328</ele>
        <time>2014-03-17T17:07:21Z</time>
      </trkpt>
      <trkpt lat="47.12073" lon="4.67801">
        <ele>1328</ele>
        <time>2014-03-17T17:07:24Z</time>
      </trkpt>
      <trkpt lat="47.12077" lon="4.67799">
        <ele>1328</ele>
        <time>2014-03-17T17:07:28Z</time>
      </trkpt>
      <trkpt lat="47.12079" lon="4.67798">
        <ele>1328</ele>
        <time>2014-03-17T17:07:30Z</time>
      </trkpt>
      <trkpt lat="47.12081" lon="4.67796">
        <ele>1328</ele>
        <time>2014-03-17T17:07:32Z</time>
      </trkpt>
      <trkpt lat="47.12086" lon="4.67794">
        <ele>1328</ele>
        <time>2014-03-17T17:07:37Z</time>
      </trkpt>
      <trkpt lat="47.12088" lon="4.67793">
        <ele>1328</ele>
        <time>2014-03-17T17:07:39Z</time>
      </trkpt>
      <trkpt lat="47.1209" lon="4.67792">
        <ele>1328</ele>
        <time>2014-03-17T17:07:41Z</time>
      </trkpt>
      <trkpt lat="47.12095" lon="4.67789">
        <ele>1328</ele>
        <time>2014-03-17T17:07:46Z</time>
      </trkpt>
      <trkpt lat="47.12097" lon="4.67787">
        <ele>1328</ele>
        <time>2014-03-17T17:07:48Z</time>
      </trkpt>
      <trkpt lat="47.12099" lon="4.67785">
        <ele>1328</ele>
        <time>2014-03-17T17:07:50Z</time>
      </trkpt>
      <trkpt lat="47.12103" lon="4.67781">
        <ele>1328</ele>
        <time>2014-03-17T17:07:55Z</time>
      </trkpt>
      <trkpt lat="47.12105" lon="4.67779">
        <ele>1328</ele>
        <time>2014-03-17T17:07:57Z</time>
      </trkpt>
      <trkpt lat="47.12106" lon="4.67777">
        <ele>1328</ele>
        <time>2014-03-17T17:07:59Z</time>
      </trkpt>
      <trkpt lat="47.12108" lon="4.67772">
        <ele>1328</ele>
        <time>2014-03-17T17:08:03Z</time>
      </trkpt>
      <trkpt lat="47.1211" lon="4.67768">
        <ele>1328</ele>
        <time>2014-03-17T17:08:06Z</time>
      </trkpt>
      <trkpt lat="47.1211" lon="4.67766">
        <ele>1328</ele>
        <time>2014-03-17T17:08:08Z</time>
      </trkpt>
      <trkpt lat="47.12111" lon="4.6776">
        <ele>1328</ele>
        <time>2014-03-17T17:08:12Z</time>
      </trkpt>
      <trkpt lat="47.12112" lon="4.67758">
        <ele>1328</ele>
        <time>2014-03-17T17:08:15Z</time>
      </trkpt>
      <trkpt lat="47.12112" lon="4.67754">
        <ele>1328</ele>
        <time>2014-03-17T17:08:17Z</time>
      </trkpt>
      <trkpt lat="47.12112" lon="4.67751">
        <ele>1328</ele>
        <time>2014-03-17T17:08:19Z</time>
      </trkpt>
      <trkpt lat="47.12112" lon="4.67747">
        <ele>1328</ele>
        <time>2014-03-17T17:08:23Z</time>
      </trkpt>
      <trkpt lat="47.12112" lon="4.67745">
        <ele>1328</ele>
        <time>2014-03-17T17:08:26Z</time>
      </trkpt>
      <trkpt lat="47.12112" lon="4.67742">
        <ele>1328</ele>
        <time>2014-03-17T17:08:28Z</time>
      </trkpt>
      <trkpt lat="47.12111" lon="4.67737">
        <ele>1328</ele>
        <time>2014-03-17T17:08:32Z</time>
      </trkpt>
      <trkpt lat="47.12112" lon="4.67735">
        <ele>1328</ele>
        <time>2014-03-17T17:08:34Z</time>
      </trkpt>
      <trkpt lat="47.12111" lon="4.6773">
        <ele>1328</ele>
        <time>2014-03-17T17:08:37Z</time>
      </trkpt>
      <trkpt lat="47.12109" lon="4.67723">
        <ele>1328</ele>
        <time>2014-03-17T17:08:41Z</time>
      </trkpt>
      <trkpt lat="47.12109" lon="4.67719">
        <ele>1328</ele>
        <time>2014-03-17T17:08:43Z</time>
      </trkpt>
      <trkpt lat="47.12108" lon="4.67716">
        <ele>1328</ele>
        <time>2014-03-17T17:08:46Z</time>
      </trkpt>
      <trkpt lat="47.12105" lon="4.67708">
        <ele>1328</ele>
        <time>2014-03-17T17:08:50Z</time>
      </trkpt>
      <trkpt lat="47.12104" lon="4.67704">
        <ele>1328</ele>
        <time>2014-03-17T17:08:52Z</time>
      </trkpt>
      <trkpt lat="47.12103" lon="4.67701">
        <ele>1328</ele>
        <time>2014-03-17T17:08:54Z</time>
      </trkpt>
      <trkpt lat="47.12101" lon="4.67693">
        <ele>1328</ele>
        <time>2014-03-17T17:08:59Z</time>
      </trkpt>
      <trkpt lat="47.121" lon="4.6769">
        <ele>1328</ele>
        <time>2014-03-17T17:09:01Z</time>
      </trkpt>
      <trkpt lat="47.12098" lon="4.67687">
        <ele>1328</ele>
        <time>2014-03-17T17:09:03Z</time>
      </trkpt>
      <trkpt lat="47.12095" lon="4.67679">
        <ele>1328</ele>
        <time>2014-03-17T17:09:08Z</time>
      </trkpt>
      <trkpt lat="47.12093" lon="4.67677">
        <ele>1328</ele>
        <time>2014-03-17T17:09:10Z</time>
      </trkpt>
      <trkpt lat="47.12091" lon="4.67674">
        <ele>1328</ele>
        <time>2014-03-17T17:09:12Z</time>
      </trkpt>
      <trkpt lat="47.12087" lon="4.67668">
        <ele>1328</ele>
        <time>2014-03-17T17:09:17Z</time>
      </trkpt>
      <trkpt lat="47.12085" lon="4.67666">
        <ele>1328</ele>
        <time>2014-03-17T17:09:19Z</time>
      </trkpt>
      <trkpt lat="47.12084" lon="4.67664">
        <ele>1328</ele>
        <time>2014-03-17T17:09:21Z</time>
      </trkpt>
      <trkpt lat="47.1208" lon="4.67659">
        <ele>1328</ele>
        <time>2014-03-17T17:09:26Z</time>
      </trkpt>
      <trkpt lat="47.12077" lon="4.67656">
        <ele>1328</ele>
        <time>2014-03-17T17:09:28Z</time>
      </trkpt>
      <trkpt lat="47.12076" lon="4.67654">
        <ele>1328</ele>
        <time>2014-03-17T17:09:30Z</time>
      </trkpt>
      <trkpt lat="47.12072" lon="4.6765">
        <ele>1328</ele>
        <time>2014-03-17T17:09:34Z</time>
      </trkpt>
      <trkpt lat="47.1207" lon="4.67648">
        <ele>1328</ele>
        <time>2014-03-17T17:09:37Z</time>
      </trkpt>
      <trkpt lat="47.12067" lon="4.67645">
        <ele>1328</ele>
        <time>2014-03-17T17:09:39Z</time>
      </trkpt>
      <trkpt lat="47.12064" lon="4.67641">
        <ele>1328</ele>
        <time>2014-03-17T17:09:43Z</time>
      </trkpt>
      <trkpt lat="47.12062" lon="4.67639">
        <ele>1328</ele>
        <time>2014-03-17T17:09:45Z</time>
      </trkpt>
      <trkpt lat="47.12059" lon="4.67636">
        <ele>1328</ele>
        <time>2014-03-17T17:09:48Z</time>
      </trkpt>
      <trkpt lat="47.12056" lon="4.67632">
        <ele>1328</ele>
        <time>2014-03-17T17:09:52Z</time>
      </trkpt>
      <trkpt lat="47.12054" lon="4.67629">
        <ele>1328</ele>
        <time>2014-03-17T17:09:54Z</time>
      </trkpt>
      <trkpt lat="47.12052" lon="4.67627">
        <ele>1328</ele>
        <time>2014-03-17T17:09:57Z</time>
      </trkpt>
      <trkpt lat="47.12048" lon="4.67621">
        <ele>1328</ele>
        <time>2014-03-17T17:10:01Z</time>
      </trkpt>
      <trkpt lat="47.12046" lon="4.6762">
        <ele>1328</ele>
        <time>2014-03-17T17:10:03Z</time>
      </trkpt>
      <trkpt lat="47.12044" lon="4.67618">
        <ele>1328</ele>
        <time>2014-03-17T17:10:05Z</time>
      </trkpt>
      <trkpt lat="47.1204" lon="4.67613">
        <ele>1328</ele>
        <time>2014-03-17T17:10:10Z</time>
      </trkpt>
      <trkpt lat="47.12038" lon="4.6761">
        <ele>1328</ele>
        <time>2014-03-17T17:10:12Z</time>
      </trkpt>
      <trkpt lat="47.12037" lon="4.67608">
        <ele>1328</ele>
        <time>2014-03-17T17:10:14Z</time>
      </trkpt>
      <trkpt lat="47.12033" lon="4.67603">
        <ele>1328</ele>
        <time>2014-03-17T17:10:19Z</time>
      </trkpt>
      <trkpt lat="47.12031" lon="4.67601">
        <ele>1328</ele>
        <time>2014-03-17T17:10:21Z</time>
      </trkpt>
      <trkpt lat="47.1203" lon="4.67599">
        <ele>1328</ele>
        <time>2014-03-17T17:10:23Z</time>
      </trkpt>
      <trkpt lat="47.12028" lon="4.67597">
        <ele>1328</ele>
        <time>2014-03-17T17:10:25Z</time>
      </trkpt>
      <trkpt lat="47.12026" lon="4.67595">
        <ele>1328</ele>
        <time>2014-03-17T17:10:30Z</time>
      </trkpt>
      <trkpt lat="47.12024" lon="4.67595">
        <ele>1328</ele>
        <time>2014-03-17T17:10:32Z</time>
      </trkpt>
      <trkpt lat="47.12022" lon="4.67594">
        <ele>1328</ele>
        <time>2014-03-17T17:10:34Z</time>
      </trkpt>
      <trkpt lat="47.12019" lon="4.67592">
        <ele>1328</ele>
        <time>2014-03-17T17:10:39Z</time>
      </trkpt>
      <trkpt lat="47.12016" lon="4.67591">
        <ele>1328</ele>
        <time>2014-03-17T17:10:41Z</time>
      </trkpt>
      <trkpt lat="47.12015" lon="4.6759">
        <ele>1328</ele>
        <time>2014-03-17T17:10:43Z</time>
      </trkpt>
      <trkpt lat="47.12011" lon="4.67588">
        <ele>1328</ele>
        <time>2014-03-17T17:10:47Z</time>
      </trkpt>
      <trkpt lat="47.12008" lon="4.67586">
        <ele>1328</ele>
        <time>2014-03-17T17:10:50Z</time>
      </trkpt>
      <trkpt lat="47.12006" lon="4.67584">
        <ele>1328</ele>
        <time>2014-03-17T17:10:52Z</time>
      </trkpt>
      <trkpt lat="47.12003" lon="4.6758">
        <ele>1328</ele>
        <time>2014-03-17T17:10:56Z</time>
      </trkpt>
      <trkpt lat="47.12001" lon="4.67579">
        <ele>1328</ele>
        <time>2014-03-17T17:10:58Z</time>
      </trkpt>
      <trkpt lat="47.11998" lon="4.67578">
        <ele>1328</ele>
        <time>2014-03-17T17:11:01Z</time>
      </trkpt>
      <trkpt lat="47.11994" lon="4.67576">
        <ele>1328</ele>
        <time>2014-03-17T17:11:05Z</time>
      </trkpt>
      <trkpt lat="47.11992" lon="4.67574">
        <ele>1328</ele>
        <time>2014-03-17T17:11:07Z</time>
      </trkpt>
      <trkpt lat="47.1199" lon="4.67573">
        <ele>1328</ele>
        <time>2014-03-17T17:11:10Z</time>
      </trkpt>
      <trkpt lat="47.11985" lon="4.67569">
        <ele>1328</ele>
        <time>2014-03-17T17:11:14Z</time>
      </trkpt>
      <trkpt lat="47.11983" lon="4.67567">
        <ele>1328</ele>
        <time>2014-03-17T17:11:16Z</time>
      </trkpt>
      <trkpt lat="47.11982" lon="4.67566">
        <ele>1328</ele>
        <time>2014-03-17T17:11:18Z</time>
      </trkpt>
      <trkpt lat="47.11976" lon="4.67562">
        <ele>1328</ele>
        <time>2014-03-17T17:11:23Z</time>
      </trkpt>
      <trkpt lat="47.11975" lon="4.67561">
        <ele>1328</ele>
        <time>2014-03-17T17:11:25Z</time>
      </trkpt>
      <trkpt lat="47.11973" lon="4.6756">
        <ele>1328</ele>
        <time>2014-03-17T17:11:27Z</time>
      </trkpt>
      <trkpt lat="47.11968" lon="4.67557">
        <ele>1328</ele>
        <time>2014-03-17T17:11:32Z</time>
      </trkpt>
      <trkpt lat="47.11966" lon="4.67555">
        <ele>1328</ele>
        <time>2014-03-17T17:11:34Z</time>
      </trkpt>
      <trkpt lat="47.11964" lon="4.67553">
        <ele>1328</ele>
        <time>2014-03-17T17:11:36Z</time>
      </trkpt>
      <trkpt lat="47.1196" lon="4.67549">
        <ele>1328</ele>
        <time>2014-03-17T17:11:41Z</time>
      </trkpt>
      <trkpt lat="47.11957" lon="4.67547">
        <ele>1328</ele>
        <time>2014-03-17T17:11:43Z</time>
      </trkpt>
      <trkpt lat="47.11955" lon="4.67545">
        <ele>1328</ele>
        <time>2014-03-17T17:11:45Z</time>
      </trkpt>
      <trkpt lat="47.11951" lon="4.67542">
        <ele>1328</ele>
        <time>2014-03-17T17:11:49Z</time>
      </trkpt>
      <trkpt lat="47.11949" lon="4.67541">
        <ele>1328</ele>
        <time>2014-03-17T17:11:52Z</time>
      </trkpt>
      <trkpt lat="47.11947" lon="4.67539">
        <ele>1328</ele>
        <time>2014-03-17T17:11:54Z</time>
      </trkpt>
      <trkpt lat="47.11942" lon="4.67535">
        <ele>1328</ele>
        <time>2014-03-17T17:11:58Z</time>
      </trkpt>
      <trkpt lat="47.11941" lon="4.67532">
        <ele>1328</ele>
        <time>2014-03-17T17:12:00Z</time>
      </trkpt>
      <trkpt lat="47.11937" lon="4.67529">
        <ele>1328</ele>
        <time>2014-03-17T17:12:03Z</time>
      </trkpt>
      <trkpt lat="47.11934" lon="4.67525">
        <ele>1328</ele>
        <time>2014-03-17T17:12:07Z</time>
      </trkpt>
      <trkpt lat="47.11931" lon="4.67523">
        <ele>1328</ele>
        <time>2014-03-17T17:12:09Z</time>
      </trkpt>
      <trkpt lat="47.11929" lon="4.67521">
        <ele>1328</ele>
        <time>2014-03-17T17:12:12Z</time>
      </trkpt>
      <trkpt lat="47.11924" lon="4.67517">
        <ele>1328</ele>
        <time>2014-03-17T17:12:16Z</time>
      </trkpt>
      <trkpt lat="47.11922" lon="4.67515">
        <ele>1328</ele>
        <time>2014-03-17T17:12:18Z</time>
      </trkpt>
      <trkpt lat="47.1192" lon="4.67514">
        <ele>1328</ele>
        <time>2014-03-17T17:12:20Z</time>
      </trkpt>
      <trkpt lat="47.11914" lon="4.6751">
        <ele>1328</ele>
        <time>2014-03-17T17:12:25Z</time>
      </trkpt>
      <trkpt lat="47.11912" lon="4.67509">
        <ele>1328</ele>
        <time>2014-03-17T17:12:27Z</time>
      </trkpt>
      <trkpt lat="47.1191" lon="4.67507">
        <ele>1328</ele>
        <time>2014-03-17T17:12:29Z</time>
      </trkpt>
      <trkpt lat="47.11905" lon="4.67505">
        <ele>1328</ele>
        <time>2014-03-17T17:12:34Z</time>
      </trkpt>
      <trkpt lat="47.11903" lon="4.67504">
        <ele>1328</ele>
        <time>2014-03-17T17:12:36Z</time>
      </trkpt>
      <trkpt lat="47.11902" lon="4.67502">
        <ele>1328</ele>
        <time>2014-03-17T17:12:38Z</time>
      </trkpt>
      <trkpt lat="47.119" lon="4.67501">
        <ele>1328</ele>
        <time>2014-03-17T17:12:40Z</time>
      </trkpt>
      <trkpt lat="47.11895" lon="4.67496">
        <ele>1328</ele>
        <time>2014-03-17T17:12:45Z</time>
      </trkpt>
      <trkpt lat="47.11894" lon="4.67494">
        <ele>1328</ele>
        <time>2014-03-17T17:12:47Z</time>
      </trkpt>
      <trkpt lat="47.11892" lon="4.67491">
        <ele>1328</ele>
        <time>2014-03-17T17:12:49Z</time>
      </trkpt>
      <trkpt lat="47.11888" lon="4.67487">
        <ele>1328</ele>
        <time>2014-03-17T17:12:54Z</time>
      </trkpt>
      <trkpt lat="47.11885" lon="4.67484">
        <ele>1328</ele>
        <time>2014-03-17T17:12:56Z</time>
      </trkpt>
      <trkpt lat="47.11883" lon="4.67482">
        <ele>1328</ele>
        <time>2014-03-17T17:12:58Z</time>
      </trkpt>
      <trkpt lat="47.11878" lon="4.67481">
        <ele>1328</ele>
        <time>2014-03-17T17:13:02Z</time>
      </trkpt>
      <trkpt lat="47.11876" lon="4.67482">
        <ele>1328</ele>
        <time>2014-03-17T17:13:05Z</time>
      </trkpt>
      <trkpt lat="47.11872" lon="4.67482">
        <ele>1328</ele>
        <time>2014-03-17T17:13:07Z</time>
      </trkpt>
      <trkpt lat="47.11868" lon="4.67483">
        <ele>1328</ele>
        <time>2014-03-17T17:13:11Z</time>
      </trkpt>
      <trkpt lat="47.11866" lon="4.67483">
        <ele>1328</ele>
        <time>2014-03-17T17:13:13Z</time>
      </trkpt>
      <trkpt lat="47.11863" lon="4.67483">
        <ele>1328</ele>
        <time>2014-03-17T17:13:16Z</time>
      </trkpt>
      <trkpt lat="47.11859" lon="4.67483">
        <ele>1328</ele>
        <time>2014-03-17T17:13:20Z</time>
      </trkpt>
      <trkpt lat="47.11856" lon="4.67482">
        <ele>1328</ele>
        <time>2014-03-17T17:13:22Z</time>
      </trkpt>
      <trkpt lat="47.11854" lon="4.67482">
        <ele>1328</ele>
        <time>2014-03-17T17:13:24Z</time>
      </trkpt>
      <trkpt lat="47.11849" lon="4.67481">
        <ele>1328</ele>
        <time>2014-03-17T17:13:29Z</time>
      </trkpt>
      <trkpt lat="47.11847" lon="4.67481">
        <ele>1328</ele>
        <time>2014-03-17T17:13:31Z</time>
      </trkpt>
      <trkpt lat="47.11845" lon="4.67481">
        <ele>1328</ele>
        <time>2014-03-17T17:13:33Z</time>
      </trkpt>
      <trkpt lat="47.11841" lon="4.67482">
        <ele>1328</ele>
        <time>2014-03-17T17:13:38Z</time>
      </trkpt>
      <trkpt lat="47.11839" lon="4.67482">
        <ele>1328</ele>
        <time>2014-03-17T17:13:40Z</time>
      </trkpt>
      <trkpt lat="47.11837" lon="4.67482">
        <ele>1328</ele>
        <time>2014-03-17T17:13:42Z</time>
      </trkpt>
      <trkpt lat="47.11834" lon="4.67482">
        <ele>1328</ele>
        <time>2014-03-17T17:13:47Z</time>
      </trkpt>
      <trkpt lat="47.11832" lon="4.67482">
        <ele>1328</ele>
        <time>2014-03-17T17:13:49Z</time>
      </trkpt>
      <trkpt lat="47.1183" lon="4.67482">
        <ele>1328</ele>
        <time>2014-03-17T17:13:51Z</time>
      </trkpt>
      <trkpt lat="47.11827" lon="4.67481">
        <ele>1328</ele>
        <time>2014-03-17T17:13:55Z</time>
      </trkpt>
      <trkpt lat="47.11825" lon="4.67481">
        <ele>1328</ele>
        <time>2014-03-17T17:13:58Z</time>
      </trkpt>
      <trkpt lat="47.11824" lon="4.67481">
        <ele>1328</ele>
        <time>2014-03-17T17:14:00Z</time>
      </trkpt>
      <trkpt lat="47.11821" lon="4.6748">
        <ele>1328</ele>
        <time>2014-03-17T17:14:04Z</time>
      </trkpt>
      <trkpt lat="47.1182" lon="4.67479">
        <ele>1328</ele>
        <time>2014-03-17T17:14:07Z</time>
      </trkpt>
      <trkpt lat="47.11817" lon="4.67478">
        <ele>1328</ele>
        <time>2014-03-17T17:14:09Z</time>
      </trkpt>
      <trkpt lat="47.11814" lon="4.67476">
        <ele>1328</ele>
        <time>2014-03-17T17:14:13Z</time>
      </trkpt>
      <trkpt lat="47.11812" lon="4.67476">
        <ele>1328</ele>
        <time>2014-03-17T17:14:15Z</time>
      </trkpt>
      <trkpt lat="47.1181" lon="4.67475">
        <ele>1328</ele>
        <time>2014-03-17T17:14:18Z</time>
      </trkpt>
      <trkpt lat="47.11805" lon="4.67473">
        <ele>1328</ele>
        <time>2014-03-17T17:14:22Z</time>
      </trkpt>
      <trkpt lat="47.11803" lon="4.67472">
        <ele>1328</ele>
        <time>2014-03-17T17:14:24Z</time>
      </trkpt>
      <trkpt lat="47.118" lon="4.67472">
        <ele>1328</ele>
        <time>2014-03-17T17:14:27Z</time>
      </trkpt>
      <trkpt lat="47.11795" lon="4.67472">
        <ele>1328</ele>
        <time>2014-03-17T17:14:31Z</time>
      </trkpt>
      <trkpt lat="47.11793" lon="4.67472">
        <ele>1328</ele>
        <time>2014-03-17T17:14:33Z</time>
      </trkpt>
      <trkpt lat="47.11791" lon="4.67471">
        <ele>1328</ele>
        <time>2014-03-17T17:14:35Z</time>
      </trkpt>
      <trkpt lat="47.11785" lon="4.67469">
        <ele>1328</ele>
        <time>2014-03-17T17:14:40Z</time>
      </trkpt>
      <trkpt lat="47.11783" lon="4.67468">
        <ele>1328</ele>
        <time>2014-03-17T17:14:42Z</time>
      </trkpt>
      <trkpt lat="47.11781" lon="4.67467">
        <ele>1328</ele>
        <time>2014-03-17T17:14:44Z</time>
      </trkpt>
      <trkpt lat="47.11779" lon="4.67466">
        <ele>1328</ele>
        <time>2014-03-17T17:14:46Z</time>
      </trkpt>
      <trkpt lat="47.11773" lon="4.67465">
        <ele>1328</ele>
        <time>2014-03-17T17:14:51Z</time>
      </trkpt>
      <trkpt lat="47.11771" lon="4.67464">
        <ele>1328</ele>
        <time>2014-03-17T17:14:53Z</time>
      </trkpt>
      <trkpt lat="47.11769" lon="4.67463">
        <ele>1328</ele>
        <time>2014-03-17T17:14:55Z</time>
      </trkpt>
      <trkpt lat="47.11763" lon="4.67461">
        <ele>1328</ele>
        <time>2014-03-17T17:15:00Z</time>
      </trkpt>
      <trkpt lat="47.11761" lon="4.6746">
        <ele>1328</ele>
        <time>2014-03-17T17:15:02Z</time>
      </trkpt>
      <trkpt lat="47.11758" lon="4.67458">
        <ele>1328</ele>
        <time>2014-03-17T17:15:04Z</time>
      </trkpt>
      <trkpt lat="47.11754" lon="4.67456">
        <ele>1328</ele>
        <time>2014-03-17T17:15:09Z</time>
      </trkpt>
      <trkpt lat="47.11751" lon="4.67455">
        <ele>1328</ele>
        <time>2014-03-17T17:15:11Z</time>
      </trkpt>
      <trkpt lat="47.11749" lon="4.67453">
        <ele>1328</ele>
        <time>2014-03-17T17:15:13Z</time>
      </trkpt>
      <trkpt lat="47.11745" lon="4.67451">
        <ele>1328</ele>
        <time>2014-03-17T17:15:17Z</time>
      </trkpt>
      <trkpt lat="47.11741" lon="4.67447">
        <ele>1328</ele>
        <time>2014-03-17T17:15:20Z</time>
      </trkpt>
      <trkpt lat="47.1174" lon="4.67445">
        <ele>1328</ele>
        <time>2014-03-17T17:15:22Z</time>
      </trkpt>
      <trkpt lat="47.11737" lon="4.67439">
        <ele>1328</ele>
        <time>2014-03-17T17:15:26Z</time>
      </trkpt>
      <trkpt lat="47.11735" lon="4.67435">
        <ele>1328</ele>
        <time>2014-03-17T17:15:29Z</time>
      </trkpt>
      <trkpt lat="47.11734" lon="4.67429">
        <ele>1328</ele>
        <time>2014-03-17T17:15:31Z</time>
      </trkpt>
      <trkpt lat="47.11732" lon="4.67423">
        <ele>1328</ele>
        <time>2014-03-17T17:15:35Z</time>
      </trkpt>
      <trkpt lat="47.11731" lon="4.6742">
        <ele>1328</ele>
        <time>2014-03-17T17:15:37Z</time>
      </trkpt>
      <trkpt lat="47.11729" lon="4.67418">
        <ele>1328</ele>
        <time>2014-03-17T17:15:40Z</time>
      </trkpt>
      <trkpt lat="47.11726" lon="4.67413">
        <ele>1328</ele>
        <time>2014-03-17T17:15:44Z</time>
      </trkpt>
      <trkpt lat="47.11725" lon="4.67411">
        <ele>1328</ele>
        <time>2014-03-17T17:15:46Z</time>
      </trkpt>
      <trkpt lat="47.11724" lon="4.67409">
        <ele>1328</ele>
        <time>2014-03-17T17:15:48Z</time>
      </trkpt>
      <trkpt lat="47.1172" lon="4.67405">
        <ele>1328</ele>
        <time>2014-03-17T17:15:53Z</time>
      </trkpt>
      <trkpt lat="47.11718" lon="4.67404">
        <ele>1328</ele>
        <time>2014-03-17T17:15:55Z</time>
      </trkpt>
      <trkpt lat="47.11716" lon="4.67403">
        <ele>1328</ele>
        <time>2014-03-17T17:15:57Z</time>
      </trkpt>
      <trkpt lat="47.11711" lon="4.67401">
        <ele>1328</ele>
        <time>2014-03-17T17:16:02Z</time>
      </trkpt>
      <trkpt lat="47.11709" lon="4.674">
        <ele>1328</ele>
        <time>2014-03-17T17:16:04Z</time>
      </trkpt>
      <trkpt lat="47.11708" lon="4.67399">
        <ele>1328</ele>
        <time>2014-03-17T17:16:06Z</time>
      </trkpt>
      <trkpt lat="47.11704" lon="4.67397">
        <ele>1328</ele>
        <time>2014-03-17T17:16:11Z</time>
      </trkpt>
      <trkpt lat="47.11702" lon="4.67396">
        <ele>1328</ele>
        <time>2014-03-17T17:16:13Z</time>
      </trkpt>
      <trkpt lat="47.117" lon="4.67395">
        <ele>1328</ele>
        <time>2014-03-17T17:16:15Z</time>
      </trkpt>
      <trkpt lat="47.11697" lon="4.67394">
        <ele>1328</ele>
        <time>2014-03-17T17:16:19Z</time>
      </trkpt>
      <trkpt lat="47.11694" lon="4.67393">
        <ele>1328</ele>
        <time>2014-03-17T17:16:22Z</time>
      </trkpt>
      <trkpt lat="47.11692" lon="4.67392">
        <ele>1328</ele>
        <time>2014-03-17T17:16:24Z</time>
      </trkpt>
      <trkpt lat="47.1169" lon="4.6739">
        <ele>1328</ele>
        <time>2014-03-17T17:16:28Z</time>
      </trkpt>
      <trkpt lat="47.11688" lon="4.67389">
        <ele>1328</ele>
        <time>2014-03-17T17:16:30Z</time>
      </trkpt>
      <trkpt lat="47.11685" lon="4.67388">
        <ele>1328</ele>
        <time>2014-03-17T17:16:33Z</time>
      </trkpt>
      <trkpt lat="47.11682" lon="4.67386">
        <ele>1328</ele>
        <time>2014-03-17T17:16:37Z</time>
      </trkpt>
      <trkpt lat="47.1168" lon="4.67386">
        <ele>1328</ele>
        <time>2014-03-17T17:16:39Z</time>
      </trkpt>
      <trkpt lat="47.11678" lon="4.67384">
        <ele>1328</ele>
        <time>2014-03-17T17:16:42Z</time>
      </trkpt>
      <trkpt lat="47.11675" lon="4.67383">
        <ele>1328</ele>
        <time>2014-03-17T17:16:46Z</time>
      </trkpt>
      <trkpt lat="47.11673" lon="4.67382">
        <ele>1328</ele>
        <time>2014-03-17T17:16:48Z</time>
      </trkpt>
      <trkpt lat="47.11671" lon="4.67382">
        <ele>1328</ele>
        <time>2014-03-17T17:16:51Z</time>
      </trkpt>
      <trkpt lat="47.11669" lon="4.67382">
        <ele>1328</ele>
        <time>2014-03-17T17:16:53Z</time>
      </trkpt>
      <trkpt lat="47.11666" lon="4.6738">
        <ele>1328</ele>
        <time>2014-03-17T17:16:57Z</time>
      </trkpt>
      <trkpt lat="47.11665" lon="4.6738">
        <ele>1328</ele>
        <time>2014-03-17T17:16:59Z</time>
      </trkpt>
      <trkpt lat="47.11663" lon="4.67379">
        <ele>1328</ele>
        <time>2014-03-17T17:17:02Z</time>
      </trkpt>
      <trkpt lat="47.11659" lon="4.67378">
        <ele>1328</ele>
        <time>2014-03-17T17:17:06Z</time>
      </trkpt>
      <trkpt lat="47.11657" lon="4.67377">
        <ele>1328</ele>
        <time>2014-03-17T17:17:08Z</time>
      </trkpt>
      <trkpt lat="47.11655" lon="4.67376">
        <ele>1328</ele>
        <time>2014-03-17T17:17:10Z</time>
      </trkpt>
      <trkpt lat="47.11651" lon="4.67375">
        <ele>1328</ele>
        <time>2014-03-17T17:17:15Z</time>
      </trkpt>
      <trkpt lat="47.11649" lon="4.67374">
        <ele>1328</ele>
        <time>2014-03-17T17:17:17Z</time>
      </trkpt>
      <trkpt lat="47.11648" lon="4.67374">
        <ele>1328</ele>
        <time>2014-03-17T17:17:19Z</time>
      </trkpt>
      <trkpt lat="47.11643" lon="4.67373">
        <ele>1328</ele>
        <time>2014-03-17T17:17:24Z</time>
      </trkpt>
      <trkpt lat="47.11641" lon="4.67373">
        <ele>1328</ele>
        <time>2014-03-17T17:17:26Z</time>
      </trkpt>
      <trkpt lat="47.11639" lon="4.67373">
        <ele>1328</ele>
        <time>2014-03-17T17:17:28Z</time>
      </trkpt>
      <trkpt lat="47.11635" lon="4.67372">
        <ele>1328</ele>
        <time>2014-03-17T17:17:33Z</time>
      </trkpt>
      <trkpt lat="47.11633" lon="4.67372">
        <ele>1328</ele>
        <time>2014-03-17T17:17:35Z</time>
      </trkpt>
      <trkpt lat="47.11631" lon="4.67371">
        <ele>1328</ele>
        <time>2014-03-17T17:17:37Z</time>
      </trkpt>
      <trkpt lat="47.11627" lon="4.6737">
        <ele>1328</ele>
        <time>2014-03-17T17:17:42Z</time>
      </trkpt>
      <trkpt lat="47.11624" lon="4.67369">
        <ele>1328</ele>
        <time>2014-03-17T17:17:44Z</time>
      </trkpt>
      <trkpt lat="47.11622" lon="4.67368">
        <ele>1328</ele>
        <time>2014-03-17T17:17:46Z</time>
      </trkpt>
      <trkpt lat="47.11617" lon="4.67367">
        <ele>1328</ele>
        <time>2014-03-17T17:17:50Z</time>
      </trkpt>
      <trkpt lat="47.11615" lon="4.67367">
        <ele>1328</ele>
        <time>2014-03-17T17:17:53Z</time>
      </trkpt>
      <trkpt lat="47.11612" lon="4.67367">
        <ele>1328</ele>
        <time>2014-03-17T17:17:55Z</time>
      </trkpt>
      <trkpt lat="47.11608" lon="4.67366">
        <ele>1328</ele>
        <time>2014-03-17T17:17:59Z</time>
      </trkpt>
      <trkpt lat="47.11606" lon="4.67366">
        <ele>1328</ele>
        <time>2014-03-17T17:18:01Z</time>
      </trkpt>
      <trkpt lat="47.11602" lon="4.67366">
        <ele>1328</ele>
        <time>2014-03-17T17:18:04Z</time>
      </trkpt>
      <trkpt lat="47.11598" lon="4.67366">
        <ele>1328</ele>
        <time>2014-03-17T17:18:08Z</time>
      </trkpt>
      <trkpt lat="47.11596" lon="4.67365">
        <ele>1328</ele>
        <time>2014-03-17T17:18:10Z</time>
      </trkpt>
      <trkpt lat="47.11593" lon="4.67365">
        <ele>1328</ele>
        <time>2014-03-17T17:18:13Z</time>
      </trkpt>
      <trkpt lat="47.11587" lon="4.67365">
        <ele>1328</ele>
        <time>2014-03-17T17:18:17Z</time>
      </trkpt>
      <trkpt lat="47.11585" lon="4.67364">
        <ele>1328</ele>
        <time>2014-03-17T17:18:19Z</time>
      </trkpt>
      <trkpt lat="47.11582" lon="4.67364">
        <ele>1328</ele>
        <time>2014-03-17T17:18:21Z</time>
      </trkpt>
      <trkpt lat="47.11577" lon="4.67363">
        <ele>1328</ele>
        <time>2014-03-17T17:18:26Z</time>
      </trkpt>
      <trkpt lat="47.11575" lon="4.67363">
        <ele>1328</ele>
        <time>2014-03-17T17:18:28Z</time>
      </trkpt>
      <trkpt lat="47.11573" lon="4.67362">
        <ele>1328</ele>
        <time>2014-03-17T17:18:30Z</time>
      </trkpt>
      <trkpt lat="47.11569" lon="4.67362">
        <ele>1328</ele>
        <time>2014-03-17T17:18:35Z</time>
      </trkpt>
      <trkpt lat="47.11565" lon="4.67362">
        <ele>1328</ele>
        <time>2014-03-17T17:18:37Z</time>
      </trkpt>
      <trkpt lat="47.11563" lon="4.67362">
        <ele>1328</ele>
        <time>2014-03-17T17:18:39Z</time>
      </trkpt>
      <trkpt lat="47.11559" lon="4.67363">
        <ele>1328</ele>
        <time>2014-03-17T17:18:43Z</time>
      </trkpt>
      <trkpt lat="47.11556" lon="4.67364">
        <ele>1328</ele>
        <time>2014-03-17T17:18:46Z</time>
      </trkpt>
      <trkpt lat="47.11554" lon="4.67365">
        <ele>1328</ele>
        <time>2014-03-17T17:18:48Z</time>
      </trkpt>
      <trkpt lat="47.1155" lon="4.67367">
        <ele>1328</ele>
        <time>2014-03-17T17:18:52Z</time>
      </trkpt>
      <trkpt lat="47.11548" lon="4.67368">
        <ele>1328</ele>
        <time>2014-03-17T17:18:55Z</time>
      </trkpt>
      <trkpt lat="47.11545" lon="4.67369">
        <ele>1328</ele>
        <time>2014-03-17T17:18:57Z</time>
      </trkpt>
      <trkpt lat="47.11541" lon="4.67369">
        <ele>1328</ele>
        <time>2014-03-17T17:19:01Z</time>
      </trkpt>
      <trkpt lat="47.11539" lon="4.67369">
        <ele>1328</ele>
        <time>2014-03-17T17:19:03Z</time>
      </trkpt>
      <trkpt lat="47.11538" lon="4.6737">
        <ele>1328</ele>
        <time>2014-03-17T17:19:06Z</time>
      </trkpt>
      <trkpt lat="47.11535" lon="4.6737">
        <ele>1328</ele>
        <time>2014-03-17T17:19:08Z</time>
      </trkpt>
      <trkpt lat="47.11531" lon="4.6737">
        <ele>1328</ele>
        <time>2014-03-17T17:19:12Z</time>
      </trkpt>
      <trkpt lat="47.11529" lon="4.67371">
        <ele>1328</ele>
        <time>2014-03-17T17:19:14Z</time>
      </trkpt>
      <trkpt lat="47.11526" lon="4.67372">
        <ele>1328</ele>
        <time>2014-03-17T17:19:17Z</time>
      </trkpt>
      <trkpt lat="47.11522" lon="4.67373">
        <ele>1328</ele>
        <time>2014-03-17T17:19:21Z</time>
      </trkpt>
      <trkpt lat="47.1152" lon="4.67373">
        <ele>1328</ele>
        <time>2014-03-17T17:19:23Z</time>
      </trkpt>
      <trkpt lat="47.11518" lon="4.67373">
        <ele>1328</ele>
        <time>2014-03-17T17:19:25Z</time>
      </trkpt>
      <trkpt lat="47.11513" lon="4.67375">
        <ele>1328</ele>
        <time>2014-03-17T17:19:30Z</time>
      </trkpt>
      <trkpt lat="47.11511" lon="4.67377">
        <ele>1328</ele>
        <time>2014-03-17T17:19:32Z</time>
      </trkpt>
      <trkpt lat="47.11509" lon="4.67377">
        <ele>1328</ele>
        <time>2014-03-17T17:19:34Z</time>
      </trkpt>
      <trkpt lat="47.11509" lon="4.67377">
        <ele>1328</ele>
        <time>2014-03-17T17:19:39Z</time>
      </trkpt>
      <trkpt lat="47.11509" lon="4.67378">
        <ele>1328</ele>
        <time>2014-03-17T17:19:41Z</time>
      </trkpt>
      <trkpt lat="47.11508" lon="4.67378">
        <ele>1328</ele>
        <time>2014-03-17T17:19:43Z</time>
      </trkpt>
      <trkpt lat="47.11508" lon="4.67378">
        <ele>1328</ele>
        <time>2014-03-17T17:19:48Z</time>
      </trkpt>
      <trkpt lat="47.11508" lon="4.67378">
        <ele>1328</ele>
        <time>2014-03-17T17:19:50Z</time>
      </trkpt>
      <trkpt lat="47.11508" lon="4.67378">
        <ele>1328</ele>
        <time>2014-03-17T17:19:52Z</time>
      </trkpt>
      <trkpt lat="47.11507" lon="4.67378">
        <ele>1328</ele>
        <time>2014-03-17T17:19:56Z</time>
      </trkpt>
      <trkpt lat="47.11507" lon="4.67378">
        <ele>1328</ele>
        <time>2014-03-17T17:19:59Z</time>
      </trkpt>
      <trkpt lat="47.11507" lon="4.67378">
        <ele>1328</ele>
        <time>2014-03-17T17:20:01Z</time>
      </trkpt>
      <trkpt lat="47.11507" lon="4.67378">
        <ele>1328</ele>
        <time>2014-03-17T17:20:05Z</time>
      </trkpt>
      <trkpt lat="47.11507" lon="4.67377">
        <ele>1328</ele>
        <time>2014-03-17T17:20:08Z</time>
      </trkpt>
      <trkpt lat="47.11507" lon="4.67377">
        <ele>1328</ele>
        <time>2014-03-17T17:20:10Z</time>
      </trkpt>
      <trkpt lat="47.11507" lon="4.67377">
        <ele>1328</ele>
        <time>2014-03-17T17:20:14Z</time>
      </trkpt>
      <trkpt lat="47.11506" lon="4.67377">
        <ele>1328</ele>
        <time>2014-03-17T17:20:16Z</time>
      </trkpt>
      <trkpt lat="47.11506" lon="4.67377">
        <ele>1328</ele>
        <time>2014-03-17T17:20:19Z</time>
      </trkpt>
      <trkpt lat="47.11506" lon="4.67377">
        <ele>1328</ele>
        <time>2014-03-17T17:20:23Z</time>
      </trkpt>
      <trkpt lat="47.11506" lon="4.67376">
        <ele>1328</ele>
        <time>2014-03-17T17:20:25Z</time>
      </trkpt>
      <trkpt lat="47.11506" lon="4.67376">
        <ele>1328</ele>
        <time>2014-03-17T17:20:27Z</time>
      </trkpt>
      <trkpt lat="47.11506" lon="4.67376">
        <ele>1328</ele>
        <time>2014-03-17T17:20:32Z</time>
      </trkpt>
      <trkpt lat="47.11505" lon="4.67375">
        <ele>1328</ele>
        <time>2014-03-17T17:20:34Z</time>
      </trkpt>
      <trkpt lat="47.11505" lon="4.67375">
        <ele>1328</ele>
        <time>2014-03-17T17:20:36Z</time>
      </trkpt>
      <trkpt lat="47.11505" lon="4.67375">
        <ele>1328</ele>
        <time>2014-03-17T17:20:41Z</time>
      </trkpt>
      <trkpt lat="47.11505" lon="4.67374">
        <ele>1328</ele>
        <time>2014-03-17T17:20:43Z</time>
      </trkpt>
      <trkpt lat="47.11505" lon="4.67374">
        <ele>1328</ele>
        <time>2014-03-17T17:20:45Z</time>
      </trkpt>
      <trkpt lat="47.11505" lon="4.67375">
        <ele>1328</ele>
        <time>2014-03-17T17:20:49Z</time>
      </trkpt>
      <trkpt lat="47.11505" lon="4.67375">
        <ele>1328</ele>
        <time>2014-03-17T17:20:52Z</time>
      </trkpt>
      <trkpt lat="47.11505" lon="4.67375">
        <ele>1328</ele>
        <time>2014-03-17T17:20:54Z</time>
      </trkpt>
      <trkpt lat="47.11504" lon="4.67375">
        <ele>1328</ele>
        <time>2014-03-17T17:20:58Z</time>
      </trkpt>
      <trkpt lat="47.11504" lon="4.67375">
        <ele>1328</ele>
        <time>2014-03-17T17:21:00Z</time>
      </trkpt>
      <trkpt lat="47.11504" lon="4.67375">
        <ele>1328</ele>
        <time>2014-03-17T17:21:03Z</time>
      </trkpt>
      <trkpt lat="47.11504" lon="4.67375">
        <ele>1328</ele>
        <time>2014-03-17T17:21:07Z</time>
      </trkpt>
      <trkpt lat="47.11503" lon="4.67375">
        <ele>1328</ele>
        <time>2014-03-17T17:21:09Z</time>
      </trkpt>
      <trkpt lat="47.11504" lon="4.67375">
        <ele>1328</ele>
        <time>2014-03-17T17:21:12Z</time>
      </trkpt>
      <trkpt lat="47.11503" lon="4.67376">
        <ele>1328</ele>
        <time>2014-03-17T17:21:14Z</time>
      </trkpt>
      <trkpt lat="47.11503" lon="4.67376">
        <ele>1328</ele>
        <time>2014-03-17T17:21:18Z</time>
      </trkpt>
      <trkpt lat="47.11503" lon="4.67377">
        <ele>1328</ele>
        <time>2014-03-17T17:21:20Z</time>
      </trkpt>
      <trkpt lat="47.11503" lon="4.67377">
        <ele>1328</ele>
        <time>2014-03-17T17:21:23Z</time>
      </trkpt>
      <trkpt lat="47.11503" lon="4.67377">
        <ele>1328</ele>
        <time>2014-03-17T17:21:27Z</time>
      </trkpt>
      <trkpt lat="47.11503" lon="4.67378">
        <ele>1328</ele>
        <time>2014-03-17T17:21:29Z</time>
      </trkpt>
      <trkpt lat="47.11503" lon="4.67378">
        <ele>1328</ele>
        <time>2014-03-17T17:21:31Z</time>
      </trkpt>
      <trkpt lat="47.11503" lon="4.67378">
        <ele>1328</ele>
        <time>2014-03-17T17:21:36Z</time>
      </trkpt>
      <trkpt lat="47.11503" lon="4.67378">
        <ele>1328</ele>
        <time>2014-03-17T17:21:38Z</time>
      </trkpt>
      <trkpt lat="47.11503" lon="4.67378">
        <ele>1328</ele>
        <time>2014-03-17T17:21:40Z</time>
      </trkpt>
      <trkpt lat="47.11503" lon="4.67378">
        <ele>1328</ele>
        <time>2014-03-17T17:21:45Z</time>
      </trkpt>
      <trkpt lat="47.11503" lon="4.67378">
        <ele>1328</ele>
        <time>2014-03-17T17:21:47Z</time>
      </trkpt>
      <trkpt lat="47.11503" lon="4.67378">
        <ele>1328</ele>
        <time>2014-03-17T17:21:49Z</time>
      </trkpt>
      <trkpt lat="47.11503" lon="4.67378">
        <ele>1328</ele>
        <time>2014-03-17T17:21:53Z</time>
      </trkpt>
      <trkpt lat="47.11503" lon="4.67379">
        <ele>1328</ele>
        <time>2014-03-17T17:21:56Z</time>
      </trkpt>
      <trkpt lat="47.11503" lon="4.67378">
        <ele>1328</ele>
        <time>2014-03-17T17:21:58Z</time>
      </trkpt>
      <trkpt lat="47.11503" lon="4.67378">
        <ele>1328</ele>
        <time>2014-03-17T17:22:02Z</time>
      </trkpt>
      <trkpt lat="47.11503" lon="4.67378">
        <ele>1328</ele>
        <time>2014-03-17T17:22:04Z</time>
      </trkpt>
      <trkpt lat="47.11503" lon="4.67377">
        <ele>1328</ele>
        <time>2014-03-17T17:22:07Z</time>
      </trkpt>
      <trkpt lat="47.11503" lon="4.67377">
        <ele>1328</ele>
        <time>2014-03-17T17:22:11Z</time>
      </trkpt>
      <trkpt lat="47.11504" lon="4.67377">
        <ele>1328</ele>
        <time>2014-03-17T17:22:13Z</time>
      </trkpt>
      <trkpt lat="47.11504" lon="4.67377">
        <ele>1328</ele>
        <time>2014-03-17T17:22:16Z</time>
      </trkpt>
      <trkpt lat="47.11503" lon="4.67377">
        <ele>1328</ele>
        <time>2014-03-17T17:22:20Z</time>
      </trkpt>
      <trkpt lat="47.11503" lon="4.67377">
        <ele>1328</ele>
        <time>2014-03-17T17:22:22Z</time>
      </trkpt>
      <trkpt lat="47.11503" lon="4.67376">
        <ele>1328</ele>
        <time>2014-03-17T17:22:24Z</time>
      </trkpt>
      <trkpt lat="47.11503" lon="4.67376">
        <ele>1328</ele>
        <time>2014-03-17T17:22:29Z</time>
      </trkpt>
      <trkpt lat="47.11503" lon="4.67377">
        <ele>1328</ele>
        <time>2014-03-17T17:22:31Z</time>
      </trkpt>
      <trkpt lat="47.11503" lon="4.67377">
        <ele>1328</ele>
        <time>2014-03-17T17:22:33Z</time>
      </trkpt>
      <trkpt lat="47.11503" lon="4.67377">
        <ele>1328</ele>
        <time>2014-03-17T17:22:38Z</time>
      </trkpt>
      <trkpt lat="47.11503" lon="4.67376">
        <ele>1328</ele>
        <time>2014-03-17T17:22:40Z</time>
      </trkpt>
      <trkpt lat="47.11503" lon="4.67376">
        <ele>1328</ele>
        <time>2014-03-17T17:22:42Z</time>
      </trkpt>
      <trkpt lat="47.11502" lon="4.67376">
        <ele>1328</ele>
        <time>2014-03-17T17:22:46Z</time>
      </trkpt>
      <trkpt lat="47.11501" lon="4.67376">
        <ele>1328</ele>
        <time>2014-03-17T17:22:49Z</time>
      </trkpt>
      <trkpt lat="47.115" lon="4.67376">
        <ele>1328</ele>
        <time>2014-03-17T17:22:51Z</time>
      </trkpt>
      <trkpt lat="47.115" lon="4.67376">
        <ele>1328</ele>
        <time>2014-03-17T17:22:55Z</time>
      </trkpt>
      <trkpt lat="47.115" lon="4.67377">
        <ele>1328</ele>
        <time>2014-03-17T17:22:57Z</time>
      </trkpt>
      <trkpt lat="47.11498" lon="4.67377">
        <ele>1328</ele>
        <time>2014-03-17T17:23:00Z</time>
      </trkpt>
      <trkpt lat="47.11492" lon="4.67378">
        <ele>1328</ele>
        <time>2014-03-17T17:23:04Z</time>
      </trkpt>
      <trkpt lat="47.11489" lon="4.67378">
        <ele>1328</ele>
        <time>2014-03-17T17:23:06Z</time>
      </trkpt>
      <trkpt lat="47.11487" lon="4.67378">
        <ele>1328</ele>
        <time>2014-03-17T17:23:08Z</time>
      </trkpt>
      <trkpt lat="47.1148" lon="4.67378">
        <ele>1328</ele>
        <time>2014-03-17T17:23:13Z</time>
      </trkpt>
      <trkpt lat="47.11477" lon="4.67378">
        <ele>1328</ele>
        <time>2014-03-17T17:23:15Z</time>
      </trkpt>
      <trkpt lat="47.11474" lon="4.67377">
        <ele>1328</ele>
        <time>2014-03-17T17:23:17Z</time>
      </trkpt>
      <trkpt lat="47.11471" lon="4.67376">
        <ele>1328</ele>
        <time>2014-03-17T17:23:20Z</time>
      </trkpt>
      <trkpt lat="47.11464" lon="4.67375">
        <ele>1328</ele>
        <time>2014-03-17T17:23:24Z</time>
      </trkpt>
      <trkpt lat="47.11462" lon="4.67374">
        <ele>1328</ele>
        <time>2014-03-17T17:23:26Z</time>
      </trkpt>
      <trkpt lat="47.11459" lon="4.67372">
        <ele>1328</ele>
        <time>2014-03-17T17:23:28Z</time>
      </trkpt>
      <trkpt lat="47.11453" lon="4.67368">
        <ele>1328</ele>
        <time>2014-03-17T17:23:33Z</time>
      </trkpt>
      <trkpt lat="47.11451" lon="4.67366">
        <ele>1328</ele>
        <time>2014-03-17T17:23:35Z</time>
      </trkpt>
      <trkpt lat="47.11449" lon="4.67364">
        <ele>1328</ele>
        <time>2014-03-17T17:23:37Z</time>
      </trkpt>
      <trkpt lat="47.11443" lon="4.6736">
        <ele>1328</ele>
        <time>2014-03-17T17:23:42Z</time>
      </trkpt>
      <trkpt lat="47.11441" lon="4.67358">
        <ele>1328</ele>
        <time>2014-03-17T17:23:44Z</time>
      </trkpt>
      <trkpt lat="47.11439" lon="4.67357">
        <ele>1328</ele>
        <time>2014-03-17T17:23:46Z</time>
      </trkpt>
      <trkpt lat="47.11434" lon="4.67354">
        <ele>1328</ele>
        <time>2014-03-17T17:23:51Z</time>
      </trkpt>
      <trkpt lat="47.1143" lon="4.67352">
        <ele>1328</ele>
        <time>2014-03-17T17:23:53Z</time>
      </trkpt>
      <trkpt lat="47.11428" lon="4.6735">
        <ele>1328</ele>
        <time>2014-03-17T17:23:55Z</time>
      </trkpt>
      <trkpt lat="47.11422" lon="4.67348">
        <ele>1328</ele>
        <time>2014-03-17T17:23:59Z</time>
      </trkpt>
      <trkpt lat="47.11419" lon="4.67347">
        <ele>1328</ele>
        <time>2014-03-17T17:24:02Z</time>
      </trkpt>
      <trkpt lat="47.11415" lon="4.67346">
        <ele>1328</ele>
        <time>2014-03-17T17:24:04Z</time>
      </trkpt>
      <trkpt lat="47.11409" lon="4.67345">
        <ele>1328</ele>
        <time>2014-03-17T17:24:08Z</time>
      </trkpt>
      <trkpt lat="47.11406" lon="4.67345">
        <ele>1328</ele>
        <time>2014-03-17T17:24:11Z</time>
      </trkpt>
      <trkpt lat="47.11402" lon="4.67344">
        <ele>1328</ele>
        <time>2014-03-17T17:24:13Z</time>
      </trkpt>
      <trkpt lat="47.11397" lon="4.67342">
        <ele>1328</ele>
        <time>2014-03-17T17:24:17Z</time>
      </trkpt>
      <trkpt lat="47.11394" lon="4.67342">
        <ele>1328</ele>
        <time>2014-03-17T17:24:19Z</time>
      </trkpt>
      <trkpt lat="47.11392" lon="4.67341">
        <ele>1328</ele>
        <time>2014-03-17T17:24:22Z</time>
      </trkpt>
      <trkpt lat="47.11386" lon="4.6734">
        <ele>1328</ele>
        <time>2014-03-17T17:24:26Z</time>
      </trkpt>
      <trkpt lat="47.11383" lon="4.67339">
        <ele>1328</ele>
        <time>2014-03-17T17:24:28Z</time>
      </trkpt>
      <trkpt lat="47.11381" lon="4.67339">
        <ele>1328</ele>
        <time>2014-03-17T17:24:30Z</time>
      </trkpt>
      <trkpt lat="47.11374" lon="4.67337">
        <ele>1328</ele>
        <time>2014-03-17T17:24:35Z</time>
      </trkpt>
      <trkpt lat="47.11371" lon="4.67336">
        <ele>1328</ele>
        <time>2014-03-17T17:24:37Z</time>
      </trkpt>
      <trkpt lat="47.11369" lon="4.67334">
        <ele>1328</ele>
        <time>2014-03-17T17:24:39Z</time>
      </trkpt>
      <trkpt lat="47.11362" lon="4.67333">
        <ele>1328</ele>
        <time>2014-03-17T17:24:44Z</time>
      </trkpt>
      <trkpt lat="47.1136" lon="4.67333">
        <ele>1328</ele>
        <time>2014-03-17T17:24:46Z</time>
      </trkpt>
      <trkpt lat="47.11357" lon="4.67331">
        <ele>1328</ele>
        <time>2014-03-17T17:24:48Z</time>
      </trkpt>
      <trkpt lat="47.11352" lon="4.67329">
        <ele>1328</ele>
        <time>2014-03-17T17:24:53Z</time>
      </trkpt>
      <trkpt lat="47.11348" lon="4.67328">
        <ele>1328</ele>
        <time>2014-03-17T17:24:55Z</time>
      </trkpt>
      <trkpt lat="47.11345" lon="4.67327">
        <ele>1328</ele>
        <time>2014-03-17T17:24:57Z</time>
      </trkpt>
      <trkpt lat="47.1134" lon="4.67325">
        <ele>1328</ele>
        <time>2014-03-17T17:25:01Z</time>
      </trkpt>
      <trkpt lat="47.11337" lon="4.67323">
        <ele>1328</ele>
        <time>2014-03-17T17:25:04Z</time>
      </trkpt>
      <trkpt lat="47.11334" lon="4.67321">
        <ele>1328</ele>
        <time>2014-03-17T17:25:06Z</time>
      </trkpt>
      <trkpt lat="47.11329" lon="4.67317">
        <ele>1328</ele>
        <time>2014-03-17T17:25:10Z</time>
      </trkpt>
      <trkpt lat="47.11326" lon="4.67315">
        <ele>1328</ele>
        <time>2014-03-17T17:25:13Z</time>
      </trkpt>
      <trkpt lat="47.11322" lon="4.67313">
        <ele>1328</ele>
        <time>2014-03-17T17:25:15Z</time>
      </trkpt>
      <trkpt lat="47.11317" lon="4.67309">
        <ele>1328</ele>
        <time>2014-03-17T17:25:19Z</time>
      </trkpt>
      <trkpt lat="47.11314" lon="4.67307">
        <ele>1328</ele>
        <time>2014-03-17T17:25:21Z</time>
      </trkpt>
      <trkpt lat="47.11312" lon="4.67305">
        <ele>1328</ele>
        <time>2014-03-17T17:25:24Z</time>
      </trkpt>
      <trkpt lat="47.11305" lon="4.67302">
        <ele>1328</ele>
        <time>2014-03-17T17:25:28Z</time>
      </trkpt>
      <trkpt lat="47.11302" lon="4.673">
        <ele>1328</ele>
        <time>2014-03-17T17:25:30Z</time>
      </trkpt>
      <trkpt lat="47.11299" lon="4.67298">
        <ele>1328</ele>
        <time>2014-03-17T17:25:32Z</time>
      </trkpt>
      <trkpt lat="47.11295" lon="4.67296">
        <ele>1328</ele>
        <time>2014-03-17T17:25:35Z</time>
      </trkpt>
      <trkpt lat="47.11291" lon="4.67294">
        <ele>1328</ele>
        <time>2014-03-17T17:25:39Z</time>
      </trkpt>
      <trkpt lat="47.11288" lon="4.67293">
        <ele>1328</ele>
        <time>2014-03-17T17:25:41Z</time>
      </trkpt>
      <trkpt lat="47.11285" lon="4.67292">
        <ele>1328</ele>
        <time>2014-03-17T17:25:44Z</time>
      </trkpt>
      <trkpt lat="47.11279" lon="4.67289">
        <ele>1328</ele>
        <time>2014-03-17T17:25:48Z</time>
      </trkpt>
      <trkpt lat="47.11277" lon="4.67288">
        <ele>1328</ele>
        <time>2014-03-17T17:25:50Z</time>
      </trkpt>
      <trkpt lat="47.11274" lon="4.67288">
        <ele>1328</ele>
        <time>2014-03-17T17:25:52Z</time>
      </trkpt>
      <trkpt lat="47.11267" lon="4.67286">
        <ele>1328</ele>
        <time>2014-03-17T17:25:57Z</time>
      </trkpt>
      <trkpt lat="47.11265" lon="4.67285">
        <ele>1328</ele>
        <time>2014-03-17T17:25:59Z</time>
      </trkpt>
      <trkpt lat="47.11262" lon="4.67284">
        <ele>1328</ele>
        <time>2014-03-17T17:26:01Z</time>
      </trkpt>
      <trkpt lat="47.11256" lon="4.67283">
        <ele>1328</ele>
        <time>2014-03-17T17:26:06Z</time>
      </trkpt>
      <trkpt lat="47.11251" lon="4.67282">
        <ele>1328</ele>
        <time>2014-03-17T17:26:08Z</time>
      </trkpt>
      <trkpt lat="47.11248" lon="4.67281">
        <ele>1328</ele>
        <time>2014-03-17T17:26:10Z</time>
      </trkpt>
      <trkpt lat="47.11243" lon="4.6728">
        <ele>1328</ele>
        <time>2014-03-17T17:26:14Z</time>
      </trkpt>
      <trkpt lat="47.11238" lon="4.67279">
        <ele>1328</ele>
        <time>2014-03-17T17:26:17Z</time>
      </trkpt>
      <trkpt lat="47.11236" lon="4.67279">
        <ele>1328</ele>
        <time>2014-03-17T17:26:19Z</time>
      </trkpt>
      <trkpt lat="47.1123" lon="4.67278">
        <ele>1328</ele>
        <time>2014-03-17T17:26:23Z</time>
      </trkpt>
      <trkpt lat="47.11228" lon="4.67278">
        <ele>1328</ele>
        <time>2014-03-17T17:26:26Z</time>
      </trkpt>
      <trkpt lat="47.11224" lon="4.67278">
        <ele>1328</ele>
        <time>2014-03-17T17:26:28Z</time>
      </trkpt>
      <trkpt lat="47.11219" lon="4.67277">
        <ele>1328</ele>
        <time>2014-03-17T17:26:32Z</time>
      </trkpt>
      <trkpt lat="47.11217" lon="4.67276">
        <ele>1328</ele>
        <time>2014-03-17T17:26:34Z</time>
      </trkpt>
      <trkpt lat="47.11215" lon="4.67276">
        <ele>1328</ele>
        <time>2014-03-17T17:26:37Z</time>
      </trkpt>
      <trkpt lat="47.11209" lon="4.67275">
        <ele>1328</ele>
        <time>2014-03-17T17:26:41Z</time>
      </trkpt>
      <trkpt lat="47.11207" lon="4.67274">
        <ele>1328</ele>
        <time>2014-03-17T17:26:43Z</time>
      </trkpt>
      <trkpt lat="47.11204" lon="4.67274">
        <ele>1328</ele>
        <time>2014-03-17T17:26:45Z</time>
      </trkpt>
      <trkpt lat="47.11199" lon="4.67273">
        <ele>1328</ele>
        <time>2014-03-17T17:26:50Z</time>
      </trkpt>
      <trkpt lat="47.11196" lon="4.67273">
        <ele>1328</ele>
        <time>2014-03-17T17:26:52Z</time>
      </trkpt>
      <trkpt lat="47.11194" lon="4.67272">
        <ele>1328</ele>
        <time>2014-03-17T17:26:54Z</time>
      </trkpt>
      <trkpt lat="47.11188" lon="4.67272">
        <ele>1328</ele>
        <time>2014-03-17T17:26:59Z</time>
      </trkpt>
      <trkpt lat="47.11185" lon="4.67271">
        <ele>1328</ele>
        <time>2014-03-17T17:27:01Z</time>
      </trkpt>
      <trkpt lat="47.11183" lon="4.67271">
        <ele>1328</ele>
        <time>2014-03-17T17:27:03Z</time>
      </trkpt>
      <trkpt lat="47.11177" lon="4.67269">
        <ele>1328</ele>
        <time>2014-03-17T17:27:08Z</time>
      </trkpt>
      <trkpt lat="47.11174" lon="4.67267">
        <ele>1328</ele>
        <time>2014-03-17T17:27:10Z</time>
      </trkpt>
      <trkpt lat="47.11172" lon="4.67266">
        <ele>1328</ele>
        <time>2014-03-17T17:27:12Z</time>
      </trkpt>
      <trkpt lat="47.11168" lon="4.67263">
        <ele>1328</ele>
        <time>2014-03-17T17:27:16Z</time>
      </trkpt>
      <trkpt lat="47.11165" lon="4.6726">
        <ele>1328</ele>
        <time>2014-03-17T17:27:19Z</time>
      </trkpt>
      <trkpt lat="47.11163" lon="4.67258">
        <ele>1328</ele>
        <time>2014-03-17T17:27:21Z</time>
      </trkpt>
      <trkpt lat="47.11159" lon="4.67255">
        <ele>1328</ele>
        <time>2014-03-17T17:27:25Z</time>
      </trkpt>
      <trkpt lat="47.11157" lon="4.67254">
        <ele>1328</ele>
        <time>2014-03-17T17:27:28Z</time>
      </trkpt>
      <trkpt lat="47.11154" lon="4.67251">
        <ele>1328</ele>
        <time>2014-03-17T17:27:30Z</time>
      </trkpt>
      <trkpt lat="47.11151" lon="4.67247">
        <ele>1328</ele>
        <time>2014-03-17T17:27:34Z</time>
      </trkpt>
      <trkpt lat="47.11149" lon="4.67245">
        <ele>1328</ele>
        <time>2014-03-17T17:27:36Z</time>
      </trkpt>
      <trkpt lat="47.11146" lon="4.67243">
        <ele>1328</ele>
        <time>2014-03-17T17:27:39Z</time>
      </trkpt>
      <trkpt lat="47.11143" lon="4.6724">
        <ele>1328</ele>
        <time>2014-03-17T17:27:41Z</time>
      </trkpt>
      <trkpt lat="47.11139" lon="4.67237">
        <ele>1328</ele>
        <time>2014-03-17T17:27:45Z</time>
      </trkpt>
      <trkpt lat="47.11137" lon="4.67236">
        <ele>1328</ele>
        <time>2014-03-17T17:27:47Z</time>
      </trkpt>
      <trkpt lat="47.11134" lon="4.67233">
        <ele>1328</ele>
        <time>2014-03-17T17:27:50Z</time>
      </trkpt>
      <trkpt lat="47.11129" lon="4.6723">
        <ele>1328</ele>
        <time>2014-03-17T17:27:54Z</time>
      </trkpt>
      <trkpt lat="47.11127" lon="4.67229">
        <ele>1328</ele>
        <time>2014-03-17T17:27:56Z</time>
      </trkpt>
      <trkpt lat="47.11125" lon="4.67227">
        <ele>1328</ele>
        <time>2014-03-17T17:27:59Z</time>
      </trkpt>
      <trkpt lat="47.1112" lon="4.67224">
        <ele>1328</ele>
        <time>2014-03-17T17:28:03Z</time>
      </trkpt>
      <trkpt lat="47.11118" lon="4.67222">
        <ele>1328</ele>
        <time>2014-03-17T17:28:05Z</time>
      </trkpt>
      <trkpt lat="47.11116" lon="4.6722">
        <ele>1328</ele>
        <time>2014-03-17T17:28:07Z</time>
      </trkpt>
      <trkpt lat="47.11111" lon="4.67216">
        <ele>1328</ele>
        <time>2014-03-17T17:28:12Z</time>
      </trkpt>
      <trkpt lat="47.11109" lon="4.67214">
        <ele>1328</ele>
        <time>2014-03-17T17:28:14Z</time>
      </trkpt>
      <trkpt lat="47.11107" lon="4.67212">
        <ele>1328</ele>
        <time>2014-03-17T17:28:16Z</time>
      </trkpt>
      <trkpt lat="47.11102" lon="4.67207">
        <ele>1328</ele>
        <time>2014-03-17T17:28:21Z</time>
      </trkpt>
      <trkpt lat="47.111" lon="4.67205">
        <ele>1328</ele>
        <time>2014-03-17T17:28:23Z</time>
      </trkpt>
      <trkpt lat="47.11098" lon="4.67202">
        <ele>1328</ele>
        <time>2014-03-17T17:28:25Z</time>
      </trkpt>
      <trkpt lat="47.11094" lon="4.67196">
        <ele>1328</ele>
        <time>2014-03-17T17:28:30Z</time>
      </trkpt>
      <trkpt lat="47.11092" lon="4.67192">
        <ele>1328</ele>
        <time>2014-03-17T17:28:32Z</time>
      </trkpt>
      <trkpt lat="47.1109" lon="4.67189">
        <ele>1328</ele>
        <time>2014-03-17T17:28:34Z</time>
      </trkpt>
      <trkpt lat="47.11088" lon="4.67183">
        <ele>1328</ele>
        <time>2014-03-17T17:28:38Z</time>
      </trkpt>
      <trkpt lat="47.11086" lon="4.6718">
        <ele>1328</ele>
        <time>2014-03-17T17:28:41Z</time>
      </trkpt>
      <trkpt lat="47.11085" lon="4.67175">
        <ele>1328</ele>
        <time>2014-03-17T17:28:43Z</time>
      </trkpt>
      <trkpt lat="47.11082" lon="4.67169">
        <ele>1328</ele>
        <time>2014-03-17T17:28:47Z</time>
      </trkpt>
      <trkpt lat="47.11081" lon="4.67166">
        <ele>1328</ele>
        <time>2014-03-17T17:28:49Z</time>
      </trkpt>
      <trkpt lat="47.11079" lon="4.67161">
        <ele>1328</ele>
        <time>2014-03-17T17:28:52Z</time>
      </trkpt>
      <trkpt lat="47.11077" lon="4.67154">
        <ele>1328</ele>
        <time>2014-03-17T17:28:56Z</time>
      </trkpt>
      <trkpt lat="47.11076" lon="4.67151">
        <ele>1328</ele>
        <time>2014-03-17T17:28:58Z</time>
      </trkpt>
      <trkpt lat="47.11075" lon="4.67148">
        <ele>1328</ele>
        <time>2014-03-17T17:29:01Z</time>
      </trkpt>
      <trkpt lat="47.11072" lon="4.67141">
        <ele>1328</ele>
        <time>2014-03-17T17:29:05Z</time>
      </trkpt>
      <trkpt lat="47.11071" lon="4.67138">
        <ele>1328</ele>
        <time>2014-03-17T17:29:07Z</time>
      </trkpt>
      <trkpt lat="47.1107" lon="4.67135">
        <ele>1328</ele>
        <time>2014-03-17T17:29:09Z</time>
      </trkpt>
      <trkpt lat="47.11067" lon="4.67127">
        <ele>1328</ele>
        <time>2014-03-17T17:29:14Z</time>
      </trkpt>
      <trkpt lat="47.11066" lon="4.67124">
        <ele>1328</ele>
        <time>2014-03-17T17:29:16Z</time>
      </trkpt>
      <trkpt lat="47.11065" lon="4.6712">
        <ele>1328</ele>
        <time>2014-03-17T17:29:18Z</time>
      </trkpt>
      <trkpt lat="47.11062" lon="4.67113">
        <ele>1328</ele>
        <time>2014-03-17T17:29:23Z</time>
      </trkpt>
      <trkpt lat="47.11061" lon="4.6711">
        <ele>1328</ele>
        <time>2014-03-17T17:29:25Z</time>
      </trkpt>
      <trkpt lat="47.11059" lon="4.67106">
        <ele>1328</ele>
        <time>2014-03-17T17:29:27Z</time>
      </trkpt>
      <trkpt lat="47.11057" lon="4.671">
        <ele>1328</ele>
        <time>2014-03-17T17:29:32Z</time>
      </trkpt>
      <trkpt lat="47.11055" lon="4.67095">
        <ele>1328</ele>
        <time>2014-03-17T17:29:34Z</time>
      </trkpt>
      <trkpt lat="47.11054" lon="4.67091">
        <ele>1328</ele>
        <time>2014-03-17T17:29:36Z</time>
      </trkpt>
      <trkpt lat="47.11052" lon="4.67085">
        <ele>1328</ele>
        <time>2014-03-17T17:29:40Z</time>
      </trkpt>
      <trkpt lat="47.11051" lon="4.67082">
        <ele>1328</ele>
        <time>2014-03-17T17:29:43Z</time>
      </trkpt>
      <trkpt lat="47.1105" lon="4.67077">
        <ele>1328</ele>
        <time>2014-03-17T17:29:45Z</time>
      </trkpt>
      <trkpt lat="47.11049" lon="4.67073">
        <ele>1328</ele>
        <time>2014-03-17T17:29:47Z</time>
      </trkpt>
      <trkpt lat="47.11046" lon="4.67067">
        <ele>1328</ele>
        <time>2014-03-17T17:29:51Z</time>
      </trkpt>
      <trkpt lat="47.11044" lon="4.67062">
        <ele>1328</ele>
        <time>2014-03-17T17:29:54Z</time>
      </trkpt>
      <trkpt lat="47.11043" lon="4.67059">
        <ele>1328</ele>
        <time>2014-03-17T17:29:56Z</time>
      </trkpt>
      <trkpt lat="47.11041" lon="4.67052">
        <ele>1328</ele>
        <time>2014-03-17T17:30:00Z</time>
      </trkpt>
      <trkpt lat="47.1104" lon="4.67049">
        <ele>1328</ele>
        <time>2014-03-17T17:30:03Z</time>
      </trkpt>
      <trkpt lat="47.11038" lon="4.67045">
        <ele>1328</ele>
        <time>2014-03-17T17:30:05Z</time>
      </trkpt>
      <trkpt lat="47.11036" lon="4.67038">
        <ele>1328</ele>
        <time>2014-03-17T17:30:09Z</time>
      </trkpt>
      <trkpt lat="47.11034" lon="4.67035">
        <ele>1328</ele>
        <time>2014-03-17T17:30:11Z</time>
      </trkpt>
      <trkpt lat="47.11033" lon="4.67031">
        <ele>1328</ele>
        <time>2014-03-17T17:30:14Z</time>
      </trkpt>
      <trkpt lat="47.1103" lon="4.67023">
        <ele>1328</ele>
        <time>2014-03-17T17:30:18Z</time>
      </trkpt>
      <trkpt lat="47.11029" lon="4.67019">
        <ele>1328</ele>
        <time>2014-03-17T17:30:20Z</time>
      </trkpt>
      <trkpt lat="47.11028" lon="4.67016">
        <ele>1328</ele>
        <time>2014-03-17T17:30:22Z</time>
      </trkpt>
      <trkpt lat="47.11025" lon="4.67007">
        <ele>1328</ele>
        <time>2014-03-17T17:30:27Z</time>
      </trkpt>
      <trkpt lat="47.11024" lon="4.67004">
        <ele>1328</ele>
        <time>2014-03-17T17:30:29Z</time>
      </trkpt>
      <trkpt lat="47.11023" lon="4.67">
        <ele>1328</ele>
        <time>2014-03-17T17:30:31Z</time>
      </trkpt>
      <trkpt lat="47.11021" lon="4.66991">
        <ele>1328</ele>
        <time>2014-03-17T17:30:36Z</time>
      </trkpt>
      <trkpt lat="47.1102" lon="4.66988">
        <ele>1328</ele>
        <time>2014-03-17T17:30:38Z</time>
      </trkpt>
      <trkpt lat="47.11019" lon="4.66985">
        <ele>1328</ele>
        <time>2014-03-17T17:30:40Z</time>
      </trkpt>
      <trkpt lat="47.11016" lon="4.66976">
        <ele>1328</ele>
        <time>2014-03-17T17:30:45Z</time>
      </trkpt>
      <trkpt lat="47.11015" lon="4.66973">
        <ele>1328</ele>
        <time>2014-03-17T17:30:47Z</time>
      </trkpt>
      <trkpt lat="47.11014" lon="4.6697">
        <ele>1328</ele>
        <time>2014-03-17T17:30:49Z</time>
      </trkpt>
      <trkpt lat="47.11012" lon="4.66963">
        <ele>1328</ele>
        <time>2014-03-17T17:30:53Z</time>
      </trkpt>
      <trkpt lat="47.11011" lon="4.6696">
        <ele>1328</ele>
        <time>2014-03-17T17:30:56Z</time>
      </trkpt>
      <trkpt lat="47.11009" lon="4.66955">
        <ele>1328</ele>
        <time>2014-03-17T17:30:58Z</time>
      </trkpt>
      <trkpt lat="47.11007" lon="4.66948">
        <ele>1328</ele>
        <time>2014-03-17T17:31:02Z</time>
      </trkpt>
      <trkpt lat="47.11006" lon="4.66945">
        <ele>1328</ele>
        <time>2014-03-17T17:31:04Z</time>
      </trkpt>
      <trkpt lat="47.11004" lon="4.6694">
        <ele>1328</ele>
        <time>2014-03-17T17:31:07Z</time>
      </trkpt>
      <trkpt lat="47.11001" lon="4.66934">
        <ele>1328</ele>
        <time>2014-03-17T17:31:11Z</time>
      </trkpt>
      <trkpt lat="47.10999" lon="4.66931">
        <ele>1328</ele>
        <time>2014-03-17T17:31:13Z</time>
      </trkpt>
      <trkpt lat="47.10998" lon="4.66929">
        <ele>1328</ele>
        <time>2014-03-17T17:31:16Z</time>
      </trkpt>
      <trkpt lat="47.10993" lon="4.66922">
        <ele>1328</ele>
        <time>2014-03-17T17:31:20Z</time>
      </trkpt>
      <trkpt lat="47.10991" lon="4.66919">
        <ele>1328</ele>
        <time>2014-03-17T17:31:22Z</time>
      </trkpt>
      <trkpt lat="47.10989" lon="4.66916">
        <ele>1328</ele>
        <time>2014-03-17T17:31:24Z</time>
      </trkpt>
      <trkpt lat="47.10983" lon="4.6691">
        <ele>1328</ele>
        <time>2014-03-17T17:31:29Z</time>
      </trkpt>
      <trkpt lat="47.10981" lon="4.6691">
        <ele>1328</ele>
        <time>2014-03-17T17:31:31Z</time>
      </trkpt>
      <trkpt lat="47.10979" lon="4.66911">
        <ele>1328</ele>
        <time>2014-03-17T17:31:33Z</time>
      </trkpt>
      <trkpt lat="47.10973" lon="4.66913">
        <ele>1328</ele>
        <time>2014-03-17T17:31:38Z</time>
      </trkpt>
      <trkpt lat="47.1097" lon="4.66914">
        <ele>1328</ele>
        <time>2014-03-17T17:31:40Z</time>
      </trkpt>
      <trkpt lat="47.10967" lon="4.66915">
        <ele>1328</ele>
        <time>2014-03-17T17:31:42Z</time>
      </trkpt>
      <trkpt lat="47.10962" lon="4.66918">
        <ele>1328</ele>
        <time>2014-03-17T17:31:47Z</time>
      </trkpt>
      <trkpt lat="47.10958" lon="4.6692">
        <ele>1328</ele>
        <time>2014-03-17T17:31:49Z</time>
      </trkpt>
      <trkpt lat="47.10955" lon="4.66921">
        <ele>1328</ele>
        <time>2014-03-17T17:31:51Z</time>
      </trkpt>
      <trkpt lat="47.1095" lon="4.66923">
        <ele>1328</ele>
        <time>2014-03-17T17:31:55Z</time>
      </trkpt>
      <trkpt lat="47.10947" lon="4.66925">
        <ele>1328</ele>
        <time>2014-03-17T17:31:58Z</time>
      </trkpt>
      <trkpt lat="47.10944" lon="4.66925">
        <ele>1328</ele>
        <time>2014-03-17T17:32:00Z</time>
      </trkpt>
      <trkpt lat="47.10942" lon="4.66926">
        <ele>1328</ele>
        <time>2014-03-17T17:32:02Z</time>
      </trkpt>
      <trkpt lat="47.10937" lon="4.66928">
        <ele>1328</ele>
        <time>2014-03-17T17:32:07Z</time>
      </trkpt>
      <trkpt lat="47.10933" lon="4.66929">
        <ele>1328</ele>
        <time>2014-03-17T17:32:09Z</time>
      </trkpt>
      <trkpt lat="47.10931" lon="4.6693">
        <ele>1328</ele>
        <time>2014-03-17T17:32:11Z</time>
      </trkpt>
      <trkpt lat="47.10925" lon="4.66932">
        <ele>1328</ele>
        <time>2014-03-17T17:32:15Z</time>
      </trkpt>
      <trkpt lat="47.10923" lon="4.66933">
        <ele>1328</ele>
        <time>2014-03-17T17:32:18Z</time>
      </trkpt>
      <trkpt lat="47.10919" lon="4.66935">
        <ele>1328</ele>
        <time>2014-03-17T17:32:20Z</time>
      </trkpt>
      <trkpt lat="47.10914" lon="4.66937">
        <ele>1328</ele>
        <time>2014-03-17T17:32:24Z</time>
      </trkpt>
      <trkpt lat="47.10912" lon="4.66938">
        <ele>1328</ele>
        <time>2014-03-17T17:32:26Z</time>
      </trkpt>
      <trkpt lat="47.10908" lon="4.66939">
        <ele>1328</ele>
        <time>2014-03-17T17:32:29Z</time>
      </trkpt>
      <trkpt lat="47.10903" lon="4.66941">
        <ele>1328</ele>
        <time>2014-03-17T17:32:33Z</time>
      </trkpt>
      <trkpt lat="47.10901" lon="4.66942">
        <ele>1328</ele>
        <time>2014-03-17T17:32:35Z</time>
      </trkpt>
      <trkpt lat="47.10898" lon="4.66943">
        <ele>1328</ele>
        <time>2014-03-17T17:32:38Z</time>
      </trkpt>
      <trkpt lat="47.10892" lon="4.66946">
        <ele>1328</ele>
        <time>2014-03-17T17:32:42Z</time>
      </trkpt>
      <trkpt lat="47.10889" lon="4.66947">
        <ele>1328</ele>
        <time>2014-03-17T17:32:44Z</time>
      </trkpt>
      <trkpt lat="47.10887" lon="4.66948">
        <ele>1328</ele>
        <time>2014-03-17T17:32:46Z</time>
      </trkpt>
      <trkpt lat="47.1088" lon="4.66951">
        <ele>1328</ele>
        <time>2014-03-17T17:32:51Z</time>
      </trkpt>
      <trkpt lat="47.10878" lon="4.66952">
        <ele>1328</ele>
        <time>2014-03-17T17:32:53Z</time>
      </trkpt>
      <trkpt lat="47.10875" lon="4.66953">
        <ele>1328</ele>
        <time>2014-03-17T17:32:55Z</time>
      </trkpt>
      <trkpt lat="47.10869" lon="4.66956">
        <ele>1328</ele>
        <time>2014-03-17T17:33:00Z</time>
      </trkpt>
      <trkpt lat="47.10866" lon="4.66957">
        <ele>1328</ele>
        <time>2014-03-17T17:33:02Z</time>
      </trkpt>
      <trkpt lat="47.10864" lon="4.66958">
        <ele>1328</ele>
        <time>2014-03-17T17:33:04Z</time>
      </trkpt>
      <trkpt lat="47.10859" lon="4.6696">
        <ele>1328</ele>
        <time>2014-03-17T17:33:09Z</time>
      </trkpt>
      <trkpt lat="47.10855" lon="4.66962">
        <ele>1328</ele>
        <time>2014-03-17T17:33:11Z</time>
      </trkpt>
      <trkpt lat="47.10853" lon="4.66963">
        <ele>1328</ele>
        <time>2014-03-17T17:33:13Z</time>
      </trkpt>
      <trkpt lat="47.10848" lon="4.66964">
        <ele>1328</ele>
        <time>2014-03-17T17:33:17Z</time>
      </trkpt>
      <trkpt lat="47.10846" lon="4.66965">
        <ele>1328</ele>
        <time>2014-03-17T17:33:20Z</time>
      </trkpt>
      <trkpt lat="47.10842" lon="4.66967">
        <ele>1328</ele>
        <time>2014-03-17T17:33:22Z</time>
      </trkpt>
      <trkpt lat="47.10837" lon="4.66969">
        <ele>1328</ele>
        <time>2014-03-17T17:33:26Z</time>
      </trkpt>
      <trkpt lat="47.10835" lon="4.6697">
        <ele>1328</ele>
        <time>2014-03-17T17:33:28Z</time>
      </trkpt>
      <trkpt lat="47.10831" lon="4.66972">
        <ele>1328</ele>
        <time>2014-03-17T17:33:31Z</time>
      </trkpt>
      <trkpt lat="47.10826" lon="4.66974">
        <ele>1328</ele>
        <time>2014-03-17T17:33:35Z</time>
      </trkpt>
      <trkpt lat="47.10824" lon="4.66975">
        <ele>1328</ele>
        <time>2014-03-17T17:33:37Z</time>
      </trkpt>
      <trkpt lat="47.10821" lon="4.66976">
        <ele>1328</ele>
        <time>2014-03-17T17:33:40Z</time>
      </trkpt>
      <trkpt lat="47.10815" lon="4.66979">
        <ele>1328</ele>
        <time>2014-03-17T17:33:44Z</time>
      </trkpt>
      <trkpt lat="47.10812" lon="4.66979">
        <ele>1328</ele>
        <time>2014-03-17T17:33:46Z</time>
      </trkpt>
      <trkpt lat="47.1081" lon="4.66981">
        <ele>1328</ele>
        <time>2014-03-17T17:33:48Z</time>
      </trkpt>
      <trkpt lat="47.10803" lon="4.66984">
        <ele>1328</ele>
        <time>2014-03-17T17:33:53Z</time>
      </trkpt>
      <trkpt lat="47.10801" lon="4.66984">
        <ele>1328</ele>
        <time>2014-03-17T17:33:55Z</time>
      </trkpt>
      <trkpt lat="47.10798" lon="4.66985">
        <ele>1328</ele>
        <time>2014-03-17T17:33:57Z</time>
      </trkpt>
      <trkpt lat="47.10792" lon="4.66987">
        <ele>1328</ele>
        <time>2014-03-17T17:34:02Z</time>
      </trkpt>
      <trkpt lat="47.10789" lon="4.66986">
        <ele>1328</ele>
        <time>2014-03-17T17:34:04Z</time>
      </trkpt>
      <trkpt lat="47.10786" lon="4.66986">
        <ele>1328</ele>
        <time>2014-03-17T17:34:06Z</time>
      </trkpt>
      <trkpt lat="47.10783" lon="4.66986">
        <ele>1328</ele>
        <time>2014-03-17T17:34:08Z</time>
      </trkpt>
      <trkpt lat="47.10778" lon="4.66987">
        <ele>1328</ele>
        <time>2014-03-17T17:34:13Z</time>
      </trkpt>
      <trkpt lat="47.10775" lon="4.66988">
        <ele>1328</ele>
        <time>2014-03-17T17:34:15Z</time>
      </trkpt>
      <trkpt lat="47.10773" lon="4.66988">
        <ele>1328</ele>
        <time>2014-03-17T17:34:17Z</time>
      </trkpt>
      <trkpt lat="47.10768" lon="4.66989">
        <ele>1328</ele>
        <time>2014-03-17T17:34:22Z</time>
      </trkpt>
      <trkpt lat="47.10764" lon="4.6699">
        <ele>1328</ele>
        <time>2014-03-17T17:34:24Z</time>
      </trkpt>
      <trkpt lat="47.10761" lon="4.66991">
        <ele>1328</ele>
        <time>2014-03-17T17:34:26Z</time>
      </trkpt>
      <trkpt lat="47.10756" lon="4.66992">
        <ele>1328</ele>
        <time>2014-03-17T17:34:30Z</time>
      </trkpt>
      <trkpt lat="47.10752" lon="4.66991">
        <ele>1328</ele>
        <time>2014-03-17T17:34:33Z</time>
      </trkpt>
      <trkpt lat="47.1075" lon="4.66992">
        <ele>1328</ele>
        <time>2014-03-17T17:34:35Z</time>
      </trkpt>
      <trkpt lat="47.10745" lon="4.66993">
        <ele>1328</ele>
        <time>2014-03-17T17:34:39Z</time>
      </trkpt>
      <trkpt lat="47.10743" lon="4.66994">
        <ele>1328</ele>
        <time>2014-03-17T17:34:42Z</time>
      </trkpt>
      <trkpt lat="47.10739" lon="4.66996">
        <ele>1328</ele>
        <time>2014-03-17T17:34:44Z</time>
      </trkpt>
      <trkpt lat="47.10734" lon="4.66997">
        <ele>1328</ele>
        <time>2014-03-17T17:34:48Z</time>
      </trkpt>
      <trkpt lat="47.10731" lon="4.66998">
        <ele>1328</ele>
        <time>2014-03-17T17:34:50Z</time>
      </trkpt>
      <trkpt lat="47.10729" lon="4.66999">
        <ele>1328</ele>
        <time>2014-03-17T17:34:53Z</time>
      </trkpt>
      <trkpt lat="47.10723" lon="4.67001">
        <ele>1328</ele>
        <time>2014-03-17T17:34:57Z</time>
      </trkpt>
      <trkpt lat="47.10721" lon="4.67001">
        <ele>1328</ele>
        <time>2014-03-17T17:34:59Z</time>
      </trkpt>
      <trkpt lat="47.10719" lon="4.67001">
        <ele>1328</ele>
        <time>2014-03-17T17:35:01Z</time>
      </trkpt>
      <trkpt lat="47.10712" lon="4.67001">
        <ele>1328</ele>
        <time>2014-03-17T17:35:06Z</time>
      </trkpt>
      <trkpt lat="47.10709" lon="4.67001">
        <ele>1328</ele>
        <time>2014-03-17T17:35:08Z</time>
      </trkpt>
      <trkpt lat="47.10706" lon="4.67001">
        <ele>1328</ele>
        <time>2014-03-17T17:35:10Z</time>
      </trkpt>
      <trkpt lat="47.107" lon="4.67001">
        <ele>1328</ele>
        <time>2014-03-17T17:35:15Z</time>
      </trkpt>
      <trkpt lat="47.10698" lon="4.67001">
        <ele>1328</ele>
        <time>2014-03-17T17:35:17Z</time>
      </trkpt>
      <trkpt lat="47.10695" lon="4.67">
        <ele>1328</ele>
        <time>2014-03-17T17:35:19Z</time>
      </trkpt>
      <trkpt lat="47.1069" lon="4.67001">
        <ele>1328</ele>
        <time>2014-03-17T17:35:24Z</time>
      </trkpt>
      <trkpt lat="47.10686" lon="4.67">
        <ele>1328</ele>
        <time>2014-03-17T17:35:26Z</time>
      </trkpt>
      <trkpt lat="47.10684" lon="4.67001">
        <ele>1328</ele>
        <time>2014-03-17T17:35:28Z</time>
      </trkpt>
      <trkpt lat="47.10678" lon="4.67001">
        <ele>1328</ele>
        <time>2014-03-17T17:35:32Z</time>
      </trkpt>
      <trkpt lat="47.10674" lon="4.67001">
        <ele>1328</ele>
        <time>2014-03-17T17:35:35Z</time>
      </trkpt>
      <trkpt lat="47.10671" lon="4.67001">
        <ele>1328</ele>
        <time>2014-03-17T17:35:37Z</time>
      </trkpt>
      <trkpt lat="47.10666" lon="4.67001">
        <ele>1328</ele>
        <time>2014-03-17T17:35:41Z</time>
      </trkpt>
      <trkpt lat="47.10663" lon="4.67">
        <ele>1328</ele>
        <time>2014-03-17T17:35:44Z</time>
      </trkpt>
      <trkpt lat="47.10659" lon="4.67001">
        <ele>1328</ele>
        <time>2014-03-17T17:35:46Z</time>
      </trkpt>
      <trkpt lat="47.10653" lon="4.67">
        <ele>1328</ele>
        <time>2014-03-17T17:35:50Z</time>
      </trkpt>
      <trkpt lat="47.1065" lon="4.67">
        <ele>1328</ele>
        <time>2014-03-17T17:35:52Z</time>
      </trkpt>
      <trkpt lat="47.10648" lon="4.66999">
        <ele>1328</ele>
        <time>2014-03-17T17:35:55Z</time>
      </trkpt>
      <trkpt lat="47.10641" lon="4.67001">
        <ele>1328</ele>
        <time>2014-03-17T17:35:59Z</time>
      </trkpt>
      <trkpt lat="47.10639" lon="4.67001">
        <ele>1328</ele>
        <time>2014-03-17T17:36:01Z</time>
      </trkpt>
      <trkpt lat="47.10637" lon="4.67001">
        <ele>1328</ele>
        <time>2014-03-17T17:36:03Z</time>
      </trkpt>
      <trkpt lat="47.1063" lon="4.67001">
        <ele>1328</ele>
        <time>2014-03-17T17:36:08Z</time>
      </trkpt>
      <trkpt lat="47.10627" lon="4.67001">
        <ele>1328</ele>
        <time>2014-03-17T17:36:10Z</time>
      </trkpt>
      <trkpt lat="47.10625" lon="4.67002">
        <ele>1328</ele>
        <time>2014-03-17T17:36:12Z</time>
      </trkpt>
      <trkpt lat="47.10622" lon="4.67003">
        <ele>1328</ele>
        <time>2014-03-17T17:36:15Z</time>
      </trkpt>
      <trkpt lat="47.10616" lon="4.67005">
        <ele>1328</ele>
        <time>2014-03-17T17:36:19Z</time>
      </trkpt>
      <trkpt lat="47.10614" lon="4.67007">
        <ele>1328</ele>
        <time>2014-03-17T17:36:21Z</time>
      </trkpt>
      <trkpt lat="47.10611" lon="4.67008">
        <ele>1328</ele>
        <time>2014-03-17T17:36:23Z</time>
      </trkpt>
      <trkpt lat="47.10605" lon="4.6701">
        <ele>1328</ele>
        <time>2014-03-17T17:36:28Z</time>
      </trkpt>
      <trkpt lat="47.10602" lon="4.67011">
        <ele>1328</ele>
        <time>2014-03-17T17:36:30Z</time>
      </trkpt>
      <trkpt lat="47.106" lon="4.67013">
        <ele>1328</ele>
        <time>2014-03-17T17:36:32Z</time>
      </trkpt>
      <trkpt lat="47.10594" lon="4.67015">
        <ele>1328</ele>
        <time>2014-03-17T17:36:37Z</time>
      </trkpt>
      <trkpt lat="47.10591" lon="4.67017">
        <ele>1328</ele>
        <time>2014-03-17T17:36:39Z</time>
      </trkpt>
      <trkpt lat="47.10589" lon="4.67018">
        <ele>1328</ele>
        <time>2014-03-17T17:36:41Z</time>
      </trkpt>
      <trkpt lat="47.10584" lon="4.6702">
        <ele>1328</ele>
        <time>2014-03-17T17:36:46Z</time>
      </trkpt>
      <trkpt lat="47.1058" lon="4.67018">
        <ele>1328</ele>
        <time>2014-03-17T17:36:48Z</time>
      </trkpt>
      <trkpt lat="47.10578" lon="4.67017">
        <ele>1328</ele>
        <time>2014-03-17T17:36:50Z</time>
      </trkpt>
      <trkpt lat="47.10574" lon="4.67013">
        <ele>1328</ele>
        <time>2014-03-17T17:36:54Z</time>
      </trkpt>
      <trkpt lat="47.10572" lon="4.67011">
        <ele>1328</ele>
        <time>2014-03-17T17:36:57Z</time>
      </trkpt>
      <trkpt lat="47.10569" lon="4.67007">
        <ele>1328</ele>
        <time>2014-03-17T17:36:59Z</time>
      </trkpt>
      <trkpt lat="47.10566" lon="4.67002">
        <ele>1328</ele>
        <time>2014-03-17T17:37:03Z</time>
      </trkpt>
      <trkpt lat="47.10565" lon="4.67">
        <ele>1328</ele>
        <time>2014-03-17T17:37:05Z</time>
      </trkpt>
      <trkpt lat="47.10562" lon="4.66998">
        <ele>1328</ele>
        <time>2014-03-17T17:37:08Z</time>
      </trkpt>
      <trkpt lat="47.10561" lon="4.66996">
        <ele>1328</ele>
        <time>2014-03-17T17:37:12Z</time>
      </trkpt>
      <trkpt lat="47.10561" lon="4.66996">
        <ele>1328</ele>
        <time>2014-03-17T17:37:14Z</time>
      </trkpt>
      <trkpt lat="47.10561" lon="4.66996">
        <ele>1328</ele>
        <time>2014-03-17T17:37:17Z</time>
      </trkpt>
      <trkpt lat="47.10561" lon="4.66997">
        <ele>1328</ele>
        <time>2014-03-17T17:37:21Z</time>
      </trkpt>
      <trkpt lat="47.10561" lon="4.66997">
        <ele>1328</ele>
        <time>2014-03-17T17:37:23Z</time>
      </trkpt>
      <trkpt lat="47.1056" lon="4.66997">
        <ele>1328</ele>
        <time>2014-03-17T17:37:25Z</time>
      </trkpt>
      <trkpt lat="47.1056" lon="4.66996">
        <ele>1328</ele>
        <time>2014-03-17T17:37:30Z</time>
      </trkpt>
      <trkpt lat="47.1056" lon="4.66996">
        <ele>1328</ele>
        <time>2014-03-17T17:37:32Z</time>
      </trkpt>
      <trkpt lat="47.10561" lon="4.66995">
        <ele>1328</ele>
        <time>2014-03-17T17:37:34Z</time>
      </trkpt>
      <trkpt lat="47.10561" lon="4.66995">
        <ele>1328</ele>
        <time>2014-03-17T17:37:39Z</time>
      </trkpt>
      <trkpt lat="47.10561" lon="4.66995">
        <ele>1328</ele>
        <time>2014-03-17T17:37:41Z</time>
      </trkpt>
      <trkpt lat="47.10562" lon="4.66995">
        <ele>1328</ele>
        <time>2014-03-17T17:37:43Z</time>
      </trkpt>
      <trkpt lat="47.10562" lon="4.66996">
        <ele>1328</ele>
        <time>2014-03-17T17:37:48Z</time>
      </trkpt>
      <trkpt lat="47.10562" lon="4.66997">
        <ele>1328</ele>
        <time>2014-03-17T17:37:50Z</time>
      </trkpt>
      <trkpt lat="47.10563" lon="4.66997">
        <ele>1328</ele>
        <time>2014-03-17T17:37:52Z</time>
      </trkpt>
      <trkpt lat="47.10563" lon="4.66998">
        <ele>1328</ele>
        <time>2014-03-17T17:37:56Z</time>
      </trkpt>
      <trkpt lat="47.10563" lon="4.66999">
        <ele>1328</ele>
        <time>2014-03-17T17:37:59Z</time>
      </trkpt>
      <trkpt lat="47.10563" lon="4.66999">
        <ele>1328</ele>
        <time>2014-03-17T17:38:01Z</time>
      </trkpt>
      <trkpt lat="47.10564" lon="4.67">
        <ele>1328</ele>
        <time>2014-03-17T17:38:05Z</time>
      </trkpt>
      <trkpt lat="47.10564" lon="4.67">
        <ele>1328</ele>
        <time>2014-03-17T17:38:07Z</time>
      </trkpt>
      <trkpt lat="47.10565" lon="4.67001">
        <ele>1328</ele>
        <time>2014-03-17T17:38:10Z</time>
      </trkpt>
      <trkpt lat="47.10566" lon="4.67001">
        <ele>1328</ele>
        <time>2014-03-17T17:38:14Z</time>
      </trkpt>
      <trkpt lat="47.10567" lon="4.67001">
        <ele>1328</ele>
        <time>2014-03-17T17:38:16Z</time>
      </trkpt>
      <trkpt lat="47.10567" lon="4.67">
        <ele>1328</ele>
        <time>2014-03-17T17:38:18Z</time>
      </trkpt>
      <trkpt lat="47.10565" lon="4.67">
        <ele>1328</ele>
        <time>2014-03-17T17:38:21Z</time>
      </trkpt>
    </trkseg>
  </trk>
</gpx>